<?xml version="1.0" encoding="UTF-8" standalone="no" ?>
<gpx xmlns="http://www.topografix.com/GPX/1/1" xmlns:xsi="http://www.w3.org/2001/XMLSchema-instance" xsi:schemaLocation="http://www.topografix.com/GPX/1/1 http://www.topografix.com/GPX/1/1/gpx.xsd" version="1.1" creator="VisuGPX - https://www.visugpx.com">
  <metadata>
    <name>Croix de chirol cret chaussitre et perdrix</name>
  </metadata>
  <trk>
    <name><![CDATA[Croix de chirol cret chaussitre et perdrix]]></name>
    <trkseg>
      <trkpt lat="45.29362" lon="4.61041">
        <ele>478</ele>
        <time>2018-05-24T06:23:54Z</time>
      </trkpt>
      <trkpt lat="45.29361" lon="4.6104">
        <ele>478</ele>
        <time>2018-05-24T06:23:57Z</time>
      </trkpt>
      <trkpt lat="45.29359" lon="4.61039">
        <ele>477.79998779297</ele>
        <time>2018-05-24T06:24:12Z</time>
      </trkpt>
      <trkpt lat="45.29355" lon="4.61042">
        <ele>477.79998779297</ele>
        <time>2018-05-24T06:24:29Z</time>
      </trkpt>
      <trkpt lat="45.29322" lon="4.61075">
        <ele>476</ele>
        <time>2018-05-24T06:24:39Z</time>
      </trkpt>
      <trkpt lat="45.29307" lon="4.61089">
        <ele>474.60000610352</ele>
        <time>2018-05-24T06:24:42Z</time>
      </trkpt>
      <trkpt lat="45.29287" lon="4.61087">
        <ele>470.79998779297</ele>
        <time>2018-05-24T06:24:47Z</time>
      </trkpt>
      <trkpt lat="45.29287" lon="4.61069">
        <ele>470.79998779297</ele>
        <time>2018-05-24T06:24:51Z</time>
      </trkpt>
      <trkpt lat="45.29287" lon="4.61038">
        <ele>470.79998779297</ele>
        <time>2018-05-24T06:24:57Z</time>
      </trkpt>
      <trkpt lat="45.29285" lon="4.61013">
        <ele>470.79998779297</ele>
        <time>2018-05-24T06:25:01Z</time>
      </trkpt>
      <trkpt lat="45.29286" lon="4.6097">
        <ele>470.79998779297</ele>
        <time>2018-05-24T06:25:08Z</time>
      </trkpt>
      <trkpt lat="45.29287" lon="4.60888">
        <ele>470.79998779297</ele>
        <time>2018-05-24T06:25:21Z</time>
      </trkpt>
      <trkpt lat="45.2926" lon="4.60793">
        <ele>470.79998779297</ele>
        <time>2018-05-24T06:25:37Z</time>
      </trkpt>
      <trkpt lat="45.29241" lon="4.60765">
        <ele>470.79998779297</ele>
        <time>2018-05-24T06:25:43Z</time>
      </trkpt>
      <trkpt lat="45.29223" lon="4.60743">
        <ele>470</ele>
        <time>2018-05-24T06:25:49Z</time>
      </trkpt>
      <trkpt lat="45.29221" lon="4.60715">
        <ele>468.60000610352</ele>
        <time>2018-05-24T06:25:54Z</time>
      </trkpt>
      <trkpt lat="45.29221" lon="4.60693">
        <ele>468.60000610352</ele>
        <time>2018-05-24T06:25:58Z</time>
      </trkpt>
      <trkpt lat="45.2922" lon="4.60681">
        <ele>468.60000610352</ele>
        <time>2018-05-24T06:26:00Z</time>
      </trkpt>
      <trkpt lat="45.29212" lon="4.60617">
        <ele>468.60000610352</ele>
        <time>2018-05-24T06:26:11Z</time>
      </trkpt>
      <trkpt lat="45.29205" lon="4.60485">
        <ele>470.60000610352</ele>
        <time>2018-05-24T06:26:34Z</time>
      </trkpt>
      <trkpt lat="45.29183" lon="4.60344">
        <ele>472.60000610352</ele>
        <time>2018-05-24T06:27:01Z</time>
      </trkpt>
      <trkpt lat="45.29172" lon="4.60311">
        <ele>472.60000610352</ele>
        <time>2018-05-24T06:27:08Z</time>
      </trkpt>
      <trkpt lat="45.29148" lon="4.60264">
        <ele>474.60000610352</ele>
        <time>2018-05-24T06:27:19Z</time>
      </trkpt>
      <trkpt lat="45.29078" lon="4.60172">
        <ele>476.60000610352</ele>
        <time>2018-05-24T06:27:47Z</time>
      </trkpt>
      <trkpt lat="45.29014" lon="4.60127">
        <ele>478.60000610352</ele>
        <time>2018-05-24T06:28:06Z</time>
      </trkpt>
      <trkpt lat="45.28964" lon="4.60099">
        <ele>479</ele>
        <time>2018-05-24T06:28:18Z</time>
      </trkpt>
      <trkpt lat="45.28947" lon="4.60089">
        <ele>480.60000610352</ele>
        <time>2018-05-24T06:28:22Z</time>
      </trkpt>
      <trkpt lat="45.28922" lon="4.60067">
        <ele>480.60000610352</ele>
        <time>2018-05-24T06:28:29Z</time>
      </trkpt>
      <trkpt lat="45.2891" lon="4.60054">
        <ele>480.60000610352</ele>
        <time>2018-05-24T06:28:33Z</time>
      </trkpt>
      <trkpt lat="45.28878" lon="4.60015">
        <ele>482.79998779297</ele>
        <time>2018-05-24T06:28:43Z</time>
      </trkpt>
      <trkpt lat="45.28832" lon="4.59937">
        <ele>483.20001220703</ele>
        <time>2018-05-24T06:29:00Z</time>
      </trkpt>
      <trkpt lat="45.2883" lon="4.59932">
        <ele>483.60000610352</ele>
        <time>2018-05-24T06:29:01Z</time>
      </trkpt>
      <trkpt lat="45.28823" lon="4.59908">
        <ele>484.79998779297</ele>
        <time>2018-05-24T06:29:06Z</time>
      </trkpt>
      <trkpt lat="45.28798" lon="4.59813">
        <ele>486.39999389648</ele>
        <time>2018-05-24T06:29:23Z</time>
      </trkpt>
      <trkpt lat="45.28797" lon="4.59801">
        <ele>486.79998779297</ele>
        <time>2018-05-24T06:29:26Z</time>
      </trkpt>
      <trkpt lat="45.28802" lon="4.59825">
        <ele>486.79998779297</ele>
        <time>2018-05-24T06:29:33Z</time>
      </trkpt>
      <trkpt lat="45.28821" lon="4.59866">
        <ele>488.60000610352</ele>
        <time>2018-05-24T06:29:45Z</time>
      </trkpt>
      <trkpt lat="45.28822" lon="4.59875">
        <ele>489.39999389648</ele>
        <time>2018-05-24T06:29:51Z</time>
      </trkpt>
      <trkpt lat="45.2882" lon="4.59878">
        <ele>491</ele>
        <time>2018-05-24T06:30:05Z</time>
      </trkpt>
      <trkpt lat="45.28817" lon="4.59841">
        <ele>490</ele>
        <time>2018-05-24T06:30:12Z</time>
      </trkpt>
      <trkpt lat="45.28817" lon="4.59829">
        <ele>488.39999389648</ele>
        <time>2018-05-24T06:30:15Z</time>
      </trkpt>
      <trkpt lat="45.28826" lon="4.5982">
        <ele>486.79998779297</ele>
        <time>2018-05-24T06:30:20Z</time>
      </trkpt>
      <trkpt lat="45.28825" lon="4.59786">
        <ele>484.20001220703</ele>
        <time>2018-05-24T06:30:26Z</time>
      </trkpt>
      <trkpt lat="45.2883" lon="4.59767">
        <ele>484.20001220703</ele>
        <time>2018-05-24T06:30:30Z</time>
      </trkpt>
      <trkpt lat="45.28838" lon="4.59743">
        <ele>486.79998779297</ele>
        <time>2018-05-24T06:30:38Z</time>
      </trkpt>
      <trkpt lat="45.28834" lon="4.59717">
        <ele>489.79998779297</ele>
        <time>2018-05-24T06:30:48Z</time>
      </trkpt>
      <trkpt lat="45.28833" lon="4.59712">
        <ele>490.79998779297</ele>
        <time>2018-05-24T06:30:50Z</time>
      </trkpt>
      <trkpt lat="45.2883" lon="4.59703">
        <ele>491.20001220703</ele>
        <time>2018-05-24T06:30:54Z</time>
      </trkpt>
      <trkpt lat="45.28817" lon="4.59689">
        <ele>493.60000610352</ele>
        <time>2018-05-24T06:31:03Z</time>
      </trkpt>
      <trkpt lat="45.28803" lon="4.59682">
        <ele>495.60000610352</ele>
        <time>2018-05-24T06:31:11Z</time>
      </trkpt>
      <trkpt lat="45.2879" lon="4.59679">
        <ele>497.60000610352</ele>
        <time>2018-05-24T06:31:19Z</time>
      </trkpt>
      <trkpt lat="45.28776" lon="4.59673">
        <ele>500.20001220703</ele>
        <time>2018-05-24T06:31:28Z</time>
      </trkpt>
      <trkpt lat="45.28773" lon="4.59673">
        <ele>501.20001220703</ele>
        <time>2018-05-24T06:31:30Z</time>
      </trkpt>
      <trkpt lat="45.28746" lon="4.59673">
        <ele>504.60000610352</ele>
        <time>2018-05-24T06:31:46Z</time>
      </trkpt>
      <trkpt lat="45.28725" lon="4.5969">
        <ele>507.20001220703</ele>
        <time>2018-05-24T06:32:00Z</time>
      </trkpt>
      <trkpt lat="45.28705" lon="4.59709">
        <ele>509.79998779297</ele>
        <time>2018-05-24T06:32:14Z</time>
      </trkpt>
      <trkpt lat="45.28661" lon="4.59722">
        <ele>512</ele>
        <time>2018-05-24T06:32:37Z</time>
      </trkpt>
      <trkpt lat="45.28631" lon="4.59721">
        <ele>514.59997558594</ele>
        <time>2018-05-24T06:32:52Z</time>
      </trkpt>
      <trkpt lat="45.2861" lon="4.59712">
        <ele>517.79998779297</ele>
        <time>2018-05-24T06:33:04Z</time>
      </trkpt>
      <trkpt lat="45.28579" lon="4.59713">
        <ele>520.79998779297</ele>
        <time>2018-05-24T06:33:21Z</time>
      </trkpt>
      <trkpt lat="45.2856" lon="4.59715">
        <ele>523.79998779297</ele>
        <time>2018-05-24T06:33:32Z</time>
      </trkpt>
      <trkpt lat="45.28543" lon="4.59706">
        <ele>526.79998779297</ele>
        <time>2018-05-24T06:33:43Z</time>
      </trkpt>
      <trkpt lat="45.28521" lon="4.59695">
        <ele>530</ele>
        <time>2018-05-24T06:33:58Z</time>
      </trkpt>
      <trkpt lat="45.28505" lon="4.59685">
        <ele>533</ele>
        <time>2018-05-24T06:34:09Z</time>
      </trkpt>
      <trkpt lat="45.28491" lon="4.59658">
        <ele>536.20001220703</ele>
        <time>2018-05-24T06:34:25Z</time>
      </trkpt>
      <trkpt lat="45.28476" lon="4.59627">
        <ele>539.40002441406</ele>
        <time>2018-05-24T06:34:41Z</time>
      </trkpt>
      <trkpt lat="45.2846" lon="4.59582">
        <ele>542.40002441406</ele>
        <time>2018-05-24T06:35:02Z</time>
      </trkpt>
      <trkpt lat="45.28446" lon="4.59557">
        <ele>544.20001220703</ele>
        <time>2018-05-24T06:35:12Z</time>
      </trkpt>
      <trkpt lat="45.28401" lon="4.59456">
        <ele>544.20001220703</ele>
        <time>2018-05-24T06:35:38Z</time>
      </trkpt>
      <trkpt lat="45.28342" lon="4.59394">
        <ele>545</ele>
        <time>2018-05-24T06:35:57Z</time>
      </trkpt>
      <trkpt lat="45.28335" lon="4.59381">
        <ele>546.20001220703</ele>
        <time>2018-05-24T06:36:00Z</time>
      </trkpt>
      <trkpt lat="45.28303" lon="4.59292">
        <ele>546.20001220703</ele>
        <time>2018-05-24T06:36:15Z</time>
      </trkpt>
      <trkpt lat="45.283" lon="4.59286">
        <ele>546.20001220703</ele>
        <time>2018-05-24T06:36:16Z</time>
      </trkpt>
      <trkpt lat="45.28282" lon="4.59234">
        <ele>546.20001220703</ele>
        <time>2018-05-24T06:36:25Z</time>
      </trkpt>
      <trkpt lat="45.28256" lon="4.59138">
        <ele>548.79998779297</ele>
        <time>2018-05-24T06:36:46Z</time>
      </trkpt>
      <trkpt lat="45.28243" lon="4.59117">
        <ele>551.79998779297</ele>
        <time>2018-05-24T06:36:54Z</time>
      </trkpt>
      <trkpt lat="45.28224" lon="4.59096">
        <ele>554.79998779297</ele>
        <time>2018-05-24T06:37:04Z</time>
      </trkpt>
      <trkpt lat="45.28216" lon="4.59085">
        <ele>554.79998779297</ele>
        <time>2018-05-24T06:37:08Z</time>
      </trkpt>
      <trkpt lat="45.28216" lon="4.59035">
        <ele>556.79998779297</ele>
        <time>2018-05-24T06:37:20Z</time>
      </trkpt>
      <trkpt lat="45.28197" lon="4.5896">
        <ele>559.40002441406</ele>
        <time>2018-05-24T06:37:41Z</time>
      </trkpt>
      <trkpt lat="45.28184" lon="4.58897">
        <ele>562.20001220703</ele>
        <time>2018-05-24T06:37:59Z</time>
      </trkpt>
      <trkpt lat="45.28159" lon="4.58832">
        <ele>564.20001220703</ele>
        <time>2018-05-24T06:38:19Z</time>
      </trkpt>
      <trkpt lat="45.28144" lon="4.58814">
        <ele>565</ele>
        <time>2018-05-24T06:38:26Z</time>
      </trkpt>
      <trkpt lat="45.28124" lon="4.58815">
        <ele>566.20001220703</ele>
        <time>2018-05-24T06:38:33Z</time>
      </trkpt>
      <trkpt lat="45.28107" lon="4.5882">
        <ele>569.20001220703</ele>
        <time>2018-05-24T06:38:41Z</time>
      </trkpt>
      <trkpt lat="45.28093" lon="4.5882">
        <ele>571.40002441406</ele>
        <time>2018-05-24T06:38:50Z</time>
      </trkpt>
      <trkpt lat="45.28084" lon="4.58762">
        <ele>571.40002441406</ele>
        <time>2018-05-24T06:39:06Z</time>
      </trkpt>
      <trkpt lat="45.28079" lon="4.58753">
        <ele>572.20001220703</ele>
        <time>2018-05-24T06:39:09Z</time>
      </trkpt>
      <trkpt lat="45.28075" lon="4.58745">
        <ele>573.40002441406</ele>
        <time>2018-05-24T06:39:12Z</time>
      </trkpt>
      <trkpt lat="45.28048" lon="4.58736">
        <ele>576</ele>
        <time>2018-05-24T06:39:28Z</time>
      </trkpt>
      <trkpt lat="45.28024" lon="4.58738">
        <ele>579.20001220703</ele>
        <time>2018-05-24T06:39:41Z</time>
      </trkpt>
      <trkpt lat="45.27985" lon="4.58726">
        <ele>581.79998779297</ele>
        <time>2018-05-24T06:40:04Z</time>
      </trkpt>
      <trkpt lat="45.27959" lon="4.587">
        <ele>585</ele>
        <time>2018-05-24T06:40:21Z</time>
      </trkpt>
      <trkpt lat="45.2794" lon="4.58683">
        <ele>588</ele>
        <time>2018-05-24T06:40:34Z</time>
      </trkpt>
      <trkpt lat="45.27899" lon="4.58668">
        <ele>590.59997558594</ele>
        <time>2018-05-24T06:40:57Z</time>
      </trkpt>
      <trkpt lat="45.27884" lon="4.58663">
        <ele>593.79998779297</ele>
        <time>2018-05-24T06:41:06Z</time>
      </trkpt>
      <trkpt lat="45.27859" lon="4.58648">
        <ele>596.40002441406</ele>
        <time>2018-05-24T06:41:22Z</time>
      </trkpt>
      <trkpt lat="45.27835" lon="4.58638">
        <ele>599.59997558594</ele>
        <time>2018-05-24T06:41:38Z</time>
      </trkpt>
      <trkpt lat="45.27811" lon="4.58631">
        <ele>602.59997558594</ele>
        <time>2018-05-24T06:41:53Z</time>
      </trkpt>
      <trkpt lat="45.27774" lon="4.58631">
        <ele>605.79998779297</ele>
        <time>2018-05-24T06:42:16Z</time>
      </trkpt>
      <trkpt lat="45.27755" lon="4.58637">
        <ele>608.79998779297</ele>
        <time>2018-05-24T06:42:30Z</time>
      </trkpt>
      <trkpt lat="45.27734" lon="4.5865">
        <ele>611.40002441406</ele>
        <time>2018-05-24T06:42:47Z</time>
      </trkpt>
      <trkpt lat="45.27722" lon="4.58662">
        <ele>614</ele>
        <time>2018-05-24T06:42:58Z</time>
      </trkpt>
      <trkpt lat="45.27712" lon="4.58676">
        <ele>617.20001220703</ele>
        <time>2018-05-24T06:43:09Z</time>
      </trkpt>
      <trkpt lat="45.27712" lon="4.58677">
        <ele>617.20001220703</ele>
        <time>2018-05-24T06:43:10Z</time>
      </trkpt>
      <trkpt lat="45.27706" lon="4.58682">
        <ele>617.59997558594</ele>
        <time>2018-05-24T06:43:16Z</time>
      </trkpt>
      <trkpt lat="45.27695" lon="4.58691">
        <ele>619.59997558594</ele>
        <time>2018-05-24T06:43:26Z</time>
      </trkpt>
      <trkpt lat="45.2768" lon="4.58704">
        <ele>622.59997558594</ele>
        <time>2018-05-24T06:43:41Z</time>
      </trkpt>
      <trkpt lat="45.27664" lon="4.58715">
        <ele>625.59997558594</ele>
        <time>2018-05-24T06:43:54Z</time>
      </trkpt>
      <trkpt lat="45.27639" lon="4.58722">
        <ele>627.79998779297</ele>
        <time>2018-05-24T06:44:12Z</time>
      </trkpt>
      <trkpt lat="45.27615" lon="4.58726">
        <ele>630.79998779297</ele>
        <time>2018-05-24T06:44:28Z</time>
      </trkpt>
      <trkpt lat="45.27599" lon="4.58725">
        <ele>633.59997558594</ele>
        <time>2018-05-24T06:44:40Z</time>
      </trkpt>
      <trkpt lat="45.27586" lon="4.58724">
        <ele>634.79998779297</ele>
        <time>2018-05-24T06:44:50Z</time>
      </trkpt>
      <trkpt lat="45.2757" lon="4.58721">
        <ele>637.79998779297</ele>
        <time>2018-05-24T06:45:02Z</time>
      </trkpt>
      <trkpt lat="45.27539" lon="4.58724">
        <ele>641.20001220703</ele>
        <time>2018-05-24T06:45:25Z</time>
      </trkpt>
      <trkpt lat="45.27521" lon="4.5873">
        <ele>643.59997558594</ele>
        <time>2018-05-24T06:45:37Z</time>
      </trkpt>
      <trkpt lat="45.27519" lon="4.58728">
        <ele>644.40002441406</ele>
        <time>2018-05-24T06:45:39Z</time>
      </trkpt>
      <trkpt lat="45.27513" lon="4.58716">
        <ele>644.40002441406</ele>
        <time>2018-05-24T06:45:45Z</time>
      </trkpt>
      <trkpt lat="45.27509" lon="4.58677">
        <ele>646.59997558594</ele>
        <time>2018-05-24T06:46:00Z</time>
      </trkpt>
      <trkpt lat="45.27498" lon="4.58661">
        <ele>646.59997558594</ele>
        <time>2018-05-24T06:46:07Z</time>
      </trkpt>
      <trkpt lat="45.27474" lon="4.58619">
        <ele>646.59997558594</ele>
        <time>2018-05-24T06:46:22Z</time>
      </trkpt>
      <trkpt lat="45.27482" lon="4.58606">
        <ele>646.59997558594</ele>
        <time>2018-05-24T06:46:29Z</time>
      </trkpt>
      <trkpt lat="45.27492" lon="4.58603">
        <ele>646.59997558594</ele>
        <time>2018-05-24T06:46:32Z</time>
      </trkpt>
      <trkpt lat="45.27515" lon="4.58596">
        <ele>646.59997558594</ele>
        <time>2018-05-24T06:46:37Z</time>
      </trkpt>
      <trkpt lat="45.27529" lon="4.58571">
        <ele>645.59997558594</ele>
        <time>2018-05-24T06:46:42Z</time>
      </trkpt>
      <trkpt lat="45.2753" lon="4.58564">
        <ele>645.20001220703</ele>
        <time>2018-05-24T06:46:43Z</time>
      </trkpt>
      <trkpt lat="45.27518" lon="4.58498">
        <ele>642.20001220703</ele>
        <time>2018-05-24T06:46:53Z</time>
      </trkpt>
      <trkpt lat="45.27506" lon="4.58475">
        <ele>642.20001220703</ele>
        <time>2018-05-24T06:47:01Z</time>
      </trkpt>
      <trkpt lat="45.27497" lon="4.58489">
        <ele>644.79998779297</ele>
        <time>2018-05-24T06:47:10Z</time>
      </trkpt>
      <trkpt lat="45.27496" lon="4.58511">
        <ele>646.79998779297</ele>
        <time>2018-05-24T06:47:19Z</time>
      </trkpt>
      <trkpt lat="45.27488" lon="4.58544">
        <ele>649.79998779297</ele>
        <time>2018-05-24T06:47:31Z</time>
      </trkpt>
      <trkpt lat="45.27482" lon="4.58562">
        <ele>650.59997558594</ele>
        <time>2018-05-24T06:47:39Z</time>
      </trkpt>
      <trkpt lat="45.27466" lon="4.58577">
        <ele>653</ele>
        <time>2018-05-24T06:47:51Z</time>
      </trkpt>
      <trkpt lat="45.27443" lon="4.58581">
        <ele>655.40002441406</ele>
        <time>2018-05-24T06:48:04Z</time>
      </trkpt>
      <trkpt lat="45.2741" lon="4.58575">
        <ele>658.59997558594</ele>
        <time>2018-05-24T06:48:22Z</time>
      </trkpt>
      <trkpt lat="45.27394" lon="4.58578">
        <ele>660.20001220703</ele>
        <time>2018-05-24T06:48:31Z</time>
      </trkpt>
      <trkpt lat="45.27393" lon="4.58599">
        <ele>661.40002441406</ele>
        <time>2018-05-24T06:48:41Z</time>
      </trkpt>
      <trkpt lat="45.27394" lon="4.58601">
        <ele>662</ele>
        <time>2018-05-24T06:48:42Z</time>
      </trkpt>
      <trkpt lat="45.27406" lon="4.58624">
        <ele>663.20001220703</ele>
        <time>2018-05-24T06:48:53Z</time>
      </trkpt>
      <trkpt lat="45.27446" lon="4.58688">
        <ele>665.40002441406</ele>
        <time>2018-05-24T06:49:18Z</time>
      </trkpt>
      <trkpt lat="45.27455" lon="4.58711">
        <ele>665.40002441406</ele>
        <time>2018-05-24T06:49:25Z</time>
      </trkpt>
      <trkpt lat="45.27448" lon="4.58751">
        <ele>667.40002441406</ele>
        <time>2018-05-24T06:49:37Z</time>
      </trkpt>
      <trkpt lat="45.27439" lon="4.58776">
        <ele>669</ele>
        <time>2018-05-24T06:49:46Z</time>
      </trkpt>
      <trkpt lat="45.2743" lon="4.58801">
        <ele>669.79998779297</ele>
        <time>2018-05-24T06:49:55Z</time>
      </trkpt>
      <trkpt lat="45.27446" lon="4.58815">
        <ele>671.59997558594</ele>
        <time>2018-05-24T06:50:03Z</time>
      </trkpt>
      <trkpt lat="45.27491" lon="4.58839">
        <ele>673.59997558594</ele>
        <time>2018-05-24T06:50:24Z</time>
      </trkpt>
      <trkpt lat="45.27471" lon="4.58838">
        <ele>675.59997558594</ele>
        <time>2018-05-24T06:50:34Z</time>
      </trkpt>
      <trkpt lat="45.27464" lon="4.58838">
        <ele>676.20001220703</ele>
        <time>2018-05-24T06:50:38Z</time>
      </trkpt>
      <trkpt lat="45.2745" lon="4.58843">
        <ele>678.79998779297</ele>
        <time>2018-05-24T06:50:47Z</time>
      </trkpt>
      <trkpt lat="45.27428" lon="4.58852">
        <ele>681.40002441406</ele>
        <time>2018-05-24T06:51:01Z</time>
      </trkpt>
      <trkpt lat="45.27427" lon="4.58852">
        <ele>681.79998779297</ele>
        <time>2018-05-24T06:51:02Z</time>
      </trkpt>
      <trkpt lat="45.27422" lon="4.58854">
        <ele>682.20001220703</ele>
        <time>2018-05-24T06:51:05Z</time>
      </trkpt>
      <trkpt lat="45.27399" lon="4.58834">
        <ele>684.20001220703</ele>
        <time>2018-05-24T06:51:24Z</time>
      </trkpt>
      <trkpt lat="45.27393" lon="4.58821">
        <ele>686.20001220703</ele>
        <time>2018-05-24T06:51:30Z</time>
      </trkpt>
      <trkpt lat="45.27392" lon="4.58812">
        <ele>686.20001220703</ele>
        <time>2018-05-24T06:51:34Z</time>
      </trkpt>
      <trkpt lat="45.27396" lon="4.58792">
        <ele>687.20001220703</ele>
        <time>2018-05-24T06:51:44Z</time>
      </trkpt>
      <trkpt lat="45.27397" lon="4.58786">
        <ele>688.40002441406</ele>
        <time>2018-05-24T06:51:47Z</time>
      </trkpt>
      <trkpt lat="45.27393" lon="4.58766">
        <ele>688.79998779297</ele>
        <time>2018-05-24T06:51:56Z</time>
      </trkpt>
      <trkpt lat="45.27381" lon="4.58749">
        <ele>692</ele>
        <time>2018-05-24T06:52:08Z</time>
      </trkpt>
      <trkpt lat="45.27356" lon="4.58732">
        <ele>695.20001220703</ele>
        <time>2018-05-24T06:52:26Z</time>
      </trkpt>
      <trkpt lat="45.27334" lon="4.58726">
        <ele>698.20001220703</ele>
        <time>2018-05-24T06:52:41Z</time>
      </trkpt>
      <trkpt lat="45.27314" lon="4.58728">
        <ele>701.20001220703</ele>
        <time>2018-05-24T06:52:54Z</time>
      </trkpt>
      <trkpt lat="45.27287" lon="4.5872">
        <ele>703.79998779297</ele>
        <time>2018-05-24T06:53:15Z</time>
      </trkpt>
      <trkpt lat="45.27284" lon="4.58715">
        <ele>705.40002441406</ele>
        <time>2018-05-24T06:53:18Z</time>
      </trkpt>
      <trkpt lat="45.27275" lon="4.58676">
        <ele>707.59997558594</ele>
        <time>2018-05-24T06:53:36Z</time>
      </trkpt>
      <trkpt lat="45.27273" lon="4.58664">
        <ele>709.79998779297</ele>
        <time>2018-05-24T06:53:42Z</time>
      </trkpt>
      <trkpt lat="45.27262" lon="4.58643">
        <ele>711.79998779297</ele>
        <time>2018-05-24T06:53:54Z</time>
      </trkpt>
      <trkpt lat="45.27249" lon="4.58617">
        <ele>713.79998779297</ele>
        <time>2018-05-24T06:54:09Z</time>
      </trkpt>
      <trkpt lat="45.27236" lon="4.58599">
        <ele>716.79998779297</ele>
        <time>2018-05-24T06:54:22Z</time>
      </trkpt>
      <trkpt lat="45.27224" lon="4.58581">
        <ele>719.79998779297</ele>
        <time>2018-05-24T06:54:34Z</time>
      </trkpt>
      <trkpt lat="45.27213" lon="4.58569">
        <ele>721</ele>
        <time>2018-05-24T06:54:45Z</time>
      </trkpt>
      <trkpt lat="45.27197" lon="4.58556">
        <ele>724</ele>
        <time>2018-05-24T06:54:58Z</time>
      </trkpt>
      <trkpt lat="45.27191" lon="4.58554">
        <ele>724.40002441406</ele>
        <time>2018-05-24T06:55:02Z</time>
      </trkpt>
      <trkpt lat="45.27172" lon="4.5854">
        <ele>727</ele>
        <time>2018-05-24T06:55:19Z</time>
      </trkpt>
      <trkpt lat="45.2717" lon="4.58538">
        <ele>727.79998779297</ele>
        <time>2018-05-24T06:55:21Z</time>
      </trkpt>
      <trkpt lat="45.27158" lon="4.5853">
        <ele>728.59997558594</ele>
        <time>2018-05-24T06:55:31Z</time>
      </trkpt>
      <trkpt lat="45.27154" lon="4.58526">
        <ele>730.79998779297</ele>
        <time>2018-05-24T06:55:37Z</time>
      </trkpt>
      <trkpt lat="45.27141" lon="4.58503">
        <ele>733</ele>
        <time>2018-05-24T06:55:50Z</time>
      </trkpt>
      <trkpt lat="45.27136" lon="4.58497">
        <ele>733.40002441406</ele>
        <time>2018-05-24T06:55:55Z</time>
      </trkpt>
      <trkpt lat="45.27122" lon="4.58476">
        <ele>736.40002441406</ele>
        <time>2018-05-24T06:56:09Z</time>
      </trkpt>
      <trkpt lat="45.27114" lon="4.58461">
        <ele>737.79998779297</ele>
        <time>2018-05-24T06:56:20Z</time>
      </trkpt>
      <trkpt lat="45.27111" lon="4.58454">
        <ele>739.59997558594</ele>
        <time>2018-05-24T06:56:24Z</time>
      </trkpt>
      <trkpt lat="45.2711" lon="4.58451">
        <ele>739.59997558594</ele>
        <time>2018-05-24T06:56:26Z</time>
      </trkpt>
      <trkpt lat="45.27108" lon="4.58438">
        <ele>740.79998779297</ele>
        <time>2018-05-24T06:56:34Z</time>
      </trkpt>
      <trkpt lat="45.27103" lon="4.5843">
        <ele>743</ele>
        <time>2018-05-24T06:56:43Z</time>
      </trkpt>
      <trkpt lat="45.27097" lon="4.58428">
        <ele>744.59997558594</ele>
        <time>2018-05-24T06:56:57Z</time>
      </trkpt>
      <trkpt lat="45.27098" lon="4.58446">
        <ele>746.40002441406</ele>
        <time>2018-05-24T06:57:08Z</time>
      </trkpt>
      <trkpt lat="45.27096" lon="4.58454">
        <ele>748</ele>
        <time>2018-05-24T06:57:12Z</time>
      </trkpt>
      <trkpt lat="45.271" lon="4.58472">
        <ele>748</ele>
        <time>2018-05-24T06:57:20Z</time>
      </trkpt>
      <trkpt lat="45.27105" lon="4.58502">
        <ele>750.20001220703</ele>
        <time>2018-05-24T06:57:33Z</time>
      </trkpt>
      <trkpt lat="45.27105" lon="4.58549">
        <ele>752.40002441406</ele>
        <time>2018-05-24T06:57:51Z</time>
      </trkpt>
      <trkpt lat="45.27113" lon="4.58574">
        <ele>752.40002441406</ele>
        <time>2018-05-24T06:58:02Z</time>
      </trkpt>
      <trkpt lat="45.27124" lon="4.58604">
        <ele>755</ele>
        <time>2018-05-24T06:58:17Z</time>
      </trkpt>
      <trkpt lat="45.27129" lon="4.5861">
        <ele>756.59997558594</ele>
        <time>2018-05-24T06:58:21Z</time>
      </trkpt>
      <trkpt lat="45.27136" lon="4.5863">
        <ele>757</ele>
        <time>2018-05-24T06:58:32Z</time>
      </trkpt>
      <trkpt lat="45.27143" lon="4.58641">
        <ele>758.59997558594</ele>
        <time>2018-05-24T06:58:39Z</time>
      </trkpt>
      <trkpt lat="45.2715" lon="4.5866">
        <ele>759.40002441406</ele>
        <time>2018-05-24T06:58:48Z</time>
      </trkpt>
      <trkpt lat="45.27152" lon="4.58696">
        <ele>762.40002441406</ele>
        <time>2018-05-24T06:59:03Z</time>
      </trkpt>
      <trkpt lat="45.27151" lon="4.58714">
        <ele>762.79998779297</ele>
        <time>2018-05-24T06:59:10Z</time>
      </trkpt>
      <trkpt lat="45.27152" lon="4.5873">
        <ele>763.20001220703</ele>
        <time>2018-05-24T06:59:17Z</time>
      </trkpt>
      <trkpt lat="45.2715" lon="4.58762">
        <ele>765.40002441406</ele>
        <time>2018-05-24T06:59:31Z</time>
      </trkpt>
      <trkpt lat="45.27149" lon="4.58799">
        <ele>767.40002441406</ele>
        <time>2018-05-24T06:59:47Z</time>
      </trkpt>
      <trkpt lat="45.27149" lon="4.58818">
        <ele>769.20001220703</ele>
        <time>2018-05-24T06:59:54Z</time>
      </trkpt>
      <trkpt lat="45.27139" lon="4.58862">
        <ele>771.20001220703</ele>
        <time>2018-05-24T07:00:13Z</time>
      </trkpt>
      <trkpt lat="45.27146" lon="4.58878">
        <ele>771.20001220703</ele>
        <time>2018-05-24T07:00:21Z</time>
      </trkpt>
      <trkpt lat="45.27169" lon="4.58906">
        <ele>773.40002441406</ele>
        <time>2018-05-24T07:00:36Z</time>
      </trkpt>
      <trkpt lat="45.2719" lon="4.58929">
        <ele>775.40002441406</ele>
        <time>2018-05-24T07:00:50Z</time>
      </trkpt>
      <trkpt lat="45.27204" lon="4.58974">
        <ele>777.79998779297</ele>
        <time>2018-05-24T07:01:11Z</time>
      </trkpt>
      <trkpt lat="45.27204" lon="4.58976">
        <ele>778.40002441406</ele>
        <time>2018-05-24T07:01:12Z</time>
      </trkpt>
      <trkpt lat="45.27202" lon="4.58984">
        <ele>779.59997558594</ele>
        <time>2018-05-24T07:01:17Z</time>
      </trkpt>
      <trkpt lat="45.27201" lon="4.59022">
        <ele>781.59997558594</ele>
        <time>2018-05-24T07:01:33Z</time>
      </trkpt>
      <trkpt lat="45.27201" lon="4.59054">
        <ele>783.79998779297</ele>
        <time>2018-05-24T07:01:46Z</time>
      </trkpt>
      <trkpt lat="45.27208" lon="4.59104">
        <ele>785.79998779297</ele>
        <time>2018-05-24T07:02:08Z</time>
      </trkpt>
      <trkpt lat="45.27209" lon="4.59133">
        <ele>788.20001220703</ele>
        <time>2018-05-24T07:02:20Z</time>
      </trkpt>
      <trkpt lat="45.2721" lon="4.59174">
        <ele>788.59997558594</ele>
        <time>2018-05-24T07:02:36Z</time>
      </trkpt>
      <trkpt lat="45.27213" lon="4.59189">
        <ele>790.20001220703</ele>
        <time>2018-05-24T07:02:42Z</time>
      </trkpt>
      <trkpt lat="45.27215" lon="4.59213">
        <ele>791.79998779297</ele>
        <time>2018-05-24T07:02:52Z</time>
      </trkpt>
      <trkpt lat="45.27215" lon="4.59251">
        <ele>794.20001220703</ele>
        <time>2018-05-24T07:03:09Z</time>
      </trkpt>
      <trkpt lat="45.2721" lon="4.59274">
        <ele>796</ele>
        <time>2018-05-24T07:03:20Z</time>
      </trkpt>
      <trkpt lat="45.27209" lon="4.59278">
        <ele>796.40002441406</ele>
        <time>2018-05-24T07:03:22Z</time>
      </trkpt>
      <trkpt lat="45.27194" lon="4.59288">
        <ele>798.79998779297</ele>
        <time>2018-05-24T07:03:36Z</time>
      </trkpt>
      <trkpt lat="45.27192" lon="4.59288">
        <ele>800.59997558594</ele>
        <time>2018-05-24T07:03:53Z</time>
      </trkpt>
      <trkpt lat="45.27196" lon="4.59291">
        <ele>800.59997558594</ele>
        <time>2018-05-24T07:04:04Z</time>
      </trkpt>
      <trkpt lat="45.27209" lon="4.59297">
        <ele>799.79998779297</ele>
        <time>2018-05-24T07:04:14Z</time>
      </trkpt>
      <trkpt lat="45.27207" lon="4.593">
        <ele>798.79998779297</ele>
        <time>2018-05-24T07:04:16Z</time>
      </trkpt>
      <trkpt lat="45.27185" lon="4.59315">
        <ele>799.79998779297</ele>
        <time>2018-05-24T07:04:35Z</time>
      </trkpt>
      <trkpt lat="45.27172" lon="4.59318">
        <ele>801.40002441406</ele>
        <time>2018-05-24T07:04:45Z</time>
      </trkpt>
      <trkpt lat="45.2716" lon="4.59319">
        <ele>804.40002441406</ele>
        <time>2018-05-24T07:04:56Z</time>
      </trkpt>
      <trkpt lat="45.27143" lon="4.5932">
        <ele>806.79998779297</ele>
        <time>2018-05-24T07:05:09Z</time>
      </trkpt>
      <trkpt lat="45.27124" lon="4.59309">
        <ele>808.40002441406</ele>
        <time>2018-05-24T07:05:22Z</time>
      </trkpt>
      <trkpt lat="45.2709" lon="4.59277">
        <ele>810.79998779297</ele>
        <time>2018-05-24T07:05:47Z</time>
      </trkpt>
      <trkpt lat="45.27065" lon="4.5925">
        <ele>812.79998779297</ele>
        <time>2018-05-24T07:06:10Z</time>
      </trkpt>
      <trkpt lat="45.27061" lon="4.59237">
        <ele>814.79998779297</ele>
        <time>2018-05-24T07:06:21Z</time>
      </trkpt>
      <trkpt lat="45.27045" lon="4.59225">
        <ele>816.40002441406</ele>
        <time>2018-05-24T07:06:29Z</time>
      </trkpt>
      <trkpt lat="45.27044" lon="4.59224">
        <ele>818.20001220703</ele>
        <time>2018-05-24T07:06:39Z</time>
      </trkpt>
      <trkpt lat="45.27043" lon="4.59222">
        <ele>819</ele>
        <time>2018-05-24T07:06:41Z</time>
      </trkpt>
      <trkpt lat="45.27015" lon="4.59204">
        <ele>819</ele>
        <time>2018-05-24T07:06:55Z</time>
      </trkpt>
      <trkpt lat="45.26996" lon="4.5919">
        <ele>821</ele>
        <time>2018-05-24T07:07:04Z</time>
      </trkpt>
      <trkpt lat="45.26994" lon="4.59189">
        <ele>821.40002441406</ele>
        <time>2018-05-24T07:07:09Z</time>
      </trkpt>
      <trkpt lat="45.26968" lon="4.59198">
        <ele>823.20001220703</ele>
        <time>2018-05-24T07:07:16Z</time>
      </trkpt>
      <trkpt lat="45.26954" lon="4.59212">
        <ele>823.20001220703</ele>
        <time>2018-05-24T07:07:22Z</time>
      </trkpt>
      <trkpt lat="45.26946" lon="4.59262">
        <ele>821</ele>
        <time>2018-05-24T07:07:33Z</time>
      </trkpt>
      <trkpt lat="45.26949" lon="4.59285">
        <ele>821</ele>
        <time>2018-05-24T07:07:39Z</time>
      </trkpt>
      <trkpt lat="45.2695" lon="4.59295">
        <ele>821.40002441406</ele>
        <time>2018-05-24T07:07:42Z</time>
      </trkpt>
      <trkpt lat="45.26947" lon="4.59307">
        <ele>823.20001220703</ele>
        <time>2018-05-24T07:07:46Z</time>
      </trkpt>
      <trkpt lat="45.26945" lon="4.59351">
        <ele>825.40002441406</ele>
        <time>2018-05-24T07:08:01Z</time>
      </trkpt>
      <trkpt lat="45.26944" lon="4.59359">
        <ele>826.20001220703</ele>
        <time>2018-05-24T07:08:04Z</time>
      </trkpt>
      <trkpt lat="45.26942" lon="4.59365">
        <ele>827</ele>
        <time>2018-05-24T07:08:06Z</time>
      </trkpt>
      <trkpt lat="45.26937" lon="4.59387">
        <ele>827.79998779297</ele>
        <time>2018-05-24T07:08:15Z</time>
      </trkpt>
      <trkpt lat="45.2693" lon="4.59403">
        <ele>829.59997558594</ele>
        <time>2018-05-24T07:08:24Z</time>
      </trkpt>
      <trkpt lat="45.2693" lon="4.59431">
        <ele>832.40002441406</ele>
        <time>2018-05-24T07:08:37Z</time>
      </trkpt>
      <trkpt lat="45.26929" lon="4.59439">
        <ele>833.59997558594</ele>
        <time>2018-05-24T07:08:42Z</time>
      </trkpt>
      <trkpt lat="45.2693" lon="4.59454">
        <ele>834.40002441406</ele>
        <time>2018-05-24T07:08:51Z</time>
      </trkpt>
      <trkpt lat="45.2694" lon="4.59478">
        <ele>837.20001220703</ele>
        <time>2018-05-24T07:09:03Z</time>
      </trkpt>
      <trkpt lat="45.26949" lon="4.59503">
        <ele>838</ele>
        <time>2018-05-24T07:09:14Z</time>
      </trkpt>
      <trkpt lat="45.26952" lon="4.59515">
        <ele>839.59997558594</ele>
        <time>2018-05-24T07:09:20Z</time>
      </trkpt>
      <trkpt lat="45.26963" lon="4.59544">
        <ele>841.79998779297</ele>
        <time>2018-05-24T07:09:33Z</time>
      </trkpt>
      <trkpt lat="45.26968" lon="4.59555">
        <ele>843</ele>
        <time>2018-05-24T07:09:38Z</time>
      </trkpt>
      <trkpt lat="45.26972" lon="4.59578">
        <ele>845.40002441406</ele>
        <time>2018-05-24T07:09:49Z</time>
      </trkpt>
      <trkpt lat="45.26972" lon="4.5958">
        <ele>845.79998779297</ele>
        <time>2018-05-24T07:09:50Z</time>
      </trkpt>
      <trkpt lat="45.26971" lon="4.59597">
        <ele>846.59997558594</ele>
        <time>2018-05-24T07:09:58Z</time>
      </trkpt>
      <trkpt lat="45.26969" lon="4.59603">
        <ele>847.79998779297</ele>
        <time>2018-05-24T07:10:01Z</time>
      </trkpt>
      <trkpt lat="45.26956" lon="4.59668">
        <ele>850</ele>
        <time>2018-05-24T07:10:27Z</time>
      </trkpt>
      <trkpt lat="45.26954" lon="4.59674">
        <ele>850.79998779297</ele>
        <time>2018-05-24T07:10:29Z</time>
      </trkpt>
      <trkpt lat="45.26941" lon="4.59701">
        <ele>852.20001220703</ele>
        <time>2018-05-24T07:10:40Z</time>
      </trkpt>
      <trkpt lat="45.2691" lon="4.59784">
        <ele>852.20001220703</ele>
        <time>2018-05-24T07:11:06Z</time>
      </trkpt>
      <trkpt lat="45.26904" lon="4.59806">
        <ele>853.79998779297</ele>
        <time>2018-05-24T07:11:14Z</time>
      </trkpt>
      <trkpt lat="45.269" lon="4.59827">
        <ele>854.59997558594</ele>
        <time>2018-05-24T07:11:22Z</time>
      </trkpt>
      <trkpt lat="45.26926" lon="4.59874">
        <ele>856.20001220703</ele>
        <time>2018-05-24T07:11:36Z</time>
      </trkpt>
      <trkpt lat="45.2695" lon="4.5991">
        <ele>856.20001220703</ele>
        <time>2018-05-24T07:11:48Z</time>
      </trkpt>
      <trkpt lat="45.26956" lon="4.5996">
        <ele>857.40002441406</ele>
        <time>2018-05-24T07:12:00Z</time>
      </trkpt>
      <trkpt lat="45.2696" lon="4.59989">
        <ele>858.20001220703</ele>
        <time>2018-05-24T07:12:08Z</time>
      </trkpt>
      <trkpt lat="45.26956" lon="4.60002">
        <ele>859.79998779297</ele>
        <time>2018-05-24T07:12:13Z</time>
      </trkpt>
      <trkpt lat="45.26949" lon="4.60006">
        <ele>860.79998779297</ele>
        <time>2018-05-24T07:12:17Z</time>
      </trkpt>
      <trkpt lat="45.2694" lon="4.60028">
        <ele>862.79998779297</ele>
        <time>2018-05-24T07:12:26Z</time>
      </trkpt>
      <trkpt lat="45.26932" lon="4.60046">
        <ele>865</ele>
        <time>2018-05-24T07:12:35Z</time>
      </trkpt>
      <trkpt lat="45.26927" lon="4.60052">
        <ele>866.59997558594</ele>
        <time>2018-05-24T07:12:39Z</time>
      </trkpt>
      <trkpt lat="45.2691" lon="4.60051">
        <ele>867.40002441406</ele>
        <time>2018-05-24T07:12:50Z</time>
      </trkpt>
      <trkpt lat="45.26882" lon="4.60046">
        <ele>870.40002441406</ele>
        <time>2018-05-24T07:13:06Z</time>
      </trkpt>
      <trkpt lat="45.26846" lon="4.60048">
        <ele>873.20001220703</ele>
        <time>2018-05-24T07:13:29Z</time>
      </trkpt>
      <trkpt lat="45.26824" lon="4.6004">
        <ele>876.20001220703</ele>
        <time>2018-05-24T07:13:44Z</time>
      </trkpt>
      <trkpt lat="45.26783" lon="4.60033">
        <ele>879.40002441406</ele>
        <time>2018-05-24T07:14:09Z</time>
      </trkpt>
      <trkpt lat="45.26763" lon="4.6003">
        <ele>882.40002441406</ele>
        <time>2018-05-24T07:14:21Z</time>
      </trkpt>
      <trkpt lat="45.26745" lon="4.60027">
        <ele>883.59997558594</ele>
        <time>2018-05-24T07:14:32Z</time>
      </trkpt>
      <trkpt lat="45.26725" lon="4.60028">
        <ele>886.20001220703</ele>
        <time>2018-05-24T07:14:45Z</time>
      </trkpt>
      <trkpt lat="45.26718" lon="4.60028">
        <ele>887.40002441406</ele>
        <time>2018-05-24T07:14:50Z</time>
      </trkpt>
      <trkpt lat="45.26717" lon="4.60047">
        <ele>889.59997558594</ele>
        <time>2018-05-24T07:15:01Z</time>
      </trkpt>
      <trkpt lat="45.26717" lon="4.60053">
        <ele>890</ele>
        <time>2018-05-24T07:15:04Z</time>
      </trkpt>
      <trkpt lat="45.2671" lon="4.60069">
        <ele>892.59997558594</ele>
        <time>2018-05-24T07:15:12Z</time>
      </trkpt>
      <trkpt lat="45.26707" lon="4.60076">
        <ele>894</ele>
        <time>2018-05-24T07:15:16Z</time>
      </trkpt>
      <trkpt lat="45.2671" lon="4.60088">
        <ele>896.20001220703</ele>
        <time>2018-05-24T07:15:22Z</time>
      </trkpt>
      <trkpt lat="45.26704" lon="4.60109">
        <ele>899.59997558594</ele>
        <time>2018-05-24T07:15:34Z</time>
      </trkpt>
      <trkpt lat="45.26705" lon="4.60114">
        <ele>900.40002441406</ele>
        <time>2018-05-24T07:15:44Z</time>
      </trkpt>
      <trkpt lat="45.26705" lon="4.60129">
        <ele>903.59997558594</ele>
        <time>2018-05-24T07:16:05Z</time>
      </trkpt>
      <trkpt lat="45.26707" lon="4.60142">
        <ele>906.59997558594</ele>
        <time>2018-05-24T07:16:22Z</time>
      </trkpt>
      <trkpt lat="45.26696" lon="4.60151">
        <ele>906.59997558594</ele>
        <time>2018-05-24T07:17:04Z</time>
      </trkpt>
      <trkpt lat="45.26678" lon="4.60155">
        <ele>908.20001220703</ele>
        <time>2018-05-24T07:17:18Z</time>
      </trkpt>
      <trkpt lat="45.2667" lon="4.60155">
        <ele>908.59997558594</ele>
        <time>2018-05-24T07:17:51Z</time>
      </trkpt>
      <trkpt lat="45.26671" lon="4.60156">
        <ele>908.59997558594</ele>
        <time>2018-05-24T07:18:26Z</time>
      </trkpt>
      <trkpt lat="45.26685" lon="4.60153">
        <ele>908.59997558594</ele>
        <time>2018-05-24T07:18:31Z</time>
      </trkpt>
      <trkpt lat="45.26702" lon="4.60145">
        <ele>908.59997558594</ele>
        <time>2018-05-24T07:18:36Z</time>
      </trkpt>
      <trkpt lat="45.26706" lon="4.6011">
        <ele>906.40002441406</ele>
        <time>2018-05-24T07:18:45Z</time>
      </trkpt>
      <trkpt lat="45.26708" lon="4.60098">
        <ele>904</ele>
        <time>2018-05-24T07:18:48Z</time>
      </trkpt>
      <trkpt lat="45.26709" lon="4.6008">
        <ele>900.59997558594</ele>
        <time>2018-05-24T07:18:53Z</time>
      </trkpt>
      <trkpt lat="45.26711" lon="4.60067">
        <ele>898.40002441406</ele>
        <time>2018-05-24T07:18:57Z</time>
      </trkpt>
      <trkpt lat="45.26717" lon="4.60056">
        <ele>896.79998779297</ele>
        <time>2018-05-24T07:19:00Z</time>
      </trkpt>
      <trkpt lat="45.26711" lon="4.60028">
        <ele>893.59997558594</ele>
        <time>2018-05-24T07:19:06Z</time>
      </trkpt>
      <trkpt lat="45.26697" lon="4.60026">
        <ele>890.59997558594</ele>
        <time>2018-05-24T07:19:11Z</time>
      </trkpt>
      <trkpt lat="45.26686" lon="4.60027">
        <ele>890.59997558594</ele>
        <time>2018-05-24T07:19:15Z</time>
      </trkpt>
      <trkpt lat="45.26642" lon="4.60025">
        <ele>890.59997558594</ele>
        <time>2018-05-24T07:19:28Z</time>
      </trkpt>
      <trkpt lat="45.26637" lon="4.59989">
        <ele>890.59997558594</ele>
        <time>2018-05-24T07:19:34Z</time>
      </trkpt>
      <trkpt lat="45.26637" lon="4.59918">
        <ele>890.59997558594</ele>
        <time>2018-05-24T07:19:54Z</time>
      </trkpt>
      <trkpt lat="45.26637" lon="4.59889">
        <ele>893.59997558594</ele>
        <time>2018-05-24T07:20:06Z</time>
      </trkpt>
      <trkpt lat="45.26637" lon="4.59863">
        <ele>896.79998779297</ele>
        <time>2018-05-24T07:20:17Z</time>
      </trkpt>
      <trkpt lat="45.26637" lon="4.598">
        <ele>897.79998779297</ele>
        <time>2018-05-24T07:20:41Z</time>
      </trkpt>
      <trkpt lat="45.26643" lon="4.59758">
        <ele>901</ele>
        <time>2018-05-24T07:20:58Z</time>
      </trkpt>
      <trkpt lat="45.26643" lon="4.59733">
        <ele>902.59997558594</ele>
        <time>2018-05-24T07:21:08Z</time>
      </trkpt>
      <trkpt lat="45.26645" lon="4.59711">
        <ele>905.59997558594</ele>
        <time>2018-05-24T07:21:18Z</time>
      </trkpt>
      <trkpt lat="45.26646" lon="4.59701">
        <ele>907</ele>
        <time>2018-05-24T07:21:23Z</time>
      </trkpt>
      <trkpt lat="45.26649" lon="4.59679">
        <ele>910</ele>
        <time>2018-05-24T07:21:35Z</time>
      </trkpt>
      <trkpt lat="45.26649" lon="4.59666">
        <ele>911.20001220703</ele>
        <time>2018-05-24T07:21:42Z</time>
      </trkpt>
      <trkpt lat="45.26652" lon="4.59649">
        <ele>912.79998779297</ele>
        <time>2018-05-24T07:21:52Z</time>
      </trkpt>
      <trkpt lat="45.26652" lon="4.59645">
        <ele>913.79998779297</ele>
        <time>2018-05-24T07:21:54Z</time>
      </trkpt>
      <trkpt lat="45.26651" lon="4.59629">
        <ele>914.59997558594</ele>
        <time>2018-05-24T07:22:02Z</time>
      </trkpt>
      <trkpt lat="45.26653" lon="4.59606">
        <ele>916.59997558594</ele>
        <time>2018-05-24T07:22:14Z</time>
      </trkpt>
      <trkpt lat="45.26654" lon="4.59604">
        <ele>917</ele>
        <time>2018-05-24T07:22:15Z</time>
      </trkpt>
      <trkpt lat="45.26653" lon="4.59595">
        <ele>918.40002441406</ele>
        <time>2018-05-24T07:22:19Z</time>
      </trkpt>
      <trkpt lat="45.26643" lon="4.59532">
        <ele>920.40002441406</ele>
        <time>2018-05-24T07:22:45Z</time>
      </trkpt>
      <trkpt lat="45.2664" lon="4.59501">
        <ele>920.40002441406</ele>
        <time>2018-05-24T07:22:51Z</time>
      </trkpt>
      <trkpt lat="45.26621" lon="4.59446">
        <ele>918.59997558594</ele>
        <time>2018-05-24T07:22:58Z</time>
      </trkpt>
      <trkpt lat="45.26616" lon="4.59397">
        <ele>915.59997558594</ele>
        <time>2018-05-24T07:23:03Z</time>
      </trkpt>
      <trkpt lat="45.26616" lon="4.5932">
        <ele>912.20001220703</ele>
        <time>2018-05-24T07:23:10Z</time>
      </trkpt>
      <trkpt lat="45.26618" lon="4.59264">
        <ele>908.79998779297</ele>
        <time>2018-05-24T07:23:15Z</time>
      </trkpt>
      <trkpt lat="45.26618" lon="4.59226">
        <ele>908.79998779297</ele>
        <time>2018-05-24T07:23:19Z</time>
      </trkpt>
      <trkpt lat="45.26613" lon="4.59162">
        <ele>906.59997558594</ele>
        <time>2018-05-24T07:23:30Z</time>
      </trkpt>
      <trkpt lat="45.26605" lon="4.59089">
        <ele>908.79998779297</ele>
        <time>2018-05-24T07:23:50Z</time>
      </trkpt>
      <trkpt lat="45.26577" lon="4.59024">
        <ele>911.20001220703</ele>
        <time>2018-05-24T07:24:10Z</time>
      </trkpt>
      <trkpt lat="45.26558" lon="4.58975">
        <ele>912.79998779297</ele>
        <time>2018-05-24T07:24:23Z</time>
      </trkpt>
      <trkpt lat="45.2653" lon="4.58904">
        <ele>915</ele>
        <time>2018-05-24T07:24:42Z</time>
      </trkpt>
      <trkpt lat="45.26521" lon="4.58886">
        <ele>915</ele>
        <time>2018-05-24T07:24:47Z</time>
      </trkpt>
      <trkpt lat="45.26531" lon="4.58837">
        <ele>915</ele>
        <time>2018-05-24T07:24:57Z</time>
      </trkpt>
      <trkpt lat="45.26561" lon="4.58778">
        <ele>915</ele>
        <time>2018-05-24T07:25:08Z</time>
      </trkpt>
      <trkpt lat="45.26599" lon="4.58694">
        <ele>912.59997558594</ele>
        <time>2018-05-24T07:25:19Z</time>
      </trkpt>
      <trkpt lat="45.26622" lon="4.58599">
        <ele>911.79998779297</ele>
        <time>2018-05-24T07:25:31Z</time>
      </trkpt>
      <trkpt lat="45.26643" lon="4.58504">
        <ele>908.79998779297</ele>
        <time>2018-05-24T07:25:40Z</time>
      </trkpt>
      <trkpt lat="45.26645" lon="4.58479">
        <ele>907.79998779297</ele>
        <time>2018-05-24T07:25:42Z</time>
      </trkpt>
      <trkpt lat="45.26629" lon="4.58365">
        <ele>906.20001220703</ele>
        <time>2018-05-24T07:25:55Z</time>
      </trkpt>
      <trkpt lat="45.26625" lon="4.58328">
        <ele>908.20001220703</ele>
        <time>2018-05-24T07:26:03Z</time>
      </trkpt>
      <trkpt lat="45.26628" lon="4.58316">
        <ele>908.20001220703</ele>
        <time>2018-05-24T07:26:05Z</time>
      </trkpt>
      <trkpt lat="45.26637" lon="4.58286">
        <ele>908.20001220703</ele>
        <time>2018-05-24T07:26:09Z</time>
      </trkpt>
      <trkpt lat="45.26638" lon="4.58278">
        <ele>908.20001220703</ele>
        <time>2018-05-24T07:26:10Z</time>
      </trkpt>
      <trkpt lat="45.26646" lon="4.58113">
        <ele>908.20001220703</ele>
        <time>2018-05-24T07:26:33Z</time>
      </trkpt>
      <trkpt lat="45.2664" lon="4.58049">
        <ele>908.20001220703</ele>
        <time>2018-05-24T07:26:42Z</time>
      </trkpt>
      <trkpt lat="45.2664" lon="4.58007">
        <ele>906</ele>
        <time>2018-05-24T07:26:47Z</time>
      </trkpt>
      <trkpt lat="45.26675" lon="4.57966">
        <ele>906</ele>
        <time>2018-05-24T07:26:57Z</time>
      </trkpt>
      <trkpt lat="45.26684" lon="4.57961">
        <ele>906</ele>
        <time>2018-05-24T07:27:00Z</time>
      </trkpt>
      <trkpt lat="45.26696" lon="4.57933">
        <ele>906</ele>
        <time>2018-05-24T07:27:06Z</time>
      </trkpt>
      <trkpt lat="45.2674" lon="4.57777">
        <ele>907.20001220703</ele>
        <time>2018-05-24T07:27:38Z</time>
      </trkpt>
      <trkpt lat="45.26754" lon="4.57723">
        <ele>910.20001220703</ele>
        <time>2018-05-24T07:27:53Z</time>
      </trkpt>
      <trkpt lat="45.26788" lon="4.57656">
        <ele>913.59997558594</ele>
        <time>2018-05-24T07:28:17Z</time>
      </trkpt>
      <trkpt lat="45.26801" lon="4.57595">
        <ele>914.79998779297</ele>
        <time>2018-05-24T07:28:35Z</time>
      </trkpt>
      <trkpt lat="45.26831" lon="4.57546">
        <ele>917</ele>
        <time>2018-05-24T07:28:55Z</time>
      </trkpt>
      <trkpt lat="45.26861" lon="4.57505">
        <ele>919</ele>
        <time>2018-05-24T07:29:12Z</time>
      </trkpt>
      <trkpt lat="45.2688" lon="4.57474">
        <ele>922</ele>
        <time>2018-05-24T07:29:24Z</time>
      </trkpt>
      <trkpt lat="45.26928" lon="4.57421">
        <ele>924.79998779297</ele>
        <time>2018-05-24T07:29:48Z</time>
      </trkpt>
      <trkpt lat="45.26966" lon="4.57395">
        <ele>927</ele>
        <time>2018-05-24T07:30:04Z</time>
      </trkpt>
      <trkpt lat="45.26984" lon="4.57385">
        <ele>929</ele>
        <time>2018-05-24T07:30:16Z</time>
      </trkpt>
      <trkpt lat="45.26994" lon="4.57387">
        <ele>931</ele>
        <time>2018-05-24T07:30:22Z</time>
      </trkpt>
      <trkpt lat="45.27044" lon="4.57344">
        <ele>931</ele>
        <time>2018-05-24T07:30:43Z</time>
      </trkpt>
      <trkpt lat="45.27058" lon="4.57315">
        <ele>931</ele>
        <time>2018-05-24T07:30:49Z</time>
      </trkpt>
      <trkpt lat="45.27077" lon="4.57277">
        <ele>931</ele>
        <time>2018-05-24T07:30:56Z</time>
      </trkpt>
      <trkpt lat="45.27086" lon="4.57252">
        <ele>931</ele>
        <time>2018-05-24T07:31:00Z</time>
      </trkpt>
      <trkpt lat="45.27111" lon="4.57175">
        <ele>930.59997558594</ele>
        <time>2018-05-24T07:31:13Z</time>
      </trkpt>
      <trkpt lat="45.27135" lon="4.5715">
        <ele>928.20001220703</ele>
        <time>2018-05-24T07:31:18Z</time>
      </trkpt>
      <trkpt lat="45.27141" lon="4.57145">
        <ele>927.59997558594</ele>
        <time>2018-05-24T07:31:19Z</time>
      </trkpt>
      <trkpt lat="45.27159" lon="4.57104">
        <ele>924</ele>
        <time>2018-05-24T07:31:24Z</time>
      </trkpt>
      <trkpt lat="45.27156" lon="4.5706">
        <ele>921</ele>
        <time>2018-05-24T07:31:28Z</time>
      </trkpt>
      <trkpt lat="45.27145" lon="4.56991">
        <ele>917.59997558594</ele>
        <time>2018-05-24T07:31:34Z</time>
      </trkpt>
      <trkpt lat="45.27144" lon="4.56945">
        <ele>914.40002441406</ele>
        <time>2018-05-24T07:31:38Z</time>
      </trkpt>
      <trkpt lat="45.27143" lon="4.56913">
        <ele>914.40002441406</ele>
        <time>2018-05-24T07:31:41Z</time>
      </trkpt>
      <trkpt lat="45.27141" lon="4.56897">
        <ele>914.40002441406</ele>
        <time>2018-05-24T07:31:43Z</time>
      </trkpt>
      <trkpt lat="45.27139" lon="4.56875">
        <ele>914.40002441406</ele>
        <time>2018-05-24T07:31:48Z</time>
      </trkpt>
      <trkpt lat="45.27137" lon="4.56841">
        <ele>914.40002441406</ele>
        <time>2018-05-24T07:31:53Z</time>
      </trkpt>
      <trkpt lat="45.27122" lon="4.56805">
        <ele>911.40002441406</ele>
        <time>2018-05-24T07:31:58Z</time>
      </trkpt>
      <trkpt lat="45.27117" lon="4.568">
        <ele>910.59997558594</ele>
        <time>2018-05-24T07:31:59Z</time>
      </trkpt>
      <trkpt lat="45.27112" lon="4.56794">
        <ele>909.59997558594</ele>
        <time>2018-05-24T07:32:00Z</time>
      </trkpt>
      <trkpt lat="45.27099" lon="4.56768">
        <ele>905.79998779297</ele>
        <time>2018-05-24T07:32:03Z</time>
      </trkpt>
      <trkpt lat="45.27096" lon="4.56759">
        <ele>905</ele>
        <time>2018-05-24T07:32:04Z</time>
      </trkpt>
      <trkpt lat="45.27088" lon="4.5674">
        <ele>903.20001220703</ele>
        <time>2018-05-24T07:32:06Z</time>
      </trkpt>
      <trkpt lat="45.27086" lon="4.56705">
        <ele>900.20001220703</ele>
        <time>2018-05-24T07:32:10Z</time>
      </trkpt>
      <trkpt lat="45.27088" lon="4.56698">
        <ele>899.79998779297</ele>
        <time>2018-05-24T07:32:11Z</time>
      </trkpt>
      <trkpt lat="45.27089" lon="4.56691">
        <ele>899.40002441406</ele>
        <time>2018-05-24T07:32:12Z</time>
      </trkpt>
      <trkpt lat="45.27075" lon="4.56663">
        <ele>897.40002441406</ele>
        <time>2018-05-24T07:32:18Z</time>
      </trkpt>
      <trkpt lat="45.27053" lon="4.5667">
        <ele>895.79998779297</ele>
        <time>2018-05-24T07:32:24Z</time>
      </trkpt>
      <trkpt lat="45.27051" lon="4.56663">
        <ele>895.40002441406</ele>
        <time>2018-05-24T07:32:25Z</time>
      </trkpt>
      <trkpt lat="45.27044" lon="4.56642">
        <ele>894.59997558594</ele>
        <time>2018-05-24T07:32:28Z</time>
      </trkpt>
      <trkpt lat="45.2703" lon="4.56608">
        <ele>892.40002441406</ele>
        <time>2018-05-24T07:32:37Z</time>
      </trkpt>
      <trkpt lat="45.27021" lon="4.5659">
        <ele>892.40002441406</ele>
        <time>2018-05-24T07:32:43Z</time>
      </trkpt>
      <trkpt lat="45.26998" lon="4.56535">
        <ele>892.40002441406</ele>
        <time>2018-05-24T07:32:56Z</time>
      </trkpt>
      <trkpt lat="45.26994" lon="4.56437">
        <ele>892.40002441406</ele>
        <time>2018-05-24T07:33:15Z</time>
      </trkpt>
      <trkpt lat="45.26994" lon="4.56422">
        <ele>892.40002441406</ele>
        <time>2018-05-24T07:33:18Z</time>
      </trkpt>
      <trkpt lat="45.26992" lon="4.56395">
        <ele>892.40002441406</ele>
        <time>2018-05-24T07:33:23Z</time>
      </trkpt>
      <trkpt lat="45.26981" lon="4.56255">
        <ele>892.79998779297</ele>
        <time>2018-05-24T07:33:46Z</time>
      </trkpt>
      <trkpt lat="45.26982" lon="4.56225">
        <ele>894.40002441406</ele>
        <time>2018-05-24T07:33:51Z</time>
      </trkpt>
      <trkpt lat="45.26982" lon="4.56196">
        <ele>894.40002441406</ele>
        <time>2018-05-24T07:33:56Z</time>
      </trkpt>
      <trkpt lat="45.26985" lon="4.56158">
        <ele>895.59997558594</ele>
        <time>2018-05-24T07:34:10Z</time>
      </trkpt>
      <trkpt lat="45.26981" lon="4.56159">
        <ele>896.40002441406</ele>
        <time>2018-05-24T07:34:25Z</time>
      </trkpt>
      <trkpt lat="45.26975" lon="4.56113">
        <ele>896.40002441406</ele>
        <time>2018-05-24T07:34:48Z</time>
      </trkpt>
      <trkpt lat="45.26955" lon="4.55982">
        <ele>898.59997558594</ele>
        <time>2018-05-24T07:35:24Z</time>
      </trkpt>
      <trkpt lat="45.26953" lon="4.55933">
        <ele>900.59997558594</ele>
        <time>2018-05-24T07:35:43Z</time>
      </trkpt>
      <trkpt lat="45.26954" lon="4.55918">
        <ele>901.79998779297</ele>
        <time>2018-05-24T07:35:49Z</time>
      </trkpt>
      <trkpt lat="45.26963" lon="4.55886">
        <ele>904.40002441406</ele>
        <time>2018-05-24T07:36:03Z</time>
      </trkpt>
      <trkpt lat="45.26964" lon="4.55884">
        <ele>904.79998779297</ele>
        <time>2018-05-24T07:36:04Z</time>
      </trkpt>
      <trkpt lat="45.26973" lon="4.55838">
        <ele>907.79998779297</ele>
        <time>2018-05-24T07:36:26Z</time>
      </trkpt>
      <trkpt lat="45.26974" lon="4.55837">
        <ele>908.20001220703</ele>
        <time>2018-05-24T07:36:27Z</time>
      </trkpt>
      <trkpt lat="45.26978" lon="4.55796">
        <ele>911</ele>
        <time>2018-05-24T07:36:46Z</time>
      </trkpt>
      <trkpt lat="45.26982" lon="4.55764">
        <ele>914.20001220703</ele>
        <time>2018-05-24T07:37:02Z</time>
      </trkpt>
      <trkpt lat="45.26988" lon="4.55731">
        <ele>917.40002441406</ele>
        <time>2018-05-24T07:37:18Z</time>
      </trkpt>
      <trkpt lat="45.26998" lon="4.55692">
        <ele>920.20001220703</ele>
        <time>2018-05-24T07:37:39Z</time>
      </trkpt>
      <trkpt lat="45.26998" lon="4.55689">
        <ele>921</ele>
        <time>2018-05-24T07:37:41Z</time>
      </trkpt>
      <trkpt lat="45.27001" lon="4.55678">
        <ele>921.79998779297</ele>
        <time>2018-05-24T07:37:47Z</time>
      </trkpt>
      <trkpt lat="45.27005" lon="4.55635">
        <ele>923.79998779297</ele>
        <time>2018-05-24T07:38:08Z</time>
      </trkpt>
      <trkpt lat="45.27006" lon="4.55607">
        <ele>926.20001220703</ele>
        <time>2018-05-24T07:38:23Z</time>
      </trkpt>
      <trkpt lat="45.27005" lon="4.55601">
        <ele>927.79998779297</ele>
        <time>2018-05-24T07:38:38Z</time>
      </trkpt>
      <trkpt lat="45.27002" lon="4.55566">
        <ele>929.20001220703</ele>
        <time>2018-05-24T07:39:04Z</time>
      </trkpt>
      <trkpt lat="45.26983" lon="4.55539">
        <ele>930.79998779297</ele>
        <time>2018-05-24T07:39:20Z</time>
      </trkpt>
      <trkpt lat="45.26963" lon="4.5552">
        <ele>933</ele>
        <time>2018-05-24T07:39:36Z</time>
      </trkpt>
      <trkpt lat="45.26951" lon="4.55506">
        <ele>934.59997558594</ele>
        <time>2018-05-24T07:39:47Z</time>
      </trkpt>
      <trkpt lat="45.26949" lon="4.55501">
        <ele>935.79998779297</ele>
        <time>2018-05-24T07:39:49Z</time>
      </trkpt>
      <trkpt lat="45.26932" lon="4.55473">
        <ele>938.59997558594</ele>
        <time>2018-05-24T07:40:06Z</time>
      </trkpt>
      <trkpt lat="45.26916" lon="4.55437">
        <ele>940.59997558594</ele>
        <time>2018-05-24T07:40:26Z</time>
      </trkpt>
      <trkpt lat="45.26897" lon="4.55409">
        <ele>942.59997558594</ele>
        <time>2018-05-24T07:40:39Z</time>
      </trkpt>
      <trkpt lat="45.2685" lon="4.55323">
        <ele>944.59997558594</ele>
        <time>2018-05-24T07:41:15Z</time>
      </trkpt>
      <trkpt lat="45.26836" lon="4.55288">
        <ele>946.59997558594</ele>
        <time>2018-05-24T07:41:30Z</time>
      </trkpt>
      <trkpt lat="45.26806" lon="4.55216">
        <ele>948</ele>
        <time>2018-05-24T07:42:00Z</time>
      </trkpt>
      <trkpt lat="45.26796" lon="4.5519">
        <ele>949.20001220703</ele>
        <time>2018-05-24T07:42:11Z</time>
      </trkpt>
      <trkpt lat="45.26795" lon="4.55188">
        <ele>949.59997558594</ele>
        <time>2018-05-24T07:42:12Z</time>
      </trkpt>
      <trkpt lat="45.26785" lon="4.55159">
        <ele>951.79998779297</ele>
        <time>2018-05-24T07:42:25Z</time>
      </trkpt>
      <trkpt lat="45.26779" lon="4.55149">
        <ele>953</ele>
        <time>2018-05-24T07:42:30Z</time>
      </trkpt>
      <trkpt lat="45.26773" lon="4.55134">
        <ele>954.79998779297</ele>
        <time>2018-05-24T07:42:37Z</time>
      </trkpt>
      <trkpt lat="45.26764" lon="4.55115">
        <ele>957.20001220703</ele>
        <time>2018-05-24T07:42:48Z</time>
      </trkpt>
      <trkpt lat="45.26751" lon="4.55086">
        <ele>959.20001220703</ele>
        <time>2018-05-24T07:43:04Z</time>
      </trkpt>
      <trkpt lat="45.26735" lon="4.55065">
        <ele>962.20001220703</ele>
        <time>2018-05-24T07:43:17Z</time>
      </trkpt>
      <trkpt lat="45.26725" lon="4.55052">
        <ele>965.20001220703</ele>
        <time>2018-05-24T07:43:28Z</time>
      </trkpt>
      <trkpt lat="45.26716" lon="4.55039">
        <ele>967.79998779297</ele>
        <time>2018-05-24T07:43:39Z</time>
      </trkpt>
      <trkpt lat="45.26712" lon="4.55026">
        <ele>969.79998779297</ele>
        <time>2018-05-24T07:43:57Z</time>
      </trkpt>
      <trkpt lat="45.2671" lon="4.55021">
        <ele>970.59997558594</ele>
        <time>2018-05-24T07:44:04Z</time>
      </trkpt>
      <trkpt lat="45.26704" lon="4.55008">
        <ele>972</ele>
        <time>2018-05-24T07:44:17Z</time>
      </trkpt>
      <trkpt lat="45.26704" lon="4.55008">
        <ele>972</ele>
        <time>2018-05-24T07:44:18Z</time>
      </trkpt>
      <trkpt lat="45.26697" lon="4.54996">
        <ele>972.40002441406</ele>
        <time>2018-05-24T07:44:27Z</time>
      </trkpt>
      <trkpt lat="45.26694" lon="4.54993">
        <ele>973.20001220703</ele>
        <time>2018-05-24T07:44:29Z</time>
      </trkpt>
      <trkpt lat="45.26693" lon="4.54991">
        <ele>973.59997558594</ele>
        <time>2018-05-24T07:44:30Z</time>
      </trkpt>
      <trkpt lat="45.26676" lon="4.54954">
        <ele>975.79998779297</ele>
        <time>2018-05-24T07:44:46Z</time>
      </trkpt>
      <trkpt lat="45.26662" lon="4.54908">
        <ele>978.79998779297</ele>
        <time>2018-05-24T07:45:02Z</time>
      </trkpt>
      <trkpt lat="45.26652" lon="4.54888">
        <ele>978.79998779297</ele>
        <time>2018-05-24T07:45:09Z</time>
      </trkpt>
      <trkpt lat="45.26614" lon="4.54819">
        <ele>981.79998779297</ele>
        <time>2018-05-24T07:45:32Z</time>
      </trkpt>
      <trkpt lat="45.26588" lon="4.54773">
        <ele>984.79998779297</ele>
        <time>2018-05-24T07:45:47Z</time>
      </trkpt>
      <trkpt lat="45.26568" lon="4.54673">
        <ele>987.79998779297</ele>
        <time>2018-05-24T07:46:12Z</time>
      </trkpt>
      <trkpt lat="45.26564" lon="4.54606">
        <ele>990.79998779297</ele>
        <time>2018-05-24T07:46:28Z</time>
      </trkpt>
      <trkpt lat="45.26566" lon="4.54566">
        <ele>991.59997558594</ele>
        <time>2018-05-24T07:46:36Z</time>
      </trkpt>
      <trkpt lat="45.26581" lon="4.54502">
        <ele>990.79998779297</ele>
        <time>2018-05-24T07:46:44Z</time>
      </trkpt>
      <trkpt lat="45.26579" lon="4.54481">
        <ele>989.79998779297</ele>
        <time>2018-05-24T07:46:46Z</time>
      </trkpt>
      <trkpt lat="45.2659" lon="4.54429">
        <ele>987.20001220703</ele>
        <time>2018-05-24T07:46:51Z</time>
      </trkpt>
      <trkpt lat="45.26617" lon="4.54369">
        <ele>985.79998779297</ele>
        <time>2018-05-24T07:47:01Z</time>
      </trkpt>
      <trkpt lat="45.26634" lon="4.54358">
        <ele>985</ele>
        <time>2018-05-24T07:47:06Z</time>
      </trkpt>
      <trkpt lat="45.26653" lon="4.54346">
        <ele>985</ele>
        <time>2018-05-24T07:47:12Z</time>
      </trkpt>
      <trkpt lat="45.26688" lon="4.54321">
        <ele>985</ele>
        <time>2018-05-24T07:47:25Z</time>
      </trkpt>
      <trkpt lat="45.26686" lon="4.54298">
        <ele>985</ele>
        <time>2018-05-24T07:47:31Z</time>
      </trkpt>
      <trkpt lat="45.26685" lon="4.54284">
        <ele>985</ele>
        <time>2018-05-24T07:47:34Z</time>
      </trkpt>
      <trkpt lat="45.2666" lon="4.54261">
        <ele>984.40002441406</ele>
        <time>2018-05-24T07:47:43Z</time>
      </trkpt>
      <trkpt lat="45.26644" lon="4.54272">
        <ele>982.59997558594</ele>
        <time>2018-05-24T07:47:47Z</time>
      </trkpt>
      <trkpt lat="45.26628" lon="4.54288">
        <ele>982.59997558594</ele>
        <time>2018-05-24T07:47:52Z</time>
      </trkpt>
      <trkpt lat="45.26614" lon="4.54291">
        <ele>982.59997558594</ele>
        <time>2018-05-24T07:47:56Z</time>
      </trkpt>
      <trkpt lat="45.26582" lon="4.54279">
        <ele>980.40002441406</ele>
        <time>2018-05-24T07:48:04Z</time>
      </trkpt>
      <trkpt lat="45.26554" lon="4.54287">
        <ele>980.40002441406</ele>
        <time>2018-05-24T07:48:13Z</time>
      </trkpt>
      <trkpt lat="45.26509" lon="4.54291">
        <ele>980.40002441406</ele>
        <time>2018-05-24T07:48:28Z</time>
      </trkpt>
      <trkpt lat="45.26491" lon="4.54271">
        <ele>980.40002441406</ele>
        <time>2018-05-24T07:48:37Z</time>
      </trkpt>
      <trkpt lat="45.26463" lon="4.54255">
        <ele>982.79998779297</ele>
        <time>2018-05-24T07:48:56Z</time>
      </trkpt>
      <trkpt lat="45.26431" lon="4.54263">
        <ele>986</ele>
        <time>2018-05-24T07:49:13Z</time>
      </trkpt>
      <trkpt lat="45.26396" lon="4.54257">
        <ele>988.79998779297</ele>
        <time>2018-05-24T07:49:40Z</time>
      </trkpt>
      <trkpt lat="45.26391" lon="4.54254">
        <ele>988.79998779297</ele>
        <time>2018-05-24T07:49:47Z</time>
      </trkpt>
      <trkpt lat="45.2638" lon="4.54246">
        <ele>991.59997558594</ele>
        <time>2018-05-24T07:50:03Z</time>
      </trkpt>
      <trkpt lat="45.26378" lon="4.54243">
        <ele>993.20001220703</ele>
        <time>2018-05-24T07:50:07Z</time>
      </trkpt>
      <trkpt lat="45.26372" lon="4.54208">
        <ele>995.59997558594</ele>
        <time>2018-05-24T07:50:36Z</time>
      </trkpt>
      <trkpt lat="45.26368" lon="4.54192">
        <ele>997.40002441406</ele>
        <time>2018-05-24T07:50:51Z</time>
      </trkpt>
      <trkpt lat="45.26366" lon="4.54177">
        <ele>999.40002441406</ele>
        <time>2018-05-24T07:51:04Z</time>
      </trkpt>
      <trkpt lat="45.2636" lon="4.54161">
        <ele>1002</ele>
        <time>2018-05-24T07:51:24Z</time>
      </trkpt>
      <trkpt lat="45.2636" lon="4.5416">
        <ele>1002.4000244141</ele>
        <time>2018-05-24T07:51:25Z</time>
      </trkpt>
      <trkpt lat="45.26355" lon="4.54147">
        <ele>1005.5999755859</ele>
        <time>2018-05-24T07:51:42Z</time>
      </trkpt>
      <trkpt lat="45.2635" lon="4.54133">
        <ele>1007.200012207</ele>
        <time>2018-05-24T07:51:58Z</time>
      </trkpt>
      <trkpt lat="45.2635" lon="4.54103">
        <ele>1008.799987793</ele>
        <time>2018-05-24T07:52:20Z</time>
      </trkpt>
      <trkpt lat="45.26345" lon="4.54086">
        <ele>1010.4000244141</ele>
        <time>2018-05-24T07:52:33Z</time>
      </trkpt>
      <trkpt lat="45.26336" lon="4.54082">
        <ele>1012.799987793</ele>
        <time>2018-05-24T07:52:46Z</time>
      </trkpt>
      <trkpt lat="45.26333" lon="4.5408">
        <ele>1013.799987793</ele>
        <time>2018-05-24T07:52:55Z</time>
      </trkpt>
      <trkpt lat="45.26321" lon="4.54071">
        <ele>1015.799987793</ele>
        <time>2018-05-24T07:53:14Z</time>
      </trkpt>
      <trkpt lat="45.26317" lon="4.54066">
        <ele>1016.200012207</ele>
        <time>2018-05-24T07:53:37Z</time>
      </trkpt>
      <trkpt lat="45.26294" lon="4.54061">
        <ele>1018.799987793</ele>
        <time>2018-05-24T07:53:52Z</time>
      </trkpt>
      <trkpt lat="45.26264" lon="4.54046">
        <ele>1022</ele>
        <time>2018-05-24T07:54:09Z</time>
      </trkpt>
      <trkpt lat="45.26248" lon="4.54041">
        <ele>1024.1999511719</ele>
        <time>2018-05-24T07:54:20Z</time>
      </trkpt>
      <trkpt lat="45.26227" lon="4.54015">
        <ele>1026</ele>
        <time>2018-05-24T07:54:34Z</time>
      </trkpt>
      <trkpt lat="45.2621" lon="4.53994">
        <ele>1023.4000244141</ele>
        <time>2018-05-24T07:54:40Z</time>
      </trkpt>
      <trkpt lat="45.26199" lon="4.53974">
        <ele>1021.5999755859</ele>
        <time>2018-05-24T07:54:44Z</time>
      </trkpt>
      <trkpt lat="45.2619" lon="4.53959">
        <ele>1020.4000244141</ele>
        <time>2018-05-24T07:54:47Z</time>
      </trkpt>
      <trkpt lat="45.26175" lon="4.53929">
        <ele>1017.4000244141</ele>
        <time>2018-05-24T07:54:52Z</time>
      </trkpt>
      <trkpt lat="45.26164" lon="4.53908">
        <ele>1015.4000244141</ele>
        <time>2018-05-24T07:54:56Z</time>
      </trkpt>
      <trkpt lat="45.26157" lon="4.53886">
        <ele>1013.4000244141</ele>
        <time>2018-05-24T07:55:00Z</time>
      </trkpt>
      <trkpt lat="45.26147" lon="4.53872">
        <ele>1011.799987793</ele>
        <time>2018-05-24T07:55:03Z</time>
      </trkpt>
      <trkpt lat="45.26122" lon="4.53836">
        <ele>1010.799987793</ele>
        <time>2018-05-24T07:55:14Z</time>
      </trkpt>
      <trkpt lat="45.26106" lon="4.53826">
        <ele>1012.5999755859</ele>
        <time>2018-05-24T07:55:22Z</time>
      </trkpt>
      <trkpt lat="45.26102" lon="4.53826">
        <ele>1013.799987793</ele>
        <time>2018-05-24T07:55:29Z</time>
      </trkpt>
      <trkpt lat="45.26089" lon="4.53821">
        <ele>1015.200012207</ele>
        <time>2018-05-24T07:55:42Z</time>
      </trkpt>
      <trkpt lat="45.2606" lon="4.5381">
        <ele>1017.200012207</ele>
        <time>2018-05-24T07:55:59Z</time>
      </trkpt>
      <trkpt lat="45.26033" lon="4.53802">
        <ele>1019.200012207</ele>
        <time>2018-05-24T07:56:12Z</time>
      </trkpt>
      <trkpt lat="45.25995" lon="4.53799">
        <ele>1021.799987793</ele>
        <time>2018-05-24T07:56:32Z</time>
      </trkpt>
      <trkpt lat="45.25969" lon="4.53799">
        <ele>1023.5999755859</ele>
        <time>2018-05-24T07:56:46Z</time>
      </trkpt>
      <trkpt lat="45.25957" lon="4.53799">
        <ele>1024</ele>
        <time>2018-05-24T07:56:52Z</time>
      </trkpt>
      <trkpt lat="45.25952" lon="4.53798">
        <ele>1025.8000488281</ele>
        <time>2018-05-24T07:56:55Z</time>
      </trkpt>
      <trkpt lat="45.25915" lon="4.53809">
        <ele>1027.8000488281</ele>
        <time>2018-05-24T07:57:18Z</time>
      </trkpt>
      <trkpt lat="45.25897" lon="4.53819">
        <ele>1029.8000488281</ele>
        <time>2018-05-24T07:57:31Z</time>
      </trkpt>
      <trkpt lat="45.25883" lon="4.53827">
        <ele>1031.8000488281</ele>
        <time>2018-05-24T07:57:41Z</time>
      </trkpt>
      <trkpt lat="45.25863" lon="4.53834">
        <ele>1034.8000488281</ele>
        <time>2018-05-24T07:57:56Z</time>
      </trkpt>
      <trkpt lat="45.25842" lon="4.53846">
        <ele>1038</ele>
        <time>2018-05-24T07:58:10Z</time>
      </trkpt>
      <trkpt lat="45.25826" lon="4.53872">
        <ele>1041</ele>
        <time>2018-05-24T07:58:26Z</time>
      </trkpt>
      <trkpt lat="45.25814" lon="4.53891">
        <ele>1042.4000244141</ele>
        <time>2018-05-24T07:58:38Z</time>
      </trkpt>
      <trkpt lat="45.25804" lon="4.53888">
        <ele>1042.4000244141</ele>
        <time>2018-05-24T07:58:42Z</time>
      </trkpt>
      <trkpt lat="45.25767" lon="4.53872">
        <ele>1042.4000244141</ele>
        <time>2018-05-24T07:58:51Z</time>
      </trkpt>
      <trkpt lat="45.25748" lon="4.53856">
        <ele>1042.4000244141</ele>
        <time>2018-05-24T07:59:04Z</time>
      </trkpt>
      <trkpt lat="45.25735" lon="4.53841">
        <ele>1044.5999755859</ele>
        <time>2018-05-24T07:59:21Z</time>
      </trkpt>
      <trkpt lat="45.2573" lon="4.53842">
        <ele>1044.5999755859</ele>
        <time>2018-05-24T07:59:27Z</time>
      </trkpt>
      <trkpt lat="45.25743" lon="4.53855">
        <ele>1044.5999755859</ele>
        <time>2018-05-24T07:59:38Z</time>
      </trkpt>
      <trkpt lat="45.25751" lon="4.53866">
        <ele>1044.5999755859</ele>
        <time>2018-05-24T07:59:42Z</time>
      </trkpt>
      <trkpt lat="45.25741" lon="4.5387">
        <ele>1042.4000244141</ele>
        <time>2018-05-24T07:59:49Z</time>
      </trkpt>
      <trkpt lat="45.2572" lon="4.53871">
        <ele>1043.1999511719</ele>
        <time>2018-05-24T08:00:00Z</time>
      </trkpt>
      <trkpt lat="45.25696" lon="4.53876">
        <ele>1046.4000244141</ele>
        <time>2018-05-24T08:00:12Z</time>
      </trkpt>
      <trkpt lat="45.25639" lon="4.53877">
        <ele>1048.4000244141</ele>
        <time>2018-05-24T08:00:35Z</time>
      </trkpt>
      <trkpt lat="45.25605" lon="4.53877">
        <ele>1051.4000244141</ele>
        <time>2018-05-24T08:00:50Z</time>
      </trkpt>
      <trkpt lat="45.25584" lon="4.53879">
        <ele>1055</ele>
        <time>2018-05-24T08:01:01Z</time>
      </trkpt>
      <trkpt lat="45.25581" lon="4.53879">
        <ele>1055</ele>
        <time>2018-05-24T08:01:03Z</time>
      </trkpt>
      <trkpt lat="45.25574" lon="4.53879">
        <ele>1055.8000488281</ele>
        <time>2018-05-24T08:01:07Z</time>
      </trkpt>
      <trkpt lat="45.25562" lon="4.53885">
        <ele>1057.4000244141</ele>
        <time>2018-05-24T08:01:16Z</time>
      </trkpt>
      <trkpt lat="45.25547" lon="4.53887">
        <ele>1060.4000244141</ele>
        <time>2018-05-24T08:01:26Z</time>
      </trkpt>
      <trkpt lat="45.25529" lon="4.53892">
        <ele>1063.4000244141</ele>
        <time>2018-05-24T08:01:38Z</time>
      </trkpt>
      <trkpt lat="45.25517" lon="4.53898">
        <ele>1064.5999755859</ele>
        <time>2018-05-24T08:01:46Z</time>
      </trkpt>
      <trkpt lat="45.25513" lon="4.53898">
        <ele>1065.4000244141</ele>
        <time>2018-05-24T08:01:48Z</time>
      </trkpt>
      <trkpt lat="45.2549" lon="4.5391">
        <ele>1067.8000488281</ele>
        <time>2018-05-24T08:02:04Z</time>
      </trkpt>
      <trkpt lat="45.25459" lon="4.53928">
        <ele>1070.8000488281</ele>
        <time>2018-05-24T08:02:23Z</time>
      </trkpt>
      <trkpt lat="45.25435" lon="4.53941">
        <ele>1072.8000488281</ele>
        <time>2018-05-24T08:02:39Z</time>
      </trkpt>
      <trkpt lat="45.25433" lon="4.53943">
        <ele>1073.5999755859</ele>
        <time>2018-05-24T08:02:41Z</time>
      </trkpt>
      <trkpt lat="45.25415" lon="4.53952">
        <ele>1076.5999755859</ele>
        <time>2018-05-24T08:02:53Z</time>
      </trkpt>
      <trkpt lat="45.25396" lon="4.5396">
        <ele>1080</ele>
        <time>2018-05-24T08:03:08Z</time>
      </trkpt>
      <trkpt lat="45.25378" lon="4.53962">
        <ele>1081.5999755859</ele>
        <time>2018-05-24T08:03:19Z</time>
      </trkpt>
      <trkpt lat="45.25366" lon="4.53967">
        <ele>1083.1999511719</ele>
        <time>2018-05-24T08:03:27Z</time>
      </trkpt>
      <trkpt lat="45.25361" lon="4.5397">
        <ele>1084.8000488281</ele>
        <time>2018-05-24T08:03:31Z</time>
      </trkpt>
      <trkpt lat="45.25348" lon="4.53974">
        <ele>1086.5999755859</ele>
        <time>2018-05-24T08:03:40Z</time>
      </trkpt>
      <trkpt lat="45.25319" lon="4.53972">
        <ele>1089.5999755859</ele>
        <time>2018-05-24T08:03:58Z</time>
      </trkpt>
      <trkpt lat="45.25316" lon="4.53971">
        <ele>1090.5999755859</ele>
        <time>2018-05-24T08:04:00Z</time>
      </trkpt>
      <trkpt lat="45.25313" lon="4.53972">
        <ele>1091.4000244141</ele>
        <time>2018-05-24T08:04:02Z</time>
      </trkpt>
      <trkpt lat="45.253" lon="4.53965">
        <ele>1093</ele>
        <time>2018-05-24T08:04:10Z</time>
      </trkpt>
      <trkpt lat="45.25296" lon="4.53964">
        <ele>1093.4000244141</ele>
        <time>2018-05-24T08:04:13Z</time>
      </trkpt>
      <trkpt lat="45.25277" lon="4.53958">
        <ele>1096.4000244141</ele>
        <time>2018-05-24T08:04:26Z</time>
      </trkpt>
      <trkpt lat="45.25275" lon="4.53958">
        <ele>1097.1999511719</ele>
        <time>2018-05-24T08:04:28Z</time>
      </trkpt>
      <trkpt lat="45.25262" lon="4.53945">
        <ele>1098.4000244141</ele>
        <time>2018-05-24T08:04:37Z</time>
      </trkpt>
      <trkpt lat="45.25255" lon="4.53941">
        <ele>1099.5999755859</ele>
        <time>2018-05-24T08:04:42Z</time>
      </trkpt>
      <trkpt lat="45.25235" lon="4.53925">
        <ele>1102.5999755859</ele>
        <time>2018-05-24T08:04:57Z</time>
      </trkpt>
      <trkpt lat="45.25233" lon="4.53922">
        <ele>1103.4000244141</ele>
        <time>2018-05-24T08:04:59Z</time>
      </trkpt>
      <trkpt lat="45.25211" lon="4.53904">
        <ele>1103.8000488281</ele>
        <time>2018-05-24T08:05:14Z</time>
      </trkpt>
      <trkpt lat="45.25194" lon="4.53888">
        <ele>1105.8000488281</ele>
        <time>2018-05-24T08:05:22Z</time>
      </trkpt>
      <trkpt lat="45.2516" lon="4.5386">
        <ele>1108</ele>
        <time>2018-05-24T08:05:40Z</time>
      </trkpt>
      <trkpt lat="45.25149" lon="4.53852">
        <ele>1108.4000244141</ele>
        <time>2018-05-24T08:05:47Z</time>
      </trkpt>
      <trkpt lat="45.25129" lon="4.53842">
        <ele>1111</ele>
        <time>2018-05-24T08:05:58Z</time>
      </trkpt>
      <trkpt lat="45.25119" lon="4.53833">
        <ele>1112.4000244141</ele>
        <time>2018-05-24T08:06:05Z</time>
      </trkpt>
      <trkpt lat="45.25114" lon="4.5383">
        <ele>1113.1999511719</ele>
        <time>2018-05-24T08:06:08Z</time>
      </trkpt>
      <trkpt lat="45.25112" lon="4.53826">
        <ele>1114</ele>
        <time>2018-05-24T08:06:10Z</time>
      </trkpt>
      <trkpt lat="45.25102" lon="4.53816">
        <ele>1114.8000488281</ele>
        <time>2018-05-24T08:06:17Z</time>
      </trkpt>
      <trkpt lat="45.25089" lon="4.53805">
        <ele>1117</ele>
        <time>2018-05-24T08:06:26Z</time>
      </trkpt>
      <trkpt lat="45.25084" lon="4.53799">
        <ele>1118.5999755859</ele>
        <time>2018-05-24T08:06:30Z</time>
      </trkpt>
      <trkpt lat="45.25083" lon="4.53797">
        <ele>1118.5999755859</ele>
        <time>2018-05-24T08:06:32Z</time>
      </trkpt>
      <trkpt lat="45.25064" lon="4.53783">
        <ele>1120.5999755859</ele>
        <time>2018-05-24T08:06:46Z</time>
      </trkpt>
      <trkpt lat="45.25058" lon="4.53775">
        <ele>1122.8000488281</ele>
        <time>2018-05-24T08:06:51Z</time>
      </trkpt>
      <trkpt lat="45.2505" lon="4.53761">
        <ele>1124.1999511719</ele>
        <time>2018-05-24T08:07:00Z</time>
      </trkpt>
      <trkpt lat="45.25038" lon="4.5375">
        <ele>1126.4000244141</ele>
        <time>2018-05-24T08:07:10Z</time>
      </trkpt>
      <trkpt lat="45.25029" lon="4.53737">
        <ele>1128.4000244141</ele>
        <time>2018-05-24T08:07:19Z</time>
      </trkpt>
      <trkpt lat="45.25025" lon="4.53734">
        <ele>1129.1999511719</ele>
        <time>2018-05-24T08:07:22Z</time>
      </trkpt>
      <trkpt lat="45.2502" lon="4.53719">
        <ele>1130</ele>
        <time>2018-05-24T08:07:29Z</time>
      </trkpt>
      <trkpt lat="45.25008" lon="4.53698">
        <ele>1132.1999511719</ele>
        <time>2018-05-24T08:07:41Z</time>
      </trkpt>
      <trkpt lat="45.25006" lon="4.53694">
        <ele>1133</ele>
        <time>2018-05-24T08:07:43Z</time>
      </trkpt>
      <trkpt lat="45.24979" lon="4.53666">
        <ele>1135.4000244141</ele>
        <time>2018-05-24T08:08:03Z</time>
      </trkpt>
      <trkpt lat="45.24954" lon="4.53648">
        <ele>1138.4000244141</ele>
        <time>2018-05-24T08:08:20Z</time>
      </trkpt>
      <trkpt lat="45.2494" lon="4.53634">
        <ele>1141.8000488281</ele>
        <time>2018-05-24T08:08:32Z</time>
      </trkpt>
      <trkpt lat="45.24925" lon="4.53616">
        <ele>1142.5999755859</ele>
        <time>2018-05-24T08:08:44Z</time>
      </trkpt>
      <trkpt lat="45.24921" lon="4.53591">
        <ele>1144.5999755859</ele>
        <time>2018-05-24T08:08:56Z</time>
      </trkpt>
      <trkpt lat="45.24932" lon="4.53585">
        <ele>1146</ele>
        <time>2018-05-24T08:09:04Z</time>
      </trkpt>
      <trkpt lat="45.24963" lon="4.53586">
        <ele>1148</ele>
        <time>2018-05-24T08:09:19Z</time>
      </trkpt>
      <trkpt lat="45.24998" lon="4.53588">
        <ele>1148</ele>
        <time>2018-05-24T08:09:35Z</time>
      </trkpt>
      <trkpt lat="45.25016" lon="4.53583">
        <ele>1149.1999511719</ele>
        <time>2018-05-24T08:09:44Z</time>
      </trkpt>
      <trkpt lat="45.25027" lon="4.53561">
        <ele>1152.1999511719</ele>
        <time>2018-05-24T08:09:55Z</time>
      </trkpt>
      <trkpt lat="45.25028" lon="4.53538">
        <ele>1154</ele>
        <time>2018-05-24T08:10:04Z</time>
      </trkpt>
      <trkpt lat="45.25034" lon="4.53521">
        <ele>1154.8000488281</ele>
        <time>2018-05-24T08:10:11Z</time>
      </trkpt>
      <trkpt lat="45.25055" lon="4.53477">
        <ele>1157</ele>
        <time>2018-05-24T08:10:30Z</time>
      </trkpt>
      <trkpt lat="45.25059" lon="4.5347">
        <ele>1158.5999755859</ele>
        <time>2018-05-24T08:10:33Z</time>
      </trkpt>
      <trkpt lat="45.25069" lon="4.53441">
        <ele>1158.5999755859</ele>
        <time>2018-05-24T08:10:48Z</time>
      </trkpt>
      <trkpt lat="45.25068" lon="4.53414">
        <ele>1160.8000488281</ele>
        <time>2018-05-24T08:11:00Z</time>
      </trkpt>
      <trkpt lat="45.25062" lon="4.53379">
        <ele>1162.8000488281</ele>
        <time>2018-05-24T08:11:12Z</time>
      </trkpt>
      <trkpt lat="45.2506" lon="4.53368">
        <ele>1162.8000488281</ele>
        <time>2018-05-24T08:11:17Z</time>
      </trkpt>
      <trkpt lat="45.25064" lon="4.53353">
        <ele>1165</ele>
        <time>2018-05-24T08:11:24Z</time>
      </trkpt>
      <trkpt lat="45.25059" lon="4.53319">
        <ele>1166.1999511719</ele>
        <time>2018-05-24T08:11:35Z</time>
      </trkpt>
      <trkpt lat="45.25057" lon="4.53292">
        <ele>1167</ele>
        <time>2018-05-24T08:11:45Z</time>
      </trkpt>
      <trkpt lat="45.25053" lon="4.53274">
        <ele>1168.5999755859</ele>
        <time>2018-05-24T08:11:51Z</time>
      </trkpt>
      <trkpt lat="45.25052" lon="4.53271">
        <ele>1169</ele>
        <time>2018-05-24T08:11:52Z</time>
      </trkpt>
      <trkpt lat="45.25057" lon="4.5324">
        <ele>1169.5999755859</ele>
        <time>2018-05-24T08:12:05Z</time>
      </trkpt>
      <trkpt lat="45.25058" lon="4.53235">
        <ele>1170.4000244141</ele>
        <time>2018-05-24T08:12:07Z</time>
      </trkpt>
      <trkpt lat="45.25057" lon="4.53199">
        <ele>1172.5999755859</ele>
        <time>2018-05-24T08:12:17Z</time>
      </trkpt>
      <trkpt lat="45.25057" lon="4.53193">
        <ele>1173.4000244141</ele>
        <time>2018-05-24T08:12:19Z</time>
      </trkpt>
      <trkpt lat="45.25057" lon="4.53191">
        <ele>1173.4000244141</ele>
        <time>2018-05-24T08:12:20Z</time>
      </trkpt>
      <trkpt lat="45.25058" lon="4.53175">
        <ele>1173.4000244141</ele>
        <time>2018-05-24T08:12:26Z</time>
      </trkpt>
      <trkpt lat="45.25062" lon="4.53136">
        <ele>1175.4000244141</ele>
        <time>2018-05-24T08:12:41Z</time>
      </trkpt>
      <trkpt lat="45.25068" lon="4.53106">
        <ele>1177.5999755859</ele>
        <time>2018-05-24T08:12:52Z</time>
      </trkpt>
      <trkpt lat="45.25072" lon="4.53073">
        <ele>1179.5999755859</ele>
        <time>2018-05-24T08:13:02Z</time>
      </trkpt>
      <trkpt lat="45.2508" lon="4.53058">
        <ele>1179.5999755859</ele>
        <time>2018-05-24T08:13:07Z</time>
      </trkpt>
      <trkpt lat="45.25082" lon="4.53054">
        <ele>1179.5999755859</ele>
        <time>2018-05-24T08:13:09Z</time>
      </trkpt>
      <trkpt lat="45.2509" lon="4.5303">
        <ele>1179.5999755859</ele>
        <time>2018-05-24T08:13:18Z</time>
      </trkpt>
      <trkpt lat="45.25102" lon="4.52976">
        <ele>1179.5999755859</ele>
        <time>2018-05-24T08:13:28Z</time>
      </trkpt>
      <trkpt lat="45.25128" lon="4.5291">
        <ele>1181.5999755859</ele>
        <time>2018-05-24T08:13:44Z</time>
      </trkpt>
      <trkpt lat="45.25137" lon="4.5289">
        <ele>1181.5999755859</ele>
        <time>2018-05-24T08:13:49Z</time>
      </trkpt>
      <trkpt lat="45.25137" lon="4.52835">
        <ele>1181.5999755859</ele>
        <time>2018-05-24T08:13:59Z</time>
      </trkpt>
      <trkpt lat="45.25156" lon="4.52754">
        <ele>1181.5999755859</ele>
        <time>2018-05-24T08:14:16Z</time>
      </trkpt>
      <trkpt lat="45.25188" lon="4.52664">
        <ele>1183.8000488281</ele>
        <time>2018-05-24T08:14:40Z</time>
      </trkpt>
      <trkpt lat="45.25199" lon="4.52645">
        <ele>1183.8000488281</ele>
        <time>2018-05-24T08:14:45Z</time>
      </trkpt>
      <trkpt lat="45.25216" lon="4.52627">
        <ele>1183.8000488281</ele>
        <time>2018-05-24T08:14:50Z</time>
      </trkpt>
      <trkpt lat="45.253" lon="4.52561">
        <ele>1183.8000488281</ele>
        <time>2018-05-24T08:15:12Z</time>
      </trkpt>
      <trkpt lat="45.25351" lon="4.52537">
        <ele>1186</ele>
        <time>2018-05-24T08:15:31Z</time>
      </trkpt>
      <trkpt lat="45.25402" lon="4.52514">
        <ele>1188.1999511719</ele>
        <time>2018-05-24T08:15:55Z</time>
      </trkpt>
      <trkpt lat="45.25453" lon="4.52496">
        <ele>1188.1999511719</ele>
        <time>2018-05-24T08:16:07Z</time>
      </trkpt>
      <trkpt lat="45.25506" lon="4.52482">
        <ele>1187.1999511719</ele>
        <time>2018-05-24T08:16:18Z</time>
      </trkpt>
      <trkpt lat="45.25539" lon="4.52457">
        <ele>1184.1999511719</ele>
        <time>2018-05-24T08:16:24Z</time>
      </trkpt>
      <trkpt lat="45.25563" lon="4.52417">
        <ele>1180.8000488281</ele>
        <time>2018-05-24T08:16:28Z</time>
      </trkpt>
      <trkpt lat="45.25568" lon="4.524">
        <ele>1179.8000488281</ele>
        <time>2018-05-24T08:16:29Z</time>
      </trkpt>
      <trkpt lat="45.25579" lon="4.52366">
        <ele>1177.8000488281</ele>
        <time>2018-05-24T08:16:31Z</time>
      </trkpt>
      <trkpt lat="45.25586" lon="4.5232">
        <ele>1174.8000488281</ele>
        <time>2018-05-24T08:16:34Z</time>
      </trkpt>
      <trkpt lat="45.25588" lon="4.52281">
        <ele>1172.5999755859</ele>
        <time>2018-05-24T08:16:37Z</time>
      </trkpt>
      <trkpt lat="45.25599" lon="4.52196">
        <ele>1172.5999755859</ele>
        <time>2018-05-24T08:16:46Z</time>
      </trkpt>
      <trkpt lat="45.25609" lon="4.5212">
        <ele>1172.5999755859</ele>
        <time>2018-05-24T08:16:58Z</time>
      </trkpt>
      <trkpt lat="45.25595" lon="4.51995">
        <ele>1172.5999755859</ele>
        <time>2018-05-24T08:17:20Z</time>
      </trkpt>
      <trkpt lat="45.25587" lon="4.51967">
        <ele>1172.5999755859</ele>
        <time>2018-05-24T08:17:25Z</time>
      </trkpt>
      <trkpt lat="45.25583" lon="4.51938">
        <ele>1172.5999755859</ele>
        <time>2018-05-24T08:17:30Z</time>
      </trkpt>
      <trkpt lat="45.25562" lon="4.51825">
        <ele>1174.8000488281</ele>
        <time>2018-05-24T08:17:58Z</time>
      </trkpt>
      <trkpt lat="45.25559" lon="4.51805">
        <ele>1176.8000488281</ele>
        <time>2018-05-24T08:18:06Z</time>
      </trkpt>
      <trkpt lat="45.25544" lon="4.5177">
        <ele>1179.1999511719</ele>
        <time>2018-05-24T08:18:22Z</time>
      </trkpt>
      <trkpt lat="45.25544" lon="4.5176">
        <ele>1181</ele>
        <time>2018-05-24T08:18:26Z</time>
      </trkpt>
      <trkpt lat="45.25544" lon="4.51744">
        <ele>1181.4000244141</ele>
        <time>2018-05-24T08:18:34Z</time>
      </trkpt>
      <trkpt lat="45.25541" lon="4.51704">
        <ele>1183.8000488281</ele>
        <time>2018-05-24T08:18:49Z</time>
      </trkpt>
      <trkpt lat="45.25539" lon="4.51669">
        <ele>1187</ele>
        <time>2018-05-24T08:19:03Z</time>
      </trkpt>
      <trkpt lat="45.25533" lon="4.51636">
        <ele>1189</ele>
        <time>2018-05-24T08:19:18Z</time>
      </trkpt>
      <trkpt lat="45.25535" lon="4.51618">
        <ele>1190.1999511719</ele>
        <time>2018-05-24T08:19:26Z</time>
      </trkpt>
      <trkpt lat="45.25543" lon="4.51578">
        <ele>1193.1999511719</ele>
        <time>2018-05-24T08:19:43Z</time>
      </trkpt>
      <trkpt lat="45.25544" lon="4.51531">
        <ele>1195.4000244141</ele>
        <time>2018-05-24T08:20:02Z</time>
      </trkpt>
      <trkpt lat="45.25543" lon="4.51509">
        <ele>1197.4000244141</ele>
        <time>2018-05-24T08:20:09Z</time>
      </trkpt>
      <trkpt lat="45.25542" lon="4.51453">
        <ele>1199.5999755859</ele>
        <time>2018-05-24T08:20:25Z</time>
      </trkpt>
      <trkpt lat="45.2554" lon="4.51427">
        <ele>1199.5999755859</ele>
        <time>2018-05-24T08:20:30Z</time>
      </trkpt>
      <trkpt lat="45.2551" lon="4.51337">
        <ele>1199.5999755859</ele>
        <time>2018-05-24T08:20:48Z</time>
      </trkpt>
      <trkpt lat="45.25476" lon="4.51264">
        <ele>1199.5999755859</ele>
        <time>2018-05-24T08:21:07Z</time>
      </trkpt>
      <trkpt lat="45.2544" lon="4.51227">
        <ele>1202.8000488281</ele>
        <time>2018-05-24T08:21:24Z</time>
      </trkpt>
      <trkpt lat="45.2542" lon="4.51195">
        <ele>1205.8000488281</ele>
        <time>2018-05-24T08:21:36Z</time>
      </trkpt>
      <trkpt lat="45.25385" lon="4.51131">
        <ele>1207.8000488281</ele>
        <time>2018-05-24T08:21:56Z</time>
      </trkpt>
      <trkpt lat="45.25357" lon="4.51032">
        <ele>1207</ele>
        <time>2018-05-24T08:22:13Z</time>
      </trkpt>
      <trkpt lat="45.25334" lon="4.50965">
        <ele>1204.1999511719</ele>
        <time>2018-05-24T08:22:21Z</time>
      </trkpt>
      <trkpt lat="45.25314" lon="4.50911">
        <ele>1202</ele>
        <time>2018-05-24T08:22:27Z</time>
      </trkpt>
      <trkpt lat="45.25315" lon="4.50853">
        <ele>1199.4000244141</ele>
        <time>2018-05-24T08:22:32Z</time>
      </trkpt>
      <trkpt lat="45.25317" lon="4.50841">
        <ele>1198.5999755859</ele>
        <time>2018-05-24T08:22:33Z</time>
      </trkpt>
      <trkpt lat="45.25336" lon="4.50803">
        <ele>1196.1999511719</ele>
        <time>2018-05-24T08:22:37Z</time>
      </trkpt>
      <trkpt lat="45.25358" lon="4.50776">
        <ele>1195.8000488281</ele>
        <time>2018-05-24T08:22:41Z</time>
      </trkpt>
      <trkpt lat="45.2538" lon="4.50758">
        <ele>1194</ele>
        <time>2018-05-24T08:22:45Z</time>
      </trkpt>
      <trkpt lat="45.25395" lon="4.50742">
        <ele>1194</ele>
        <time>2018-05-24T08:22:48Z</time>
      </trkpt>
      <trkpt lat="45.25412" lon="4.50716">
        <ele>1194</ele>
        <time>2018-05-24T08:22:53Z</time>
      </trkpt>
      <trkpt lat="45.25424" lon="4.50695">
        <ele>1194</ele>
        <time>2018-05-24T08:22:57Z</time>
      </trkpt>
      <trkpt lat="45.25446" lon="4.50606">
        <ele>1193.1999511719</ele>
        <time>2018-05-24T08:23:10Z</time>
      </trkpt>
      <trkpt lat="45.25444" lon="4.50585">
        <ele>1192</ele>
        <time>2018-05-24T08:23:13Z</time>
      </trkpt>
      <trkpt lat="45.25443" lon="4.50578">
        <ele>1192</ele>
        <time>2018-05-24T08:23:14Z</time>
      </trkpt>
      <trkpt lat="45.25435" lon="4.50548">
        <ele>1192</ele>
        <time>2018-05-24T08:23:19Z</time>
      </trkpt>
      <trkpt lat="45.25425" lon="4.50518">
        <ele>1192</ele>
        <time>2018-05-24T08:23:25Z</time>
      </trkpt>
      <trkpt lat="45.25394" lon="4.5047">
        <ele>1192</ele>
        <time>2018-05-24T08:23:36Z</time>
      </trkpt>
      <trkpt lat="45.25381" lon="4.50453">
        <ele>1192</ele>
        <time>2018-05-24T08:23:40Z</time>
      </trkpt>
      <trkpt lat="45.25338" lon="4.50419">
        <ele>1190</ele>
        <time>2018-05-24T08:23:52Z</time>
      </trkpt>
      <trkpt lat="45.25278" lon="4.50365">
        <ele>1190</ele>
        <time>2018-05-24T08:24:13Z</time>
      </trkpt>
      <trkpt lat="45.25263" lon="4.50321">
        <ele>1188.4000244141</ele>
        <time>2018-05-24T08:24:22Z</time>
      </trkpt>
      <trkpt lat="45.25261" lon="4.50314">
        <ele>1188</ele>
        <time>2018-05-24T08:24:23Z</time>
      </trkpt>
      <trkpt lat="45.25247" lon="4.50248">
        <ele>1188</ele>
        <time>2018-05-24T08:24:32Z</time>
      </trkpt>
      <trkpt lat="45.25224" lon="4.50198">
        <ele>1188</ele>
        <time>2018-05-24T08:24:40Z</time>
      </trkpt>
      <trkpt lat="45.25199" lon="4.50165">
        <ele>1188</ele>
        <time>2018-05-24T08:24:46Z</time>
      </trkpt>
      <trkpt lat="45.25172" lon="4.50145">
        <ele>1186.5999755859</ele>
        <time>2018-05-24T08:24:51Z</time>
      </trkpt>
      <trkpt lat="45.25132" lon="4.50125">
        <ele>1183.5999755859</ele>
        <time>2018-05-24T08:24:57Z</time>
      </trkpt>
      <trkpt lat="45.2511" lon="4.50118">
        <ele>1181.1999511719</ele>
        <time>2018-05-24T08:25:00Z</time>
      </trkpt>
      <trkpt lat="45.25081" lon="4.50117">
        <ele>1177.8000488281</ele>
        <time>2018-05-24T08:25:04Z</time>
      </trkpt>
      <trkpt lat="45.25053" lon="4.50119">
        <ele>1174.5999755859</ele>
        <time>2018-05-24T08:25:08Z</time>
      </trkpt>
      <trkpt lat="45.25024" lon="4.50118">
        <ele>1171</ele>
        <time>2018-05-24T08:25:12Z</time>
      </trkpt>
      <trkpt lat="45.24996" lon="4.50121">
        <ele>1167.4000244141</ele>
        <time>2018-05-24T08:25:16Z</time>
      </trkpt>
      <trkpt lat="45.24989" lon="4.50124">
        <ele>1166.4000244141</ele>
        <time>2018-05-24T08:25:17Z</time>
      </trkpt>
      <trkpt lat="45.24971" lon="4.50132">
        <ele>1163.4000244141</ele>
        <time>2018-05-24T08:25:20Z</time>
      </trkpt>
      <trkpt lat="45.24954" lon="4.50117">
        <ele>1159.8000488281</ele>
        <time>2018-05-24T08:25:25Z</time>
      </trkpt>
      <trkpt lat="45.24958" lon="4.50091">
        <ele>1159</ele>
        <time>2018-05-24T08:25:29Z</time>
      </trkpt>
      <trkpt lat="45.24968" lon="4.50063">
        <ele>1158.5999755859</ele>
        <time>2018-05-24T08:25:33Z</time>
      </trkpt>
      <trkpt lat="45.24991" lon="4.50025">
        <ele>1156</ele>
        <time>2018-05-24T08:25:39Z</time>
      </trkpt>
      <trkpt lat="45.25007" lon="4.49992">
        <ele>1153</ele>
        <time>2018-05-24T08:25:43Z</time>
      </trkpt>
      <trkpt lat="45.25015" lon="4.49969">
        <ele>1149.8000488281</ele>
        <time>2018-05-24T08:25:48Z</time>
      </trkpt>
      <trkpt lat="45.25008" lon="4.49962">
        <ele>1148</ele>
        <time>2018-05-24T08:26:02Z</time>
      </trkpt>
      <trkpt lat="45.25008" lon="4.49962">
        <ele>1148</ele>
        <time>2018-05-24T08:26:10Z</time>
      </trkpt>
      <trkpt lat="45.25017" lon="4.49943">
        <ele>1147.1999511719</ele>
        <time>2018-05-24T08:26:15Z</time>
      </trkpt>
      <trkpt lat="45.25031" lon="4.49901">
        <ele>1144.1999511719</ele>
        <time>2018-05-24T08:26:21Z</time>
      </trkpt>
      <trkpt lat="45.25042" lon="4.4986">
        <ele>1140.5999755859</ele>
        <time>2018-05-24T08:26:26Z</time>
      </trkpt>
      <trkpt lat="45.25054" lon="4.49819">
        <ele>1137.1999511719</ele>
        <time>2018-05-24T08:26:30Z</time>
      </trkpt>
      <trkpt lat="45.25061" lon="4.49791">
        <ele>1133.8000488281</ele>
        <time>2018-05-24T08:26:33Z</time>
      </trkpt>
      <trkpt lat="45.25064" lon="4.4977">
        <ele>1132.1999511719</ele>
        <time>2018-05-24T08:26:35Z</time>
      </trkpt>
      <trkpt lat="45.25069" lon="4.4975">
        <ele>1130.5999755859</ele>
        <time>2018-05-24T08:26:37Z</time>
      </trkpt>
      <trkpt lat="45.25075" lon="4.49713">
        <ele>1127.4000244141</ele>
        <time>2018-05-24T08:26:41Z</time>
      </trkpt>
      <trkpt lat="45.25083" lon="4.49674">
        <ele>1124</ele>
        <time>2018-05-24T08:26:46Z</time>
      </trkpt>
      <trkpt lat="45.25084" lon="4.49667">
        <ele>1123.4000244141</ele>
        <time>2018-05-24T08:26:47Z</time>
      </trkpt>
      <trkpt lat="45.25082" lon="4.49621">
        <ele>1120.4000244141</ele>
        <time>2018-05-24T08:26:52Z</time>
      </trkpt>
      <trkpt lat="45.2509" lon="4.49592">
        <ele>1117.1999511719</ele>
        <time>2018-05-24T08:26:56Z</time>
      </trkpt>
      <trkpt lat="45.25093" lon="4.49589">
        <ele>1116.4000244141</ele>
        <time>2018-05-24T08:26:57Z</time>
      </trkpt>
      <trkpt lat="45.25101" lon="4.49581">
        <ele>1115.4000244141</ele>
        <time>2018-05-24T08:26:59Z</time>
      </trkpt>
      <trkpt lat="45.25112" lon="4.49566">
        <ele>1113.5999755859</ele>
        <time>2018-05-24T08:27:03Z</time>
      </trkpt>
      <trkpt lat="45.25115" lon="4.49562">
        <ele>1112.8000488281</ele>
        <time>2018-05-24T08:27:08Z</time>
      </trkpt>
      <trkpt lat="45.25114" lon="4.4956">
        <ele>1111.5999755859</ele>
        <time>2018-05-24T08:27:20Z</time>
      </trkpt>
      <trkpt lat="45.25114" lon="4.49562">
        <ele>1111.5999755859</ele>
        <time>2018-05-24T08:27:37Z</time>
      </trkpt>
      <trkpt lat="45.25099" lon="4.49572">
        <ele>1111.5999755859</ele>
        <time>2018-05-24T08:27:48Z</time>
      </trkpt>
      <trkpt lat="45.25083" lon="4.49595">
        <ele>1113.5999755859</ele>
        <time>2018-05-24T08:28:10Z</time>
      </trkpt>
      <trkpt lat="45.25083" lon="4.49592">
        <ele>1113.5999755859</ele>
        <time>2018-05-24T08:28:11Z</time>
      </trkpt>
      <trkpt lat="45.25096" lon="4.49554">
        <ele>1113.5999755859</ele>
        <time>2018-05-24T08:28:23Z</time>
      </trkpt>
      <trkpt lat="45.25105" lon="4.49547">
        <ele>1115.8000488281</ele>
        <time>2018-05-24T08:28:28Z</time>
      </trkpt>
      <trkpt lat="45.25107" lon="4.49542">
        <ele>1115.8000488281</ele>
        <time>2018-05-24T08:28:31Z</time>
      </trkpt>
      <trkpt lat="45.25126" lon="4.49503">
        <ele>1117.8000488281</ele>
        <time>2018-05-24T08:28:51Z</time>
      </trkpt>
      <trkpt lat="45.25138" lon="4.49468">
        <ele>1119.8000488281</ele>
        <time>2018-05-24T08:29:04Z</time>
      </trkpt>
      <trkpt lat="45.25151" lon="4.49425">
        <ele>1120.5999755859</ele>
        <time>2018-05-24T08:29:20Z</time>
      </trkpt>
      <trkpt lat="45.25156" lon="4.49411">
        <ele>1122</ele>
        <time>2018-05-24T08:29:27Z</time>
      </trkpt>
      <trkpt lat="45.25178" lon="4.49341">
        <ele>1124</ele>
        <time>2018-05-24T08:29:55Z</time>
      </trkpt>
      <trkpt lat="45.25196" lon="4.4929">
        <ele>1126.8000488281</ele>
        <time>2018-05-24T08:30:15Z</time>
      </trkpt>
      <trkpt lat="45.25207" lon="4.49247">
        <ele>1128</ele>
        <time>2018-05-24T08:30:31Z</time>
      </trkpt>
      <trkpt lat="45.2522" lon="4.4918">
        <ele>1130.1999511719</ele>
        <time>2018-05-24T08:30:53Z</time>
      </trkpt>
      <trkpt lat="45.25218" lon="4.49125">
        <ele>1132.1999511719</ele>
        <time>2018-05-24T08:31:11Z</time>
      </trkpt>
      <trkpt lat="45.25203" lon="4.49102">
        <ele>1132.1999511719</ele>
        <time>2018-05-24T08:31:22Z</time>
      </trkpt>
      <trkpt lat="45.25172" lon="4.4908">
        <ele>1134.5999755859</ele>
        <time>2018-05-24T08:31:39Z</time>
      </trkpt>
      <trkpt lat="45.25136" lon="4.49076">
        <ele>1137.5999755859</ele>
        <time>2018-05-24T08:31:58Z</time>
      </trkpt>
      <trkpt lat="45.25089" lon="4.49069">
        <ele>1140</ele>
        <time>2018-05-24T08:32:21Z</time>
      </trkpt>
      <trkpt lat="45.25023" lon="4.4906">
        <ele>1142.4000244141</ele>
        <time>2018-05-24T08:32:52Z</time>
      </trkpt>
      <trkpt lat="45.24972" lon="4.49061">
        <ele>1144.4000244141</ele>
        <time>2018-05-24T08:33:15Z</time>
      </trkpt>
      <trkpt lat="45.24931" lon="4.49053">
        <ele>1144.4000244141</ele>
        <time>2018-05-24T08:33:34Z</time>
      </trkpt>
      <trkpt lat="45.24935" lon="4.49012">
        <ele>1144.4000244141</ele>
        <time>2018-05-24T08:33:44Z</time>
      </trkpt>
      <trkpt lat="45.24942" lon="4.4899">
        <ele>1144.4000244141</ele>
        <time>2018-05-24T08:33:49Z</time>
      </trkpt>
      <trkpt lat="45.24959" lon="4.48899">
        <ele>1144.4000244141</ele>
        <time>2018-05-24T08:34:09Z</time>
      </trkpt>
      <trkpt lat="45.24961" lon="4.48874">
        <ele>1144.4000244141</ele>
        <time>2018-05-24T08:34:14Z</time>
      </trkpt>
      <trkpt lat="45.24961" lon="4.48847">
        <ele>1143.5999755859</ele>
        <time>2018-05-24T08:34:18Z</time>
      </trkpt>
      <trkpt lat="45.24961" lon="4.48814">
        <ele>1142.1999511719</ele>
        <time>2018-05-24T08:34:23Z</time>
      </trkpt>
      <trkpt lat="45.24959" lon="4.48801">
        <ele>1142.1999511719</ele>
        <time>2018-05-24T08:34:25Z</time>
      </trkpt>
      <trkpt lat="45.24957" lon="4.48782">
        <ele>1142.1999511719</ele>
        <time>2018-05-24T08:34:28Z</time>
      </trkpt>
      <trkpt lat="45.24952" lon="4.48762">
        <ele>1141</ele>
        <time>2018-05-24T08:34:31Z</time>
      </trkpt>
      <trkpt lat="45.24934" lon="4.48722">
        <ele>1140</ele>
        <time>2018-05-24T08:34:38Z</time>
      </trkpt>
      <trkpt lat="45.24908" lon="4.48696">
        <ele>1138</ele>
        <time>2018-05-24T08:34:44Z</time>
      </trkpt>
      <trkpt lat="45.24885" lon="4.4866">
        <ele>1137.5999755859</ele>
        <time>2018-05-24T08:34:51Z</time>
      </trkpt>
      <trkpt lat="45.24859" lon="4.48577">
        <ele>1135.4000244141</ele>
        <time>2018-05-24T08:35:03Z</time>
      </trkpt>
      <trkpt lat="45.24835" lon="4.48492">
        <ele>1132.4000244141</ele>
        <time>2018-05-24T08:35:15Z</time>
      </trkpt>
      <trkpt lat="45.24819" lon="4.48439">
        <ele>1131</ele>
        <time>2018-05-24T08:35:22Z</time>
      </trkpt>
      <trkpt lat="45.24811" lon="4.48418">
        <ele>1129.5999755859</ele>
        <time>2018-05-24T08:35:25Z</time>
      </trkpt>
      <trkpt lat="45.24782" lon="4.48362">
        <ele>1128.4000244141</ele>
        <time>2018-05-24T08:35:34Z</time>
      </trkpt>
      <trkpt lat="45.24766" lon="4.48345">
        <ele>1127</ele>
        <time>2018-05-24T08:35:38Z</time>
      </trkpt>
      <trkpt lat="45.24715" lon="4.48309">
        <ele>1125</ele>
        <time>2018-05-24T08:35:48Z</time>
      </trkpt>
      <trkpt lat="45.24668" lon="4.48287">
        <ele>1124.5999755859</ele>
        <time>2018-05-24T08:35:57Z</time>
      </trkpt>
      <trkpt lat="45.24639" lon="4.48266">
        <ele>1122.8000488281</ele>
        <time>2018-05-24T08:36:03Z</time>
      </trkpt>
      <trkpt lat="45.24613" lon="4.48256">
        <ele>1121.5999755859</ele>
        <time>2018-05-24T08:36:08Z</time>
      </trkpt>
      <trkpt lat="45.24578" lon="4.48233">
        <ele>1120.5999755859</ele>
        <time>2018-05-24T08:36:19Z</time>
      </trkpt>
      <trkpt lat="45.24579" lon="4.48211">
        <ele>1120.5999755859</ele>
        <time>2018-05-24T08:36:23Z</time>
      </trkpt>
      <trkpt lat="45.24587" lon="4.48087">
        <ele>1118.5999755859</ele>
        <time>2018-05-24T08:36:39Z</time>
      </trkpt>
      <trkpt lat="45.24585" lon="4.48028">
        <ele>1117.4000244141</ele>
        <time>2018-05-24T08:36:45Z</time>
      </trkpt>
      <trkpt lat="45.2458" lon="4.47989">
        <ele>1116.1999511719</ele>
        <time>2018-05-24T08:36:49Z</time>
      </trkpt>
      <trkpt lat="45.24547" lon="4.47934">
        <ele>1114.1999511719</ele>
        <time>2018-05-24T08:36:57Z</time>
      </trkpt>
      <trkpt lat="45.24537" lon="4.4793">
        <ele>1113.4000244141</ele>
        <time>2018-05-24T08:36:59Z</time>
      </trkpt>
      <trkpt lat="45.24531" lon="4.47928">
        <ele>1113</ele>
        <time>2018-05-24T08:37:00Z</time>
      </trkpt>
      <trkpt lat="45.24521" lon="4.47925">
        <ele>1112.5999755859</ele>
        <time>2018-05-24T08:37:02Z</time>
      </trkpt>
      <trkpt lat="45.24512" lon="4.47901">
        <ele>1112.5999755859</ele>
        <time>2018-05-24T08:37:08Z</time>
      </trkpt>
      <trkpt lat="45.24539" lon="4.47867">
        <ele>1112.5999755859</ele>
        <time>2018-05-24T08:37:16Z</time>
      </trkpt>
      <trkpt lat="45.24573" lon="4.47842">
        <ele>1112.5999755859</ele>
        <time>2018-05-24T08:37:24Z</time>
      </trkpt>
      <trkpt lat="45.24613" lon="4.47823">
        <ele>1112.5999755859</ele>
        <time>2018-05-24T08:37:34Z</time>
      </trkpt>
      <trkpt lat="45.24664" lon="4.47819">
        <ele>1115.1999511719</ele>
        <time>2018-05-24T08:37:50Z</time>
      </trkpt>
      <trkpt lat="45.24686" lon="4.47821">
        <ele>1118.1999511719</ele>
        <time>2018-05-24T08:38:03Z</time>
      </trkpt>
      <trkpt lat="45.24687" lon="4.47821">
        <ele>1118.5999755859</ele>
        <time>2018-05-24T08:38:04Z</time>
      </trkpt>
      <trkpt lat="45.24695" lon="4.4781">
        <ele>1119</ele>
        <time>2018-05-24T08:38:18Z</time>
      </trkpt>
      <trkpt lat="45.24694" lon="4.47811">
        <ele>1119</ele>
        <time>2018-05-24T08:40:36Z</time>
      </trkpt>
      <trkpt lat="45.24695" lon="4.47811">
        <ele>1119</ele>
        <time>2018-05-24T08:41:49Z</time>
      </trkpt>
      <trkpt lat="45.24696" lon="4.47812">
        <ele>1119</ele>
        <time>2018-05-24T08:42:36Z</time>
      </trkpt>
      <trkpt lat="45.24728" lon="4.47836">
        <ele>1119</ele>
        <time>2018-05-24T08:42:50Z</time>
      </trkpt>
      <trkpt lat="45.24739" lon="4.47844">
        <ele>1119</ele>
        <time>2018-05-24T08:42:53Z</time>
      </trkpt>
      <trkpt lat="45.24782" lon="4.47853">
        <ele>1119</ele>
        <time>2018-05-24T08:43:03Z</time>
      </trkpt>
      <trkpt lat="45.24848" lon="4.47856">
        <ele>1116.4000244141</ele>
        <time>2018-05-24T08:43:15Z</time>
      </trkpt>
      <trkpt lat="45.2488" lon="4.47853">
        <ele>1114.5999755859</ele>
        <time>2018-05-24T08:43:23Z</time>
      </trkpt>
      <trkpt lat="45.24908" lon="4.47851">
        <ele>1114.5999755859</ele>
        <time>2018-05-24T08:43:38Z</time>
      </trkpt>
      <trkpt lat="45.24943" lon="4.47859">
        <ele>1116.5999755859</ele>
        <time>2018-05-24T08:43:52Z</time>
      </trkpt>
      <trkpt lat="45.24964" lon="4.47855">
        <ele>1113.4000244141</ele>
        <time>2018-05-24T08:44:02Z</time>
      </trkpt>
      <trkpt lat="45.24976" lon="4.4785">
        <ele>1110.1999511719</ele>
        <time>2018-05-24T08:44:08Z</time>
      </trkpt>
      <trkpt lat="45.24987" lon="4.47852">
        <ele>1107.4000244141</ele>
        <time>2018-05-24T08:44:13Z</time>
      </trkpt>
      <trkpt lat="45.24995" lon="4.47862">
        <ele>1104.4000244141</ele>
        <time>2018-05-24T08:44:18Z</time>
      </trkpt>
      <trkpt lat="45.2501" lon="4.47869">
        <ele>1102.1999511719</ele>
        <time>2018-05-24T08:44:22Z</time>
      </trkpt>
      <trkpt lat="45.25036" lon="4.47878">
        <ele>1099</ele>
        <time>2018-05-24T08:44:29Z</time>
      </trkpt>
      <trkpt lat="45.25046" lon="4.47884">
        <ele>1097.5999755859</ele>
        <time>2018-05-24T08:44:32Z</time>
      </trkpt>
      <trkpt lat="45.25072" lon="4.47886">
        <ele>1094.4000244141</ele>
        <time>2018-05-24T08:44:38Z</time>
      </trkpt>
      <trkpt lat="45.25075" lon="4.47886">
        <ele>1093.8000488281</ele>
        <time>2018-05-24T08:44:39Z</time>
      </trkpt>
      <trkpt lat="45.25083" lon="4.4789">
        <ele>1091.4000244141</ele>
        <time>2018-05-24T08:44:49Z</time>
      </trkpt>
      <trkpt lat="45.25087" lon="4.47892">
        <ele>1090.8000488281</ele>
        <time>2018-05-24T08:44:57Z</time>
      </trkpt>
      <trkpt lat="45.25092" lon="4.47895">
        <ele>1088.4000244141</ele>
        <time>2018-05-24T08:45:08Z</time>
      </trkpt>
      <trkpt lat="45.25097" lon="4.47897">
        <ele>1085.8000488281</ele>
        <time>2018-05-24T08:45:16Z</time>
      </trkpt>
      <trkpt lat="45.25097" lon="4.47897">
        <ele>1084.8000488281</ele>
        <time>2018-05-24T08:45:18Z</time>
      </trkpt>
      <trkpt lat="45.25108" lon="4.47901">
        <ele>1081.5999755859</ele>
        <time>2018-05-24T08:45:29Z</time>
      </trkpt>
      <trkpt lat="45.25114" lon="4.47902">
        <ele>1078.5999755859</ele>
        <time>2018-05-24T08:45:39Z</time>
      </trkpt>
      <trkpt lat="45.25117" lon="4.47902">
        <ele>1078.1999511719</ele>
        <time>2018-05-24T08:45:42Z</time>
      </trkpt>
      <trkpt lat="45.25118" lon="4.47901">
        <ele>1077</ele>
        <time>2018-05-24T08:45:45Z</time>
      </trkpt>
      <trkpt lat="45.25122" lon="4.47902">
        <ele>1075.4000244141</ele>
        <time>2018-05-24T08:45:55Z</time>
      </trkpt>
      <trkpt lat="45.25127" lon="4.47906">
        <ele>1073.1999511719</ele>
        <time>2018-05-24T08:46:03Z</time>
      </trkpt>
      <trkpt lat="45.25131" lon="4.47909">
        <ele>1072</ele>
        <time>2018-05-24T08:46:10Z</time>
      </trkpt>
      <trkpt lat="45.25137" lon="4.47911">
        <ele>1069.8000488281</ele>
        <time>2018-05-24T08:46:17Z</time>
      </trkpt>
      <trkpt lat="45.25145" lon="4.47918">
        <ele>1066.8000488281</ele>
        <time>2018-05-24T08:46:26Z</time>
      </trkpt>
      <trkpt lat="45.25148" lon="4.4792">
        <ele>1063.5999755859</ele>
        <time>2018-05-24T08:46:37Z</time>
      </trkpt>
      <trkpt lat="45.25157" lon="4.47927">
        <ele>1062.4000244141</ele>
        <time>2018-05-24T08:46:46Z</time>
      </trkpt>
      <trkpt lat="45.25165" lon="4.47931">
        <ele>1060.1999511719</ele>
        <time>2018-05-24T08:46:55Z</time>
      </trkpt>
      <trkpt lat="45.25176" lon="4.47935">
        <ele>1058</ele>
        <time>2018-05-24T08:47:00Z</time>
      </trkpt>
      <trkpt lat="45.2519" lon="4.47938">
        <ele>1054.5999755859</ele>
        <time>2018-05-24T08:47:06Z</time>
      </trkpt>
      <trkpt lat="45.25195" lon="4.47941">
        <ele>1054.5999755859</ele>
        <time>2018-05-24T08:47:07Z</time>
      </trkpt>
      <trkpt lat="45.25214" lon="4.47935">
        <ele>1051.4000244141</ele>
        <time>2018-05-24T08:47:12Z</time>
      </trkpt>
      <trkpt lat="45.25227" lon="4.47926">
        <ele>1049.8000488281</ele>
        <time>2018-05-24T08:47:15Z</time>
      </trkpt>
      <trkpt lat="45.25246" lon="4.47903">
        <ele>1046.8000488281</ele>
        <time>2018-05-24T08:47:21Z</time>
      </trkpt>
      <trkpt lat="45.25254" lon="4.479">
        <ele>1045.4000244141</ele>
        <time>2018-05-24T08:47:28Z</time>
      </trkpt>
      <trkpt lat="45.25252" lon="4.47894">
        <ele>1043.4000244141</ele>
        <time>2018-05-24T08:47:32Z</time>
      </trkpt>
      <trkpt lat="45.25223" lon="4.47902">
        <ele>1043.4000244141</ele>
        <time>2018-05-24T08:47:42Z</time>
      </trkpt>
      <trkpt lat="45.2522" lon="4.479">
        <ele>1043.4000244141</ele>
        <time>2018-05-24T08:47:43Z</time>
      </trkpt>
      <trkpt lat="45.25209" lon="4.47891">
        <ele>1043.4000244141</ele>
        <time>2018-05-24T08:47:46Z</time>
      </trkpt>
      <trkpt lat="45.2519" lon="4.47836">
        <ele>1043.4000244141</ele>
        <time>2018-05-24T08:47:57Z</time>
      </trkpt>
      <trkpt lat="45.25154" lon="4.47762">
        <ele>1043.8000488281</ele>
        <time>2018-05-24T08:48:17Z</time>
      </trkpt>
      <trkpt lat="45.25148" lon="4.47753">
        <ele>1045.4000244141</ele>
        <time>2018-05-24T08:48:21Z</time>
      </trkpt>
      <trkpt lat="45.25143" lon="4.47745">
        <ele>1045.4000244141</ele>
        <time>2018-05-24T08:48:24Z</time>
      </trkpt>
      <trkpt lat="45.25132" lon="4.47726">
        <ele>1046.5999755859</ele>
        <time>2018-05-24T08:48:31Z</time>
      </trkpt>
      <trkpt lat="45.2511" lon="4.47702">
        <ele>1047.4000244141</ele>
        <time>2018-05-24T08:48:42Z</time>
      </trkpt>
      <trkpt lat="45.25094" lon="4.47689">
        <ele>1049.5999755859</ele>
        <time>2018-05-24T08:48:50Z</time>
      </trkpt>
      <trkpt lat="45.25073" lon="4.47684">
        <ele>1050</ele>
        <time>2018-05-24T08:48:57Z</time>
      </trkpt>
      <trkpt lat="45.25068" lon="4.47678">
        <ele>1051.8000488281</ele>
        <time>2018-05-24T08:49:01Z</time>
      </trkpt>
      <trkpt lat="45.25051" lon="4.47664">
        <ele>1054</ele>
        <time>2018-05-24T08:49:13Z</time>
      </trkpt>
      <trkpt lat="45.25043" lon="4.47665">
        <ele>1054</ele>
        <time>2018-05-24T08:49:16Z</time>
      </trkpt>
      <trkpt lat="45.25025" lon="4.47667">
        <ele>1054.8000488281</ele>
        <time>2018-05-24T08:49:22Z</time>
      </trkpt>
      <trkpt lat="45.24995" lon="4.4767">
        <ele>1056.4000244141</ele>
        <time>2018-05-24T08:49:33Z</time>
      </trkpt>
      <trkpt lat="45.24973" lon="4.47667">
        <ele>1058</ele>
        <time>2018-05-24T08:49:43Z</time>
      </trkpt>
      <trkpt lat="45.24957" lon="4.47668">
        <ele>1059.5999755859</ele>
        <time>2018-05-24T08:49:49Z</time>
      </trkpt>
      <trkpt lat="45.24917" lon="4.47675">
        <ele>1060.4000244141</ele>
        <time>2018-05-24T08:50:05Z</time>
      </trkpt>
      <trkpt lat="45.2488" lon="4.4768">
        <ele>1062.1999511719</ele>
        <time>2018-05-24T08:50:18Z</time>
      </trkpt>
      <trkpt lat="45.24829" lon="4.47659">
        <ele>1062.1999511719</ele>
        <time>2018-05-24T08:50:34Z</time>
      </trkpt>
      <trkpt lat="45.24822" lon="4.47644">
        <ele>1063.8000488281</ele>
        <time>2018-05-24T08:50:38Z</time>
      </trkpt>
      <trkpt lat="45.24822" lon="4.47611">
        <ele>1064.1999511719</ele>
        <time>2018-05-24T08:50:50Z</time>
      </trkpt>
      <trkpt lat="45.24844" lon="4.4757">
        <ele>1063.4000244141</ele>
        <time>2018-05-24T08:50:55Z</time>
      </trkpt>
      <trkpt lat="45.24855" lon="4.47557">
        <ele>1062</ele>
        <time>2018-05-24T08:50:58Z</time>
      </trkpt>
      <trkpt lat="45.24896" lon="4.47512">
        <ele>1062</ele>
        <time>2018-05-24T08:51:08Z</time>
      </trkpt>
      <trkpt lat="45.24964" lon="4.47428">
        <ele>1062</ele>
        <time>2018-05-24T08:51:32Z</time>
      </trkpt>
      <trkpt lat="45.24986" lon="4.47407">
        <ele>1063.4000244141</ele>
        <time>2018-05-24T08:51:37Z</time>
      </trkpt>
      <trkpt lat="45.25028" lon="4.47371">
        <ele>1064.1999511719</ele>
        <time>2018-05-24T08:51:48Z</time>
      </trkpt>
      <trkpt lat="45.2505" lon="4.47361">
        <ele>1065</ele>
        <time>2018-05-24T08:51:54Z</time>
      </trkpt>
      <trkpt lat="45.25107" lon="4.47341">
        <ele>1066.1999511719</ele>
        <time>2018-05-24T08:52:10Z</time>
      </trkpt>
      <trkpt lat="45.25117" lon="4.4734">
        <ele>1067.5999755859</ele>
        <time>2018-05-24T08:52:13Z</time>
      </trkpt>
      <trkpt lat="45.2516" lon="4.47354">
        <ele>1068.4000244141</ele>
        <time>2018-05-24T08:52:26Z</time>
      </trkpt>
      <trkpt lat="45.2519" lon="4.47366">
        <ele>1070.5999755859</ele>
        <time>2018-05-24T08:52:36Z</time>
      </trkpt>
      <trkpt lat="45.25246" lon="4.4731">
        <ele>1070.5999755859</ele>
        <time>2018-05-24T08:52:56Z</time>
      </trkpt>
      <trkpt lat="45.25261" lon="4.47274">
        <ele>1071.4000244141</ele>
        <time>2018-05-24T08:53:02Z</time>
      </trkpt>
      <trkpt lat="45.25267" lon="4.47255">
        <ele>1072.5999755859</ele>
        <time>2018-05-24T08:53:06Z</time>
      </trkpt>
      <trkpt lat="45.25282" lon="4.472">
        <ele>1072.5999755859</ele>
        <time>2018-05-24T08:53:15Z</time>
      </trkpt>
      <trkpt lat="45.25282" lon="4.47105">
        <ele>1072.5999755859</ele>
        <time>2018-05-24T08:53:30Z</time>
      </trkpt>
      <trkpt lat="45.25272" lon="4.47061">
        <ele>1073.1999511719</ele>
        <time>2018-05-24T08:53:44Z</time>
      </trkpt>
      <trkpt lat="45.25271" lon="4.4706">
        <ele>1074</ele>
        <time>2018-05-24T08:53:45Z</time>
      </trkpt>
      <trkpt lat="45.25265" lon="4.47043">
        <ele>1076.8000488281</ele>
        <time>2018-05-24T08:53:54Z</time>
      </trkpt>
      <trkpt lat="45.25259" lon="4.4703">
        <ele>1079</ele>
        <time>2018-05-24T08:54:03Z</time>
      </trkpt>
      <trkpt lat="45.25246" lon="4.4701">
        <ele>1082</ele>
        <time>2018-05-24T08:54:17Z</time>
      </trkpt>
      <trkpt lat="45.25237" lon="4.46995">
        <ele>1084</ele>
        <time>2018-05-24T08:54:28Z</time>
      </trkpt>
      <trkpt lat="45.25236" lon="4.46989">
        <ele>1085.1999511719</ele>
        <time>2018-05-24T08:54:31Z</time>
      </trkpt>
      <trkpt lat="45.2523" lon="4.46957">
        <ele>1087.5999755859</ele>
        <time>2018-05-24T08:54:47Z</time>
      </trkpt>
      <trkpt lat="45.25221" lon="4.46906">
        <ele>1087.5999755859</ele>
        <time>2018-05-24T08:55:03Z</time>
      </trkpt>
      <trkpt lat="45.25207" lon="4.46839">
        <ele>1087.5999755859</ele>
        <time>2018-05-24T08:55:20Z</time>
      </trkpt>
      <trkpt lat="45.25208" lon="4.46813">
        <ele>1086.4000244141</ele>
        <time>2018-05-24T08:55:24Z</time>
      </trkpt>
      <trkpt lat="45.25228" lon="4.46733">
        <ele>1083.5999755859</ele>
        <time>2018-05-24T08:55:35Z</time>
      </trkpt>
      <trkpt lat="45.2523" lon="4.46721">
        <ele>1083.5999755859</ele>
        <time>2018-05-24T08:55:37Z</time>
      </trkpt>
      <trkpt lat="45.25221" lon="4.46668">
        <ele>1083.5999755859</ele>
        <time>2018-05-24T08:55:48Z</time>
      </trkpt>
      <trkpt lat="45.25198" lon="4.4662">
        <ele>1086.1999511719</ele>
        <time>2018-05-24T08:56:04Z</time>
      </trkpt>
      <trkpt lat="45.25178" lon="4.46581">
        <ele>1089.1999511719</ele>
        <time>2018-05-24T08:56:21Z</time>
      </trkpt>
      <trkpt lat="45.25152" lon="4.4655">
        <ele>1092.1999511719</ele>
        <time>2018-05-24T08:56:38Z</time>
      </trkpt>
      <trkpt lat="45.25148" lon="4.46547">
        <ele>1092.1999511719</ele>
        <time>2018-05-24T08:56:40Z</time>
      </trkpt>
      <trkpt lat="45.2513" lon="4.46528">
        <ele>1092.1999511719</ele>
        <time>2018-05-24T08:56:52Z</time>
      </trkpt>
      <trkpt lat="45.25117" lon="4.46506">
        <ele>1092.1999511719</ele>
        <time>2018-05-24T08:56:56Z</time>
      </trkpt>
      <trkpt lat="45.25103" lon="4.46487">
        <ele>1091.5999755859</ele>
        <time>2018-05-24T08:56:59Z</time>
      </trkpt>
      <trkpt lat="45.25081" lon="4.46467">
        <ele>1088.5999755859</ele>
        <time>2018-05-24T08:57:03Z</time>
      </trkpt>
      <trkpt lat="45.25053" lon="4.4644">
        <ele>1085.5999755859</ele>
        <time>2018-05-24T08:57:09Z</time>
      </trkpt>
      <trkpt lat="45.25038" lon="4.46425">
        <ele>1083.1999511719</ele>
        <time>2018-05-24T08:57:13Z</time>
      </trkpt>
      <trkpt lat="45.25026" lon="4.46403">
        <ele>1080</ele>
        <time>2018-05-24T08:57:17Z</time>
      </trkpt>
      <trkpt lat="45.25024" lon="4.46395">
        <ele>1079.1999511719</ele>
        <time>2018-05-24T08:57:18Z</time>
      </trkpt>
      <trkpt lat="45.25018" lon="4.46371">
        <ele>1076.8000488281</ele>
        <time>2018-05-24T08:57:21Z</time>
      </trkpt>
      <trkpt lat="45.25019" lon="4.4635">
        <ele>1073.4000244141</ele>
        <time>2018-05-24T08:57:25Z</time>
      </trkpt>
      <trkpt lat="45.2502" lon="4.46345">
        <ele>1072.5999755859</ele>
        <time>2018-05-24T08:57:26Z</time>
      </trkpt>
      <trkpt lat="45.25025" lon="4.46331">
        <ele>1071.8000488281</ele>
        <time>2018-05-24T08:57:29Z</time>
      </trkpt>
      <trkpt lat="45.25043" lon="4.46275">
        <ele>1072.1999511719</ele>
        <time>2018-05-24T08:57:44Z</time>
      </trkpt>
      <trkpt lat="45.25052" lon="4.46198">
        <ele>1074</ele>
        <time>2018-05-24T08:58:03Z</time>
      </trkpt>
      <trkpt lat="45.25053" lon="4.46194">
        <ele>1074</ele>
        <time>2018-05-24T08:58:04Z</time>
      </trkpt>
      <trkpt lat="45.25072" lon="4.46165">
        <ele>1074</ele>
        <time>2018-05-24T08:58:10Z</time>
      </trkpt>
      <trkpt lat="45.25088" lon="4.46139">
        <ele>1074</ele>
        <time>2018-05-24T08:58:17Z</time>
      </trkpt>
      <trkpt lat="45.25083" lon="4.4611">
        <ele>1074</ele>
        <time>2018-05-24T08:58:28Z</time>
      </trkpt>
      <trkpt lat="45.25081" lon="4.4612">
        <ele>1074</ele>
        <time>2018-05-24T08:58:38Z</time>
      </trkpt>
      <trkpt lat="45.25106" lon="4.46119">
        <ele>1073</ele>
        <time>2018-05-24T08:58:46Z</time>
      </trkpt>
      <trkpt lat="45.25136" lon="4.46086">
        <ele>1069.5999755859</ele>
        <time>2018-05-24T08:58:52Z</time>
      </trkpt>
      <trkpt lat="45.2516" lon="4.46064">
        <ele>1066.1999511719</ele>
        <time>2018-05-24T08:58:56Z</time>
      </trkpt>
      <trkpt lat="45.25179" lon="4.46049">
        <ele>1063.1999511719</ele>
        <time>2018-05-24T08:58:59Z</time>
      </trkpt>
      <trkpt lat="45.25195" lon="4.46039">
        <ele>1059.8000488281</ele>
        <time>2018-05-24T08:59:01Z</time>
      </trkpt>
      <trkpt lat="45.25218" lon="4.46024">
        <ele>1056.1999511719</ele>
        <time>2018-05-24T08:59:04Z</time>
      </trkpt>
      <trkpt lat="45.25226" lon="4.46017">
        <ele>1054.8000488281</ele>
        <time>2018-05-24T08:59:05Z</time>
      </trkpt>
      <trkpt lat="45.25251" lon="4.45987">
        <ele>1051.4000244141</ele>
        <time>2018-05-24T08:59:08Z</time>
      </trkpt>
      <trkpt lat="45.25258" lon="4.45975">
        <ele>1050.4000244141</ele>
        <time>2018-05-24T08:59:09Z</time>
      </trkpt>
      <trkpt lat="45.25274" lon="4.45936">
        <ele>1047</ele>
        <time>2018-05-24T08:59:12Z</time>
      </trkpt>
      <trkpt lat="45.25287" lon="4.45902">
        <ele>1043.1999511719</ele>
        <time>2018-05-24T08:59:15Z</time>
      </trkpt>
      <trkpt lat="45.25295" lon="4.45882">
        <ele>1041</ele>
        <time>2018-05-24T08:59:17Z</time>
      </trkpt>
      <trkpt lat="45.25317" lon="4.45845">
        <ele>1037.4000244141</ele>
        <time>2018-05-24T08:59:21Z</time>
      </trkpt>
      <trkpt lat="45.25328" lon="4.45799">
        <ele>1032.8000488281</ele>
        <time>2018-05-24T08:59:25Z</time>
      </trkpt>
      <trkpt lat="45.25331" lon="4.45769">
        <ele>1029.5999755859</ele>
        <time>2018-05-24T08:59:29Z</time>
      </trkpt>
      <trkpt lat="45.25332" lon="4.45765">
        <ele>1029</ele>
        <time>2018-05-24T08:59:30Z</time>
      </trkpt>
      <trkpt lat="45.25322" lon="4.45713">
        <ele>1027.5999755859</ele>
        <time>2018-05-24T08:59:41Z</time>
      </trkpt>
      <trkpt lat="45.25323" lon="4.45704">
        <ele>1027.5999755859</ele>
        <time>2018-05-24T08:59:43Z</time>
      </trkpt>
      <trkpt lat="45.25311" lon="4.45675">
        <ele>1027.1999511719</ele>
        <time>2018-05-24T08:59:48Z</time>
      </trkpt>
      <trkpt lat="45.25299" lon="4.45644">
        <ele>1023.799987793</ele>
        <time>2018-05-24T08:59:52Z</time>
      </trkpt>
      <trkpt lat="45.25294" lon="4.45628">
        <ele>1022</ele>
        <time>2018-05-24T08:59:54Z</time>
      </trkpt>
      <trkpt lat="45.25284" lon="4.45605">
        <ele>1018.5999755859</ele>
        <time>2018-05-24T08:59:57Z</time>
      </trkpt>
      <trkpt lat="45.25281" lon="4.45597">
        <ele>1017.4000244141</ele>
        <time>2018-05-24T08:59:58Z</time>
      </trkpt>
      <trkpt lat="45.25281" lon="4.45574">
        <ele>1013.799987793</ele>
        <time>2018-05-24T09:00:01Z</time>
      </trkpt>
      <trkpt lat="45.25294" lon="4.45559">
        <ele>1010.5999755859</ele>
        <time>2018-05-24T09:00:04Z</time>
      </trkpt>
      <trkpt lat="45.25306" lon="4.45538">
        <ele>1007.4000244141</ele>
        <time>2018-05-24T09:00:07Z</time>
      </trkpt>
      <trkpt lat="45.25307" lon="4.4553">
        <ele>1006.5999755859</ele>
        <time>2018-05-24T09:00:08Z</time>
      </trkpt>
      <trkpt lat="45.25309" lon="4.45521">
        <ele>1005.799987793</ele>
        <time>2018-05-24T09:00:09Z</time>
      </trkpt>
      <trkpt lat="45.25313" lon="4.45505">
        <ele>1003.5999755859</ele>
        <time>2018-05-24T09:00:12Z</time>
      </trkpt>
      <trkpt lat="45.25311" lon="4.45485">
        <ele>1000.799987793</ele>
        <time>2018-05-24T09:00:16Z</time>
      </trkpt>
      <trkpt lat="45.25298" lon="4.45436">
        <ele>1000.4000244141</ele>
        <time>2018-05-24T09:00:26Z</time>
      </trkpt>
      <trkpt lat="45.25287" lon="4.4542">
        <ele>998.79998779297</ele>
        <time>2018-05-24T09:00:30Z</time>
      </trkpt>
      <trkpt lat="45.25274" lon="4.45393">
        <ele>998.79998779297</ele>
        <time>2018-05-24T09:00:36Z</time>
      </trkpt>
      <trkpt lat="45.25257" lon="4.45363">
        <ele>998.79998779297</ele>
        <time>2018-05-24T09:00:41Z</time>
      </trkpt>
      <trkpt lat="45.2524" lon="4.45321">
        <ele>995.79998779297</ele>
        <time>2018-05-24T09:00:47Z</time>
      </trkpt>
      <trkpt lat="45.25233" lon="4.45288">
        <ele>992.59997558594</ele>
        <time>2018-05-24T09:00:51Z</time>
      </trkpt>
      <trkpt lat="45.25223" lon="4.45249">
        <ele>988.79998779297</ele>
        <time>2018-05-24T09:00:55Z</time>
      </trkpt>
      <trkpt lat="45.25211" lon="4.45224">
        <ele>985.79998779297</ele>
        <time>2018-05-24T09:00:58Z</time>
      </trkpt>
      <trkpt lat="45.25208" lon="4.45216">
        <ele>984.79998779297</ele>
        <time>2018-05-24T09:00:59Z</time>
      </trkpt>
      <trkpt lat="45.25205" lon="4.45208">
        <ele>983.79998779297</ele>
        <time>2018-05-24T09:01:00Z</time>
      </trkpt>
      <trkpt lat="45.25196" lon="4.45171">
        <ele>979</ele>
        <time>2018-05-24T09:01:04Z</time>
      </trkpt>
      <trkpt lat="45.25187" lon="4.45128">
        <ele>975.40002441406</ele>
        <time>2018-05-24T09:01:08Z</time>
      </trkpt>
      <trkpt lat="45.25181" lon="4.45104">
        <ele>973.79998779297</ele>
        <time>2018-05-24T09:01:10Z</time>
      </trkpt>
      <trkpt lat="45.25176" lon="4.45087">
        <ele>972.40002441406</ele>
        <time>2018-05-24T09:01:12Z</time>
      </trkpt>
      <trkpt lat="45.25159" lon="4.45061">
        <ele>969.40002441406</ele>
        <time>2018-05-24T09:01:16Z</time>
      </trkpt>
      <trkpt lat="45.25152" lon="4.45051">
        <ele>969</ele>
        <time>2018-05-24T09:01:18Z</time>
      </trkpt>
      <trkpt lat="45.25119" lon="4.44996">
        <ele>965.79998779297</ele>
        <time>2018-05-24T09:01:26Z</time>
      </trkpt>
      <trkpt lat="45.25103" lon="4.44953">
        <ele>962.79998779297</ele>
        <time>2018-05-24T09:01:31Z</time>
      </trkpt>
      <trkpt lat="45.25088" lon="4.44887">
        <ele>959.59997558594</ele>
        <time>2018-05-24T09:01:38Z</time>
      </trkpt>
      <trkpt lat="45.25081" lon="4.4484">
        <ele>956.40002441406</ele>
        <time>2018-05-24T09:01:46Z</time>
      </trkpt>
      <trkpt lat="45.25084" lon="4.4483">
        <ele>956</ele>
        <time>2018-05-24T09:01:48Z</time>
      </trkpt>
      <trkpt lat="45.251" lon="4.44761">
        <ele>956.40002441406</ele>
        <time>2018-05-24T09:02:03Z</time>
      </trkpt>
      <trkpt lat="45.2509" lon="4.44667">
        <ele>958</ele>
        <time>2018-05-24T09:02:17Z</time>
      </trkpt>
      <trkpt lat="45.25078" lon="4.44617">
        <ele>955.79998779297</ele>
        <time>2018-05-24T09:02:25Z</time>
      </trkpt>
      <trkpt lat="45.25063" lon="4.44531">
        <ele>958</ele>
        <time>2018-05-24T09:02:44Z</time>
      </trkpt>
      <trkpt lat="45.25071" lon="4.4444">
        <ele>960</ele>
        <time>2018-05-24T09:03:02Z</time>
      </trkpt>
      <trkpt lat="45.25062" lon="4.44337">
        <ele>962.59997558594</ele>
        <time>2018-05-24T09:03:25Z</time>
      </trkpt>
      <trkpt lat="45.25054" lon="4.44298">
        <ele>965.59997558594</ele>
        <time>2018-05-24T09:03:36Z</time>
      </trkpt>
      <trkpt lat="45.25033" lon="4.44227">
        <ele>968.79998779297</ele>
        <time>2018-05-24T09:03:58Z</time>
      </trkpt>
      <trkpt lat="45.25018" lon="4.44206">
        <ele>970.59997558594</ele>
        <time>2018-05-24T09:04:07Z</time>
      </trkpt>
      <trkpt lat="45.25017" lon="4.44184">
        <ele>970.59997558594</ele>
        <time>2018-05-24T09:04:16Z</time>
      </trkpt>
      <trkpt lat="45.25032" lon="4.44194">
        <ele>972.59997558594</ele>
        <time>2018-05-24T09:04:26Z</time>
      </trkpt>
      <trkpt lat="45.25045" lon="4.44175">
        <ele>973.79998779297</ele>
        <time>2018-05-24T09:04:35Z</time>
      </trkpt>
      <trkpt lat="45.25041" lon="4.44152">
        <ele>975.40002441406</ele>
        <time>2018-05-24T09:04:42Z</time>
      </trkpt>
      <trkpt lat="45.25034" lon="4.44145">
        <ele>976.79998779297</ele>
        <time>2018-05-24T09:04:45Z</time>
      </trkpt>
      <trkpt lat="45.25026" lon="4.44127">
        <ele>977.20001220703</ele>
        <time>2018-05-24T09:04:51Z</time>
      </trkpt>
      <trkpt lat="45.25026" lon="4.44107">
        <ele>978.79998779297</ele>
        <time>2018-05-24T09:04:58Z</time>
      </trkpt>
      <trkpt lat="45.25039" lon="4.44076">
        <ele>981.20001220703</ele>
        <time>2018-05-24T09:05:09Z</time>
      </trkpt>
      <trkpt lat="45.25059" lon="4.44034">
        <ele>984.20001220703</ele>
        <time>2018-05-24T09:05:23Z</time>
      </trkpt>
      <trkpt lat="45.25098" lon="4.43952">
        <ele>987</ele>
        <time>2018-05-24T09:05:44Z</time>
      </trkpt>
      <trkpt lat="45.25114" lon="4.43917">
        <ele>987</ele>
        <time>2018-05-24T09:05:51Z</time>
      </trkpt>
      <trkpt lat="45.25127" lon="4.43846">
        <ele>987</ele>
        <time>2018-05-24T09:06:02Z</time>
      </trkpt>
      <trkpt lat="45.25164" lon="4.43738">
        <ele>985.40002441406</ele>
        <time>2018-05-24T09:06:18Z</time>
      </trkpt>
      <trkpt lat="45.25178" lon="4.43708">
        <ele>983</ele>
        <time>2018-05-24T09:06:21Z</time>
      </trkpt>
      <trkpt lat="45.25183" lon="4.43658">
        <ele>979.79998779297</ele>
        <time>2018-05-24T09:06:25Z</time>
      </trkpt>
      <trkpt lat="45.25176" lon="4.43641">
        <ele>978</ele>
        <time>2018-05-24T09:06:27Z</time>
      </trkpt>
      <trkpt lat="45.25173" lon="4.43633">
        <ele>978</ele>
        <time>2018-05-24T09:06:28Z</time>
      </trkpt>
      <trkpt lat="45.25152" lon="4.43595">
        <ele>980</ele>
        <time>2018-05-24T09:06:37Z</time>
      </trkpt>
      <trkpt lat="45.25142" lon="4.43573">
        <ele>983</ele>
        <time>2018-05-24T09:06:45Z</time>
      </trkpt>
      <trkpt lat="45.25135" lon="4.43551">
        <ele>986</ele>
        <time>2018-05-24T09:06:54Z</time>
      </trkpt>
      <trkpt lat="45.25122" lon="4.43493">
        <ele>986.40002441406</ele>
        <time>2018-05-24T09:07:12Z</time>
      </trkpt>
      <trkpt lat="45.25105" lon="4.43462">
        <ele>987.59997558594</ele>
        <time>2018-05-24T09:07:24Z</time>
      </trkpt>
      <trkpt lat="45.25097" lon="4.43449">
        <ele>990</ele>
        <time>2018-05-24T09:07:30Z</time>
      </trkpt>
      <trkpt lat="45.25089" lon="4.43432">
        <ele>991.20001220703</ele>
        <time>2018-05-24T09:07:37Z</time>
      </trkpt>
      <trkpt lat="45.25077" lon="4.43418">
        <ele>993.20001220703</ele>
        <time>2018-05-24T09:07:46Z</time>
      </trkpt>
      <trkpt lat="45.25067" lon="4.43404">
        <ele>993.20001220703</ele>
        <time>2018-05-24T09:07:54Z</time>
      </trkpt>
      <trkpt lat="45.25079" lon="4.43401">
        <ele>995.40002441406</ele>
        <time>2018-05-24T09:08:02Z</time>
      </trkpt>
      <trkpt lat="45.25085" lon="4.43402">
        <ele>997</ele>
        <time>2018-05-24T09:08:06Z</time>
      </trkpt>
      <trkpt lat="45.25098" lon="4.43398">
        <ele>998.79998779297</ele>
        <time>2018-05-24T09:08:15Z</time>
      </trkpt>
      <trkpt lat="45.25111" lon="4.4339">
        <ele>1001.200012207</ele>
        <time>2018-05-24T09:08:24Z</time>
      </trkpt>
      <trkpt lat="45.25136" lon="4.43386">
        <ele>1001.5999755859</ele>
        <time>2018-05-24T09:08:36Z</time>
      </trkpt>
      <trkpt lat="45.25159" lon="4.43355">
        <ele>1003.799987793</ele>
        <time>2018-05-24T09:08:54Z</time>
      </trkpt>
      <trkpt lat="45.25169" lon="4.4335">
        <ele>1006</ele>
        <time>2018-05-24T09:09:01Z</time>
      </trkpt>
      <trkpt lat="45.25174" lon="4.4335">
        <ele>1006.4000244141</ele>
        <time>2018-05-24T09:09:04Z</time>
      </trkpt>
      <trkpt lat="45.25186" lon="4.4336">
        <ele>1008.5999755859</ele>
        <time>2018-05-24T09:09:15Z</time>
      </trkpt>
      <trkpt lat="45.25197" lon="4.43367">
        <ele>1010.799987793</ele>
        <time>2018-05-24T09:09:25Z</time>
      </trkpt>
      <trkpt lat="45.25201" lon="4.43374">
        <ele>1012.4000244141</ele>
        <time>2018-05-24T09:09:39Z</time>
      </trkpt>
      <trkpt lat="45.25206" lon="4.4338">
        <ele>1014.5999755859</ele>
        <time>2018-05-24T09:09:47Z</time>
      </trkpt>
      <trkpt lat="45.25213" lon="4.43379">
        <ele>1014.5999755859</ele>
        <time>2018-05-24T09:09:53Z</time>
      </trkpt>
      <trkpt lat="45.25226" lon="4.43368">
        <ele>1016.5999755859</ele>
        <time>2018-05-24T09:10:11Z</time>
      </trkpt>
      <trkpt lat="45.25228" lon="4.43367">
        <ele>1016.5999755859</ele>
        <time>2018-05-24T09:10:16Z</time>
      </trkpt>
      <trkpt lat="45.25245" lon="4.43354">
        <ele>1019.200012207</ele>
        <time>2018-05-24T09:10:28Z</time>
      </trkpt>
      <trkpt lat="45.25271" lon="4.43345">
        <ele>1021.4000244141</ele>
        <time>2018-05-24T09:10:42Z</time>
      </trkpt>
      <trkpt lat="45.253" lon="4.43327">
        <ele>1024.5999755859</ele>
        <time>2018-05-24T09:10:56Z</time>
      </trkpt>
      <trkpt lat="45.2538" lon="4.43327">
        <ele>1025</ele>
        <time>2018-05-24T09:11:23Z</time>
      </trkpt>
      <trkpt lat="45.25436" lon="4.4333">
        <ele>1027.5999755859</ele>
        <time>2018-05-24T09:11:40Z</time>
      </trkpt>
      <trkpt lat="45.25481" lon="4.43328">
        <ele>1030.8000488281</ele>
        <time>2018-05-24T09:11:58Z</time>
      </trkpt>
      <trkpt lat="45.25504" lon="4.43326">
        <ele>1033</ele>
        <time>2018-05-24T09:12:10Z</time>
      </trkpt>
      <trkpt lat="45.25526" lon="4.43322">
        <ele>1036.1999511719</ele>
        <time>2018-05-24T09:12:25Z</time>
      </trkpt>
      <trkpt lat="45.25526" lon="4.43322">
        <ele>1036.5999755859</ele>
        <time>2018-05-24T09:12:26Z</time>
      </trkpt>
      <trkpt lat="45.25543" lon="4.43324">
        <ele>1038.1999511719</ele>
        <time>2018-05-24T09:12:39Z</time>
      </trkpt>
      <trkpt lat="45.2555" lon="4.43329">
        <ele>1040.4000244141</ele>
        <time>2018-05-24T09:12:50Z</time>
      </trkpt>
      <trkpt lat="45.25558" lon="4.43333">
        <ele>1042.8000488281</ele>
        <time>2018-05-24T09:13:02Z</time>
      </trkpt>
      <trkpt lat="45.25571" lon="4.4334">
        <ele>1044.5999755859</ele>
        <time>2018-05-24T09:13:11Z</time>
      </trkpt>
      <trkpt lat="45.25577" lon="4.43348">
        <ele>1046.1999511719</ele>
        <time>2018-05-24T09:13:20Z</time>
      </trkpt>
      <trkpt lat="45.25591" lon="4.43345">
        <ele>1047.8000488281</ele>
        <time>2018-05-24T09:13:31Z</time>
      </trkpt>
      <trkpt lat="45.25592" lon="4.43346">
        <ele>1047.4000244141</ele>
        <time>2018-05-24T09:13:32Z</time>
      </trkpt>
      <trkpt lat="45.25608" lon="4.43341">
        <ele>1047.4000244141</ele>
        <time>2018-05-24T09:13:35Z</time>
      </trkpt>
      <trkpt lat="45.25621" lon="4.43337">
        <ele>1047.1999511719</ele>
        <time>2018-05-24T09:13:39Z</time>
      </trkpt>
      <trkpt lat="45.25639" lon="4.43332">
        <ele>1047.8000488281</ele>
        <time>2018-05-24T09:13:43Z</time>
      </trkpt>
      <trkpt lat="45.25643" lon="4.43332">
        <ele>1048</ele>
        <time>2018-05-24T09:13:44Z</time>
      </trkpt>
      <trkpt lat="45.25662" lon="4.43325">
        <ele>1049</ele>
        <time>2018-05-24T09:13:48Z</time>
      </trkpt>
      <trkpt lat="45.25698" lon="4.43328">
        <ele>1049</ele>
        <time>2018-05-24T09:14:04Z</time>
      </trkpt>
      <trkpt lat="45.25722" lon="4.43336">
        <ele>1052</ele>
        <time>2018-05-24T09:14:18Z</time>
      </trkpt>
      <trkpt lat="45.25732" lon="4.43346">
        <ele>1055</ele>
        <time>2018-05-24T09:14:29Z</time>
      </trkpt>
      <trkpt lat="45.25737" lon="4.43357">
        <ele>1058</ele>
        <time>2018-05-24T09:14:41Z</time>
      </trkpt>
      <trkpt lat="45.25743" lon="4.43361">
        <ele>1058.5999755859</ele>
        <time>2018-05-24T09:14:47Z</time>
      </trkpt>
      <trkpt lat="45.25759" lon="4.43369">
        <ele>1061.8000488281</ele>
        <time>2018-05-24T09:15:02Z</time>
      </trkpt>
      <trkpt lat="45.25796" lon="4.43397">
        <ele>1064.4000244141</ele>
        <time>2018-05-24T09:15:24Z</time>
      </trkpt>
      <trkpt lat="45.25811" lon="4.43409">
        <ele>1064.4000244141</ele>
        <time>2018-05-24T09:15:33Z</time>
      </trkpt>
      <trkpt lat="45.25846" lon="4.43426">
        <ele>1066.5999755859</ele>
        <time>2018-05-24T09:15:48Z</time>
      </trkpt>
      <trkpt lat="45.25849" lon="4.43429">
        <ele>1067.4000244141</ele>
        <time>2018-05-24T09:15:50Z</time>
      </trkpt>
      <trkpt lat="45.2588" lon="4.43443">
        <ele>1068.5999755859</ele>
        <time>2018-05-24T09:16:01Z</time>
      </trkpt>
      <trkpt lat="45.25898" lon="4.43456">
        <ele>1067.5999755859</ele>
        <time>2018-05-24T09:16:08Z</time>
      </trkpt>
      <trkpt lat="45.25941" lon="4.43475">
        <ele>1064</ele>
        <time>2018-05-24T09:16:14Z</time>
      </trkpt>
      <trkpt lat="45.25956" lon="4.43487">
        <ele>1062.4000244141</ele>
        <time>2018-05-24T09:16:16Z</time>
      </trkpt>
      <trkpt lat="45.25982" lon="4.43517">
        <ele>1059.1999511719</ele>
        <time>2018-05-24T09:16:20Z</time>
      </trkpt>
      <trkpt lat="45.26002" lon="4.43556">
        <ele>1056.1999511719</ele>
        <time>2018-05-24T09:16:26Z</time>
      </trkpt>
      <trkpt lat="45.26003" lon="4.43557">
        <ele>1056.1999511719</ele>
        <time>2018-05-24T09:16:28Z</time>
      </trkpt>
      <trkpt lat="45.26019" lon="4.43586">
        <ele>1056.1999511719</ele>
        <time>2018-05-24T09:16:39Z</time>
      </trkpt>
      <trkpt lat="45.26049" lon="4.43624">
        <ele>1054.1999511719</ele>
        <time>2018-05-24T09:16:55Z</time>
      </trkpt>
      <trkpt lat="45.26055" lon="4.43629">
        <ele>1054.1999511719</ele>
        <time>2018-05-24T09:16:59Z</time>
      </trkpt>
      <trkpt lat="45.26067" lon="4.43651">
        <ele>1054.1999511719</ele>
        <time>2018-05-24T09:17:08Z</time>
      </trkpt>
      <trkpt lat="45.26105" lon="4.43719">
        <ele>1056.1999511719</ele>
        <time>2018-05-24T09:17:31Z</time>
      </trkpt>
      <trkpt lat="45.26119" lon="4.43746">
        <ele>1057.4000244141</ele>
        <time>2018-05-24T09:17:41Z</time>
      </trkpt>
      <trkpt lat="45.26121" lon="4.43751">
        <ele>1058.1999511719</ele>
        <time>2018-05-24T09:17:43Z</time>
      </trkpt>
      <trkpt lat="45.26147" lon="4.4378">
        <ele>1060.4000244141</ele>
        <time>2018-05-24T09:17:59Z</time>
      </trkpt>
      <trkpt lat="45.26174" lon="4.4381">
        <ele>1060.4000244141</ele>
        <time>2018-05-24T09:18:09Z</time>
      </trkpt>
      <trkpt lat="45.26187" lon="4.4385">
        <ele>1060.4000244141</ele>
        <time>2018-05-24T09:18:18Z</time>
      </trkpt>
      <trkpt lat="45.26227" lon="4.43959">
        <ele>1060.4000244141</ele>
        <time>2018-05-24T09:18:43Z</time>
      </trkpt>
      <trkpt lat="45.26266" lon="4.44067">
        <ele>1058.4000244141</ele>
        <time>2018-05-24T09:19:05Z</time>
      </trkpt>
      <trkpt lat="45.26268" lon="4.44079">
        <ele>1058.4000244141</ele>
        <time>2018-05-24T09:19:07Z</time>
      </trkpt>
      <trkpt lat="45.26277" lon="4.4413">
        <ele>1056.5999755859</ele>
        <time>2018-05-24T09:19:15Z</time>
      </trkpt>
      <trkpt lat="45.26286" lon="4.44154">
        <ele>1056.1999511719</ele>
        <time>2018-05-24T09:19:20Z</time>
      </trkpt>
      <trkpt lat="45.26295" lon="4.44139">
        <ele>1055.8000488281</ele>
        <time>2018-05-24T09:19:26Z</time>
      </trkpt>
      <trkpt lat="45.26297" lon="4.44128">
        <ele>1055</ele>
        <time>2018-05-24T09:19:28Z</time>
      </trkpt>
      <trkpt lat="45.26337" lon="4.4399">
        <ele>1054.1999511719</ele>
        <time>2018-05-24T09:19:54Z</time>
      </trkpt>
      <trkpt lat="45.26363" lon="4.43942">
        <ele>1054.1999511719</ele>
        <time>2018-05-24T09:20:05Z</time>
      </trkpt>
      <trkpt lat="45.26405" lon="4.43916">
        <ele>1054.1999511719</ele>
        <time>2018-05-24T09:20:15Z</time>
      </trkpt>
      <trkpt lat="45.26457" lon="4.43877">
        <ele>1051.1999511719</ele>
        <time>2018-05-24T09:20:26Z</time>
      </trkpt>
      <trkpt lat="45.26465" lon="4.43868">
        <ele>1050.1999511719</ele>
        <time>2018-05-24T09:20:28Z</time>
      </trkpt>
      <trkpt lat="45.26483" lon="4.43855">
        <ele>1048.4000244141</ele>
        <time>2018-05-24T09:20:32Z</time>
      </trkpt>
      <trkpt lat="45.26498" lon="4.43833">
        <ele>1046.5999755859</ele>
        <time>2018-05-24T09:20:37Z</time>
      </trkpt>
      <trkpt lat="45.26509" lon="4.43805">
        <ele>1043.4000244141</ele>
        <time>2018-05-24T09:20:43Z</time>
      </trkpt>
      <trkpt lat="45.26524" lon="4.43774">
        <ele>1040.4000244141</ele>
        <time>2018-05-24T09:20:51Z</time>
      </trkpt>
      <trkpt lat="45.2654" lon="4.43754">
        <ele>1037</ele>
        <time>2018-05-24T09:21:00Z</time>
      </trkpt>
      <trkpt lat="45.2655" lon="4.4374">
        <ele>1034</ele>
        <time>2018-05-24T09:21:07Z</time>
      </trkpt>
      <trkpt lat="45.2657" lon="4.43715">
        <ele>1031</ele>
        <time>2018-05-24T09:21:19Z</time>
      </trkpt>
      <trkpt lat="45.26584" lon="4.43696">
        <ele>1028</ele>
        <time>2018-05-24T09:21:27Z</time>
      </trkpt>
      <trkpt lat="45.26617" lon="4.4366">
        <ele>1025.4000244141</ele>
        <time>2018-05-24T09:21:42Z</time>
      </trkpt>
      <trkpt lat="45.26644" lon="4.43621">
        <ele>1023.200012207</ele>
        <time>2018-05-24T09:21:52Z</time>
      </trkpt>
      <trkpt lat="45.26665" lon="4.43586">
        <ele>1021.799987793</ele>
        <time>2018-05-24T09:22:00Z</time>
      </trkpt>
      <trkpt lat="45.26667" lon="4.4358">
        <ele>1021.4000244141</ele>
        <time>2018-05-24T09:22:01Z</time>
      </trkpt>
      <trkpt lat="45.26694" lon="4.43529">
        <ele>1018.4000244141</ele>
        <time>2018-05-24T09:22:13Z</time>
      </trkpt>
      <trkpt lat="45.26699" lon="4.43515">
        <ele>1017.5999755859</ele>
        <time>2018-05-24T09:22:15Z</time>
      </trkpt>
      <trkpt lat="45.2671" lon="4.4349">
        <ele>1016.4000244141</ele>
        <time>2018-05-24T09:22:19Z</time>
      </trkpt>
      <trkpt lat="45.26731" lon="4.43459">
        <ele>1014.799987793</ele>
        <time>2018-05-24T09:22:28Z</time>
      </trkpt>
      <trkpt lat="45.26734" lon="4.43456">
        <ele>1012.5999755859</ele>
        <time>2018-05-24T09:22:35Z</time>
      </trkpt>
      <trkpt lat="45.26757" lon="4.43424">
        <ele>1012.5999755859</ele>
        <time>2018-05-24T09:22:47Z</time>
      </trkpt>
      <trkpt lat="45.26792" lon="4.43393">
        <ele>1010.5999755859</ele>
        <time>2018-05-24T09:23:04Z</time>
      </trkpt>
      <trkpt lat="45.26804" lon="4.43377">
        <ele>1008</ele>
        <time>2018-05-24T09:23:12Z</time>
      </trkpt>
      <trkpt lat="45.26811" lon="4.43373">
        <ele>1006.4000244141</ele>
        <time>2018-05-24T09:23:24Z</time>
      </trkpt>
      <trkpt lat="45.26821" lon="4.4337">
        <ele>1006.4000244141</ele>
        <time>2018-05-24T09:23:30Z</time>
      </trkpt>
      <trkpt lat="45.26829" lon="4.43374">
        <ele>1004.799987793</ele>
        <time>2018-05-24T09:23:35Z</time>
      </trkpt>
      <trkpt lat="45.26839" lon="4.43374">
        <ele>1003.799987793</ele>
        <time>2018-05-24T09:23:46Z</time>
      </trkpt>
      <trkpt lat="45.26849" lon="4.43378">
        <ele>1002.200012207</ele>
        <time>2018-05-24T09:23:53Z</time>
      </trkpt>
      <trkpt lat="45.26868" lon="4.43361">
        <ele>999.59997558594</ele>
        <time>2018-05-24T09:24:02Z</time>
      </trkpt>
      <trkpt lat="45.26871" lon="4.4335">
        <ele>998.40002441406</ele>
        <time>2018-05-24T09:24:05Z</time>
      </trkpt>
      <trkpt lat="45.26869" lon="4.43342">
        <ele>998</ele>
        <time>2018-05-24T09:24:09Z</time>
      </trkpt>
      <trkpt lat="45.26856" lon="4.4331">
        <ele>995.40002441406</ele>
        <time>2018-05-24T09:24:19Z</time>
      </trkpt>
      <trkpt lat="45.26848" lon="4.43276">
        <ele>992.40002441406</ele>
        <time>2018-05-24T09:24:29Z</time>
      </trkpt>
      <trkpt lat="45.26834" lon="4.43254">
        <ele>990</ele>
        <time>2018-05-24T09:24:38Z</time>
      </trkpt>
      <trkpt lat="45.26836" lon="4.43232">
        <ele>986.59997558594</ele>
        <time>2018-05-24T09:24:44Z</time>
      </trkpt>
      <trkpt lat="45.26836" lon="4.43232">
        <ele>986.59997558594</ele>
        <time>2018-05-24T09:24:46Z</time>
      </trkpt>
      <trkpt lat="45.2684" lon="4.43213">
        <ele>984.40002441406</ele>
        <time>2018-05-24T09:24:52Z</time>
      </trkpt>
      <trkpt lat="45.26864" lon="4.43206">
        <ele>982</ele>
        <time>2018-05-24T09:25:00Z</time>
      </trkpt>
      <trkpt lat="45.26875" lon="4.43233">
        <ele>980.40002441406</ele>
        <time>2018-05-24T09:25:08Z</time>
      </trkpt>
      <trkpt lat="45.26907" lon="4.43296">
        <ele>980.40002441406</ele>
        <time>2018-05-24T09:25:24Z</time>
      </trkpt>
      <trkpt lat="45.26912" lon="4.43304">
        <ele>980.40002441406</ele>
        <time>2018-05-24T09:25:26Z</time>
      </trkpt>
      <trkpt lat="45.26916" lon="4.43311">
        <ele>980.40002441406</ele>
        <time>2018-05-24T09:25:28Z</time>
      </trkpt>
      <trkpt lat="45.26978" lon="4.43339">
        <ele>980.40002441406</ele>
        <time>2018-05-24T09:25:47Z</time>
      </trkpt>
      <trkpt lat="45.27003" lon="4.43386">
        <ele>980.40002441406</ele>
        <time>2018-05-24T09:25:57Z</time>
      </trkpt>
      <trkpt lat="45.27015" lon="4.43412">
        <ele>980.40002441406</ele>
        <time>2018-05-24T09:26:02Z</time>
      </trkpt>
      <trkpt lat="45.27027" lon="4.43436">
        <ele>980.40002441406</ele>
        <time>2018-05-24T09:26:07Z</time>
      </trkpt>
      <trkpt lat="45.27062" lon="4.43586">
        <ele>980.40002441406</ele>
        <time>2018-05-24T09:26:33Z</time>
      </trkpt>
      <trkpt lat="45.27064" lon="4.43598">
        <ele>980.40002441406</ele>
        <time>2018-05-24T09:26:35Z</time>
      </trkpt>
      <trkpt lat="45.27124" lon="4.43658">
        <ele>980.40002441406</ele>
        <time>2018-05-24T09:26:49Z</time>
      </trkpt>
      <trkpt lat="45.27138" lon="4.43666">
        <ele>980.40002441406</ele>
        <time>2018-05-24T09:26:52Z</time>
      </trkpt>
      <trkpt lat="45.27152" lon="4.43672">
        <ele>980.40002441406</ele>
        <time>2018-05-24T09:26:55Z</time>
      </trkpt>
      <trkpt lat="45.2717" lon="4.43674">
        <ele>980.40002441406</ele>
        <time>2018-05-24T09:26:59Z</time>
      </trkpt>
      <trkpt lat="45.27192" lon="4.43644">
        <ele>978.59997558594</ele>
        <time>2018-05-24T09:27:06Z</time>
      </trkpt>
      <trkpt lat="45.27164" lon="4.43568">
        <ele>978</ele>
        <time>2018-05-24T09:27:20Z</time>
      </trkpt>
      <trkpt lat="45.27187" lon="4.43529">
        <ele>978.40002441406</ele>
        <time>2018-05-24T09:27:32Z</time>
      </trkpt>
      <trkpt lat="45.2719" lon="4.43528">
        <ele>979</ele>
        <time>2018-05-24T09:27:33Z</time>
      </trkpt>
      <trkpt lat="45.27214" lon="4.43529">
        <ele>982</ele>
        <time>2018-05-24T09:27:43Z</time>
      </trkpt>
      <trkpt lat="45.27256" lon="4.43531">
        <ele>984.79998779297</ele>
        <time>2018-05-24T09:28:02Z</time>
      </trkpt>
      <trkpt lat="45.27281" lon="4.43513">
        <ele>987.79998779297</ele>
        <time>2018-05-24T09:28:14Z</time>
      </trkpt>
      <trkpt lat="45.27292" lon="4.43494">
        <ele>989.79998779297</ele>
        <time>2018-05-24T09:28:23Z</time>
      </trkpt>
      <trkpt lat="45.27294" lon="4.43474">
        <ele>992</ele>
        <time>2018-05-24T09:28:31Z</time>
      </trkpt>
      <trkpt lat="45.2729" lon="4.43447">
        <ele>995</ele>
        <time>2018-05-24T09:28:42Z</time>
      </trkpt>
      <trkpt lat="45.27267" lon="4.43368">
        <ele>997.20001220703</ele>
        <time>2018-05-24T09:29:08Z</time>
      </trkpt>
      <trkpt lat="45.27198" lon="4.43307">
        <ele>997.20001220703</ele>
        <time>2018-05-24T09:29:31Z</time>
      </trkpt>
      <trkpt lat="45.27179" lon="4.43282">
        <ele>1000.5999755859</ele>
        <time>2018-05-24T09:29:42Z</time>
      </trkpt>
      <trkpt lat="45.27169" lon="4.43233">
        <ele>1003.5999755859</ele>
        <time>2018-05-24T09:29:57Z</time>
      </trkpt>
      <trkpt lat="45.27163" lon="4.43171">
        <ele>1005.799987793</ele>
        <time>2018-05-24T09:30:16Z</time>
      </trkpt>
      <trkpt lat="45.27162" lon="4.43165">
        <ele>1006.200012207</ele>
        <time>2018-05-24T09:30:18Z</time>
      </trkpt>
      <trkpt lat="45.27147" lon="4.43102">
        <ele>1007.799987793</ele>
        <time>2018-05-24T09:30:33Z</time>
      </trkpt>
      <trkpt lat="45.27129" lon="4.43033">
        <ele>1010</ele>
        <time>2018-05-24T09:30:48Z</time>
      </trkpt>
      <trkpt lat="45.27108" lon="4.42905">
        <ele>1010</ele>
        <time>2018-05-24T09:31:12Z</time>
      </trkpt>
      <trkpt lat="45.27125" lon="4.42856">
        <ele>1010.4000244141</ele>
        <time>2018-05-24T09:31:21Z</time>
      </trkpt>
      <trkpt lat="45.27155" lon="4.42772">
        <ele>1012</ele>
        <time>2018-05-24T09:31:40Z</time>
      </trkpt>
      <trkpt lat="45.27165" lon="4.42699">
        <ele>1014</ele>
        <time>2018-05-24T09:31:56Z</time>
      </trkpt>
      <trkpt lat="45.27148" lon="4.42626">
        <ele>1016</ele>
        <time>2018-05-24T09:32:14Z</time>
      </trkpt>
      <trkpt lat="45.27129" lon="4.42602">
        <ele>1016</ele>
        <time>2018-05-24T09:32:21Z</time>
      </trkpt>
      <trkpt lat="45.271" lon="4.42541">
        <ele>1018</ele>
        <time>2018-05-24T09:32:33Z</time>
      </trkpt>
      <trkpt lat="45.271" lon="4.42479">
        <ele>1018</ele>
        <time>2018-05-24T09:32:44Z</time>
      </trkpt>
      <trkpt lat="45.2714" lon="4.4239">
        <ele>1020.200012207</ele>
        <time>2018-05-24T09:33:06Z</time>
      </trkpt>
      <trkpt lat="45.27146" lon="4.42379">
        <ele>1020.200012207</ele>
        <time>2018-05-24T09:33:11Z</time>
      </trkpt>
      <trkpt lat="45.27172" lon="4.42336">
        <ele>1022.200012207</ele>
        <time>2018-05-24T09:33:29Z</time>
      </trkpt>
      <trkpt lat="45.27213" lon="4.42294">
        <ele>1024.4000244141</ele>
        <time>2018-05-24T09:33:51Z</time>
      </trkpt>
      <trkpt lat="45.27253" lon="4.42268">
        <ele>1026.4000244141</ele>
        <time>2018-05-24T09:34:09Z</time>
      </trkpt>
      <trkpt lat="45.27288" lon="4.42235">
        <ele>1026.8000488281</ele>
        <time>2018-05-24T09:34:31Z</time>
      </trkpt>
      <trkpt lat="45.2732" lon="4.42189">
        <ele>1028.8000488281</ele>
        <time>2018-05-24T09:34:48Z</time>
      </trkpt>
      <trkpt lat="45.27327" lon="4.4217">
        <ele>1030.4000244141</ele>
        <time>2018-05-24T09:34:55Z</time>
      </trkpt>
      <trkpt lat="45.27356" lon="4.4212">
        <ele>1030.4000244141</ele>
        <time>2018-05-24T09:35:12Z</time>
      </trkpt>
      <trkpt lat="45.2736" lon="4.42068">
        <ele>1031.1999511719</ele>
        <time>2018-05-24T09:35:24Z</time>
      </trkpt>
      <trkpt lat="45.27367" lon="4.42035">
        <ele>1032.8000488281</ele>
        <time>2018-05-24T09:35:37Z</time>
      </trkpt>
      <trkpt lat="45.27368" lon="4.4203">
        <ele>1034.5999755859</ele>
        <time>2018-05-24T09:35:41Z</time>
      </trkpt>
      <trkpt lat="45.27376" lon="4.41996">
        <ele>1035.4000244141</ele>
        <time>2018-05-24T09:35:52Z</time>
      </trkpt>
      <trkpt lat="45.27376" lon="4.41987">
        <ele>1036.8000488281</ele>
        <time>2018-05-24T09:35:55Z</time>
      </trkpt>
      <trkpt lat="45.27397" lon="4.41956">
        <ele>1038.8000488281</ele>
        <time>2018-05-24T09:36:13Z</time>
      </trkpt>
      <trkpt lat="45.27405" lon="4.41954">
        <ele>1038.8000488281</ele>
        <time>2018-05-24T09:36:18Z</time>
      </trkpt>
      <trkpt lat="45.27429" lon="4.41959">
        <ele>1040.8000488281</ele>
        <time>2018-05-24T09:36:32Z</time>
      </trkpt>
      <trkpt lat="45.27451" lon="4.41972">
        <ele>1041.1999511719</ele>
        <time>2018-05-24T09:36:46Z</time>
      </trkpt>
      <trkpt lat="45.27453" lon="4.41972">
        <ele>1041.5999755859</ele>
        <time>2018-05-24T09:36:47Z</time>
      </trkpt>
      <trkpt lat="45.27458" lon="4.41976">
        <ele>1043</ele>
        <time>2018-05-24T09:36:50Z</time>
      </trkpt>
      <trkpt lat="45.27472" lon="4.41982">
        <ele>1043</ele>
        <time>2018-05-24T09:36:59Z</time>
      </trkpt>
      <trkpt lat="45.27488" lon="4.41972">
        <ele>1043.4000244141</ele>
        <time>2018-05-24T09:37:09Z</time>
      </trkpt>
      <trkpt lat="45.27491" lon="4.41969">
        <ele>1045</ele>
        <time>2018-05-24T09:37:14Z</time>
      </trkpt>
      <trkpt lat="45.27502" lon="4.4195">
        <ele>1046.1999511719</ele>
        <time>2018-05-24T09:37:23Z</time>
      </trkpt>
      <trkpt lat="45.27516" lon="4.4191">
        <ele>1047.1999511719</ele>
        <time>2018-05-24T09:37:36Z</time>
      </trkpt>
      <trkpt lat="45.2752" lon="4.41871">
        <ele>1048.8000488281</ele>
        <time>2018-05-24T09:37:48Z</time>
      </trkpt>
      <trkpt lat="45.27524" lon="4.41864">
        <ele>1050</ele>
        <time>2018-05-24T09:37:58Z</time>
      </trkpt>
      <trkpt lat="45.27524" lon="4.41871">
        <ele>1051.4000244141</ele>
        <time>2018-05-24T09:38:03Z</time>
      </trkpt>
      <trkpt lat="45.27538" lon="4.41899">
        <ele>1053.4000244141</ele>
        <time>2018-05-24T09:38:15Z</time>
      </trkpt>
      <trkpt lat="45.27548" lon="4.41932">
        <ele>1056</ele>
        <time>2018-05-24T09:38:31Z</time>
      </trkpt>
      <trkpt lat="45.27549" lon="4.41936">
        <ele>1056.8000488281</ele>
        <time>2018-05-24T09:38:33Z</time>
      </trkpt>
      <trkpt lat="45.2756" lon="4.41965">
        <ele>1059.8000488281</ele>
        <time>2018-05-24T09:38:46Z</time>
      </trkpt>
      <trkpt lat="45.27564" lon="4.4198">
        <ele>1060.5999755859</ele>
        <time>2018-05-24T09:38:54Z</time>
      </trkpt>
      <trkpt lat="45.27566" lon="4.41989">
        <ele>1061.8000488281</ele>
        <time>2018-05-24T09:38:58Z</time>
      </trkpt>
      <trkpt lat="45.27575" lon="4.42015">
        <ele>1063.8000488281</ele>
        <time>2018-05-24T09:39:11Z</time>
      </trkpt>
      <trkpt lat="45.2759" lon="4.42052">
        <ele>1064.1999511719</ele>
        <time>2018-05-24T09:39:24Z</time>
      </trkpt>
      <trkpt lat="45.27594" lon="4.42062">
        <ele>1066</ele>
        <time>2018-05-24T09:39:28Z</time>
      </trkpt>
      <trkpt lat="45.27597" lon="4.42075">
        <ele>1066</ele>
        <time>2018-05-24T09:39:34Z</time>
      </trkpt>
      <trkpt lat="45.27602" lon="4.42093">
        <ele>1066.8000488281</ele>
        <time>2018-05-24T09:39:44Z</time>
      </trkpt>
      <trkpt lat="45.27598" lon="4.42108">
        <ele>1068.1999511719</ele>
        <time>2018-05-24T09:39:54Z</time>
      </trkpt>
      <trkpt lat="45.27617" lon="4.4214">
        <ele>1069.4000244141</ele>
        <time>2018-05-24T09:40:04Z</time>
      </trkpt>
      <trkpt lat="45.27625" lon="4.4215">
        <ele>1070.1999511719</ele>
        <time>2018-05-24T09:40:06Z</time>
      </trkpt>
      <trkpt lat="45.27633" lon="4.42162">
        <ele>1070.1999511719</ele>
        <time>2018-05-24T09:40:08Z</time>
      </trkpt>
      <trkpt lat="45.27656" lon="4.42191">
        <ele>1070.1999511719</ele>
        <time>2018-05-24T09:40:18Z</time>
      </trkpt>
      <trkpt lat="45.27701" lon="4.42244">
        <ele>1070.1999511719</ele>
        <time>2018-05-24T09:40:36Z</time>
      </trkpt>
      <trkpt lat="45.27738" lon="4.42288">
        <ele>1070.1999511719</ele>
        <time>2018-05-24T09:40:47Z</time>
      </trkpt>
      <trkpt lat="45.27785" lon="4.42348">
        <ele>1070.1999511719</ele>
        <time>2018-05-24T09:41:00Z</time>
      </trkpt>
      <trkpt lat="45.27789" lon="4.42353">
        <ele>1070.1999511719</ele>
        <time>2018-05-24T09:41:01Z</time>
      </trkpt>
      <trkpt lat="45.27801" lon="4.42368">
        <ele>1070.1999511719</ele>
        <time>2018-05-24T09:41:04Z</time>
      </trkpt>
      <trkpt lat="45.27816" lon="4.42389">
        <ele>1069.4000244141</ele>
        <time>2018-05-24T09:41:08Z</time>
      </trkpt>
      <trkpt lat="45.27822" lon="4.42399">
        <ele>1068.5999755859</ele>
        <time>2018-05-24T09:41:10Z</time>
      </trkpt>
      <trkpt lat="45.27834" lon="4.42422">
        <ele>1068</ele>
        <time>2018-05-24T09:41:15Z</time>
      </trkpt>
      <trkpt lat="45.27855" lon="4.42464">
        <ele>1068</ele>
        <time>2018-05-24T09:41:26Z</time>
      </trkpt>
      <trkpt lat="45.27877" lon="4.42499">
        <ele>1068</ele>
        <time>2018-05-24T09:41:31Z</time>
      </trkpt>
      <trkpt lat="45.27904" lon="4.42545">
        <ele>1068</ele>
        <time>2018-05-24T09:41:37Z</time>
      </trkpt>
      <trkpt lat="45.27917" lon="4.42585">
        <ele>1065.8000488281</ele>
        <time>2018-05-24T09:41:41Z</time>
      </trkpt>
      <trkpt lat="45.27933" lon="4.42648">
        <ele>1062.8000488281</ele>
        <time>2018-05-24T09:41:47Z</time>
      </trkpt>
      <trkpt lat="45.27935" lon="4.42657">
        <ele>1062.4000244141</ele>
        <time>2018-05-24T09:41:48Z</time>
      </trkpt>
      <trkpt lat="45.27956" lon="4.42708">
        <ele>1061.5999755859</ele>
        <time>2018-05-24T09:41:59Z</time>
      </trkpt>
      <trkpt lat="45.27991" lon="4.42802">
        <ele>1062.4000244141</ele>
        <time>2018-05-24T09:42:23Z</time>
      </trkpt>
      <trkpt lat="45.28008" lon="4.42847">
        <ele>1065.4000244141</ele>
        <time>2018-05-24T09:42:38Z</time>
      </trkpt>
      <trkpt lat="45.28046" lon="4.42885">
        <ele>1068.4000244141</ele>
        <time>2018-05-24T09:43:03Z</time>
      </trkpt>
      <trkpt lat="45.28063" lon="4.42895">
        <ele>1070.4000244141</ele>
        <time>2018-05-24T09:43:15Z</time>
      </trkpt>
      <trkpt lat="45.28079" lon="4.42906">
        <ele>1073.5999755859</ele>
        <time>2018-05-24T09:43:27Z</time>
      </trkpt>
      <trkpt lat="45.28092" lon="4.42916">
        <ele>1075.4000244141</ele>
        <time>2018-05-24T09:43:37Z</time>
      </trkpt>
      <trkpt lat="45.28105" lon="4.42926">
        <ele>1078.4000244141</ele>
        <time>2018-05-24T09:43:48Z</time>
      </trkpt>
      <trkpt lat="45.28117" lon="4.42935">
        <ele>1080.5999755859</ele>
        <time>2018-05-24T09:44:00Z</time>
      </trkpt>
      <trkpt lat="45.28131" lon="4.42923">
        <ele>1082.5999755859</ele>
        <time>2018-05-24T09:44:15Z</time>
      </trkpt>
      <trkpt lat="45.28134" lon="4.42925">
        <ele>1083</ele>
        <time>2018-05-24T09:44:27Z</time>
      </trkpt>
      <trkpt lat="45.28138" lon="4.42926">
        <ele>1084.5999755859</ele>
        <time>2018-05-24T09:44:53Z</time>
      </trkpt>
      <trkpt lat="45.28141" lon="4.42924">
        <ele>1085.1999511719</ele>
        <time>2018-05-24T09:45:25Z</time>
      </trkpt>
      <trkpt lat="45.2816" lon="4.42915">
        <ele>1086.8000488281</ele>
        <time>2018-05-24T09:45:34Z</time>
      </trkpt>
      <trkpt lat="45.28182" lon="4.42887">
        <ele>1087.1999511719</ele>
        <time>2018-05-24T09:45:47Z</time>
      </trkpt>
      <trkpt lat="45.28197" lon="4.42875">
        <ele>1089.1999511719</ele>
        <time>2018-05-24T09:45:58Z</time>
      </trkpt>
      <trkpt lat="45.28213" lon="4.42865">
        <ele>1091.4000244141</ele>
        <time>2018-05-24T09:46:08Z</time>
      </trkpt>
      <trkpt lat="45.28218" lon="4.4286">
        <ele>1094.5999755859</ele>
        <time>2018-05-24T09:46:18Z</time>
      </trkpt>
      <trkpt lat="45.28228" lon="4.42848">
        <ele>1096.1999511719</ele>
        <time>2018-05-24T09:46:37Z</time>
      </trkpt>
      <trkpt lat="45.28233" lon="4.42846">
        <ele>1097</ele>
        <time>2018-05-24T09:46:39Z</time>
      </trkpt>
      <trkpt lat="45.28245" lon="4.42834">
        <ele>1098.1999511719</ele>
        <time>2018-05-24T09:46:55Z</time>
      </trkpt>
      <trkpt lat="45.28253" lon="4.42828">
        <ele>1099</ele>
        <time>2018-05-24T09:47:06Z</time>
      </trkpt>
      <trkpt lat="45.28261" lon="4.42827">
        <ele>1101.1999511719</ele>
        <time>2018-05-24T09:47:13Z</time>
      </trkpt>
      <trkpt lat="45.28269" lon="4.42829">
        <ele>1103.1999511719</ele>
        <time>2018-05-24T09:47:28Z</time>
      </trkpt>
      <trkpt lat="45.28276" lon="4.42832">
        <ele>1104.4000244141</ele>
        <time>2018-05-24T09:47:37Z</time>
      </trkpt>
      <trkpt lat="45.28282" lon="4.42838">
        <ele>1105.8000488281</ele>
        <time>2018-05-24T09:47:50Z</time>
      </trkpt>
      <trkpt lat="45.28286" lon="4.42847">
        <ele>1108</ele>
        <time>2018-05-24T09:48:04Z</time>
      </trkpt>
      <trkpt lat="45.28293" lon="4.42864">
        <ele>1110.8000488281</ele>
        <time>2018-05-24T09:48:19Z</time>
      </trkpt>
      <trkpt lat="45.28293" lon="4.42871">
        <ele>1111.5999755859</ele>
        <time>2018-05-24T09:48:35Z</time>
      </trkpt>
      <trkpt lat="45.2829" lon="4.42876">
        <ele>1111.5999755859</ele>
        <time>2018-05-24T09:48:39Z</time>
      </trkpt>
      <trkpt lat="45.2829" lon="4.42901">
        <ele>1112.4000244141</ele>
        <time>2018-05-24T09:48:52Z</time>
      </trkpt>
      <trkpt lat="45.28295" lon="4.42944">
        <ele>1113.5999755859</ele>
        <time>2018-05-24T09:49:08Z</time>
      </trkpt>
      <trkpt lat="45.28301" lon="4.42945">
        <ele>1115.8000488281</ele>
        <time>2018-05-24T09:49:19Z</time>
      </trkpt>
      <trkpt lat="45.28327" lon="4.4295">
        <ele>1116.1999511719</ele>
        <time>2018-05-24T09:49:35Z</time>
      </trkpt>
      <trkpt lat="45.28355" lon="4.4295">
        <ele>1117.8000488281</ele>
        <time>2018-05-24T09:49:50Z</time>
      </trkpt>
      <trkpt lat="45.28374" lon="4.42955">
        <ele>1118.1999511719</ele>
        <time>2018-05-24T09:50:00Z</time>
      </trkpt>
      <trkpt lat="45.28395" lon="4.42965">
        <ele>1120</ele>
        <time>2018-05-24T09:50:12Z</time>
      </trkpt>
      <trkpt lat="45.28404" lon="4.42971">
        <ele>1122.4000244141</ele>
        <time>2018-05-24T09:50:20Z</time>
      </trkpt>
      <trkpt lat="45.28415" lon="4.42981">
        <ele>1124.1999511719</ele>
        <time>2018-05-24T09:50:36Z</time>
      </trkpt>
      <trkpt lat="45.28424" lon="4.42986">
        <ele>1126.4000244141</ele>
        <time>2018-05-24T09:50:53Z</time>
      </trkpt>
      <trkpt lat="45.28427" lon="4.42986">
        <ele>1126.4000244141</ele>
        <time>2018-05-24T09:50:56Z</time>
      </trkpt>
      <trkpt lat="45.28444" lon="4.42991">
        <ele>1126.4000244141</ele>
        <time>2018-05-24T09:51:04Z</time>
      </trkpt>
      <trkpt lat="45.28502" lon="4.43011">
        <ele>1126.4000244141</ele>
        <time>2018-05-24T09:51:25Z</time>
      </trkpt>
      <trkpt lat="45.28521" lon="4.4302">
        <ele>1126.4000244141</ele>
        <time>2018-05-24T09:51:30Z</time>
      </trkpt>
      <trkpt lat="45.28549" lon="4.43027">
        <ele>1123.1999511719</ele>
        <time>2018-05-24T09:51:37Z</time>
      </trkpt>
      <trkpt lat="45.28571" lon="4.43034">
        <ele>1120</ele>
        <time>2018-05-24T09:51:47Z</time>
      </trkpt>
      <trkpt lat="45.28602" lon="4.43047">
        <ele>1118</ele>
        <time>2018-05-24T09:51:56Z</time>
      </trkpt>
      <trkpt lat="45.28628" lon="4.43065">
        <ele>1116.1999511719</ele>
        <time>2018-05-24T09:52:02Z</time>
      </trkpt>
      <trkpt lat="45.28632" lon="4.43066">
        <ele>1115.8000488281</ele>
        <time>2018-05-24T09:52:03Z</time>
      </trkpt>
      <trkpt lat="45.28662" lon="4.43077">
        <ele>1115.8000488281</ele>
        <time>2018-05-24T09:52:10Z</time>
      </trkpt>
      <trkpt lat="45.28673" lon="4.43079">
        <ele>1115.8000488281</ele>
        <time>2018-05-24T09:52:12Z</time>
      </trkpt>
      <trkpt lat="45.287" lon="4.43083">
        <ele>1115.8000488281</ele>
        <time>2018-05-24T09:52:20Z</time>
      </trkpt>
      <trkpt lat="45.28741" lon="4.43093">
        <ele>1118.1999511719</ele>
        <time>2018-05-24T09:52:31Z</time>
      </trkpt>
      <trkpt lat="45.28808" lon="4.43117">
        <ele>1118.1999511719</ele>
        <time>2018-05-24T09:52:54Z</time>
      </trkpt>
      <trkpt lat="45.28871" lon="4.43141">
        <ele>1120.1999511719</ele>
        <time>2018-05-24T09:53:14Z</time>
      </trkpt>
      <trkpt lat="45.28929" lon="4.43169">
        <ele>1122.1999511719</ele>
        <time>2018-05-24T09:53:38Z</time>
      </trkpt>
      <trkpt lat="45.28974" lon="4.43209">
        <ele>1122.1999511719</ele>
        <time>2018-05-24T09:53:58Z</time>
      </trkpt>
      <trkpt lat="45.29033" lon="4.43231">
        <ele>1122.1999511719</ele>
        <time>2018-05-24T09:54:14Z</time>
      </trkpt>
      <trkpt lat="45.29088" lon="4.43246">
        <ele>1122.1999511719</ele>
        <time>2018-05-24T09:54:23Z</time>
      </trkpt>
      <trkpt lat="45.29122" lon="4.43275">
        <ele>1120</ele>
        <time>2018-05-24T09:54:30Z</time>
      </trkpt>
      <trkpt lat="45.29165" lon="4.43293">
        <ele>1120</ele>
        <time>2018-05-24T09:54:42Z</time>
      </trkpt>
      <trkpt lat="45.2921" lon="4.43305">
        <ele>1120</ele>
        <time>2018-05-24T09:54:55Z</time>
      </trkpt>
      <trkpt lat="45.29238" lon="4.43324">
        <ele>1120</ele>
        <time>2018-05-24T09:55:03Z</time>
      </trkpt>
      <trkpt lat="45.29287" lon="4.4336">
        <ele>1122.4000244141</ele>
        <time>2018-05-24T09:55:20Z</time>
      </trkpt>
      <trkpt lat="45.29326" lon="4.43388">
        <ele>1124</ele>
        <time>2018-05-24T09:55:35Z</time>
      </trkpt>
      <trkpt lat="45.29361" lon="4.43418">
        <ele>1124</ele>
        <time>2018-05-24T09:55:48Z</time>
      </trkpt>
      <trkpt lat="45.29387" lon="4.43425">
        <ele>1124</ele>
        <time>2018-05-24T09:55:54Z</time>
      </trkpt>
      <trkpt lat="45.29411" lon="4.43452">
        <ele>1124</ele>
        <time>2018-05-24T09:56:00Z</time>
      </trkpt>
      <trkpt lat="45.29503" lon="4.43582">
        <ele>1124</ele>
        <time>2018-05-24T09:56:30Z</time>
      </trkpt>
      <trkpt lat="45.2956" lon="4.43635">
        <ele>1124</ele>
        <time>2018-05-24T09:56:46Z</time>
      </trkpt>
      <trkpt lat="45.29609" lon="4.43672">
        <ele>1124</ele>
        <time>2018-05-24T09:56:58Z</time>
      </trkpt>
      <trkpt lat="45.29636" lon="4.437">
        <ele>1124</ele>
        <time>2018-05-24T09:57:06Z</time>
      </trkpt>
      <trkpt lat="45.29675" lon="4.43744">
        <ele>1124</ele>
        <time>2018-05-24T09:57:25Z</time>
      </trkpt>
      <trkpt lat="45.29708" lon="4.43799">
        <ele>1126.5999755859</ele>
        <time>2018-05-24T09:57:51Z</time>
      </trkpt>
      <trkpt lat="45.29721" lon="4.43819">
        <ele>1129.5999755859</ele>
        <time>2018-05-24T09:58:05Z</time>
      </trkpt>
      <trkpt lat="45.29736" lon="4.43838">
        <ele>1132.8000488281</ele>
        <time>2018-05-24T09:58:22Z</time>
      </trkpt>
      <trkpt lat="45.29739" lon="4.43842">
        <ele>1134</ele>
        <time>2018-05-24T09:58:25Z</time>
      </trkpt>
      <trkpt lat="45.29741" lon="4.43844">
        <ele>1134.4000244141</ele>
        <time>2018-05-24T09:58:27Z</time>
      </trkpt>
      <trkpt lat="45.2977" lon="4.43869">
        <ele>1137.5999755859</ele>
        <time>2018-05-24T09:58:53Z</time>
      </trkpt>
      <trkpt lat="45.29786" lon="4.43878">
        <ele>1140.5999755859</ele>
        <time>2018-05-24T09:59:08Z</time>
      </trkpt>
      <trkpt lat="45.2979" lon="4.4388">
        <ele>1140.5999755859</ele>
        <time>2018-05-24T09:59:11Z</time>
      </trkpt>
      <trkpt lat="45.29786" lon="4.43917">
        <ele>1142.5999755859</ele>
        <time>2018-05-24T09:59:29Z</time>
      </trkpt>
      <trkpt lat="45.29782" lon="4.43944">
        <ele>1142.5999755859</ele>
        <time>2018-05-24T09:59:38Z</time>
      </trkpt>
      <trkpt lat="45.29773" lon="4.44031">
        <ele>1144.8000488281</ele>
        <time>2018-05-24T10:00:07Z</time>
      </trkpt>
      <trkpt lat="45.29781" lon="4.44085">
        <ele>1147.5999755859</ele>
        <time>2018-05-24T10:00:27Z</time>
      </trkpt>
      <trkpt lat="45.29785" lon="4.44109">
        <ele>1150.5999755859</ele>
        <time>2018-05-24T10:00:38Z</time>
      </trkpt>
      <trkpt lat="45.29818" lon="4.44165">
        <ele>1153</ele>
        <time>2018-05-24T10:01:08Z</time>
      </trkpt>
      <trkpt lat="45.29836" lon="4.44182">
        <ele>1155.1999511719</ele>
        <time>2018-05-24T10:01:20Z</time>
      </trkpt>
      <trkpt lat="45.29846" lon="4.4417">
        <ele>1156</ele>
        <time>2018-05-24T10:01:29Z</time>
      </trkpt>
      <trkpt lat="45.29854" lon="4.44157">
        <ele>1159</ele>
        <time>2018-05-24T10:01:38Z</time>
      </trkpt>
      <trkpt lat="45.29874" lon="4.44146">
        <ele>1162.1999511719</ele>
        <time>2018-05-24T10:01:53Z</time>
      </trkpt>
      <trkpt lat="45.29893" lon="4.44138">
        <ele>1165.5999755859</ele>
        <time>2018-05-24T10:02:08Z</time>
      </trkpt>
      <trkpt lat="45.29904" lon="4.4412">
        <ele>1168</ele>
        <time>2018-05-24T10:02:20Z</time>
      </trkpt>
      <trkpt lat="45.29919" lon="4.44104">
        <ele>1169.8000488281</ele>
        <time>2018-05-24T10:02:33Z</time>
      </trkpt>
      <trkpt lat="45.29951" lon="4.44111">
        <ele>1172.1999511719</ele>
        <time>2018-05-24T10:02:54Z</time>
      </trkpt>
      <trkpt lat="45.29978" lon="4.44096">
        <ele>1175.1999511719</ele>
        <time>2018-05-24T10:03:13Z</time>
      </trkpt>
      <trkpt lat="45.29984" lon="4.44094">
        <ele>1177</ele>
        <time>2018-05-24T10:03:17Z</time>
      </trkpt>
      <trkpt lat="45.30006" lon="4.44104">
        <ele>1180.4000244141</ele>
        <time>2018-05-24T10:03:33Z</time>
      </trkpt>
      <trkpt lat="45.30019" lon="4.44124">
        <ele>1183.4000244141</ele>
        <time>2018-05-24T10:03:46Z</time>
      </trkpt>
      <trkpt lat="45.30023" lon="4.44133">
        <ele>1183.8000488281</ele>
        <time>2018-05-24T10:03:52Z</time>
      </trkpt>
      <trkpt lat="45.30037" lon="4.4414">
        <ele>1186</ele>
        <time>2018-05-24T10:04:03Z</time>
      </trkpt>
      <trkpt lat="45.30048" lon="4.44132">
        <ele>1187.8000488281</ele>
        <time>2018-05-24T10:04:11Z</time>
      </trkpt>
      <trkpt lat="45.30072" lon="4.44108">
        <ele>1190.8000488281</ele>
        <time>2018-05-24T10:04:27Z</time>
      </trkpt>
      <trkpt lat="45.30112" lon="4.44078">
        <ele>1192.8000488281</ele>
        <time>2018-05-24T10:04:47Z</time>
      </trkpt>
      <trkpt lat="45.30128" lon="4.44078">
        <ele>1194</ele>
        <time>2018-05-24T10:04:54Z</time>
      </trkpt>
      <trkpt lat="45.30155" lon="4.44106">
        <ele>1196.5999755859</ele>
        <time>2018-05-24T10:05:11Z</time>
      </trkpt>
      <trkpt lat="45.30184" lon="4.44137">
        <ele>1199.5999755859</ele>
        <time>2018-05-24T10:05:29Z</time>
      </trkpt>
      <trkpt lat="45.30216" lon="4.44194">
        <ele>1202.1999511719</ele>
        <time>2018-05-24T10:05:51Z</time>
      </trkpt>
      <trkpt lat="45.30256" lon="4.4427">
        <ele>1204.8000488281</ele>
        <time>2018-05-24T10:06:16Z</time>
      </trkpt>
      <trkpt lat="45.30293" lon="4.4431">
        <ele>1207.1999511719</ele>
        <time>2018-05-24T10:06:35Z</time>
      </trkpt>
      <trkpt lat="45.30324" lon="4.44337">
        <ele>1210.1999511719</ele>
        <time>2018-05-24T10:06:51Z</time>
      </trkpt>
      <trkpt lat="45.30362" lon="4.44365">
        <ele>1213</ele>
        <time>2018-05-24T10:07:12Z</time>
      </trkpt>
      <trkpt lat="45.30402" lon="4.44389">
        <ele>1215.8000488281</ele>
        <time>2018-05-24T10:07:34Z</time>
      </trkpt>
      <trkpt lat="45.30428" lon="4.44406">
        <ele>1218.8000488281</ele>
        <time>2018-05-24T10:07:49Z</time>
      </trkpt>
      <trkpt lat="45.3044" lon="4.44418">
        <ele>1221</ele>
        <time>2018-05-24T10:07:58Z</time>
      </trkpt>
      <trkpt lat="45.30452" lon="4.44425">
        <ele>1221.4000244141</ele>
        <time>2018-05-24T10:08:07Z</time>
      </trkpt>
      <trkpt lat="45.3046" lon="4.4443">
        <ele>1223.4000244141</ele>
        <time>2018-05-24T10:08:12Z</time>
      </trkpt>
      <trkpt lat="45.30481" lon="4.44449">
        <ele>1225.5999755859</ele>
        <time>2018-05-24T10:08:29Z</time>
      </trkpt>
      <trkpt lat="45.30485" lon="4.44452">
        <ele>1225.5999755859</ele>
        <time>2018-05-24T10:08:32Z</time>
      </trkpt>
      <trkpt lat="45.30486" lon="4.44453">
        <ele>1226</ele>
        <time>2018-05-24T10:08:33Z</time>
      </trkpt>
      <trkpt lat="45.30505" lon="4.44472">
        <ele>1229</ele>
        <time>2018-05-24T10:08:50Z</time>
      </trkpt>
      <trkpt lat="45.30524" lon="4.44491">
        <ele>1232</ele>
        <time>2018-05-24T10:09:05Z</time>
      </trkpt>
      <trkpt lat="45.30546" lon="4.44517">
        <ele>1234.1999511719</ele>
        <time>2018-05-24T10:09:23Z</time>
      </trkpt>
      <trkpt lat="45.30572" lon="4.44519">
        <ele>1236.1999511719</ele>
        <time>2018-05-24T10:09:38Z</time>
      </trkpt>
      <trkpt lat="45.30618" lon="4.44527">
        <ele>1236.1999511719</ele>
        <time>2018-05-24T10:10:02Z</time>
      </trkpt>
      <trkpt lat="45.30662" lon="4.44527">
        <ele>1236.1999511719</ele>
        <time>2018-05-24T10:10:26Z</time>
      </trkpt>
      <trkpt lat="45.30659" lon="4.44529">
        <ele>1236.1999511719</ele>
        <time>2018-05-24T10:10:33Z</time>
      </trkpt>
      <trkpt lat="45.30653" lon="4.44528">
        <ele>1236.1999511719</ele>
        <time>2018-05-24T10:10:36Z</time>
      </trkpt>
      <trkpt lat="45.30613" lon="4.44527">
        <ele>1236.1999511719</ele>
        <time>2018-05-24T10:10:54Z</time>
      </trkpt>
      <trkpt lat="45.30575" lon="4.4451">
        <ele>1236.1999511719</ele>
        <time>2018-05-24T10:11:16Z</time>
      </trkpt>
      <trkpt lat="45.30587" lon="4.44457">
        <ele>1235.8000488281</ele>
        <time>2018-05-24T10:11:29Z</time>
      </trkpt>
      <trkpt lat="45.3059" lon="4.44448">
        <ele>1235</ele>
        <time>2018-05-24T10:11:31Z</time>
      </trkpt>
      <trkpt lat="45.30601" lon="4.44447">
        <ele>1232.4000244141</ele>
        <time>2018-05-24T10:11:37Z</time>
      </trkpt>
      <trkpt lat="45.30635" lon="4.44474">
        <ele>1232</ele>
        <time>2018-05-24T10:11:51Z</time>
      </trkpt>
      <trkpt lat="45.30649" lon="4.44476">
        <ele>1232</ele>
        <time>2018-05-24T10:11:55Z</time>
      </trkpt>
      <trkpt lat="45.30707" lon="4.44481">
        <ele>1234.1999511719</ele>
        <time>2018-05-24T10:12:13Z</time>
      </trkpt>
      <trkpt lat="45.30753" lon="4.44445">
        <ele>1234.5999755859</ele>
        <time>2018-05-24T10:12:31Z</time>
      </trkpt>
      <trkpt lat="45.30756" lon="4.44439">
        <ele>1235.4000244141</ele>
        <time>2018-05-24T10:12:33Z</time>
      </trkpt>
      <trkpt lat="45.30776" lon="4.44366">
        <ele>1236.1999511719</ele>
        <time>2018-05-24T10:12:50Z</time>
      </trkpt>
      <trkpt lat="45.30789" lon="4.44324">
        <ele>1236.1999511719</ele>
        <time>2018-05-24T10:12:59Z</time>
      </trkpt>
      <trkpt lat="45.30793" lon="4.44291">
        <ele>1234</ele>
        <time>2018-05-24T10:13:04Z</time>
      </trkpt>
      <trkpt lat="45.30801" lon="4.44236">
        <ele>1231</ele>
        <time>2018-05-24T10:13:11Z</time>
      </trkpt>
      <trkpt lat="45.30807" lon="4.44212">
        <ele>1229.5999755859</ele>
        <time>2018-05-24T10:13:14Z</time>
      </trkpt>
      <trkpt lat="45.30808" lon="4.44203">
        <ele>1229</ele>
        <time>2018-05-24T10:13:15Z</time>
      </trkpt>
      <trkpt lat="45.30809" lon="4.44179">
        <ele>1226.8000488281</ele>
        <time>2018-05-24T10:13:18Z</time>
      </trkpt>
      <trkpt lat="45.30809" lon="4.44149">
        <ele>1225</ele>
        <time>2018-05-24T10:13:21Z</time>
      </trkpt>
      <trkpt lat="45.30808" lon="4.44096">
        <ele>1222.8000488281</ele>
        <time>2018-05-24T10:13:26Z</time>
      </trkpt>
      <trkpt lat="45.30806" lon="4.44035">
        <ele>1220.1999511719</ele>
        <time>2018-05-24T10:13:32Z</time>
      </trkpt>
      <trkpt lat="45.30792" lon="4.43994">
        <ele>1218</ele>
        <time>2018-05-24T10:13:39Z</time>
      </trkpt>
      <trkpt lat="45.3079" lon="4.43982">
        <ele>1216</ele>
        <time>2018-05-24T10:13:49Z</time>
      </trkpt>
      <trkpt lat="45.3079" lon="4.43981">
        <ele>1216</ele>
        <time>2018-05-24T10:14:38Z</time>
      </trkpt>
      <trkpt lat="45.30791" lon="4.43982">
        <ele>1216</ele>
        <time>2018-05-24T10:18:05Z</time>
      </trkpt>
      <trkpt lat="45.30799" lon="4.44013">
        <ele>1216</ele>
        <time>2018-05-24T10:18:15Z</time>
      </trkpt>
      <trkpt lat="45.30807" lon="4.44041">
        <ele>1216</ele>
        <time>2018-05-24T10:18:23Z</time>
      </trkpt>
      <trkpt lat="45.3081" lon="4.44124">
        <ele>1219.1999511719</ele>
        <time>2018-05-24T10:18:50Z</time>
      </trkpt>
      <trkpt lat="45.3081" lon="4.44192">
        <ele>1222.4000244141</ele>
        <time>2018-05-24T10:19:13Z</time>
      </trkpt>
      <trkpt lat="45.30806" lon="4.44226">
        <ele>1225.4000244141</ele>
        <time>2018-05-24T10:19:25Z</time>
      </trkpt>
      <trkpt lat="45.30805" lon="4.44229">
        <ele>1225.8000488281</ele>
        <time>2018-05-24T10:19:26Z</time>
      </trkpt>
      <trkpt lat="45.30798" lon="4.44252">
        <ele>1226.5999755859</ele>
        <time>2018-05-24T10:19:36Z</time>
      </trkpt>
      <trkpt lat="45.30794" lon="4.44284">
        <ele>1229.5999755859</ele>
        <time>2018-05-24T10:19:49Z</time>
      </trkpt>
      <trkpt lat="45.30788" lon="4.44332">
        <ele>1232.4000244141</ele>
        <time>2018-05-24T10:20:11Z</time>
      </trkpt>
      <trkpt lat="45.30777" lon="4.44362">
        <ele>1234.5999755859</ele>
        <time>2018-05-24T10:20:26Z</time>
      </trkpt>
      <trkpt lat="45.30775" lon="4.44369">
        <ele>1234.5999755859</ele>
        <time>2018-05-24T10:20:29Z</time>
      </trkpt>
      <trkpt lat="45.3076" lon="4.44435">
        <ele>1236.5999755859</ele>
        <time>2018-05-24T10:20:52Z</time>
      </trkpt>
      <trkpt lat="45.30707" lon="4.4448">
        <ele>1236.5999755859</ele>
        <time>2018-05-24T10:21:10Z</time>
      </trkpt>
      <trkpt lat="45.30641" lon="4.44476">
        <ele>1234.5999755859</ele>
        <time>2018-05-24T10:21:27Z</time>
      </trkpt>
      <trkpt lat="45.3061" lon="4.44456">
        <ele>1234.5999755859</ele>
        <time>2018-05-24T10:21:36Z</time>
      </trkpt>
      <trkpt lat="45.30594" lon="4.44443">
        <ele>1234.1999511719</ele>
        <time>2018-05-24T10:21:40Z</time>
      </trkpt>
      <trkpt lat="45.30585" lon="4.44436">
        <ele>1232.4000244141</ele>
        <time>2018-05-24T10:21:48Z</time>
      </trkpt>
      <trkpt lat="45.30585" lon="4.44437">
        <ele>1232.4000244141</ele>
        <time>2018-05-24T10:21:55Z</time>
      </trkpt>
      <trkpt lat="45.30584" lon="4.4445">
        <ele>1232.4000244141</ele>
        <time>2018-05-24T10:22:12Z</time>
      </trkpt>
      <trkpt lat="45.30576" lon="4.44476">
        <ele>1232.4000244141</ele>
        <time>2018-05-24T10:22:24Z</time>
      </trkpt>
      <trkpt lat="45.30577" lon="4.44508">
        <ele>1234.5999755859</ele>
        <time>2018-05-24T10:22:41Z</time>
      </trkpt>
      <trkpt lat="45.30572" lon="4.44516">
        <ele>1236.8000488281</ele>
        <time>2018-05-24T10:22:46Z</time>
      </trkpt>
      <trkpt lat="45.30589" lon="4.4452">
        <ele>1236.8000488281</ele>
        <time>2018-05-24T10:22:57Z</time>
      </trkpt>
      <trkpt lat="45.30649" lon="4.44527">
        <ele>1236.8000488281</ele>
        <time>2018-05-24T10:23:20Z</time>
      </trkpt>
      <trkpt lat="45.30692" lon="4.44526">
        <ele>1236.8000488281</ele>
        <time>2018-05-24T10:23:32Z</time>
      </trkpt>
      <trkpt lat="45.30732" lon="4.44542">
        <ele>1236.8000488281</ele>
        <time>2018-05-24T10:23:42Z</time>
      </trkpt>
      <trkpt lat="45.30741" lon="4.44548">
        <ele>1235.8000488281</ele>
        <time>2018-05-24T10:23:44Z</time>
      </trkpt>
      <trkpt lat="45.30751" lon="4.44554">
        <ele>1235</ele>
        <time>2018-05-24T10:23:46Z</time>
      </trkpt>
      <trkpt lat="45.30774" lon="4.44563">
        <ele>1234.5999755859</ele>
        <time>2018-05-24T10:23:50Z</time>
      </trkpt>
      <trkpt lat="45.30816" lon="4.44583">
        <ele>1231.5999755859</ele>
        <time>2018-05-24T10:23:57Z</time>
      </trkpt>
      <trkpt lat="45.30838" lon="4.44593">
        <ele>1229.5999755859</ele>
        <time>2018-05-24T10:24:01Z</time>
      </trkpt>
      <trkpt lat="45.30862" lon="4.44602">
        <ele>1227.4000244141</ele>
        <time>2018-05-24T10:24:05Z</time>
      </trkpt>
      <trkpt lat="45.30878" lon="4.44612">
        <ele>1225.8000488281</ele>
        <time>2018-05-24T10:24:08Z</time>
      </trkpt>
      <trkpt lat="45.30908" lon="4.44625">
        <ele>1222.8000488281</ele>
        <time>2018-05-24T10:24:13Z</time>
      </trkpt>
      <trkpt lat="45.30942" lon="4.44642">
        <ele>1219.5999755859</ele>
        <time>2018-05-24T10:24:18Z</time>
      </trkpt>
      <trkpt lat="45.31" lon="4.44669">
        <ele>1216.4000244141</ele>
        <time>2018-05-24T10:24:27Z</time>
      </trkpt>
      <trkpt lat="45.31033" lon="4.44677">
        <ele>1214</ele>
        <time>2018-05-24T10:24:32Z</time>
      </trkpt>
      <trkpt lat="45.31045" lon="4.44676">
        <ele>1213</ele>
        <time>2018-05-24T10:24:34Z</time>
      </trkpt>
      <trkpt lat="45.31081" lon="4.44708">
        <ele>1212.1999511719</ele>
        <time>2018-05-24T10:24:42Z</time>
      </trkpt>
      <trkpt lat="45.31097" lon="4.44716">
        <ele>1210.8000488281</ele>
        <time>2018-05-24T10:24:45Z</time>
      </trkpt>
      <trkpt lat="45.31152" lon="4.44743">
        <ele>1208</ele>
        <time>2018-05-24T10:24:55Z</time>
      </trkpt>
      <trkpt lat="45.31184" lon="4.44755">
        <ele>1207.5999755859</ele>
        <time>2018-05-24T10:25:01Z</time>
      </trkpt>
      <trkpt lat="45.31205" lon="4.44766">
        <ele>1205.5999755859</ele>
        <time>2018-05-24T10:25:06Z</time>
      </trkpt>
      <trkpt lat="45.31237" lon="4.44774">
        <ele>1207.5999755859</ele>
        <time>2018-05-24T10:25:18Z</time>
      </trkpt>
      <trkpt lat="45.3128" lon="4.44794">
        <ele>1209.5999755859</ele>
        <time>2018-05-24T10:25:40Z</time>
      </trkpt>
      <trkpt lat="45.31335" lon="4.44821">
        <ele>1209.5999755859</ele>
        <time>2018-05-24T10:26:01Z</time>
      </trkpt>
      <trkpt lat="45.31361" lon="4.44839">
        <ele>1208.5999755859</ele>
        <time>2018-05-24T10:26:07Z</time>
      </trkpt>
      <trkpt lat="45.31384" lon="4.4485">
        <ele>1206.8000488281</ele>
        <time>2018-05-24T10:26:13Z</time>
      </trkpt>
      <trkpt lat="45.31416" lon="4.44868">
        <ele>1203.4000244141</ele>
        <time>2018-05-24T10:26:22Z</time>
      </trkpt>
      <trkpt lat="45.31433" lon="4.44887">
        <ele>1200.4000244141</ele>
        <time>2018-05-24T10:26:28Z</time>
      </trkpt>
      <trkpt lat="45.31437" lon="4.44891">
        <ele>1199.1999511719</ele>
        <time>2018-05-24T10:26:30Z</time>
      </trkpt>
      <trkpt lat="45.31439" lon="4.44897">
        <ele>1198.1999511719</ele>
        <time>2018-05-24T10:26:32Z</time>
      </trkpt>
      <trkpt lat="45.31443" lon="4.4491">
        <ele>1195.1999511719</ele>
        <time>2018-05-24T10:26:38Z</time>
      </trkpt>
      <trkpt lat="45.31458" lon="4.44931">
        <ele>1191.8000488281</ele>
        <time>2018-05-24T10:26:47Z</time>
      </trkpt>
      <trkpt lat="45.31474" lon="4.44935">
        <ele>1188.8000488281</ele>
        <time>2018-05-24T10:26:54Z</time>
      </trkpt>
      <trkpt lat="45.31491" lon="4.44953">
        <ele>1185.5999755859</ele>
        <time>2018-05-24T10:27:02Z</time>
      </trkpt>
      <trkpt lat="45.31491" lon="4.44957">
        <ele>1185.1999511719</ele>
        <time>2018-05-24T10:27:03Z</time>
      </trkpt>
      <trkpt lat="45.31495" lon="4.44982">
        <ele>1183.1999511719</ele>
        <time>2018-05-24T10:27:09Z</time>
      </trkpt>
      <trkpt lat="45.31505" lon="4.44997">
        <ele>1181.4000244141</ele>
        <time>2018-05-24T10:27:13Z</time>
      </trkpt>
      <trkpt lat="45.31518" lon="4.45008">
        <ele>1179.5999755859</ele>
        <time>2018-05-24T10:27:17Z</time>
      </trkpt>
      <trkpt lat="45.31531" lon="4.45018">
        <ele>1177.8000488281</ele>
        <time>2018-05-24T10:27:21Z</time>
      </trkpt>
      <trkpt lat="45.31541" lon="4.4503">
        <ele>1176.4000244141</ele>
        <time>2018-05-24T10:27:24Z</time>
      </trkpt>
      <trkpt lat="45.31553" lon="4.45042">
        <ele>1174.8000488281</ele>
        <time>2018-05-24T10:27:28Z</time>
      </trkpt>
      <trkpt lat="45.31571" lon="4.45057">
        <ele>1171</ele>
        <time>2018-05-24T10:27:36Z</time>
      </trkpt>
      <trkpt lat="45.31593" lon="4.45072">
        <ele>1167.5999755859</ele>
        <time>2018-05-24T10:27:43Z</time>
      </trkpt>
      <trkpt lat="45.31609" lon="4.4508">
        <ele>1165.8000488281</ele>
        <time>2018-05-24T10:27:46Z</time>
      </trkpt>
      <trkpt lat="45.31631" lon="4.45094">
        <ele>1162.4000244141</ele>
        <time>2018-05-24T10:27:51Z</time>
      </trkpt>
      <trkpt lat="45.31637" lon="4.45093">
        <ele>1161</ele>
        <time>2018-05-24T10:27:53Z</time>
      </trkpt>
      <trkpt lat="45.3164" lon="4.45092">
        <ele>1160.1999511719</ele>
        <time>2018-05-24T10:27:54Z</time>
      </trkpt>
      <trkpt lat="45.31654" lon="4.4508">
        <ele>1158</ele>
        <time>2018-05-24T10:27:57Z</time>
      </trkpt>
      <trkpt lat="45.31672" lon="4.45072">
        <ele>1154.1999511719</ele>
        <time>2018-05-24T10:28:01Z</time>
      </trkpt>
      <trkpt lat="45.31671" lon="4.4509">
        <ele>1151.4000244141</ele>
        <time>2018-05-24T10:28:07Z</time>
      </trkpt>
      <trkpt lat="45.3166" lon="4.45151">
        <ele>1150.1999511719</ele>
        <time>2018-05-24T10:28:20Z</time>
      </trkpt>
      <trkpt lat="45.31641" lon="4.45183">
        <ele>1150.1999511719</ele>
        <time>2018-05-24T10:28:29Z</time>
      </trkpt>
      <trkpt lat="45.31604" lon="4.45263">
        <ele>1150.1999511719</ele>
        <time>2018-05-24T10:28:53Z</time>
      </trkpt>
      <trkpt lat="45.316" lon="4.45279">
        <ele>1151.8000488281</ele>
        <time>2018-05-24T10:28:57Z</time>
      </trkpt>
      <trkpt lat="45.31579" lon="4.45322">
        <ele>1152.1999511719</ele>
        <time>2018-05-24T10:29:08Z</time>
      </trkpt>
      <trkpt lat="45.31553" lon="4.45354">
        <ele>1152.1999511719</ele>
        <time>2018-05-24T10:29:18Z</time>
      </trkpt>
      <trkpt lat="45.31539" lon="4.45377">
        <ele>1153</ele>
        <time>2018-05-24T10:29:25Z</time>
      </trkpt>
      <trkpt lat="45.31535" lon="4.45399">
        <ele>1154.1999511719</ele>
        <time>2018-05-24T10:29:29Z</time>
      </trkpt>
      <trkpt lat="45.31531" lon="4.4541">
        <ele>1154.1999511719</ele>
        <time>2018-05-24T10:29:31Z</time>
      </trkpt>
      <trkpt lat="45.31521" lon="4.45422">
        <ele>1154.1999511719</ele>
        <time>2018-05-24T10:29:35Z</time>
      </trkpt>
      <trkpt lat="45.31505" lon="4.45441">
        <ele>1154.1999511719</ele>
        <time>2018-05-24T10:29:41Z</time>
      </trkpt>
      <trkpt lat="45.3147" lon="4.4552">
        <ele>1154.1999511719</ele>
        <time>2018-05-24T10:29:57Z</time>
      </trkpt>
      <trkpt lat="45.31439" lon="4.45616">
        <ele>1154.1999511719</ele>
        <time>2018-05-24T10:30:13Z</time>
      </trkpt>
      <trkpt lat="45.31431" lon="4.45631">
        <ele>1154.1999511719</ele>
        <time>2018-05-24T10:30:17Z</time>
      </trkpt>
      <trkpt lat="45.31422" lon="4.45687">
        <ele>1153.4000244141</ele>
        <time>2018-05-24T10:30:25Z</time>
      </trkpt>
      <trkpt lat="45.31423" lon="4.45702">
        <ele>1152.5999755859</ele>
        <time>2018-05-24T10:30:27Z</time>
      </trkpt>
      <trkpt lat="45.31425" lon="4.45735">
        <ele>1152.1999511719</ele>
        <time>2018-05-24T10:30:31Z</time>
      </trkpt>
      <trkpt lat="45.31425" lon="4.45809">
        <ele>1152.1999511719</ele>
        <time>2018-05-24T10:30:42Z</time>
      </trkpt>
      <trkpt lat="45.31428" lon="4.45835">
        <ele>1152.1999511719</ele>
        <time>2018-05-24T10:30:46Z</time>
      </trkpt>
      <trkpt lat="45.31418" lon="4.45979">
        <ele>1152.1999511719</ele>
        <time>2018-05-24T10:31:13Z</time>
      </trkpt>
      <trkpt lat="45.31406" lon="4.46049">
        <ele>1154.1999511719</ele>
        <time>2018-05-24T10:31:26Z</time>
      </trkpt>
      <trkpt lat="45.31412" lon="4.46151">
        <ele>1154.1999511719</ele>
        <time>2018-05-24T10:31:43Z</time>
      </trkpt>
      <trkpt lat="45.31415" lon="4.46185">
        <ele>1154.1999511719</ele>
        <time>2018-05-24T10:31:49Z</time>
      </trkpt>
      <trkpt lat="45.31414" lon="4.46285">
        <ele>1151.1999511719</ele>
        <time>2018-05-24T10:32:02Z</time>
      </trkpt>
      <trkpt lat="45.31421" lon="4.46299">
        <ele>1150.4000244141</ele>
        <time>2018-05-24T10:32:04Z</time>
      </trkpt>
      <trkpt lat="45.31436" lon="4.46325">
        <ele>1150</ele>
        <time>2018-05-24T10:32:08Z</time>
      </trkpt>
      <trkpt lat="45.31447" lon="4.46368">
        <ele>1148.5999755859</ele>
        <time>2018-05-24T10:32:13Z</time>
      </trkpt>
      <trkpt lat="45.31489" lon="4.46418">
        <ele>1147.5999755859</ele>
        <time>2018-05-24T10:32:24Z</time>
      </trkpt>
      <trkpt lat="45.31497" lon="4.46424">
        <ele>1147.5999755859</ele>
        <time>2018-05-24T10:32:26Z</time>
      </trkpt>
      <trkpt lat="45.3153" lon="4.46458">
        <ele>1147.5999755859</ele>
        <time>2018-05-24T10:32:35Z</time>
      </trkpt>
      <trkpt lat="45.31566" lon="4.4652">
        <ele>1147.5999755859</ele>
        <time>2018-05-24T10:32:47Z</time>
      </trkpt>
      <trkpt lat="45.31571" lon="4.46522">
        <ele>1147.5999755859</ele>
        <time>2018-05-24T10:32:48Z</time>
      </trkpt>
      <trkpt lat="45.31622" lon="4.46547">
        <ele>1147.5999755859</ele>
        <time>2018-05-24T10:32:59Z</time>
      </trkpt>
      <trkpt lat="45.31646" lon="4.46606">
        <ele>1147.5999755859</ele>
        <time>2018-05-24T10:33:09Z</time>
      </trkpt>
      <trkpt lat="45.31669" lon="4.46702">
        <ele>1147.5999755859</ele>
        <time>2018-05-24T10:33:27Z</time>
      </trkpt>
      <trkpt lat="45.3168" lon="4.46764">
        <ele>1149.5999755859</ele>
        <time>2018-05-24T10:33:45Z</time>
      </trkpt>
      <trkpt lat="45.31686" lon="4.46789">
        <ele>1151.8000488281</ele>
        <time>2018-05-24T10:33:57Z</time>
      </trkpt>
      <trkpt lat="45.31709" lon="4.46822">
        <ele>1153</ele>
        <time>2018-05-24T10:34:10Z</time>
      </trkpt>
      <trkpt lat="45.31736" lon="4.46854">
        <ele>1153.8000488281</ele>
        <time>2018-05-24T10:34:26Z</time>
      </trkpt>
      <trkpt lat="45.3174" lon="4.46887">
        <ele>1156.1999511719</ele>
        <time>2018-05-24T10:34:43Z</time>
      </trkpt>
      <trkpt lat="45.3174" lon="4.46891">
        <ele>1157</ele>
        <time>2018-05-24T10:34:45Z</time>
      </trkpt>
      <trkpt lat="45.3174" lon="4.46907">
        <ele>1158</ele>
        <time>2018-05-24T10:34:49Z</time>
      </trkpt>
      <trkpt lat="45.3174" lon="4.46918">
        <ele>1158.4000244141</ele>
        <time>2018-05-24T10:34:54Z</time>
      </trkpt>
      <trkpt lat="45.31742" lon="4.4695">
        <ele>1161.1999511719</ele>
        <time>2018-05-24T10:35:07Z</time>
      </trkpt>
      <trkpt lat="45.31748" lon="4.46975">
        <ele>1162.5999755859</ele>
        <time>2018-05-24T10:35:19Z</time>
      </trkpt>
      <trkpt lat="45.31772" lon="4.47024">
        <ele>1164.1999511719</ele>
        <time>2018-05-24T10:35:39Z</time>
      </trkpt>
      <trkpt lat="45.31804" lon="4.47071">
        <ele>1166.1999511719</ele>
        <time>2018-05-24T10:35:59Z</time>
      </trkpt>
      <trkpt lat="45.31826" lon="4.47096">
        <ele>1166.1999511719</ele>
        <time>2018-05-24T10:36:11Z</time>
      </trkpt>
      <trkpt lat="45.31868" lon="4.47147">
        <ele>1166.1999511719</ele>
        <time>2018-05-24T10:36:26Z</time>
      </trkpt>
      <trkpt lat="45.31871" lon="4.47151">
        <ele>1166.1999511719</ele>
        <time>2018-05-24T10:36:27Z</time>
      </trkpt>
      <trkpt lat="45.31915" lon="4.47209">
        <ele>1168.1999511719</ele>
        <time>2018-05-24T10:36:44Z</time>
      </trkpt>
      <trkpt lat="45.31929" lon="4.47224">
        <ele>1168.1999511719</ele>
        <time>2018-05-24T10:36:49Z</time>
      </trkpt>
      <trkpt lat="45.31942" lon="4.47243">
        <ele>1168.1999511719</ele>
        <time>2018-05-24T10:36:54Z</time>
      </trkpt>
      <trkpt lat="45.31957" lon="4.47293">
        <ele>1166</ele>
        <time>2018-05-24T10:37:06Z</time>
      </trkpt>
      <trkpt lat="45.3197" lon="4.47365">
        <ele>1167.1999511719</ele>
        <time>2018-05-24T10:37:20Z</time>
      </trkpt>
      <trkpt lat="45.31989" lon="4.47429">
        <ele>1168.5999755859</ele>
        <time>2018-05-24T10:37:34Z</time>
      </trkpt>
      <trkpt lat="45.31991" lon="4.47433">
        <ele>1169</ele>
        <time>2018-05-24T10:37:35Z</time>
      </trkpt>
      <trkpt lat="45.32035" lon="4.47479">
        <ele>1170.1999511719</ele>
        <time>2018-05-24T10:37:53Z</time>
      </trkpt>
      <trkpt lat="45.32061" lon="4.47546">
        <ele>1172.1999511719</ele>
        <time>2018-05-24T10:38:12Z</time>
      </trkpt>
      <trkpt lat="45.32072" lon="4.47581">
        <ele>1174.4000244141</ele>
        <time>2018-05-24T10:38:23Z</time>
      </trkpt>
      <trkpt lat="45.32099" lon="4.47654">
        <ele>1176.5999755859</ele>
        <time>2018-05-24T10:38:47Z</time>
      </trkpt>
      <trkpt lat="45.32142" lon="4.47695">
        <ele>1176.5999755859</ele>
        <time>2018-05-24T10:39:02Z</time>
      </trkpt>
      <trkpt lat="45.32179" lon="4.47729">
        <ele>1175.5999755859</ele>
        <time>2018-05-24T10:39:10Z</time>
      </trkpt>
      <trkpt lat="45.32218" lon="4.47765">
        <ele>1172.5999755859</ele>
        <time>2018-05-24T10:39:17Z</time>
      </trkpt>
      <trkpt lat="45.3227" lon="4.47802">
        <ele>1169.1999511719</ele>
        <time>2018-05-24T10:39:23Z</time>
      </trkpt>
      <trkpt lat="45.32299" lon="4.47823">
        <ele>1167</ele>
        <time>2018-05-24T10:39:26Z</time>
      </trkpt>
      <trkpt lat="45.32335" lon="4.47857">
        <ele>1163.8000488281</ele>
        <time>2018-05-24T10:39:30Z</time>
      </trkpt>
      <trkpt lat="45.32343" lon="4.47866">
        <ele>1162.8000488281</ele>
        <time>2018-05-24T10:39:31Z</time>
      </trkpt>
      <trkpt lat="45.3237" lon="4.47894">
        <ele>1159.1999511719</ele>
        <time>2018-05-24T10:39:34Z</time>
      </trkpt>
      <trkpt lat="45.3239" lon="4.47926">
        <ele>1156.8000488281</ele>
        <time>2018-05-24T10:39:37Z</time>
      </trkpt>
      <trkpt lat="45.32399" lon="4.47946">
        <ele>1156.8000488281</ele>
        <time>2018-05-24T10:39:39Z</time>
      </trkpt>
      <trkpt lat="45.32442" lon="4.48058">
        <ele>1154.1999511719</ele>
        <time>2018-05-24T10:39:51Z</time>
      </trkpt>
      <trkpt lat="45.32445" lon="4.48069">
        <ele>1153.8000488281</ele>
        <time>2018-05-24T10:39:52Z</time>
      </trkpt>
      <trkpt lat="45.32452" lon="4.481">
        <ele>1151.8000488281</ele>
        <time>2018-05-24T10:39:55Z</time>
      </trkpt>
      <trkpt lat="45.32464" lon="4.48128">
        <ele>1148.8000488281</ele>
        <time>2018-05-24T10:39:58Z</time>
      </trkpt>
      <trkpt lat="45.32488" lon="4.48151">
        <ele>1145.4000244141</ele>
        <time>2018-05-24T10:40:02Z</time>
      </trkpt>
      <trkpt lat="45.32495" lon="4.48153">
        <ele>1144.8000488281</ele>
        <time>2018-05-24T10:40:03Z</time>
      </trkpt>
      <trkpt lat="45.32525" lon="4.48163">
        <ele>1141.4000244141</ele>
        <time>2018-05-24T10:40:08Z</time>
      </trkpt>
      <trkpt lat="45.3253" lon="4.48165">
        <ele>1140.8000488281</ele>
        <time>2018-05-24T10:40:09Z</time>
      </trkpt>
      <trkpt lat="45.32555" lon="4.48169">
        <ele>1138.8000488281</ele>
        <time>2018-05-24T10:40:14Z</time>
      </trkpt>
      <trkpt lat="45.32559" lon="4.48169">
        <ele>1138.4000244141</ele>
        <time>2018-05-24T10:40:15Z</time>
      </trkpt>
      <trkpt lat="45.32604" lon="4.48142">
        <ele>1138</ele>
        <time>2018-05-24T10:40:26Z</time>
      </trkpt>
      <trkpt lat="45.32637" lon="4.48089">
        <ele>1138</ele>
        <time>2018-05-24T10:40:37Z</time>
      </trkpt>
      <trkpt lat="45.32641" lon="4.48085">
        <ele>1137.5999755859</ele>
        <time>2018-05-24T10:40:38Z</time>
      </trkpt>
      <trkpt lat="45.3265" lon="4.48077">
        <ele>1136</ele>
        <time>2018-05-24T10:40:48Z</time>
      </trkpt>
      <trkpt lat="45.3265" lon="4.48078">
        <ele>1136</ele>
        <time>2018-05-24T10:43:32Z</time>
      </trkpt>
      <trkpt lat="45.3265" lon="4.48079">
        <ele>1136</ele>
        <time>2018-05-24T10:44:33Z</time>
      </trkpt>
      <trkpt lat="45.3265" lon="4.4808">
        <ele>1136</ele>
        <time>2018-05-24T10:48:13Z</time>
      </trkpt>
      <trkpt lat="45.32648" lon="4.48079">
        <ele>1138</ele>
        <time>2018-05-24T11:17:29Z</time>
      </trkpt>
      <trkpt lat="45.32648" lon="4.48079">
        <ele>1138</ele>
        <time>2018-05-24T11:17:30Z</time>
      </trkpt>
      <trkpt lat="45.32649" lon="4.48079">
        <ele>1138</ele>
        <time>2018-05-24T11:17:44Z</time>
      </trkpt>
      <trkpt lat="45.32656" lon="4.48115">
        <ele>1138</ele>
        <time>2018-05-24T11:17:55Z</time>
      </trkpt>
      <trkpt lat="45.32649" lon="4.48137">
        <ele>1139.8000488281</ele>
        <time>2018-05-24T11:18:03Z</time>
      </trkpt>
      <trkpt lat="45.32672" lon="4.48146">
        <ele>1140.1999511719</ele>
        <time>2018-05-24T11:18:18Z</time>
      </trkpt>
      <trkpt lat="45.32688" lon="4.48165">
        <ele>1140.5999755859</ele>
        <time>2018-05-24T11:18:26Z</time>
      </trkpt>
      <trkpt lat="45.32701" lon="4.48187">
        <ele>1143.5999755859</ele>
        <time>2018-05-24T11:18:38Z</time>
      </trkpt>
      <trkpt lat="45.32712" lon="4.48201">
        <ele>1146.5999755859</ele>
        <time>2018-05-24T11:18:49Z</time>
      </trkpt>
      <trkpt lat="45.32727" lon="4.48225">
        <ele>1149.5999755859</ele>
        <time>2018-05-24T11:19:07Z</time>
      </trkpt>
      <trkpt lat="45.32739" lon="4.48242">
        <ele>1152.1999511719</ele>
        <time>2018-05-24T11:19:22Z</time>
      </trkpt>
      <trkpt lat="45.32749" lon="4.48266">
        <ele>1154.1999511719</ele>
        <time>2018-05-24T11:19:35Z</time>
      </trkpt>
      <trkpt lat="45.32754" lon="4.48272">
        <ele>1155.1999511719</ele>
        <time>2018-05-24T11:19:39Z</time>
      </trkpt>
      <trkpt lat="45.32763" lon="4.48298">
        <ele>1157.1999511719</ele>
        <time>2018-05-24T11:19:53Z</time>
      </trkpt>
      <trkpt lat="45.32766" lon="4.48358">
        <ele>1159.1999511719</ele>
        <time>2018-05-24T11:20:20Z</time>
      </trkpt>
      <trkpt lat="45.32767" lon="4.48369">
        <ele>1160.8000488281</ele>
        <time>2018-05-24T11:20:26Z</time>
      </trkpt>
      <trkpt lat="45.32759" lon="4.48423">
        <ele>1162.4000244141</ele>
        <time>2018-05-24T11:20:49Z</time>
      </trkpt>
      <trkpt lat="45.32759" lon="4.4846">
        <ele>1164.4000244141</ele>
        <time>2018-05-24T11:21:04Z</time>
      </trkpt>
      <trkpt lat="45.32758" lon="4.48479">
        <ele>1165.8000488281</ele>
        <time>2018-05-24T11:21:12Z</time>
      </trkpt>
      <trkpt lat="45.32758" lon="4.48509">
        <ele>1169.1999511719</ele>
        <time>2018-05-24T11:21:26Z</time>
      </trkpt>
      <trkpt lat="45.32758" lon="4.48511">
        <ele>1169.5999755859</ele>
        <time>2018-05-24T11:21:27Z</time>
      </trkpt>
      <trkpt lat="45.32756" lon="4.48533">
        <ele>1171.1999511719</ele>
        <time>2018-05-24T11:21:37Z</time>
      </trkpt>
      <trkpt lat="45.32755" lon="4.48574">
        <ele>1173.8000488281</ele>
        <time>2018-05-24T11:21:57Z</time>
      </trkpt>
      <trkpt lat="45.32755" lon="4.48576">
        <ele>1173.8000488281</ele>
        <time>2018-05-24T11:21:58Z</time>
      </trkpt>
      <trkpt lat="45.32763" lon="4.48612">
        <ele>1176.1999511719</ele>
        <time>2018-05-24T11:22:17Z</time>
      </trkpt>
      <trkpt lat="45.32769" lon="4.48637">
        <ele>1179.1999511719</ele>
        <time>2018-05-24T11:22:29Z</time>
      </trkpt>
      <trkpt lat="45.32775" lon="4.48661">
        <ele>1182.1999511719</ele>
        <time>2018-05-24T11:22:42Z</time>
      </trkpt>
      <trkpt lat="45.32776" lon="4.48665">
        <ele>1182.1999511719</ele>
        <time>2018-05-24T11:22:45Z</time>
      </trkpt>
      <trkpt lat="45.32782" lon="4.4868">
        <ele>1183.1999511719</ele>
        <time>2018-05-24T11:22:54Z</time>
      </trkpt>
      <trkpt lat="45.32782" lon="4.48687">
        <ele>1184.5999755859</ele>
        <time>2018-05-24T11:22:57Z</time>
      </trkpt>
      <trkpt lat="45.32791" lon="4.48721">
        <ele>1186.5999755859</ele>
        <time>2018-05-24T11:23:14Z</time>
      </trkpt>
      <trkpt lat="45.32805" lon="4.48771">
        <ele>1188.4000244141</ele>
        <time>2018-05-24T11:23:34Z</time>
      </trkpt>
      <trkpt lat="45.32811" lon="4.48797">
        <ele>1188.8000488281</ele>
        <time>2018-05-24T11:23:45Z</time>
      </trkpt>
      <trkpt lat="45.32832" lon="4.48836">
        <ele>1190.8000488281</ele>
        <time>2018-05-24T11:24:04Z</time>
      </trkpt>
      <trkpt lat="45.32852" lon="4.4888">
        <ele>1190.8000488281</ele>
        <time>2018-05-24T11:24:21Z</time>
      </trkpt>
      <trkpt lat="45.32871" lon="4.4891">
        <ele>1192.8000488281</ele>
        <time>2018-05-24T11:24:37Z</time>
      </trkpt>
      <trkpt lat="45.3288" lon="4.4893">
        <ele>1193.1999511719</ele>
        <time>2018-05-24T11:24:45Z</time>
      </trkpt>
      <trkpt lat="45.32886" lon="4.48938">
        <ele>1195</ele>
        <time>2018-05-24T11:24:49Z</time>
      </trkpt>
      <trkpt lat="45.32901" lon="4.48965">
        <ele>1197</ele>
        <time>2018-05-24T11:25:05Z</time>
      </trkpt>
      <trkpt lat="45.32911" lon="4.48974">
        <ele>1197</ele>
        <time>2018-05-24T11:25:11Z</time>
      </trkpt>
      <trkpt lat="45.32937" lon="4.48978">
        <ele>1199.8000488281</ele>
        <time>2018-05-24T11:25:26Z</time>
      </trkpt>
      <trkpt lat="45.32942" lon="4.48979">
        <ele>1201.1999511719</ele>
        <time>2018-05-24T11:25:29Z</time>
      </trkpt>
      <trkpt lat="45.32959" lon="4.48986">
        <ele>1203.5999755859</ele>
        <time>2018-05-24T11:25:43Z</time>
      </trkpt>
      <trkpt lat="45.32968" lon="4.48993">
        <ele>1205.1999511719</ele>
        <time>2018-05-24T11:25:50Z</time>
      </trkpt>
      <trkpt lat="45.32981" lon="4.48999">
        <ele>1207.4000244141</ele>
        <time>2018-05-24T11:26:03Z</time>
      </trkpt>
      <trkpt lat="45.33009" lon="4.49002">
        <ele>1209.8000488281</ele>
        <time>2018-05-24T11:26:21Z</time>
      </trkpt>
      <trkpt lat="45.33025" lon="4.49007">
        <ele>1212</ele>
        <time>2018-05-24T11:26:34Z</time>
      </trkpt>
      <trkpt lat="45.33032" lon="4.4901">
        <ele>1213.5999755859</ele>
        <time>2018-05-24T11:26:39Z</time>
      </trkpt>
      <trkpt lat="45.33048" lon="4.4901">
        <ele>1214</ele>
        <time>2018-05-24T11:26:49Z</time>
      </trkpt>
      <trkpt lat="45.33068" lon="4.49004">
        <ele>1217</ele>
        <time>2018-05-24T11:27:04Z</time>
      </trkpt>
      <trkpt lat="45.33093" lon="4.48996">
        <ele>1219.8000488281</ele>
        <time>2018-05-24T11:27:22Z</time>
      </trkpt>
      <trkpt lat="45.33107" lon="4.4899">
        <ele>1220.1999511719</ele>
        <time>2018-05-24T11:27:32Z</time>
      </trkpt>
      <trkpt lat="45.33117" lon="4.48981">
        <ele>1222.1999511719</ele>
        <time>2018-05-24T11:27:42Z</time>
      </trkpt>
      <trkpt lat="45.33129" lon="4.48973">
        <ele>1224.4000244141</ele>
        <time>2018-05-24T11:27:51Z</time>
      </trkpt>
      <trkpt lat="45.33145" lon="4.48958">
        <ele>1227.4000244141</ele>
        <time>2018-05-24T11:28:03Z</time>
      </trkpt>
      <trkpt lat="45.3315" lon="4.48955">
        <ele>1228.1999511719</ele>
        <time>2018-05-24T11:28:07Z</time>
      </trkpt>
      <trkpt lat="45.33164" lon="4.48956">
        <ele>1229.4000244141</ele>
        <time>2018-05-24T11:28:15Z</time>
      </trkpt>
      <trkpt lat="45.33168" lon="4.48958">
        <ele>1230.1999511719</ele>
        <time>2018-05-24T11:28:17Z</time>
      </trkpt>
      <trkpt lat="45.33181" lon="4.4897">
        <ele>1230.5999755859</ele>
        <time>2018-05-24T11:28:28Z</time>
      </trkpt>
      <trkpt lat="45.33182" lon="4.48971">
        <ele>1231.1999511719</ele>
        <time>2018-05-24T11:28:29Z</time>
      </trkpt>
      <trkpt lat="45.33203" lon="4.48981">
        <ele>1234.4000244141</ele>
        <time>2018-05-24T11:28:44Z</time>
      </trkpt>
      <trkpt lat="45.33206" lon="4.48982">
        <ele>1234.4000244141</ele>
        <time>2018-05-24T11:28:46Z</time>
      </trkpt>
      <trkpt lat="45.33231" lon="4.49009">
        <ele>1236.5999755859</ele>
        <time>2018-05-24T11:29:04Z</time>
      </trkpt>
      <trkpt lat="45.3327" lon="4.49032">
        <ele>1238.5999755859</ele>
        <time>2018-05-24T11:29:28Z</time>
      </trkpt>
      <trkpt lat="45.33279" lon="4.4904">
        <ele>1238.5999755859</ele>
        <time>2018-05-24T11:29:34Z</time>
      </trkpt>
      <trkpt lat="45.3329" lon="4.49067">
        <ele>1240.8000488281</ele>
        <time>2018-05-24T11:29:45Z</time>
      </trkpt>
      <trkpt lat="45.33302" lon="4.49107">
        <ele>1240.8000488281</ele>
        <time>2018-05-24T11:29:58Z</time>
      </trkpt>
      <trkpt lat="45.33307" lon="4.49149">
        <ele>1242.8000488281</ele>
        <time>2018-05-24T11:30:13Z</time>
      </trkpt>
      <trkpt lat="45.3332" lon="4.492">
        <ele>1243.1999511719</ele>
        <time>2018-05-24T11:30:30Z</time>
      </trkpt>
      <trkpt lat="45.33332" lon="4.49251">
        <ele>1245.4000244141</ele>
        <time>2018-05-24T11:30:50Z</time>
      </trkpt>
      <trkpt lat="45.33346" lon="4.49277">
        <ele>1247</ele>
        <time>2018-05-24T11:31:02Z</time>
      </trkpt>
      <trkpt lat="45.33372" lon="4.49306">
        <ele>1249</ele>
        <time>2018-05-24T11:31:17Z</time>
      </trkpt>
      <trkpt lat="45.33412" lon="4.49375">
        <ele>1251.1999511719</ele>
        <time>2018-05-24T11:31:43Z</time>
      </trkpt>
      <trkpt lat="45.33453" lon="4.49456">
        <ele>1252.8000488281</ele>
        <time>2018-05-24T11:32:09Z</time>
      </trkpt>
      <trkpt lat="45.33482" lon="4.4953">
        <ele>1255.4000244141</ele>
        <time>2018-05-24T11:32:31Z</time>
      </trkpt>
      <trkpt lat="45.33516" lon="4.49574">
        <ele>1255.4000244141</ele>
        <time>2018-05-24T11:32:46Z</time>
      </trkpt>
      <trkpt lat="45.33547" lon="4.49592">
        <ele>1255.4000244141</ele>
        <time>2018-05-24T11:32:53Z</time>
      </trkpt>
      <trkpt lat="45.33556" lon="4.49599">
        <ele>1255.4000244141</ele>
        <time>2018-05-24T11:32:55Z</time>
      </trkpt>
      <trkpt lat="45.33591" lon="4.49628">
        <ele>1253.4000244141</ele>
        <time>2018-05-24T11:33:05Z</time>
      </trkpt>
      <trkpt lat="45.33634" lon="4.49641">
        <ele>1253.4000244141</ele>
        <time>2018-05-24T11:33:17Z</time>
      </trkpt>
      <trkpt lat="45.3367" lon="4.49643">
        <ele>1253.4000244141</ele>
        <time>2018-05-24T11:33:27Z</time>
      </trkpt>
      <trkpt lat="45.33709" lon="4.49666">
        <ele>1253.4000244141</ele>
        <time>2018-05-24T11:33:38Z</time>
      </trkpt>
      <trkpt lat="45.33727" lon="4.49689">
        <ele>1253.4000244141</ele>
        <time>2018-05-24T11:33:44Z</time>
      </trkpt>
      <trkpt lat="45.33745" lon="4.49725">
        <ele>1253</ele>
        <time>2018-05-24T11:33:50Z</time>
      </trkpt>
      <trkpt lat="45.33749" lon="4.49743">
        <ele>1251.8000488281</ele>
        <time>2018-05-24T11:33:54Z</time>
      </trkpt>
      <trkpt lat="45.33757" lon="4.49799">
        <ele>1251.4000244141</ele>
        <time>2018-05-24T11:34:04Z</time>
      </trkpt>
      <trkpt lat="45.33774" lon="4.49836">
        <ele>1250.4000244141</ele>
        <time>2018-05-24T11:34:10Z</time>
      </trkpt>
      <trkpt lat="45.33791" lon="4.4986">
        <ele>1248.1999511719</ele>
        <time>2018-05-24T11:34:14Z</time>
      </trkpt>
      <trkpt lat="45.33807" lon="4.49884">
        <ele>1246</ele>
        <time>2018-05-24T11:34:17Z</time>
      </trkpt>
      <trkpt lat="45.3382" lon="4.49908">
        <ele>1242.8000488281</ele>
        <time>2018-05-24T11:34:20Z</time>
      </trkpt>
      <trkpt lat="45.33826" lon="4.49916">
        <ele>1242</ele>
        <time>2018-05-24T11:34:21Z</time>
      </trkpt>
      <trkpt lat="45.33841" lon="4.49941">
        <ele>1240</ele>
        <time>2018-05-24T11:34:24Z</time>
      </trkpt>
      <trkpt lat="45.33863" lon="4.49999">
        <ele>1236.4000244141</ele>
        <time>2018-05-24T11:34:29Z</time>
      </trkpt>
      <trkpt lat="45.33871" lon="4.50018">
        <ele>1235</ele>
        <time>2018-05-24T11:34:31Z</time>
      </trkpt>
      <trkpt lat="45.33877" lon="4.50026">
        <ele>1235</ele>
        <time>2018-05-24T11:34:32Z</time>
      </trkpt>
      <trkpt lat="45.33954" lon="4.50114">
        <ele>1233</ele>
        <time>2018-05-24T11:34:46Z</time>
      </trkpt>
      <trkpt lat="45.33963" lon="4.50121">
        <ele>1233</ele>
        <time>2018-05-24T11:34:48Z</time>
      </trkpt>
      <trkpt lat="45.33967" lon="4.50125">
        <ele>1233</ele>
        <time>2018-05-24T11:34:49Z</time>
      </trkpt>
      <trkpt lat="45.33987" lon="4.50148">
        <ele>1233</ele>
        <time>2018-05-24T11:34:54Z</time>
      </trkpt>
      <trkpt lat="45.33991" lon="4.50153">
        <ele>1233</ele>
        <time>2018-05-24T11:34:55Z</time>
      </trkpt>
      <trkpt lat="45.34003" lon="4.50171">
        <ele>1233</ele>
        <time>2018-05-24T11:34:59Z</time>
      </trkpt>
      <trkpt lat="45.34037" lon="4.50271">
        <ele>1233</ele>
        <time>2018-05-24T11:35:15Z</time>
      </trkpt>
      <trkpt lat="45.34042" lon="4.50317">
        <ele>1233</ele>
        <time>2018-05-24T11:35:23Z</time>
      </trkpt>
      <trkpt lat="45.34046" lon="4.50377">
        <ele>1235.1999511719</ele>
        <time>2018-05-24T11:35:38Z</time>
      </trkpt>
      <trkpt lat="45.34043" lon="4.50415">
        <ele>1236.8000488281</ele>
        <time>2018-05-24T11:35:48Z</time>
      </trkpt>
      <trkpt lat="45.34043" lon="4.5047">
        <ele>1237.1999511719</ele>
        <time>2018-05-24T11:35:59Z</time>
      </trkpt>
      <trkpt lat="45.34044" lon="4.50492">
        <ele>1237.1999511719</ele>
        <time>2018-05-24T11:36:03Z</time>
      </trkpt>
      <trkpt lat="45.34041" lon="4.50521">
        <ele>1237.1999511719</ele>
        <time>2018-05-24T11:36:08Z</time>
      </trkpt>
      <trkpt lat="45.34049" lon="4.5063">
        <ele>1239.1999511719</ele>
        <time>2018-05-24T11:36:29Z</time>
      </trkpt>
      <trkpt lat="45.34059" lon="4.50674">
        <ele>1239.1999511719</ele>
        <time>2018-05-24T11:36:40Z</time>
      </trkpt>
      <trkpt lat="45.34067" lon="4.50703">
        <ele>1241.4000244141</ele>
        <time>2018-05-24T11:36:47Z</time>
      </trkpt>
      <trkpt lat="45.34099" lon="4.50804">
        <ele>1243</ele>
        <time>2018-05-24T11:37:10Z</time>
      </trkpt>
      <trkpt lat="45.34119" lon="4.50848">
        <ele>1243.5999755859</ele>
        <time>2018-05-24T11:37:22Z</time>
      </trkpt>
      <trkpt lat="45.34159" lon="4.50946">
        <ele>1245.5999755859</ele>
        <time>2018-05-24T11:37:45Z</time>
      </trkpt>
      <trkpt lat="45.34168" lon="4.51017">
        <ele>1247.8000488281</ele>
        <time>2018-05-24T11:38:04Z</time>
      </trkpt>
      <trkpt lat="45.34184" lon="4.51061">
        <ele>1250</ele>
        <time>2018-05-24T11:38:16Z</time>
      </trkpt>
      <trkpt lat="45.34192" lon="4.51115">
        <ele>1250.8000488281</ele>
        <time>2018-05-24T11:38:30Z</time>
      </trkpt>
      <trkpt lat="45.34205" lon="4.51202">
        <ele>1252</ele>
        <time>2018-05-24T11:38:51Z</time>
      </trkpt>
      <trkpt lat="45.34202" lon="4.51275">
        <ele>1254</ele>
        <time>2018-05-24T11:39:10Z</time>
      </trkpt>
      <trkpt lat="45.34203" lon="4.5134">
        <ele>1256.4000244141</ele>
        <time>2018-05-24T11:39:27Z</time>
      </trkpt>
      <trkpt lat="45.34219" lon="4.51412">
        <ele>1258.4000244141</ele>
        <time>2018-05-24T11:39:45Z</time>
      </trkpt>
      <trkpt lat="45.34257" lon="4.5149">
        <ele>1260.4000244141</ele>
        <time>2018-05-24T11:40:07Z</time>
      </trkpt>
      <trkpt lat="45.34313" lon="4.5159">
        <ele>1260.4000244141</ele>
        <time>2018-05-24T11:40:35Z</time>
      </trkpt>
      <trkpt lat="45.34383" lon="4.51707">
        <ele>1260.4000244141</ele>
        <time>2018-05-24T11:41:06Z</time>
      </trkpt>
      <trkpt lat="45.34405" lon="4.5173">
        <ele>1260.4000244141</ele>
        <time>2018-05-24T11:41:13Z</time>
      </trkpt>
      <trkpt lat="45.34412" lon="4.51734">
        <ele>1260.4000244141</ele>
        <time>2018-05-24T11:41:15Z</time>
      </trkpt>
      <trkpt lat="45.34489" lon="4.51776">
        <ele>1262.5999755859</ele>
        <time>2018-05-24T11:41:37Z</time>
      </trkpt>
      <trkpt lat="45.34534" lon="4.51817">
        <ele>1262.5999755859</ele>
        <time>2018-05-24T11:41:52Z</time>
      </trkpt>
      <trkpt lat="45.34549" lon="4.51836">
        <ele>1262.5999755859</ele>
        <time>2018-05-24T11:41:57Z</time>
      </trkpt>
      <trkpt lat="45.34564" lon="4.51856">
        <ele>1262.5999755859</ele>
        <time>2018-05-24T11:42:02Z</time>
      </trkpt>
      <trkpt lat="45.34593" lon="4.51931">
        <ele>1261.8000488281</ele>
        <time>2018-05-24T11:42:15Z</time>
      </trkpt>
      <trkpt lat="45.34596" lon="4.51937">
        <ele>1261.4000244141</ele>
        <time>2018-05-24T11:42:16Z</time>
      </trkpt>
      <trkpt lat="45.34612" lon="4.51988">
        <ele>1260.4000244141</ele>
        <time>2018-05-24T11:42:24Z</time>
      </trkpt>
      <trkpt lat="45.3463" lon="4.52006">
        <ele>1260.4000244141</ele>
        <time>2018-05-24T11:42:28Z</time>
      </trkpt>
      <trkpt lat="45.34665" lon="4.5203">
        <ele>1259</ele>
        <time>2018-05-24T11:42:34Z</time>
      </trkpt>
      <trkpt lat="45.34696" lon="4.52051">
        <ele>1255.4000244141</ele>
        <time>2018-05-24T11:42:38Z</time>
      </trkpt>
      <trkpt lat="45.34737" lon="4.52079">
        <ele>1252.1999511719</ele>
        <time>2018-05-24T11:42:43Z</time>
      </trkpt>
      <trkpt lat="45.3477" lon="4.52102">
        <ele>1249</ele>
        <time>2018-05-24T11:42:47Z</time>
      </trkpt>
      <trkpt lat="45.34807" lon="4.52129">
        <ele>1248.1999511719</ele>
        <time>2018-05-24T11:42:52Z</time>
      </trkpt>
      <trkpt lat="45.34821" lon="4.52139">
        <ele>1248.1999511719</ele>
        <time>2018-05-24T11:42:54Z</time>
      </trkpt>
      <trkpt lat="45.34858" lon="4.52148">
        <ele>1246.1999511719</ele>
        <time>2018-05-24T11:42:59Z</time>
      </trkpt>
      <trkpt lat="45.3489" lon="4.52144">
        <ele>1246.1999511719</ele>
        <time>2018-05-24T11:43:04Z</time>
      </trkpt>
      <trkpt lat="45.34924" lon="4.52135">
        <ele>1246.1999511719</ele>
        <time>2018-05-24T11:43:10Z</time>
      </trkpt>
      <trkpt lat="45.34929" lon="4.52132">
        <ele>1246.1999511719</ele>
        <time>2018-05-24T11:43:11Z</time>
      </trkpt>
      <trkpt lat="45.34976" lon="4.52106">
        <ele>1246.1999511719</ele>
        <time>2018-05-24T11:43:20Z</time>
      </trkpt>
      <trkpt lat="45.35006" lon="4.52094">
        <ele>1246.1999511719</ele>
        <time>2018-05-24T11:43:27Z</time>
      </trkpt>
      <trkpt lat="45.35112" lon="4.52079">
        <ele>1246.1999511719</ele>
        <time>2018-05-24T11:43:53Z</time>
      </trkpt>
      <trkpt lat="45.35199" lon="4.521">
        <ele>1248.1999511719</ele>
        <time>2018-05-24T11:44:12Z</time>
      </trkpt>
      <trkpt lat="45.35247" lon="4.52125">
        <ele>1248.1999511719</ele>
        <time>2018-05-24T11:44:25Z</time>
      </trkpt>
      <trkpt lat="45.35305" lon="4.52109">
        <ele>1248.1999511719</ele>
        <time>2018-05-24T11:44:35Z</time>
      </trkpt>
      <trkpt lat="45.35333" lon="4.52085">
        <ele>1247</ele>
        <time>2018-05-24T11:44:40Z</time>
      </trkpt>
      <trkpt lat="45.35339" lon="4.5208">
        <ele>1246.5999755859</ele>
        <time>2018-05-24T11:44:41Z</time>
      </trkpt>
      <trkpt lat="45.35376" lon="4.52032">
        <ele>1246.1999511719</ele>
        <time>2018-05-24T11:44:49Z</time>
      </trkpt>
      <trkpt lat="45.35396" lon="4.52011">
        <ele>1245</ele>
        <time>2018-05-24T11:44:53Z</time>
      </trkpt>
      <trkpt lat="45.35425" lon="4.51966">
        <ele>1243.8000488281</ele>
        <time>2018-05-24T11:44:58Z</time>
      </trkpt>
      <trkpt lat="45.3543" lon="4.51957">
        <ele>1243.4000244141</ele>
        <time>2018-05-24T11:44:59Z</time>
      </trkpt>
      <trkpt lat="45.35446" lon="4.5193">
        <ele>1242.1999511719</ele>
        <time>2018-05-24T11:45:02Z</time>
      </trkpt>
      <trkpt lat="45.35465" lon="4.51902">
        <ele>1240.8000488281</ele>
        <time>2018-05-24T11:45:05Z</time>
      </trkpt>
      <trkpt lat="45.35479" lon="4.51886">
        <ele>1239.8000488281</ele>
        <time>2018-05-24T11:45:07Z</time>
      </trkpt>
      <trkpt lat="45.35542" lon="4.51828">
        <ele>1237.1999511719</ele>
        <time>2018-05-24T11:45:16Z</time>
      </trkpt>
      <trkpt lat="45.35548" lon="4.51824">
        <ele>1236.8000488281</ele>
        <time>2018-05-24T11:45:17Z</time>
      </trkpt>
      <trkpt lat="45.35567" lon="4.51812">
        <ele>1235.5999755859</ele>
        <time>2018-05-24T11:45:20Z</time>
      </trkpt>
      <trkpt lat="45.35633" lon="4.51785">
        <ele>1235.5999755859</ele>
        <time>2018-05-24T11:45:31Z</time>
      </trkpt>
      <trkpt lat="45.35693" lon="4.51817">
        <ele>1233.8000488281</ele>
        <time>2018-05-24T11:45:39Z</time>
      </trkpt>
      <trkpt lat="45.35738" lon="4.51881">
        <ele>1230.5999755859</ele>
        <time>2018-05-24T11:45:46Z</time>
      </trkpt>
      <trkpt lat="45.35744" lon="4.5189">
        <ele>1230</ele>
        <time>2018-05-24T11:45:47Z</time>
      </trkpt>
      <trkpt lat="45.35781" lon="4.51947">
        <ele>1226.8000488281</ele>
        <time>2018-05-24T11:45:53Z</time>
      </trkpt>
      <trkpt lat="45.35807" lon="4.5206">
        <ele>1226.4000244141</ele>
        <time>2018-05-24T11:46:06Z</time>
      </trkpt>
      <trkpt lat="45.35812" lon="4.5213">
        <ele>1226.4000244141</ele>
        <time>2018-05-24T11:46:17Z</time>
      </trkpt>
      <trkpt lat="45.35814" lon="4.52142">
        <ele>1226.4000244141</ele>
        <time>2018-05-24T11:46:19Z</time>
      </trkpt>
      <trkpt lat="45.35822" lon="4.52184">
        <ele>1226.4000244141</ele>
        <time>2018-05-24T11:46:25Z</time>
      </trkpt>
      <trkpt lat="45.35848" lon="4.52227">
        <ele>1226.4000244141</ele>
        <time>2018-05-24T11:46:32Z</time>
      </trkpt>
      <trkpt lat="45.35853" lon="4.52231">
        <ele>1226.4000244141</ele>
        <time>2018-05-24T11:46:33Z</time>
      </trkpt>
      <trkpt lat="45.35892" lon="4.52254">
        <ele>1225.5999755859</ele>
        <time>2018-05-24T11:46:41Z</time>
      </trkpt>
      <trkpt lat="45.35931" lon="4.52281">
        <ele>1224.4000244141</ele>
        <time>2018-05-24T11:46:49Z</time>
      </trkpt>
      <trkpt lat="45.36022" lon="4.52319">
        <ele>1224.4000244141</ele>
        <time>2018-05-24T11:47:07Z</time>
      </trkpt>
      <trkpt lat="45.36065" lon="4.52335">
        <ele>1224.4000244141</ele>
        <time>2018-05-24T11:47:18Z</time>
      </trkpt>
      <trkpt lat="45.36094" lon="4.52349">
        <ele>1224.4000244141</ele>
        <time>2018-05-24T11:47:26Z</time>
      </trkpt>
      <trkpt lat="45.36137" lon="4.52379">
        <ele>1224.4000244141</ele>
        <time>2018-05-24T11:47:40Z</time>
      </trkpt>
      <trkpt lat="45.36213" lon="4.52397">
        <ele>1224.4000244141</ele>
        <time>2018-05-24T11:48:02Z</time>
      </trkpt>
      <trkpt lat="45.36249" lon="4.52405">
        <ele>1224.4000244141</ele>
        <time>2018-05-24T11:48:08Z</time>
      </trkpt>
      <trkpt lat="45.36285" lon="4.52453">
        <ele>1224.4000244141</ele>
        <time>2018-05-24T11:48:20Z</time>
      </trkpt>
      <trkpt lat="45.36332" lon="4.52516">
        <ele>1226</ele>
        <time>2018-05-24T11:48:39Z</time>
      </trkpt>
      <trkpt lat="45.36359" lon="4.52562">
        <ele>1226.8000488281</ele>
        <time>2018-05-24T11:48:54Z</time>
      </trkpt>
      <trkpt lat="45.36369" lon="4.5259">
        <ele>1228.5999755859</ele>
        <time>2018-05-24T11:49:04Z</time>
      </trkpt>
      <trkpt lat="45.36371" lon="4.52596">
        <ele>1229</ele>
        <time>2018-05-24T11:49:07Z</time>
      </trkpt>
      <trkpt lat="45.36383" lon="4.52605">
        <ele>1230.5999755859</ele>
        <time>2018-05-24T11:49:14Z</time>
      </trkpt>
      <trkpt lat="45.36386" lon="4.52608">
        <ele>1231</ele>
        <time>2018-05-24T11:49:16Z</time>
      </trkpt>
      <trkpt lat="45.36413" lon="4.52621">
        <ele>1232.8000488281</ele>
        <time>2018-05-24T11:49:30Z</time>
      </trkpt>
      <trkpt lat="45.36452" lon="4.52634">
        <ele>1234.8000488281</ele>
        <time>2018-05-24T11:49:47Z</time>
      </trkpt>
      <trkpt lat="45.36499" lon="4.52628">
        <ele>1234.8000488281</ele>
        <time>2018-05-24T11:50:03Z</time>
      </trkpt>
      <trkpt lat="45.36525" lon="4.52637">
        <ele>1234.8000488281</ele>
        <time>2018-05-24T11:50:13Z</time>
      </trkpt>
      <trkpt lat="45.36548" lon="4.52658">
        <ele>1233.4000244141</ele>
        <time>2018-05-24T11:50:17Z</time>
      </trkpt>
      <trkpt lat="45.3658" lon="4.5269">
        <ele>1230.1999511719</ele>
        <time>2018-05-24T11:50:22Z</time>
      </trkpt>
      <trkpt lat="45.36603" lon="4.52704">
        <ele>1226.5999755859</ele>
        <time>2018-05-24T11:50:25Z</time>
      </trkpt>
      <trkpt lat="45.36629" lon="4.52717">
        <ele>1223.5999755859</ele>
        <time>2018-05-24T11:50:28Z</time>
      </trkpt>
      <trkpt lat="45.36655" lon="4.5273">
        <ele>1220.5999755859</ele>
        <time>2018-05-24T11:50:31Z</time>
      </trkpt>
      <trkpt lat="45.3669" lon="4.52749">
        <ele>1217.1999511719</ele>
        <time>2018-05-24T11:50:35Z</time>
      </trkpt>
      <trkpt lat="45.36709" lon="4.52758">
        <ele>1215.4000244141</ele>
        <time>2018-05-24T11:50:37Z</time>
      </trkpt>
      <trkpt lat="45.36744" lon="4.52781">
        <ele>1212.5999755859</ele>
        <time>2018-05-24T11:50:41Z</time>
      </trkpt>
      <trkpt lat="45.3679" lon="4.52796">
        <ele>1209.5999755859</ele>
        <time>2018-05-24T11:50:47Z</time>
      </trkpt>
      <trkpt lat="45.36804" lon="4.52824">
        <ele>1207</ele>
        <time>2018-05-24T11:50:54Z</time>
      </trkpt>
      <trkpt lat="45.36841" lon="4.5283">
        <ele>1207</ele>
        <time>2018-05-24T11:51:02Z</time>
      </trkpt>
      <trkpt lat="45.36854" lon="4.52855">
        <ele>1205.1999511719</ele>
        <time>2018-05-24T11:51:08Z</time>
      </trkpt>
      <trkpt lat="45.3686" lon="4.52884">
        <ele>1205.5999755859</ele>
        <time>2018-05-24T11:51:18Z</time>
      </trkpt>
      <trkpt lat="45.36865" lon="4.52906">
        <ele>1207.1999511719</ele>
        <time>2018-05-24T11:51:27Z</time>
      </trkpt>
      <trkpt lat="45.3687" lon="4.52938">
        <ele>1210.1999511719</ele>
        <time>2018-05-24T11:51:41Z</time>
      </trkpt>
      <trkpt lat="45.36871" lon="4.52945">
        <ele>1211</ele>
        <time>2018-05-24T11:51:44Z</time>
      </trkpt>
      <trkpt lat="45.36881" lon="4.52981">
        <ele>1213.5999755859</ele>
        <time>2018-05-24T11:52:03Z</time>
      </trkpt>
      <trkpt lat="45.36882" lon="4.52985">
        <ele>1215</ele>
        <time>2018-05-24T11:52:05Z</time>
      </trkpt>
      <trkpt lat="45.36882" lon="4.52986">
        <ele>1215.4000244141</ele>
        <time>2018-05-24T11:52:06Z</time>
      </trkpt>
      <trkpt lat="45.36885" lon="4.52993">
        <ele>1215.4000244141</ele>
        <time>2018-05-24T11:52:10Z</time>
      </trkpt>
      <trkpt lat="45.3689" lon="4.52998">
        <ele>1216.5999755859</ele>
        <time>2018-05-24T11:52:14Z</time>
      </trkpt>
      <trkpt lat="45.36902" lon="4.5302">
        <ele>1218.4000244141</ele>
        <time>2018-05-24T11:52:28Z</time>
      </trkpt>
      <trkpt lat="45.36902" lon="4.53024">
        <ele>1219.5999755859</ele>
        <time>2018-05-24T11:52:30Z</time>
      </trkpt>
      <trkpt lat="45.36905" lon="4.53038">
        <ele>1220</ele>
        <time>2018-05-24T11:52:38Z</time>
      </trkpt>
      <trkpt lat="45.36906" lon="4.53055">
        <ele>1221.8000488281</ele>
        <time>2018-05-24T11:52:48Z</time>
      </trkpt>
      <trkpt lat="45.36903" lon="4.53079">
        <ele>1223.8000488281</ele>
        <time>2018-05-24T11:53:01Z</time>
      </trkpt>
      <trkpt lat="45.36908" lon="4.5309">
        <ele>1225.4000244141</ele>
        <time>2018-05-24T11:53:07Z</time>
      </trkpt>
      <trkpt lat="45.36913" lon="4.53124">
        <ele>1227.8000488281</ele>
        <time>2018-05-24T11:53:27Z</time>
      </trkpt>
      <trkpt lat="45.36915" lon="4.53135">
        <ele>1229.8000488281</ele>
        <time>2018-05-24T11:53:33Z</time>
      </trkpt>
      <trkpt lat="45.36918" lon="4.53156">
        <ele>1229.8000488281</ele>
        <time>2018-05-24T11:53:44Z</time>
      </trkpt>
      <trkpt lat="45.36918" lon="4.53163">
        <ele>1231</ele>
        <time>2018-05-24T11:53:48Z</time>
      </trkpt>
      <trkpt lat="45.36923" lon="4.5318">
        <ele>1232.4000244141</ele>
        <time>2018-05-24T11:54:00Z</time>
      </trkpt>
      <trkpt lat="45.36928" lon="4.53187">
        <ele>1234</ele>
        <time>2018-05-24T11:54:04Z</time>
      </trkpt>
      <trkpt lat="45.3693" lon="4.53218">
        <ele>1236</ele>
        <time>2018-05-24T11:54:18Z</time>
      </trkpt>
      <trkpt lat="45.36933" lon="4.5325">
        <ele>1236</ele>
        <time>2018-05-24T11:54:31Z</time>
      </trkpt>
      <trkpt lat="45.36937" lon="4.53269">
        <ele>1238.1999511719</ele>
        <time>2018-05-24T11:54:42Z</time>
      </trkpt>
      <trkpt lat="45.36939" lon="4.53274">
        <ele>1238.1999511719</ele>
        <time>2018-05-24T11:54:45Z</time>
      </trkpt>
      <trkpt lat="45.36943" lon="4.53287">
        <ele>1239.4000244141</ele>
        <time>2018-05-24T11:54:51Z</time>
      </trkpt>
      <trkpt lat="45.3695" lon="4.53303">
        <ele>1242.4000244141</ele>
        <time>2018-05-24T11:54:59Z</time>
      </trkpt>
      <trkpt lat="45.36952" lon="4.53307">
        <ele>1242.4000244141</ele>
        <time>2018-05-24T11:55:01Z</time>
      </trkpt>
      <trkpt lat="45.36957" lon="4.53319">
        <ele>1244.5999755859</ele>
        <time>2018-05-24T11:55:09Z</time>
      </trkpt>
      <trkpt lat="45.36963" lon="4.53329">
        <ele>1244.5999755859</ele>
        <time>2018-05-24T11:55:17Z</time>
      </trkpt>
      <trkpt lat="45.36965" lon="4.53337">
        <ele>1245</ele>
        <time>2018-05-24T11:55:22Z</time>
      </trkpt>
      <trkpt lat="45.36966" lon="4.53339">
        <ele>1245.8000488281</ele>
        <time>2018-05-24T11:55:24Z</time>
      </trkpt>
      <trkpt lat="45.36973" lon="4.53353">
        <ele>1246.8000488281</ele>
        <time>2018-05-24T11:55:32Z</time>
      </trkpt>
      <trkpt lat="45.36988" lon="4.53398">
        <ele>1248.8000488281</ele>
        <time>2018-05-24T11:55:52Z</time>
      </trkpt>
      <trkpt lat="45.37005" lon="4.53469">
        <ele>1248.8000488281</ele>
        <time>2018-05-24T11:56:06Z</time>
      </trkpt>
      <trkpt lat="45.37017" lon="4.53508">
        <ele>1245.8000488281</ele>
        <time>2018-05-24T11:56:12Z</time>
      </trkpt>
      <trkpt lat="45.37021" lon="4.53534">
        <ele>1243.8000488281</ele>
        <time>2018-05-24T11:56:15Z</time>
      </trkpt>
      <trkpt lat="45.37021" lon="4.53542">
        <ele>1243.4000244141</ele>
        <time>2018-05-24T11:56:16Z</time>
      </trkpt>
      <trkpt lat="45.3702" lon="4.5357">
        <ele>1242</ele>
        <time>2018-05-24T11:56:19Z</time>
      </trkpt>
      <trkpt lat="45.37008" lon="4.53635">
        <ele>1240.5999755859</ele>
        <time>2018-05-24T11:56:28Z</time>
      </trkpt>
      <trkpt lat="45.37002" lon="4.53687">
        <ele>1239.4000244141</ele>
        <time>2018-05-24T11:56:36Z</time>
      </trkpt>
      <trkpt lat="45.37002" lon="4.537">
        <ele>1239.4000244141</ele>
        <time>2018-05-24T11:56:38Z</time>
      </trkpt>
      <trkpt lat="45.36999" lon="4.5373">
        <ele>1239.4000244141</ele>
        <time>2018-05-24T11:56:42Z</time>
      </trkpt>
      <trkpt lat="45.36996" lon="4.53833">
        <ele>1239.4000244141</ele>
        <time>2018-05-24T11:56:53Z</time>
      </trkpt>
      <trkpt lat="45.36999" lon="4.53868">
        <ele>1239.4000244141</ele>
        <time>2018-05-24T11:56:58Z</time>
      </trkpt>
      <trkpt lat="45.37002" lon="4.53928">
        <ele>1237.8000488281</ele>
        <time>2018-05-24T11:57:05Z</time>
      </trkpt>
      <trkpt lat="45.37002" lon="4.53974">
        <ele>1234.8000488281</ele>
        <time>2018-05-24T11:57:10Z</time>
      </trkpt>
      <trkpt lat="45.37002" lon="4.54013">
        <ele>1231.5999755859</ele>
        <time>2018-05-24T11:57:14Z</time>
      </trkpt>
      <trkpt lat="45.36997" lon="4.54029">
        <ele>1230.4000244141</ele>
        <time>2018-05-24T11:57:16Z</time>
      </trkpt>
      <trkpt lat="45.36994" lon="4.54036">
        <ele>1229.8000488281</ele>
        <time>2018-05-24T11:57:17Z</time>
      </trkpt>
      <trkpt lat="45.3699" lon="4.54052">
        <ele>1228.5999755859</ele>
        <time>2018-05-24T11:57:19Z</time>
      </trkpt>
      <trkpt lat="45.36999" lon="4.54133">
        <ele>1228</ele>
        <time>2018-05-24T11:57:29Z</time>
      </trkpt>
      <trkpt lat="45.37005" lon="4.54169">
        <ele>1228</ele>
        <time>2018-05-24T11:57:34Z</time>
      </trkpt>
      <trkpt lat="45.37005" lon="4.54231">
        <ele>1225.5999755859</ele>
        <time>2018-05-24T11:57:41Z</time>
      </trkpt>
      <trkpt lat="45.37005" lon="4.54288">
        <ele>1223</ele>
        <time>2018-05-24T11:57:47Z</time>
      </trkpt>
      <trkpt lat="45.37005" lon="4.54297">
        <ele>1222</ele>
        <time>2018-05-24T11:57:48Z</time>
      </trkpt>
      <trkpt lat="45.37005" lon="4.54305">
        <ele>1221.5999755859</ele>
        <time>2018-05-24T11:57:49Z</time>
      </trkpt>
      <trkpt lat="45.37001" lon="4.54351">
        <ele>1221</ele>
        <time>2018-05-24T11:57:59Z</time>
      </trkpt>
      <trkpt lat="45.37003" lon="4.54367">
        <ele>1222</ele>
        <time>2018-05-24T11:58:04Z</time>
      </trkpt>
      <trkpt lat="45.37009" lon="4.54407">
        <ele>1223.5999755859</ele>
        <time>2018-05-24T11:58:21Z</time>
      </trkpt>
      <trkpt lat="45.37019" lon="4.54423">
        <ele>1225.1999511719</ele>
        <time>2018-05-24T11:58:30Z</time>
      </trkpt>
      <trkpt lat="45.37022" lon="4.54444">
        <ele>1226</ele>
        <time>2018-05-24T11:58:39Z</time>
      </trkpt>
      <trkpt lat="45.37027" lon="4.54462">
        <ele>1227.4000244141</ele>
        <time>2018-05-24T11:58:46Z</time>
      </trkpt>
      <trkpt lat="45.37029" lon="4.54482">
        <ele>1229.5999755859</ele>
        <time>2018-05-24T11:58:56Z</time>
      </trkpt>
      <trkpt lat="45.37038" lon="4.54507">
        <ele>1231.8000488281</ele>
        <time>2018-05-24T11:59:09Z</time>
      </trkpt>
      <trkpt lat="45.37051" lon="4.5454">
        <ele>1235</ele>
        <time>2018-05-24T11:59:28Z</time>
      </trkpt>
      <trkpt lat="45.37065" lon="4.5456">
        <ele>1238</ele>
        <time>2018-05-24T11:59:42Z</time>
      </trkpt>
      <trkpt lat="45.37085" lon="4.54591">
        <ele>1241.1999511719</ele>
        <time>2018-05-24T12:00:03Z</time>
      </trkpt>
      <trkpt lat="45.37101" lon="4.5461">
        <ele>1244.1999511719</ele>
        <time>2018-05-24T12:00:17Z</time>
      </trkpt>
      <trkpt lat="45.3712" lon="4.54642">
        <ele>1247.4000244141</ele>
        <time>2018-05-24T12:00:39Z</time>
      </trkpt>
      <trkpt lat="45.37129" lon="4.54661">
        <ele>1250.1999511719</ele>
        <time>2018-05-24T12:00:51Z</time>
      </trkpt>
      <trkpt lat="45.37133" lon="4.54671">
        <ele>1251</ele>
        <time>2018-05-24T12:00:58Z</time>
      </trkpt>
      <trkpt lat="45.37141" lon="4.54688">
        <ele>1253.1999511719</ele>
        <time>2018-05-24T12:01:09Z</time>
      </trkpt>
      <trkpt lat="45.3715" lon="4.54705">
        <ele>1256</ele>
        <time>2018-05-24T12:01:21Z</time>
      </trkpt>
      <trkpt lat="45.37151" lon="4.54706">
        <ele>1256.5999755859</ele>
        <time>2018-05-24T12:01:22Z</time>
      </trkpt>
      <trkpt lat="45.37163" lon="4.54723">
        <ele>1257.4000244141</ele>
        <time>2018-05-24T12:01:36Z</time>
      </trkpt>
      <trkpt lat="45.37171" lon="4.54739">
        <ele>1260.5999755859</ele>
        <time>2018-05-24T12:01:54Z</time>
      </trkpt>
      <trkpt lat="45.37178" lon="4.54761">
        <ele>1261</ele>
        <time>2018-05-24T12:02:21Z</time>
      </trkpt>
      <trkpt lat="45.37181" lon="4.54765">
        <ele>1262.8000488281</ele>
        <time>2018-05-24T12:02:27Z</time>
      </trkpt>
      <trkpt lat="45.37188" lon="4.54781">
        <ele>1263.5999755859</ele>
        <time>2018-05-24T12:02:40Z</time>
      </trkpt>
      <trkpt lat="45.37199" lon="4.54793">
        <ele>1265.5999755859</ele>
        <time>2018-05-24T12:02:55Z</time>
      </trkpt>
      <trkpt lat="45.37207" lon="4.54804">
        <ele>1266.8000488281</ele>
        <time>2018-05-24T12:03:08Z</time>
      </trkpt>
      <trkpt lat="45.37211" lon="4.54821">
        <ele>1268.8000488281</ele>
        <time>2018-05-24T12:03:19Z</time>
      </trkpt>
      <trkpt lat="45.37212" lon="4.54839">
        <ele>1271.1999511719</ele>
        <time>2018-05-24T12:03:35Z</time>
      </trkpt>
      <trkpt lat="45.37215" lon="4.54843">
        <ele>1271.1999511719</ele>
        <time>2018-05-24T12:03:51Z</time>
      </trkpt>
      <trkpt lat="45.37218" lon="4.54852">
        <ele>1271.1999511719</ele>
        <time>2018-05-24T12:03:56Z</time>
      </trkpt>
      <trkpt lat="45.37225" lon="4.54871">
        <ele>1273.1999511719</ele>
        <time>2018-05-24T12:04:06Z</time>
      </trkpt>
      <trkpt lat="45.37224" lon="4.54884">
        <ele>1273.1999511719</ele>
        <time>2018-05-24T12:04:14Z</time>
      </trkpt>
      <trkpt lat="45.37223" lon="4.54891">
        <ele>1273.1999511719</ele>
        <time>2018-05-24T12:04:17Z</time>
      </trkpt>
      <trkpt lat="45.37214" lon="4.54928">
        <ele>1275.4000244141</ele>
        <time>2018-05-24T12:04:32Z</time>
      </trkpt>
      <trkpt lat="45.37205" lon="4.54985">
        <ele>1277.4000244141</ele>
        <time>2018-05-24T12:04:50Z</time>
      </trkpt>
      <trkpt lat="45.37188" lon="4.55093">
        <ele>1278.5999755859</ele>
        <time>2018-05-24T12:05:17Z</time>
      </trkpt>
      <trkpt lat="45.37173" lon="4.55178">
        <ele>1279.4000244141</ele>
        <time>2018-05-24T12:05:36Z</time>
      </trkpt>
      <trkpt lat="45.3716" lon="4.55241">
        <ele>1281.4000244141</ele>
        <time>2018-05-24T12:05:51Z</time>
      </trkpt>
      <trkpt lat="45.37158" lon="4.55324">
        <ele>1284.1999511719</ele>
        <time>2018-05-24T12:06:10Z</time>
      </trkpt>
      <trkpt lat="45.37159" lon="4.55389">
        <ele>1287.8000488281</ele>
        <time>2018-05-24T12:06:28Z</time>
      </trkpt>
      <trkpt lat="45.37145" lon="4.55465">
        <ele>1290</ele>
        <time>2018-05-24T12:06:49Z</time>
      </trkpt>
      <trkpt lat="45.37116" lon="4.55578">
        <ele>1292</ele>
        <time>2018-05-24T12:07:11Z</time>
      </trkpt>
      <trkpt lat="45.37111" lon="4.55608">
        <ele>1292</ele>
        <time>2018-05-24T12:07:17Z</time>
      </trkpt>
      <trkpt lat="45.37111" lon="4.55628">
        <ele>1292</ele>
        <time>2018-05-24T12:07:21Z</time>
      </trkpt>
      <trkpt lat="45.3714" lon="4.5571">
        <ele>1292</ele>
        <time>2018-05-24T12:07:38Z</time>
      </trkpt>
      <trkpt lat="45.37155" lon="4.55745">
        <ele>1292.4000244141</ele>
        <time>2018-05-24T12:07:46Z</time>
      </trkpt>
      <trkpt lat="45.37174" lon="4.55794">
        <ele>1295.5999755859</ele>
        <time>2018-05-24T12:08:00Z</time>
      </trkpt>
      <trkpt lat="45.37204" lon="4.55855">
        <ele>1298.5999755859</ele>
        <time>2018-05-24T12:08:22Z</time>
      </trkpt>
      <trkpt lat="45.37211" lon="4.55908">
        <ele>1301.5999755859</ele>
        <time>2018-05-24T12:08:39Z</time>
      </trkpt>
      <trkpt lat="45.37228" lon="4.5599">
        <ele>1304</ele>
        <time>2018-05-24T12:09:01Z</time>
      </trkpt>
      <trkpt lat="45.37273" lon="4.56094">
        <ele>1304.4000244141</ele>
        <time>2018-05-24T12:09:23Z</time>
      </trkpt>
      <trkpt lat="45.37282" lon="4.56107">
        <ele>1304.4000244141</ele>
        <time>2018-05-24T12:09:26Z</time>
      </trkpt>
      <trkpt lat="45.37297" lon="4.56133">
        <ele>1304.4000244141</ele>
        <time>2018-05-24T12:09:32Z</time>
      </trkpt>
      <trkpt lat="45.3731" lon="4.56156">
        <ele>1304.4000244141</ele>
        <time>2018-05-24T12:09:37Z</time>
      </trkpt>
      <trkpt lat="45.37377" lon="4.5625">
        <ele>1304.4000244141</ele>
        <time>2018-05-24T12:10:06Z</time>
      </trkpt>
      <trkpt lat="45.3741" lon="4.56284">
        <ele>1307</ele>
        <time>2018-05-24T12:10:25Z</time>
      </trkpt>
      <trkpt lat="45.37423" lon="4.56293">
        <ele>1309.4000244141</ele>
        <time>2018-05-24T12:10:35Z</time>
      </trkpt>
      <trkpt lat="45.37437" lon="4.56309">
        <ele>1312.4000244141</ele>
        <time>2018-05-24T12:10:50Z</time>
      </trkpt>
      <trkpt lat="45.37445" lon="4.56319">
        <ele>1315.5999755859</ele>
        <time>2018-05-24T12:11:02Z</time>
      </trkpt>
      <trkpt lat="45.37492" lon="4.56352">
        <ele>1317.8000488281</ele>
        <time>2018-05-24T12:11:34Z</time>
      </trkpt>
      <trkpt lat="45.37511" lon="4.56373">
        <ele>1320</ele>
        <time>2018-05-24T12:11:49Z</time>
      </trkpt>
      <trkpt lat="45.37528" lon="4.56381">
        <ele>1322</ele>
        <time>2018-05-24T12:12:02Z</time>
      </trkpt>
      <trkpt lat="45.37557" lon="4.56388">
        <ele>1324.1999511719</ele>
        <time>2018-05-24T12:12:20Z</time>
      </trkpt>
      <trkpt lat="45.37585" lon="4.56401">
        <ele>1326.1999511719</ele>
        <time>2018-05-24T12:12:39Z</time>
      </trkpt>
      <trkpt lat="45.37607" lon="4.56406">
        <ele>1326.5999755859</ele>
        <time>2018-05-24T12:12:53Z</time>
      </trkpt>
      <trkpt lat="45.37631" lon="4.56422">
        <ele>1329.5999755859</ele>
        <time>2018-05-24T12:13:08Z</time>
      </trkpt>
      <trkpt lat="45.37655" lon="4.56446">
        <ele>1331.1999511719</ele>
        <time>2018-05-24T12:13:24Z</time>
      </trkpt>
      <trkpt lat="45.37677" lon="4.56466">
        <ele>1334.4000244141</ele>
        <time>2018-05-24T12:13:40Z</time>
      </trkpt>
      <trkpt lat="45.37687" lon="4.5648">
        <ele>1335.5999755859</ele>
        <time>2018-05-24T12:13:51Z</time>
      </trkpt>
      <trkpt lat="45.37693" lon="4.56494">
        <ele>1336.4000244141</ele>
        <time>2018-05-24T12:13:59Z</time>
      </trkpt>
      <trkpt lat="45.37695" lon="4.565">
        <ele>1337.8000488281</ele>
        <time>2018-05-24T12:14:04Z</time>
      </trkpt>
      <trkpt lat="45.37709" lon="4.56518">
        <ele>1340.1999511719</ele>
        <time>2018-05-24T12:14:19Z</time>
      </trkpt>
      <trkpt lat="45.37715" lon="4.56526">
        <ele>1340.8000488281</ele>
        <time>2018-05-24T12:14:26Z</time>
      </trkpt>
      <trkpt lat="45.37731" lon="4.5654">
        <ele>1342.8000488281</ele>
        <time>2018-05-24T12:14:38Z</time>
      </trkpt>
      <trkpt lat="45.37739" lon="4.56554">
        <ele>1344.4000244141</ele>
        <time>2018-05-24T12:14:49Z</time>
      </trkpt>
      <trkpt lat="45.37754" lon="4.56569">
        <ele>1346.4000244141</ele>
        <time>2018-05-24T12:15:03Z</time>
      </trkpt>
      <trkpt lat="45.37768" lon="4.56583">
        <ele>1349</ele>
        <time>2018-05-24T12:15:16Z</time>
      </trkpt>
      <trkpt lat="45.37772" lon="4.56588">
        <ele>1349</ele>
        <time>2018-05-24T12:15:20Z</time>
      </trkpt>
      <trkpt lat="45.37774" lon="4.56594">
        <ele>1349</ele>
        <time>2018-05-24T12:15:24Z</time>
      </trkpt>
      <trkpt lat="45.37777" lon="4.56595">
        <ele>1350.5999755859</ele>
        <time>2018-05-24T12:15:28Z</time>
      </trkpt>
      <trkpt lat="45.37788" lon="4.5661">
        <ele>1352.5999755859</ele>
        <time>2018-05-24T12:15:41Z</time>
      </trkpt>
      <trkpt lat="45.37798" lon="4.56623">
        <ele>1353.8000488281</ele>
        <time>2018-05-24T12:15:52Z</time>
      </trkpt>
      <trkpt lat="45.37802" lon="4.56626">
        <ele>1355.1999511719</ele>
        <time>2018-05-24T12:15:55Z</time>
      </trkpt>
      <trkpt lat="45.37815" lon="4.56643">
        <ele>1356</ele>
        <time>2018-05-24T12:16:07Z</time>
      </trkpt>
      <trkpt lat="45.37836" lon="4.56662">
        <ele>1358.5999755859</ele>
        <time>2018-05-24T12:16:23Z</time>
      </trkpt>
      <trkpt lat="45.37839" lon="4.56664">
        <ele>1359.4000244141</ele>
        <time>2018-05-24T12:16:25Z</time>
      </trkpt>
      <trkpt lat="45.37845" lon="4.56667">
        <ele>1359.4000244141</ele>
        <time>2018-05-24T12:16:31Z</time>
      </trkpt>
      <trkpt lat="45.37848" lon="4.56673">
        <ele>1360.1999511719</ele>
        <time>2018-05-24T12:16:35Z</time>
      </trkpt>
      <trkpt lat="45.37859" lon="4.56687">
        <ele>1361.4000244141</ele>
        <time>2018-05-24T12:16:47Z</time>
      </trkpt>
      <trkpt lat="45.37864" lon="4.56692">
        <ele>1361.4000244141</ele>
        <time>2018-05-24T12:16:52Z</time>
      </trkpt>
      <trkpt lat="45.37879" lon="4.56711">
        <ele>1363.4000244141</ele>
        <time>2018-05-24T12:17:07Z</time>
      </trkpt>
      <trkpt lat="45.37895" lon="4.56725">
        <ele>1365.4000244141</ele>
        <time>2018-05-24T12:17:23Z</time>
      </trkpt>
      <trkpt lat="45.37913" lon="4.56738">
        <ele>1367.1999511719</ele>
        <time>2018-05-24T12:17:36Z</time>
      </trkpt>
      <trkpt lat="45.37917" lon="4.5674">
        <ele>1367.5999755859</ele>
        <time>2018-05-24T12:17:39Z</time>
      </trkpt>
      <trkpt lat="45.37922" lon="4.56742">
        <ele>1367.5999755859</ele>
        <time>2018-05-24T12:17:44Z</time>
      </trkpt>
      <trkpt lat="45.3794" lon="4.56754">
        <ele>1369.8000488281</ele>
        <time>2018-05-24T12:17:56Z</time>
      </trkpt>
      <trkpt lat="45.37965" lon="4.56756">
        <ele>1371.8000488281</ele>
        <time>2018-05-24T12:18:11Z</time>
      </trkpt>
      <trkpt lat="45.3799" lon="4.56758">
        <ele>1373.8000488281</ele>
        <time>2018-05-24T12:18:32Z</time>
      </trkpt>
      <trkpt lat="45.38007" lon="4.5676">
        <ele>1373.8000488281</ele>
        <time>2018-05-24T12:18:41Z</time>
      </trkpt>
      <trkpt lat="45.3801" lon="4.56762">
        <ele>1373.8000488281</ele>
        <time>2018-05-24T12:18:43Z</time>
      </trkpt>
      <trkpt lat="45.38018" lon="4.56773">
        <ele>1374.5999755859</ele>
        <time>2018-05-24T12:18:50Z</time>
      </trkpt>
      <trkpt lat="45.38022" lon="4.56777">
        <ele>1375.8000488281</ele>
        <time>2018-05-24T12:19:12Z</time>
      </trkpt>
      <trkpt lat="45.38036" lon="4.56789">
        <ele>1376.1999511719</ele>
        <time>2018-05-24T12:19:44Z</time>
      </trkpt>
      <trkpt lat="45.3804" lon="4.56793">
        <ele>1377.5999755859</ele>
        <time>2018-05-24T12:19:47Z</time>
      </trkpt>
      <trkpt lat="45.38047" lon="4.56819">
        <ele>1380</ele>
        <time>2018-05-24T12:20:00Z</time>
      </trkpt>
      <trkpt lat="45.38062" lon="4.56847">
        <ele>1382</ele>
        <time>2018-05-24T12:20:16Z</time>
      </trkpt>
      <trkpt lat="45.38085" lon="4.56878">
        <ele>1385</ele>
        <time>2018-05-24T12:20:39Z</time>
      </trkpt>
      <trkpt lat="45.38089" lon="4.56884">
        <ele>1386.1999511719</ele>
        <time>2018-05-24T12:20:44Z</time>
      </trkpt>
      <trkpt lat="45.38099" lon="4.56923">
        <ele>1388.4000244141</ele>
        <time>2018-05-24T12:21:07Z</time>
      </trkpt>
      <trkpt lat="45.3811" lon="4.56937">
        <ele>1390.4000244141</ele>
        <time>2018-05-24T12:21:17Z</time>
      </trkpt>
      <trkpt lat="45.38112" lon="4.5694">
        <ele>1390.4000244141</ele>
        <time>2018-05-24T12:21:19Z</time>
      </trkpt>
      <trkpt lat="45.38126" lon="4.56963">
        <ele>1392.4000244141</ele>
        <time>2018-05-24T12:21:37Z</time>
      </trkpt>
      <trkpt lat="45.38138" lon="4.56985">
        <ele>1394.8000488281</ele>
        <time>2018-05-24T12:21:53Z</time>
      </trkpt>
      <trkpt lat="45.38146" lon="4.57006">
        <ele>1396.4000244141</ele>
        <time>2018-05-24T12:22:06Z</time>
      </trkpt>
      <trkpt lat="45.38152" lon="4.57016">
        <ele>1397.8000488281</ele>
        <time>2018-05-24T12:22:14Z</time>
      </trkpt>
      <trkpt lat="45.38154" lon="4.57019">
        <ele>1398.5999755859</ele>
        <time>2018-05-24T12:22:29Z</time>
      </trkpt>
      <trkpt lat="45.38162" lon="4.57032">
        <ele>1400.8000488281</ele>
        <time>2018-05-24T12:22:47Z</time>
      </trkpt>
      <trkpt lat="45.38179" lon="4.57056">
        <ele>1402.8000488281</ele>
        <time>2018-05-24T12:23:15Z</time>
      </trkpt>
      <trkpt lat="45.38189" lon="4.57071">
        <ele>1405</ele>
        <time>2018-05-24T12:23:31Z</time>
      </trkpt>
      <trkpt lat="45.38197" lon="4.57083">
        <ele>1405.8000488281</ele>
        <time>2018-05-24T12:23:42Z</time>
      </trkpt>
      <trkpt lat="45.38204" lon="4.57098">
        <ele>1407.4000244141</ele>
        <time>2018-05-24T12:23:57Z</time>
      </trkpt>
      <trkpt lat="45.38213" lon="4.57122">
        <ele>1409.8000488281</ele>
        <time>2018-05-24T12:24:16Z</time>
      </trkpt>
      <trkpt lat="45.3822" lon="4.57143">
        <ele>1411.4000244141</ele>
        <time>2018-05-24T12:24:34Z</time>
      </trkpt>
      <trkpt lat="45.38227" lon="4.5716">
        <ele>1414.8000488281</ele>
        <time>2018-05-24T12:24:51Z</time>
      </trkpt>
      <trkpt lat="45.38228" lon="4.57176">
        <ele>1416</ele>
        <time>2018-05-24T12:25:06Z</time>
      </trkpt>
      <trkpt lat="45.3823" lon="4.57193">
        <ele>1419</ele>
        <time>2018-05-24T12:25:21Z</time>
      </trkpt>
      <trkpt lat="45.3823" lon="4.5721">
        <ele>1421</ele>
        <time>2018-05-24T12:25:36Z</time>
      </trkpt>
      <trkpt lat="45.38234" lon="4.57225">
        <ele>1422.4000244141</ele>
        <time>2018-05-24T12:25:50Z</time>
      </trkpt>
      <trkpt lat="45.38239" lon="4.57235">
        <ele>1425.1999511719</ele>
        <time>2018-05-24T12:26:05Z</time>
      </trkpt>
      <trkpt lat="45.38243" lon="4.5724">
        <ele>1426.1999511719</ele>
        <time>2018-05-24T12:26:11Z</time>
      </trkpt>
      <trkpt lat="45.38245" lon="4.57246">
        <ele>1426.1999511719</ele>
        <time>2018-05-24T12:26:15Z</time>
      </trkpt>
      <trkpt lat="45.3825" lon="4.57265">
        <ele>1426.5999755859</ele>
        <time>2018-05-24T12:26:45Z</time>
      </trkpt>
      <trkpt lat="45.38246" lon="4.57272">
        <ele>1428.1999511719</ele>
        <time>2018-05-24T12:26:59Z</time>
      </trkpt>
      <trkpt lat="45.38248" lon="4.57273">
        <ele>1429.4000244141</ele>
        <time>2018-05-24T12:27:04Z</time>
      </trkpt>
      <trkpt lat="45.3825" lon="4.57274">
        <ele>1430.4000244141</ele>
        <time>2018-05-24T12:27:09Z</time>
      </trkpt>
      <trkpt lat="45.38253" lon="4.57281">
        <ele>1430.4000244141</ele>
        <time>2018-05-24T12:27:37Z</time>
      </trkpt>
      <trkpt lat="45.38252" lon="4.57293">
        <ele>1428.1999511719</ele>
        <time>2018-05-24T12:31:59Z</time>
      </trkpt>
      <trkpt lat="45.38251" lon="4.57306">
        <ele>1425.5999755859</ele>
        <time>2018-05-24T12:32:14Z</time>
      </trkpt>
      <trkpt lat="45.38251" lon="4.57308">
        <ele>1424.8000488281</ele>
        <time>2018-05-24T12:32:16Z</time>
      </trkpt>
      <trkpt lat="45.38247" lon="4.57323">
        <ele>1424</ele>
        <time>2018-05-24T12:32:30Z</time>
      </trkpt>
      <trkpt lat="45.38247" lon="4.57336">
        <ele>1421.8000488281</ele>
        <time>2018-05-24T12:32:47Z</time>
      </trkpt>
      <trkpt lat="45.38248" lon="4.57353">
        <ele>1419.8000488281</ele>
        <time>2018-05-24T12:33:04Z</time>
      </trkpt>
      <trkpt lat="45.38249" lon="4.57358">
        <ele>1418.8000488281</ele>
        <time>2018-05-24T12:33:07Z</time>
      </trkpt>
      <trkpt lat="45.38257" lon="4.57365">
        <ele>1416.4000244141</ele>
        <time>2018-05-24T12:33:17Z</time>
      </trkpt>
      <trkpt lat="45.38257" lon="4.57366">
        <ele>1416</ele>
        <time>2018-05-24T12:33:18Z</time>
      </trkpt>
      <trkpt lat="45.38261" lon="4.57374">
        <ele>1415.5999755859</ele>
        <time>2018-05-24T12:33:22Z</time>
      </trkpt>
      <trkpt lat="45.38261" lon="4.57391">
        <ele>1414.5999755859</ele>
        <time>2018-05-24T12:33:26Z</time>
      </trkpt>
      <trkpt lat="45.38259" lon="4.57423">
        <ele>1411.5999755859</ele>
        <time>2018-05-24T12:33:30Z</time>
      </trkpt>
      <trkpt lat="45.3826" lon="4.57438">
        <ele>1410</ele>
        <time>2018-05-24T12:33:32Z</time>
      </trkpt>
      <trkpt lat="45.38264" lon="4.57474">
        <ele>1407</ele>
        <time>2018-05-24T12:33:37Z</time>
      </trkpt>
      <trkpt lat="45.38269" lon="4.57524">
        <ele>1404.8000488281</ele>
        <time>2018-05-24T12:33:44Z</time>
      </trkpt>
      <trkpt lat="45.38279" lon="4.57583">
        <ele>1402.1999511719</ele>
        <time>2018-05-24T12:33:52Z</time>
      </trkpt>
      <trkpt lat="45.38281" lon="4.57591">
        <ele>1401.8000488281</ele>
        <time>2018-05-24T12:33:53Z</time>
      </trkpt>
      <trkpt lat="45.38285" lon="4.57622">
        <ele>1400</ele>
        <time>2018-05-24T12:33:57Z</time>
      </trkpt>
      <trkpt lat="45.38288" lon="4.5766">
        <ele>1398.1999511719</ele>
        <time>2018-05-24T12:34:05Z</time>
      </trkpt>
      <trkpt lat="45.38293" lon="4.57735">
        <ele>1398.5999755859</ele>
        <time>2018-05-24T12:34:26Z</time>
      </trkpt>
      <trkpt lat="45.38295" lon="4.57788">
        <ele>1400.8000488281</ele>
        <time>2018-05-24T12:34:46Z</time>
      </trkpt>
      <trkpt lat="45.38296" lon="4.57794">
        <ele>1402</ele>
        <time>2018-05-24T12:34:49Z</time>
      </trkpt>
      <trkpt lat="45.38292" lon="4.57824">
        <ele>1404.4000244141</ele>
        <time>2018-05-24T12:35:03Z</time>
      </trkpt>
      <trkpt lat="45.38296" lon="4.57853">
        <ele>1405</ele>
        <time>2018-05-24T12:35:18Z</time>
      </trkpt>
      <trkpt lat="45.38293" lon="4.57878">
        <ele>1408.1999511719</ele>
        <time>2018-05-24T12:35:31Z</time>
      </trkpt>
      <trkpt lat="45.38301" lon="4.57901">
        <ele>1410.5999755859</ele>
        <time>2018-05-24T12:35:46Z</time>
      </trkpt>
      <trkpt lat="45.38305" lon="4.57926">
        <ele>1410.5999755859</ele>
        <time>2018-05-24T12:36:00Z</time>
      </trkpt>
      <trkpt lat="45.38309" lon="4.57938">
        <ele>1413</ele>
        <time>2018-05-24T12:36:07Z</time>
      </trkpt>
      <trkpt lat="45.38316" lon="4.57964">
        <ele>1413.4000244141</ele>
        <time>2018-05-24T12:36:19Z</time>
      </trkpt>
      <trkpt lat="45.38314" lon="4.57973">
        <ele>1415</ele>
        <time>2018-05-24T12:36:23Z</time>
      </trkpt>
      <trkpt lat="45.38311" lon="4.5798">
        <ele>1415</ele>
        <time>2018-05-24T12:36:27Z</time>
      </trkpt>
      <trkpt lat="45.38301" lon="4.57992">
        <ele>1415.4000244141</ele>
        <time>2018-05-24T12:36:37Z</time>
      </trkpt>
      <trkpt lat="45.38297" lon="4.58002">
        <ele>1417</ele>
        <time>2018-05-24T12:36:41Z</time>
      </trkpt>
      <trkpt lat="45.38277" lon="4.58049">
        <ele>1417</ele>
        <time>2018-05-24T12:37:02Z</time>
      </trkpt>
      <trkpt lat="45.3827" lon="4.58091">
        <ele>1417</ele>
        <time>2018-05-24T12:37:13Z</time>
      </trkpt>
      <trkpt lat="45.38268" lon="4.58108">
        <ele>1417</ele>
        <time>2018-05-24T12:37:22Z</time>
      </trkpt>
      <trkpt lat="45.38261" lon="4.58138">
        <ele>1415.8000488281</ele>
        <time>2018-05-24T12:37:31Z</time>
      </trkpt>
      <trkpt lat="45.38269" lon="4.58155">
        <ele>1413.5999755859</ele>
        <time>2018-05-24T12:37:38Z</time>
      </trkpt>
      <trkpt lat="45.3827" lon="4.58182">
        <ele>1411.8000488281</ele>
        <time>2018-05-24T12:37:48Z</time>
      </trkpt>
      <trkpt lat="45.38268" lon="4.58207">
        <ele>1409</ele>
        <time>2018-05-24T12:37:55Z</time>
      </trkpt>
      <trkpt lat="45.38267" lon="4.58209">
        <ele>1408.5999755859</ele>
        <time>2018-05-24T12:37:56Z</time>
      </trkpt>
      <trkpt lat="45.38262" lon="4.58228">
        <ele>1407.4000244141</ele>
        <time>2018-05-24T12:38:02Z</time>
      </trkpt>
      <trkpt lat="45.38266" lon="4.58257">
        <ele>1404.4000244141</ele>
        <time>2018-05-24T12:38:09Z</time>
      </trkpt>
      <trkpt lat="45.38264" lon="4.58262">
        <ele>1404.4000244141</ele>
        <time>2018-05-24T12:38:10Z</time>
      </trkpt>
      <trkpt lat="45.38254" lon="4.583">
        <ele>1401.1999511719</ele>
        <time>2018-05-24T12:38:19Z</time>
      </trkpt>
      <trkpt lat="45.38249" lon="4.58314">
        <ele>1399.8000488281</ele>
        <time>2018-05-24T12:38:22Z</time>
      </trkpt>
      <trkpt lat="45.38242" lon="4.58325">
        <ele>1398</ele>
        <time>2018-05-24T12:38:26Z</time>
      </trkpt>
      <trkpt lat="45.3823" lon="4.58337">
        <ele>1397</ele>
        <time>2018-05-24T12:38:31Z</time>
      </trkpt>
      <trkpt lat="45.38226" lon="4.58344">
        <ele>1395.8000488281</ele>
        <time>2018-05-24T12:38:34Z</time>
      </trkpt>
      <trkpt lat="45.38221" lon="4.58355">
        <ele>1394.5999755859</ele>
        <time>2018-05-24T12:38:38Z</time>
      </trkpt>
      <trkpt lat="45.38213" lon="4.58367">
        <ele>1393.4000244141</ele>
        <time>2018-05-24T12:38:44Z</time>
      </trkpt>
      <trkpt lat="45.38211" lon="4.58376">
        <ele>1392.1999511719</ele>
        <time>2018-05-24T12:38:47Z</time>
      </trkpt>
      <trkpt lat="45.38208" lon="4.58401">
        <ele>1390.8000488281</ele>
        <time>2018-05-24T12:38:53Z</time>
      </trkpt>
      <trkpt lat="45.38198" lon="4.58417">
        <ele>1387.8000488281</ele>
        <time>2018-05-24T12:39:00Z</time>
      </trkpt>
      <trkpt lat="45.38191" lon="4.58421">
        <ele>1387.4000244141</ele>
        <time>2018-05-24T12:39:08Z</time>
      </trkpt>
      <trkpt lat="45.38181" lon="4.58443">
        <ele>1384.8000488281</ele>
        <time>2018-05-24T12:39:17Z</time>
      </trkpt>
      <trkpt lat="45.3818" lon="4.58448">
        <ele>1384</ele>
        <time>2018-05-24T12:39:19Z</time>
      </trkpt>
      <trkpt lat="45.38179" lon="4.5845">
        <ele>1383.5999755859</ele>
        <time>2018-05-24T12:39:20Z</time>
      </trkpt>
      <trkpt lat="45.38175" lon="4.58454">
        <ele>1383.1999511719</ele>
        <time>2018-05-24T12:39:29Z</time>
      </trkpt>
      <trkpt lat="45.38175" lon="4.58458">
        <ele>1381.8000488281</ele>
        <time>2018-05-24T12:39:33Z</time>
      </trkpt>
      <trkpt lat="45.38167" lon="4.58463">
        <ele>1381</ele>
        <time>2018-05-24T12:39:39Z</time>
      </trkpt>
      <trkpt lat="45.38165" lon="4.58469">
        <ele>1381</ele>
        <time>2018-05-24T12:39:45Z</time>
      </trkpt>
      <trkpt lat="45.38154" lon="4.58464">
        <ele>1381</ele>
        <time>2018-05-24T12:40:05Z</time>
      </trkpt>
      <trkpt lat="45.38148" lon="4.58461">
        <ele>1381</ele>
        <time>2018-05-24T12:40:26Z</time>
      </trkpt>
      <trkpt lat="45.38135" lon="4.58451">
        <ele>1381</ele>
        <time>2018-05-24T12:40:46Z</time>
      </trkpt>
      <trkpt lat="45.38097" lon="4.58435">
        <ele>1381</ele>
        <time>2018-05-24T12:41:04Z</time>
      </trkpt>
      <trkpt lat="45.38093" lon="4.58436">
        <ele>1381</ele>
        <time>2018-05-24T12:41:05Z</time>
      </trkpt>
      <trkpt lat="45.38056" lon="4.58437">
        <ele>1378.8000488281</ele>
        <time>2018-05-24T12:41:19Z</time>
      </trkpt>
      <trkpt lat="45.38042" lon="4.58439">
        <ele>1377</ele>
        <time>2018-05-24T12:41:25Z</time>
      </trkpt>
      <trkpt lat="45.38028" lon="4.58434">
        <ele>1374.8000488281</ele>
        <time>2018-05-24T12:41:32Z</time>
      </trkpt>
      <trkpt lat="45.38021" lon="4.5843">
        <ele>1374.4000244141</ele>
        <time>2018-05-24T12:41:44Z</time>
      </trkpt>
      <trkpt lat="45.38008" lon="4.58427">
        <ele>1372.4000244141</ele>
        <time>2018-05-24T12:42:01Z</time>
      </trkpt>
      <trkpt lat="45.37986" lon="4.58426">
        <ele>1369.4000244141</ele>
        <time>2018-05-24T12:42:10Z</time>
      </trkpt>
      <trkpt lat="45.37967" lon="4.58429">
        <ele>1366.5999755859</ele>
        <time>2018-05-24T12:42:19Z</time>
      </trkpt>
      <trkpt lat="45.37957" lon="4.58431">
        <ele>1363.8000488281</ele>
        <time>2018-05-24T12:42:31Z</time>
      </trkpt>
      <trkpt lat="45.37943" lon="4.58432">
        <ele>1363.8000488281</ele>
        <time>2018-05-24T12:43:00Z</time>
      </trkpt>
      <trkpt lat="45.37929" lon="4.58434">
        <ele>1361.5999755859</ele>
        <time>2018-05-24T12:43:13Z</time>
      </trkpt>
      <trkpt lat="45.37909" lon="4.58428">
        <ele>1359.5999755859</ele>
        <time>2018-05-24T12:43:29Z</time>
      </trkpt>
      <trkpt lat="45.37907" lon="4.58427">
        <ele>1359.1999511719</ele>
        <time>2018-05-24T12:43:31Z</time>
      </trkpt>
      <trkpt lat="45.37894" lon="4.58426">
        <ele>1357.1999511719</ele>
        <time>2018-05-24T12:43:46Z</time>
      </trkpt>
      <trkpt lat="45.37888" lon="4.58424">
        <ele>1355.1999511719</ele>
        <time>2018-05-24T12:43:51Z</time>
      </trkpt>
      <trkpt lat="45.37868" lon="4.58425">
        <ele>1352.8000488281</ele>
        <time>2018-05-24T12:44:00Z</time>
      </trkpt>
      <trkpt lat="45.37851" lon="4.58423">
        <ele>1349.8000488281</ele>
        <time>2018-05-24T12:44:08Z</time>
      </trkpt>
      <trkpt lat="45.37833" lon="4.58422">
        <ele>1346.8000488281</ele>
        <time>2018-05-24T12:44:19Z</time>
      </trkpt>
      <trkpt lat="45.3782" lon="4.58422">
        <ele>1344.1999511719</ele>
        <time>2018-05-24T12:44:29Z</time>
      </trkpt>
      <trkpt lat="45.37813" lon="4.58419">
        <ele>1342.1999511719</ele>
        <time>2018-05-24T12:45:01Z</time>
      </trkpt>
      <trkpt lat="45.37807" lon="4.5842">
        <ele>1341.8000488281</ele>
        <time>2018-05-24T12:45:11Z</time>
      </trkpt>
      <trkpt lat="45.3779" lon="4.58421">
        <ele>1339.8000488281</ele>
        <time>2018-05-24T12:45:25Z</time>
      </trkpt>
      <trkpt lat="45.37782" lon="4.5842">
        <ele>1336.8000488281</ele>
        <time>2018-05-24T12:45:37Z</time>
      </trkpt>
      <trkpt lat="45.37772" lon="4.58419">
        <ele>1335.4000244141</ele>
        <time>2018-05-24T12:45:55Z</time>
      </trkpt>
      <trkpt lat="45.37752" lon="4.5842">
        <ele>1332.4000244141</ele>
        <time>2018-05-24T12:46:05Z</time>
      </trkpt>
      <trkpt lat="45.37748" lon="4.58419">
        <ele>1329.5999755859</ele>
        <time>2018-05-24T12:46:17Z</time>
      </trkpt>
      <trkpt lat="45.3774" lon="4.58417">
        <ele>1327.4000244141</ele>
        <time>2018-05-24T12:46:41Z</time>
      </trkpt>
      <trkpt lat="45.37737" lon="4.58416">
        <ele>1325</ele>
        <time>2018-05-24T12:47:00Z</time>
      </trkpt>
      <trkpt lat="45.37735" lon="4.58416">
        <ele>1323.5999755859</ele>
        <time>2018-05-24T12:47:03Z</time>
      </trkpt>
      <trkpt lat="45.37725" lon="4.58416">
        <ele>1322.8000488281</ele>
        <time>2018-05-24T12:47:09Z</time>
      </trkpt>
      <trkpt lat="45.37712" lon="4.58418">
        <ele>1320.8000488281</ele>
        <time>2018-05-24T12:47:15Z</time>
      </trkpt>
      <trkpt lat="45.37678" lon="4.58408">
        <ele>1318.5999755859</ele>
        <time>2018-05-24T12:47:23Z</time>
      </trkpt>
      <trkpt lat="45.37644" lon="4.58397">
        <ele>1316.8000488281</ele>
        <time>2018-05-24T12:47:30Z</time>
      </trkpt>
      <trkpt lat="45.37628" lon="4.58397">
        <ele>1316.4000244141</ele>
        <time>2018-05-24T12:47:33Z</time>
      </trkpt>
      <trkpt lat="45.37618" lon="4.58397">
        <ele>1316</ele>
        <time>2018-05-24T12:47:35Z</time>
      </trkpt>
      <trkpt lat="45.37598" lon="4.58386">
        <ele>1312.1999511719</ele>
        <time>2018-05-24T12:47:42Z</time>
      </trkpt>
      <trkpt lat="45.37597" lon="4.58385">
        <ele>1312.1999511719</ele>
        <time>2018-05-24T12:47:43Z</time>
      </trkpt>
      <trkpt lat="45.37597" lon="4.5838">
        <ele>1312.1999511719</ele>
        <time>2018-05-24T12:47:56Z</time>
      </trkpt>
      <trkpt lat="45.37597" lon="4.58381">
        <ele>1312.1999511719</ele>
        <time>2018-05-24T12:47:57Z</time>
      </trkpt>
      <trkpt lat="45.37599" lon="4.5839">
        <ele>1312.1999511719</ele>
        <time>2018-05-24T12:48:02Z</time>
      </trkpt>
      <trkpt lat="45.37589" lon="4.58451">
        <ele>1311.8000488281</ele>
        <time>2018-05-24T12:48:20Z</time>
      </trkpt>
      <trkpt lat="45.37589" lon="4.58467">
        <ele>1310.5999755859</ele>
        <time>2018-05-24T12:48:23Z</time>
      </trkpt>
      <trkpt lat="45.37588" lon="4.58473">
        <ele>1310</ele>
        <time>2018-05-24T12:48:24Z</time>
      </trkpt>
      <trkpt lat="45.37587" lon="4.58503">
        <ele>1308.1999511719</ele>
        <time>2018-05-24T12:48:29Z</time>
      </trkpt>
      <trkpt lat="45.37586" lon="4.58518">
        <ele>1305.5999755859</ele>
        <time>2018-05-24T12:48:33Z</time>
      </trkpt>
      <trkpt lat="45.37585" lon="4.58548">
        <ele>1303.4000244141</ele>
        <time>2018-05-24T12:48:37Z</time>
      </trkpt>
      <trkpt lat="45.37583" lon="4.58565">
        <ele>1301.8000488281</ele>
        <time>2018-05-24T12:48:39Z</time>
      </trkpt>
      <trkpt lat="45.37578" lon="4.58587">
        <ele>1298.8000488281</ele>
        <time>2018-05-24T12:48:42Z</time>
      </trkpt>
      <trkpt lat="45.37574" lon="4.58599">
        <ele>1295.5999755859</ele>
        <time>2018-05-24T12:48:45Z</time>
      </trkpt>
      <trkpt lat="45.37574" lon="4.5861">
        <ele>1292.1999511719</ele>
        <time>2018-05-24T12:48:50Z</time>
      </trkpt>
      <trkpt lat="45.37574" lon="4.58613">
        <ele>1291.5999755859</ele>
        <time>2018-05-24T12:48:51Z</time>
      </trkpt>
      <trkpt lat="45.37573" lon="4.58622">
        <ele>1289.4000244141</ele>
        <time>2018-05-24T12:48:55Z</time>
      </trkpt>
      <trkpt lat="45.37574" lon="4.58627">
        <ele>1287.1999511719</ele>
        <time>2018-05-24T12:49:02Z</time>
      </trkpt>
      <trkpt lat="45.37568" lon="4.58658">
        <ele>1284</ele>
        <time>2018-05-24T12:49:14Z</time>
      </trkpt>
      <trkpt lat="45.37564" lon="4.58674">
        <ele>1282</ele>
        <time>2018-05-24T12:49:18Z</time>
      </trkpt>
      <trkpt lat="45.37567" lon="4.58686">
        <ele>1278.8000488281</ele>
        <time>2018-05-24T12:49:24Z</time>
      </trkpt>
      <trkpt lat="45.37573" lon="4.58695">
        <ele>1278.8000488281</ele>
        <time>2018-05-24T12:49:39Z</time>
      </trkpt>
      <trkpt lat="45.37573" lon="4.58695">
        <ele>1276.5999755859</ele>
        <time>2018-05-24T12:50:43Z</time>
      </trkpt>
      <trkpt lat="45.37572" lon="4.58699">
        <ele>1276.5999755859</ele>
        <time>2018-05-24T12:51:18Z</time>
      </trkpt>
      <trkpt lat="45.37558" lon="4.58728">
        <ele>1275.5999755859</ele>
        <time>2018-05-24T12:51:27Z</time>
      </trkpt>
      <trkpt lat="45.37555" lon="4.58745">
        <ele>1273.8000488281</ele>
        <time>2018-05-24T12:51:31Z</time>
      </trkpt>
      <trkpt lat="45.37558" lon="4.58762">
        <ele>1272.1999511719</ele>
        <time>2018-05-24T12:51:44Z</time>
      </trkpt>
      <trkpt lat="45.37561" lon="4.58776">
        <ele>1270.1999511719</ele>
        <time>2018-05-24T12:52:00Z</time>
      </trkpt>
      <trkpt lat="45.37568" lon="4.58781">
        <ele>1269.4000244141</ele>
        <time>2018-05-24T12:52:08Z</time>
      </trkpt>
      <trkpt lat="45.37569" lon="4.58791">
        <ele>1266.4000244141</ele>
        <time>2018-05-24T12:52:15Z</time>
      </trkpt>
      <trkpt lat="45.37569" lon="4.58796">
        <ele>1266</ele>
        <time>2018-05-24T12:52:21Z</time>
      </trkpt>
      <trkpt lat="45.37567" lon="4.58822">
        <ele>1263</ele>
        <time>2018-05-24T12:52:31Z</time>
      </trkpt>
      <trkpt lat="45.37566" lon="4.58838">
        <ele>1259.5999755859</ele>
        <time>2018-05-24T12:52:37Z</time>
      </trkpt>
      <trkpt lat="45.37567" lon="4.5884">
        <ele>1259</ele>
        <time>2018-05-24T12:52:38Z</time>
      </trkpt>
      <trkpt lat="45.37569" lon="4.58862">
        <ele>1255.5999755859</ele>
        <time>2018-05-24T12:52:45Z</time>
      </trkpt>
      <trkpt lat="45.3757" lon="4.58876">
        <ele>1252.1999511719</ele>
        <time>2018-05-24T12:52:51Z</time>
      </trkpt>
      <trkpt lat="45.3757" lon="4.5888">
        <ele>1251.8000488281</ele>
        <time>2018-05-24T12:52:52Z</time>
      </trkpt>
      <trkpt lat="45.37574" lon="4.58895">
        <ele>1248.8000488281</ele>
        <time>2018-05-24T12:52:58Z</time>
      </trkpt>
      <trkpt lat="45.37574" lon="4.589">
        <ele>1247.8000488281</ele>
        <time>2018-05-24T12:53:00Z</time>
      </trkpt>
      <trkpt lat="45.37579" lon="4.58915">
        <ele>1244.4000244141</ele>
        <time>2018-05-24T12:53:05Z</time>
      </trkpt>
      <trkpt lat="45.37578" lon="4.58918">
        <ele>1243.8000488281</ele>
        <time>2018-05-24T12:53:06Z</time>
      </trkpt>
      <trkpt lat="45.37576" lon="4.58929">
        <ele>1240.8000488281</ele>
        <time>2018-05-24T12:53:11Z</time>
      </trkpt>
      <trkpt lat="45.37578" lon="4.58943">
        <ele>1237.8000488281</ele>
        <time>2018-05-24T12:53:16Z</time>
      </trkpt>
      <trkpt lat="45.37581" lon="4.58954">
        <ele>1235.5999755859</ele>
        <time>2018-05-24T12:53:20Z</time>
      </trkpt>
      <trkpt lat="45.37584" lon="4.58971">
        <ele>1231.8000488281</ele>
        <time>2018-05-24T12:53:27Z</time>
      </trkpt>
      <trkpt lat="45.37584" lon="4.5898">
        <ele>1230.5999755859</ele>
        <time>2018-05-24T12:53:30Z</time>
      </trkpt>
      <trkpt lat="45.37583" lon="4.58989">
        <ele>1228.4000244141</ele>
        <time>2018-05-24T12:53:35Z</time>
      </trkpt>
      <trkpt lat="45.37582" lon="4.58999">
        <ele>1226</ele>
        <time>2018-05-24T12:53:40Z</time>
      </trkpt>
      <trkpt lat="45.37583" lon="4.59007">
        <ele>1224.1999511719</ele>
        <time>2018-05-24T12:53:45Z</time>
      </trkpt>
      <trkpt lat="45.37585" lon="4.59009">
        <ele>1223</ele>
        <time>2018-05-24T12:53:51Z</time>
      </trkpt>
      <trkpt lat="45.37586" lon="4.59018">
        <ele>1221.1999511719</ele>
        <time>2018-05-24T12:53:58Z</time>
      </trkpt>
      <trkpt lat="45.3759" lon="4.59026">
        <ele>1219.8000488281</ele>
        <time>2018-05-24T12:54:04Z</time>
      </trkpt>
      <trkpt lat="45.37597" lon="4.59033">
        <ele>1216.5999755859</ele>
        <time>2018-05-24T12:54:15Z</time>
      </trkpt>
      <trkpt lat="45.37608" lon="4.59044">
        <ele>1213.4000244141</ele>
        <time>2018-05-24T12:54:29Z</time>
      </trkpt>
      <trkpt lat="45.37614" lon="4.59047">
        <ele>1210.8000488281</ele>
        <time>2018-05-24T12:54:38Z</time>
      </trkpt>
      <trkpt lat="45.37618" lon="4.59049">
        <ele>1208</ele>
        <time>2018-05-24T12:54:46Z</time>
      </trkpt>
      <trkpt lat="45.37622" lon="4.59055">
        <ele>1206.8000488281</ele>
        <time>2018-05-24T12:54:53Z</time>
      </trkpt>
      <trkpt lat="45.37619" lon="4.59064">
        <ele>1205.4000244141</ele>
        <time>2018-05-24T12:55:04Z</time>
      </trkpt>
      <trkpt lat="45.37618" lon="4.59065">
        <ele>1205.4000244141</ele>
        <time>2018-05-24T12:55:05Z</time>
      </trkpt>
      <trkpt lat="45.37565" lon="4.59119">
        <ele>1205.4000244141</ele>
        <time>2018-05-24T12:55:29Z</time>
      </trkpt>
      <trkpt lat="45.37529" lon="4.59162">
        <ele>1205.4000244141</ele>
        <time>2018-05-24T12:55:41Z</time>
      </trkpt>
      <trkpt lat="45.37499" lon="4.59185">
        <ele>1205</ele>
        <time>2018-05-24T12:55:48Z</time>
      </trkpt>
      <trkpt lat="45.37471" lon="4.592">
        <ele>1202.5999755859</ele>
        <time>2018-05-24T12:55:53Z</time>
      </trkpt>
      <trkpt lat="45.37426" lon="4.59215">
        <ele>1199.5999755859</ele>
        <time>2018-05-24T12:56:00Z</time>
      </trkpt>
      <trkpt lat="45.37391" lon="4.59223">
        <ele>1198</ele>
        <time>2018-05-24T12:56:05Z</time>
      </trkpt>
      <trkpt lat="45.37367" lon="4.59229">
        <ele>1196.5999755859</ele>
        <time>2018-05-24T12:56:08Z</time>
      </trkpt>
      <trkpt lat="45.37334" lon="4.5923">
        <ele>1194.5999755859</ele>
        <time>2018-05-24T12:56:12Z</time>
      </trkpt>
      <trkpt lat="45.37326" lon="4.59228">
        <ele>1194</ele>
        <time>2018-05-24T12:56:13Z</time>
      </trkpt>
      <trkpt lat="45.37274" lon="4.59206">
        <ele>1190.1999511719</ele>
        <time>2018-05-24T12:56:20Z</time>
      </trkpt>
      <trkpt lat="45.37238" lon="4.59202">
        <ele>1187</ele>
        <time>2018-05-24T12:56:24Z</time>
      </trkpt>
      <trkpt lat="45.37213" lon="4.592">
        <ele>1184.4000244141</ele>
        <time>2018-05-24T12:56:27Z</time>
      </trkpt>
      <trkpt lat="45.37205" lon="4.59199">
        <ele>1184.4000244141</ele>
        <time>2018-05-24T12:56:28Z</time>
      </trkpt>
      <trkpt lat="45.37175" lon="4.59207">
        <ele>1183.1999511719</ele>
        <time>2018-05-24T12:56:32Z</time>
      </trkpt>
      <trkpt lat="45.37125" lon="4.59212">
        <ele>1179.8000488281</ele>
        <time>2018-05-24T12:56:38Z</time>
      </trkpt>
      <trkpt lat="45.3707" lon="4.59214">
        <ele>1176</ele>
        <time>2018-05-24T12:56:45Z</time>
      </trkpt>
      <trkpt lat="45.36985" lon="4.59236">
        <ele>1174.1999511719</ele>
        <time>2018-05-24T12:56:59Z</time>
      </trkpt>
      <trkpt lat="45.3695" lon="4.59252">
        <ele>1172.1999511719</ele>
        <time>2018-05-24T12:57:05Z</time>
      </trkpt>
      <trkpt lat="45.36928" lon="4.59268">
        <ele>1169.1999511719</ele>
        <time>2018-05-24T12:57:09Z</time>
      </trkpt>
      <trkpt lat="45.36902" lon="4.593">
        <ele>1166</ele>
        <time>2018-05-24T12:57:13Z</time>
      </trkpt>
      <trkpt lat="45.3688" lon="4.59326">
        <ele>1163</ele>
        <time>2018-05-24T12:57:16Z</time>
      </trkpt>
      <trkpt lat="45.36854" lon="4.59345">
        <ele>1159.8000488281</ele>
        <time>2018-05-24T12:57:19Z</time>
      </trkpt>
      <trkpt lat="45.36824" lon="4.59355">
        <ele>1156.8000488281</ele>
        <time>2018-05-24T12:57:22Z</time>
      </trkpt>
      <trkpt lat="45.36781" lon="4.59374">
        <ele>1154.1999511719</ele>
        <time>2018-05-24T12:57:27Z</time>
      </trkpt>
      <trkpt lat="45.36729" lon="4.59401">
        <ele>1152</ele>
        <time>2018-05-24T12:57:35Z</time>
      </trkpt>
      <trkpt lat="45.36691" lon="4.59415">
        <ele>1149.8000488281</ele>
        <time>2018-05-24T12:57:41Z</time>
      </trkpt>
      <trkpt lat="45.36667" lon="4.5941">
        <ele>1149.8000488281</ele>
        <time>2018-05-24T12:57:45Z</time>
      </trkpt>
      <trkpt lat="45.36646" lon="4.59407">
        <ele>1148.1999511719</ele>
        <time>2018-05-24T12:57:48Z</time>
      </trkpt>
      <trkpt lat="45.36618" lon="4.59397">
        <ele>1146.4000244141</ele>
        <time>2018-05-24T12:57:52Z</time>
      </trkpt>
      <trkpt lat="45.36582" lon="4.59374">
        <ele>1144</ele>
        <time>2018-05-24T12:57:57Z</time>
      </trkpt>
      <trkpt lat="45.36549" lon="4.59361">
        <ele>1140.8000488281</ele>
        <time>2018-05-24T12:58:01Z</time>
      </trkpt>
      <trkpt lat="45.36535" lon="4.59355">
        <ele>1139.4000244141</ele>
        <time>2018-05-24T12:58:03Z</time>
      </trkpt>
      <trkpt lat="45.36521" lon="4.59351">
        <ele>1138</ele>
        <time>2018-05-24T12:58:05Z</time>
      </trkpt>
      <trkpt lat="45.36482" lon="4.59335">
        <ele>1134.8000488281</ele>
        <time>2018-05-24T12:58:10Z</time>
      </trkpt>
      <trkpt lat="45.36468" lon="4.59323">
        <ele>1133.4000244141</ele>
        <time>2018-05-24T12:58:12Z</time>
      </trkpt>
      <trkpt lat="45.36437" lon="4.59306">
        <ele>1129.8000488281</ele>
        <time>2018-05-24T12:58:16Z</time>
      </trkpt>
      <trkpt lat="45.36415" lon="4.59294">
        <ele>1126.4000244141</ele>
        <time>2018-05-24T12:58:19Z</time>
      </trkpt>
      <trkpt lat="45.36393" lon="4.59281">
        <ele>1123</ele>
        <time>2018-05-24T12:58:22Z</time>
      </trkpt>
      <trkpt lat="45.36377" lon="4.59274">
        <ele>1119.5999755859</ele>
        <time>2018-05-24T12:58:24Z</time>
      </trkpt>
      <trkpt lat="45.36352" lon="4.59264">
        <ele>1116</ele>
        <time>2018-05-24T12:58:27Z</time>
      </trkpt>
      <trkpt lat="45.36322" lon="4.59258">
        <ele>1112.1999511719</ele>
        <time>2018-05-24T12:58:30Z</time>
      </trkpt>
      <trkpt lat="45.36292" lon="4.59257">
        <ele>1108.4000244141</ele>
        <time>2018-05-24T12:58:33Z</time>
      </trkpt>
      <trkpt lat="45.36265" lon="4.59269">
        <ele>1105.1999511719</ele>
        <time>2018-05-24T12:58:36Z</time>
      </trkpt>
      <trkpt lat="45.36247" lon="4.59278">
        <ele>1103.1999511719</ele>
        <time>2018-05-24T12:58:38Z</time>
      </trkpt>
      <trkpt lat="45.36222" lon="4.59282">
        <ele>1100.1999511719</ele>
        <time>2018-05-24T12:58:41Z</time>
      </trkpt>
      <trkpt lat="45.36204" lon="4.59286">
        <ele>1098.4000244141</ele>
        <time>2018-05-24T12:58:43Z</time>
      </trkpt>
      <trkpt lat="45.36178" lon="4.59296">
        <ele>1095.1999511719</ele>
        <time>2018-05-24T12:58:46Z</time>
      </trkpt>
      <trkpt lat="45.36163" lon="4.59303">
        <ele>1093</ele>
        <time>2018-05-24T12:58:48Z</time>
      </trkpt>
      <trkpt lat="45.3615" lon="4.59306">
        <ele>1089.8000488281</ele>
        <time>2018-05-24T12:58:50Z</time>
      </trkpt>
      <trkpt lat="45.36125" lon="4.59307">
        <ele>1086.4000244141</ele>
        <time>2018-05-24T12:58:53Z</time>
      </trkpt>
      <trkpt lat="45.36101" lon="4.59312">
        <ele>1082.5999755859</ele>
        <time>2018-05-24T12:58:56Z</time>
      </trkpt>
      <trkpt lat="45.36095" lon="4.59314">
        <ele>1081.4000244141</ele>
        <time>2018-05-24T12:58:57Z</time>
      </trkpt>
      <trkpt lat="45.36084" lon="4.59325">
        <ele>1077.8000488281</ele>
        <time>2018-05-24T12:59:00Z</time>
      </trkpt>
      <trkpt lat="45.3608" lon="4.59337">
        <ele>1074.5999755859</ele>
        <time>2018-05-24T12:59:03Z</time>
      </trkpt>
      <trkpt lat="45.36075" lon="4.59352">
        <ele>1072.4000244141</ele>
        <time>2018-05-24T12:59:07Z</time>
      </trkpt>
      <trkpt lat="45.36072" lon="4.59357">
        <ele>1072</ele>
        <time>2018-05-24T12:59:08Z</time>
      </trkpt>
      <trkpt lat="45.36063" lon="4.5937">
        <ele>1071.1999511719</ele>
        <time>2018-05-24T12:59:10Z</time>
      </trkpt>
      <trkpt lat="45.36034" lon="4.59391">
        <ele>1067.5999755859</ele>
        <time>2018-05-24T12:59:14Z</time>
      </trkpt>
      <trkpt lat="45.36005" lon="4.59403">
        <ele>1064.4000244141</ele>
        <time>2018-05-24T12:59:17Z</time>
      </trkpt>
      <trkpt lat="45.35982" lon="4.59417">
        <ele>1061.1999511719</ele>
        <time>2018-05-24T12:59:20Z</time>
      </trkpt>
      <trkpt lat="45.35952" lon="4.59442">
        <ele>1057.5999755859</ele>
        <time>2018-05-24T12:59:24Z</time>
      </trkpt>
      <trkpt lat="45.35945" lon="4.59447">
        <ele>1056.8000488281</ele>
        <time>2018-05-24T12:59:25Z</time>
      </trkpt>
      <trkpt lat="45.35919" lon="4.59443">
        <ele>1053.8000488281</ele>
        <time>2018-05-24T12:59:29Z</time>
      </trkpt>
      <trkpt lat="45.35907" lon="4.59432">
        <ele>1053</ele>
        <time>2018-05-24T12:59:32Z</time>
      </trkpt>
      <trkpt lat="45.35889" lon="4.59414">
        <ele>1056.1999511719</ele>
        <time>2018-05-24T12:59:42Z</time>
      </trkpt>
      <trkpt lat="45.35877" lon="4.59397">
        <ele>1059.1999511719</ele>
        <time>2018-05-24T12:59:51Z</time>
      </trkpt>
      <trkpt lat="45.35861" lon="4.59367">
        <ele>1062.5999755859</ele>
        <time>2018-05-24T13:00:07Z</time>
      </trkpt>
      <trkpt lat="45.3583" lon="4.59306">
        <ele>1063.8000488281</ele>
        <time>2018-05-24T13:00:27Z</time>
      </trkpt>
      <trkpt lat="45.35818" lon="4.59256">
        <ele>1060.5999755859</ele>
        <time>2018-05-24T13:00:34Z</time>
      </trkpt>
      <trkpt lat="45.35815" lon="4.59225">
        <ele>1058.5999755859</ele>
        <time>2018-05-24T13:00:38Z</time>
      </trkpt>
      <trkpt lat="45.35806" lon="4.59193">
        <ele>1055.4000244141</ele>
        <time>2018-05-24T13:00:42Z</time>
      </trkpt>
      <trkpt lat="45.35804" lon="4.59187">
        <ele>1054.5999755859</ele>
        <time>2018-05-24T13:00:43Z</time>
      </trkpt>
      <trkpt lat="45.35791" lon="4.59158">
        <ele>1051.5999755859</ele>
        <time>2018-05-24T13:00:47Z</time>
      </trkpt>
      <trkpt lat="45.35776" lon="4.59117">
        <ele>1047.5999755859</ele>
        <time>2018-05-24T13:00:52Z</time>
      </trkpt>
      <trkpt lat="45.35759" lon="4.59064">
        <ele>1044.4000244141</ele>
        <time>2018-05-24T13:00:58Z</time>
      </trkpt>
      <trkpt lat="45.35739" lon="4.5903">
        <ele>1041.5999755859</ele>
        <time>2018-05-24T13:01:02Z</time>
      </trkpt>
      <trkpt lat="45.35729" lon="4.59003">
        <ele>1039.4000244141</ele>
        <time>2018-05-24T13:01:05Z</time>
      </trkpt>
      <trkpt lat="45.35717" lon="4.58969">
        <ele>1037</ele>
        <time>2018-05-24T13:01:11Z</time>
      </trkpt>
      <trkpt lat="45.35715" lon="4.58964">
        <ele>1037</ele>
        <time>2018-05-24T13:01:14Z</time>
      </trkpt>
      <trkpt lat="45.35703" lon="4.5898">
        <ele>1034.8000488281</ele>
        <time>2018-05-24T13:01:24Z</time>
      </trkpt>
      <trkpt lat="45.35665" lon="4.59009">
        <ele>1034.8000488281</ele>
        <time>2018-05-24T13:01:42Z</time>
      </trkpt>
      <trkpt lat="45.35614" lon="4.59004">
        <ele>1033.5999755859</ele>
        <time>2018-05-24T13:01:57Z</time>
      </trkpt>
      <trkpt lat="45.35558" lon="4.58991">
        <ele>1031</ele>
        <time>2018-05-24T13:02:15Z</time>
      </trkpt>
      <trkpt lat="45.35516" lon="4.58994">
        <ele>1028.4000244141</ele>
        <time>2018-05-24T13:02:30Z</time>
      </trkpt>
      <trkpt lat="45.35442" lon="4.59005">
        <ele>1026.4000244141</ele>
        <time>2018-05-24T13:02:53Z</time>
      </trkpt>
      <trkpt lat="45.35422" lon="4.59009">
        <ele>1025.5999755859</ele>
        <time>2018-05-24T13:02:58Z</time>
      </trkpt>
      <trkpt lat="45.35409" lon="4.59006">
        <ele>1024.1999511719</ele>
        <time>2018-05-24T13:03:01Z</time>
      </trkpt>
      <trkpt lat="45.35378" lon="4.59007">
        <ele>1020.799987793</ele>
        <time>2018-05-24T13:03:07Z</time>
      </trkpt>
      <trkpt lat="45.35363" lon="4.59009">
        <ele>1019.5999755859</ele>
        <time>2018-05-24T13:03:10Z</time>
      </trkpt>
      <trkpt lat="45.35343" lon="4.59005">
        <ele>1017.799987793</ele>
        <time>2018-05-24T13:03:15Z</time>
      </trkpt>
      <trkpt lat="45.3534" lon="4.59004">
        <ele>1017.4000244141</ele>
        <time>2018-05-24T13:03:16Z</time>
      </trkpt>
      <trkpt lat="45.35322" lon="4.58992">
        <ele>1016.4000244141</ele>
        <time>2018-05-24T13:03:20Z</time>
      </trkpt>
      <trkpt lat="45.35295" lon="4.58997">
        <ele>1013.4000244141</ele>
        <time>2018-05-24T13:03:25Z</time>
      </trkpt>
      <trkpt lat="45.35208" lon="4.59038">
        <ele>1012.799987793</ele>
        <time>2018-05-24T13:03:46Z</time>
      </trkpt>
      <trkpt lat="45.35189" lon="4.59043">
        <ele>1012.799987793</ele>
        <time>2018-05-24T13:03:50Z</time>
      </trkpt>
      <trkpt lat="45.3518" lon="4.59045">
        <ele>1011.799987793</ele>
        <time>2018-05-24T13:03:52Z</time>
      </trkpt>
      <trkpt lat="45.35141" lon="4.59059">
        <ele>1008.5999755859</ele>
        <time>2018-05-24T13:04:00Z</time>
      </trkpt>
      <trkpt lat="45.35133" lon="4.59063">
        <ele>1008</ele>
        <time>2018-05-24T13:04:02Z</time>
      </trkpt>
      <trkpt lat="45.35088" lon="4.59099">
        <ele>1008</ele>
        <time>2018-05-24T13:04:13Z</time>
      </trkpt>
      <trkpt lat="45.35074" lon="4.59112">
        <ele>1008</ele>
        <time>2018-05-24T13:04:17Z</time>
      </trkpt>
      <trkpt lat="45.35046" lon="4.59136">
        <ele>1005.799987793</ele>
        <time>2018-05-24T13:04:27Z</time>
      </trkpt>
      <trkpt lat="45.35047" lon="4.59135">
        <ele>1005.799987793</ele>
        <time>2018-05-24T13:04:53Z</time>
      </trkpt>
      <trkpt lat="45.35049" lon="4.59128">
        <ele>1005.799987793</ele>
        <time>2018-05-24T13:05:02Z</time>
      </trkpt>
      <trkpt lat="45.35029" lon="4.59124">
        <ele>1003.4000244141</ele>
        <time>2018-05-24T13:05:11Z</time>
      </trkpt>
      <trkpt lat="45.35026" lon="4.59124">
        <ele>1003</ele>
        <time>2018-05-24T13:05:12Z</time>
      </trkpt>
      <trkpt lat="45.35007" lon="4.59134">
        <ele>1000.4000244141</ele>
        <time>2018-05-24T13:05:16Z</time>
      </trkpt>
      <trkpt lat="45.34994" lon="4.59146">
        <ele>998.59997558594</ele>
        <time>2018-05-24T13:05:19Z</time>
      </trkpt>
      <trkpt lat="45.34979" lon="4.59176">
        <ele>996.40002441406</ele>
        <time>2018-05-24T13:05:24Z</time>
      </trkpt>
      <trkpt lat="45.34974" lon="4.59204">
        <ele>994.20001220703</ele>
        <time>2018-05-24T13:05:28Z</time>
      </trkpt>
      <trkpt lat="45.34971" lon="4.59239">
        <ele>991.79998779297</ele>
        <time>2018-05-24T13:05:32Z</time>
      </trkpt>
      <trkpt lat="45.34971" lon="4.59266">
        <ele>989.79998779297</ele>
        <time>2018-05-24T13:05:35Z</time>
      </trkpt>
      <trkpt lat="45.34972" lon="4.59283">
        <ele>988.79998779297</ele>
        <time>2018-05-24T13:05:37Z</time>
      </trkpt>
      <trkpt lat="45.34969" lon="4.59327">
        <ele>985.59997558594</ele>
        <time>2018-05-24T13:05:42Z</time>
      </trkpt>
      <trkpt lat="45.34965" lon="4.59354">
        <ele>983.40002441406</ele>
        <time>2018-05-24T13:05:45Z</time>
      </trkpt>
      <trkpt lat="45.3496" lon="4.59387">
        <ele>978.79998779297</ele>
        <time>2018-05-24T13:05:49Z</time>
      </trkpt>
      <trkpt lat="45.34959" lon="4.59395">
        <ele>978</ele>
        <time>2018-05-24T13:05:50Z</time>
      </trkpt>
      <trkpt lat="45.34954" lon="4.59427">
        <ele>975.59997558594</ele>
        <time>2018-05-24T13:05:54Z</time>
      </trkpt>
      <trkpt lat="45.3494" lon="4.59487">
        <ele>972.59997558594</ele>
        <time>2018-05-24T13:06:01Z</time>
      </trkpt>
      <trkpt lat="45.34938" lon="4.59496">
        <ele>972.20001220703</ele>
        <time>2018-05-24T13:06:02Z</time>
      </trkpt>
      <trkpt lat="45.34927" lon="4.59554">
        <ele>969.20001220703</ele>
        <time>2018-05-24T13:06:08Z</time>
      </trkpt>
      <trkpt lat="45.34924" lon="4.59564">
        <ele>968.59997558594</ele>
        <time>2018-05-24T13:06:09Z</time>
      </trkpt>
      <trkpt lat="45.34919" lon="4.59607">
        <ele>966.79998779297</ele>
        <time>2018-05-24T13:06:13Z</time>
      </trkpt>
      <trkpt lat="45.34905" lon="4.5966">
        <ele>963.59997558594</ele>
        <time>2018-05-24T13:06:18Z</time>
      </trkpt>
      <trkpt lat="45.34885" lon="4.5972">
        <ele>960.40002441406</ele>
        <time>2018-05-24T13:06:24Z</time>
      </trkpt>
      <trkpt lat="45.3486" lon="4.59786">
        <ele>957.20001220703</ele>
        <time>2018-05-24T13:06:32Z</time>
      </trkpt>
      <trkpt lat="45.34844" lon="4.59823">
        <ele>953.79998779297</ele>
        <time>2018-05-24T13:06:37Z</time>
      </trkpt>
      <trkpt lat="45.34839" lon="4.59837">
        <ele>950.59997558594</ele>
        <time>2018-05-24T13:06:40Z</time>
      </trkpt>
      <trkpt lat="45.34832" lon="4.59847">
        <ele>947.59997558594</ele>
        <time>2018-05-24T13:06:44Z</time>
      </trkpt>
      <trkpt lat="45.34814" lon="4.59878">
        <ele>944.20001220703</ele>
        <time>2018-05-24T13:06:51Z</time>
      </trkpt>
      <trkpt lat="45.34804" lon="4.59891">
        <ele>940.79998779297</ele>
        <time>2018-05-24T13:06:56Z</time>
      </trkpt>
      <trkpt lat="45.34792" lon="4.59908">
        <ele>938.59997558594</ele>
        <time>2018-05-24T13:07:01Z</time>
      </trkpt>
      <trkpt lat="45.34768" lon="4.59914">
        <ele>935.20001220703</ele>
        <time>2018-05-24T13:07:07Z</time>
      </trkpt>
      <trkpt lat="45.34763" lon="4.59916">
        <ele>934.79998779297</ele>
        <time>2018-05-24T13:07:08Z</time>
      </trkpt>
      <trkpt lat="45.3475" lon="4.59918">
        <ele>933.40002441406</ele>
        <time>2018-05-24T13:07:11Z</time>
      </trkpt>
      <trkpt lat="45.3472" lon="4.59926">
        <ele>930.20001220703</ele>
        <time>2018-05-24T13:07:17Z</time>
      </trkpt>
      <trkpt lat="45.34711" lon="4.59929">
        <ele>929</ele>
        <time>2018-05-24T13:07:19Z</time>
      </trkpt>
      <trkpt lat="45.34696" lon="4.59934">
        <ele>926.40002441406</ele>
        <time>2018-05-24T13:07:23Z</time>
      </trkpt>
      <trkpt lat="45.34679" lon="4.59937">
        <ele>923.40002441406</ele>
        <time>2018-05-24T13:07:27Z</time>
      </trkpt>
      <trkpt lat="45.3467" lon="4.59939">
        <ele>922.20001220703</ele>
        <time>2018-05-24T13:07:29Z</time>
      </trkpt>
      <trkpt lat="45.34644" lon="4.59948">
        <ele>918.79998779297</ele>
        <time>2018-05-24T13:07:34Z</time>
      </trkpt>
      <trkpt lat="45.34621" lon="4.59955">
        <ele>915.40002441406</ele>
        <time>2018-05-24T13:07:39Z</time>
      </trkpt>
      <trkpt lat="45.34607" lon="4.59947">
        <ele>914.20001220703</ele>
        <time>2018-05-24T13:07:42Z</time>
      </trkpt>
      <trkpt lat="45.3458" lon="4.59929">
        <ele>910.79998779297</ele>
        <time>2018-05-24T13:07:48Z</time>
      </trkpt>
      <trkpt lat="45.34563" lon="4.59907">
        <ele>907.79998779297</ele>
        <time>2018-05-24T13:07:53Z</time>
      </trkpt>
      <trkpt lat="45.34549" lon="4.59886">
        <ele>905.20001220703</ele>
        <time>2018-05-24T13:07:57Z</time>
      </trkpt>
      <trkpt lat="45.34533" lon="4.5987">
        <ele>901.79998779297</ele>
        <time>2018-05-24T13:08:02Z</time>
      </trkpt>
      <trkpt lat="45.3453" lon="4.59868">
        <ele>901.20001220703</ele>
        <time>2018-05-24T13:08:03Z</time>
      </trkpt>
      <trkpt lat="45.34521" lon="4.59845">
        <ele>897.79998779297</ele>
        <time>2018-05-24T13:08:09Z</time>
      </trkpt>
      <trkpt lat="45.34519" lon="4.59842">
        <ele>897.40002441406</ele>
        <time>2018-05-24T13:08:10Z</time>
      </trkpt>
      <trkpt lat="45.34505" lon="4.59827">
        <ele>895.40002441406</ele>
        <time>2018-05-24T13:08:14Z</time>
      </trkpt>
      <trkpt lat="45.34488" lon="4.59819">
        <ele>892</ele>
        <time>2018-05-24T13:08:19Z</time>
      </trkpt>
      <trkpt lat="45.34485" lon="4.59817">
        <ele>891.40002441406</ele>
        <time>2018-05-24T13:08:20Z</time>
      </trkpt>
      <trkpt lat="45.34478" lon="4.59809">
        <ele>890</ele>
        <time>2018-05-24T13:08:23Z</time>
      </trkpt>
      <trkpt lat="45.34468" lon="4.59815">
        <ele>888.59997558594</ele>
        <time>2018-05-24T13:08:27Z</time>
      </trkpt>
      <trkpt lat="45.34454" lon="4.59844">
        <ele>885.79998779297</ele>
        <time>2018-05-24T13:08:34Z</time>
      </trkpt>
      <trkpt lat="45.34439" lon="4.59842">
        <ele>882.79998779297</ele>
        <time>2018-05-24T13:08:41Z</time>
      </trkpt>
      <trkpt lat="45.34438" lon="4.59796">
        <ele>879.59997558594</ele>
        <time>2018-05-24T13:08:51Z</time>
      </trkpt>
      <trkpt lat="45.34438" lon="4.59764">
        <ele>877.40002441406</ele>
        <time>2018-05-24T13:08:59Z</time>
      </trkpt>
      <trkpt lat="45.3444" lon="4.59745">
        <ele>876</ele>
        <time>2018-05-24T13:09:02Z</time>
      </trkpt>
      <trkpt lat="45.34441" lon="4.59739">
        <ele>875.40002441406</ele>
        <time>2018-05-24T13:09:03Z</time>
      </trkpt>
      <trkpt lat="45.34441" lon="4.59711">
        <ele>873.20001220703</ele>
        <time>2018-05-24T13:09:07Z</time>
      </trkpt>
      <trkpt lat="45.34441" lon="4.59671">
        <ele>871</ele>
        <time>2018-05-24T13:09:12Z</time>
      </trkpt>
      <trkpt lat="45.34431" lon="4.5964">
        <ele>869</ele>
        <time>2018-05-24T13:09:19Z</time>
      </trkpt>
      <trkpt lat="45.34404" lon="4.59634">
        <ele>868.59997558594</ele>
        <time>2018-05-24T13:09:29Z</time>
      </trkpt>
      <trkpt lat="45.34387" lon="4.59637">
        <ele>867</ele>
        <time>2018-05-24T13:09:32Z</time>
      </trkpt>
      <trkpt lat="45.34349" lon="4.5963">
        <ele>864.79998779297</ele>
        <time>2018-05-24T13:09:38Z</time>
      </trkpt>
      <trkpt lat="45.34326" lon="4.59606">
        <ele>864.79998779297</ele>
        <time>2018-05-24T13:09:43Z</time>
      </trkpt>
      <trkpt lat="45.34318" lon="4.59593">
        <ele>864</ele>
        <time>2018-05-24T13:09:45Z</time>
      </trkpt>
      <trkpt lat="45.3431" lon="4.59582">
        <ele>863</ele>
        <time>2018-05-24T13:09:47Z</time>
      </trkpt>
      <trkpt lat="45.3427" lon="4.59569">
        <ele>860.59997558594</ele>
        <time>2018-05-24T13:09:54Z</time>
      </trkpt>
      <trkpt lat="45.34263" lon="4.59569">
        <ele>859.79998779297</ele>
        <time>2018-05-24T13:09:55Z</time>
      </trkpt>
      <trkpt lat="45.34246" lon="4.59562">
        <ele>858.59997558594</ele>
        <time>2018-05-24T13:09:58Z</time>
      </trkpt>
      <trkpt lat="45.34236" lon="4.59532">
        <ele>857</ele>
        <time>2018-05-24T13:10:04Z</time>
      </trkpt>
      <trkpt lat="45.3424" lon="4.5949">
        <ele>854</ele>
        <time>2018-05-24T13:10:10Z</time>
      </trkpt>
      <trkpt lat="45.34242" lon="4.59442">
        <ele>851</ele>
        <time>2018-05-24T13:10:15Z</time>
      </trkpt>
      <trkpt lat="45.34242" lon="4.59398">
        <ele>848.40002441406</ele>
        <time>2018-05-24T13:10:21Z</time>
      </trkpt>
      <trkpt lat="45.34219" lon="4.59401">
        <ele>847</ele>
        <time>2018-05-24T13:10:28Z</time>
      </trkpt>
      <trkpt lat="45.34202" lon="4.59408">
        <ele>847</ele>
        <time>2018-05-24T13:10:36Z</time>
      </trkpt>
      <trkpt lat="45.34196" lon="4.59414">
        <ele>848.79998779297</ele>
        <time>2018-05-24T13:10:40Z</time>
      </trkpt>
      <trkpt lat="45.34152" lon="4.5946">
        <ele>849.20001220703</ele>
        <time>2018-05-24T13:11:01Z</time>
      </trkpt>
      <trkpt lat="45.34115" lon="4.59476">
        <ele>851.20001220703</ele>
        <time>2018-05-24T13:11:16Z</time>
      </trkpt>
      <trkpt lat="45.34101" lon="4.59481">
        <ele>852.79998779297</ele>
        <time>2018-05-24T13:11:21Z</time>
      </trkpt>
      <trkpt lat="45.34073" lon="4.59478">
        <ele>854.79998779297</ele>
        <time>2018-05-24T13:11:34Z</time>
      </trkpt>
      <trkpt lat="45.34071" lon="4.59477">
        <ele>855.20001220703</ele>
        <time>2018-05-24T13:11:35Z</time>
      </trkpt>
      <trkpt lat="45.34024" lon="4.59464">
        <ele>857.40002441406</ele>
        <time>2018-05-24T13:11:59Z</time>
      </trkpt>
      <trkpt lat="45.33975" lon="4.5951">
        <ele>857.40002441406</ele>
        <time>2018-05-24T13:12:14Z</time>
      </trkpt>
      <trkpt lat="45.33953" lon="4.5954">
        <ele>856</ele>
        <time>2018-05-24T13:12:20Z</time>
      </trkpt>
      <trkpt lat="45.33928" lon="4.59587">
        <ele>853</ele>
        <time>2018-05-24T13:12:27Z</time>
      </trkpt>
      <trkpt lat="45.3392" lon="4.59601">
        <ele>852.59997558594</ele>
        <time>2018-05-24T13:12:29Z</time>
      </trkpt>
      <trkpt lat="45.33902" lon="4.59657">
        <ele>850</ele>
        <time>2018-05-24T13:12:35Z</time>
      </trkpt>
      <trkpt lat="45.33892" lon="4.59681">
        <ele>848.40002441406</ele>
        <time>2018-05-24T13:12:38Z</time>
      </trkpt>
      <trkpt lat="45.33886" lon="4.59735">
        <ele>848.40002441406</ele>
        <time>2018-05-24T13:12:46Z</time>
      </trkpt>
      <trkpt lat="45.33903" lon="4.59781">
        <ele>847.59997558594</ele>
        <time>2018-05-24T13:12:52Z</time>
      </trkpt>
      <trkpt lat="45.33939" lon="4.59812">
        <ele>845.40002441406</ele>
        <time>2018-05-24T13:12:58Z</time>
      </trkpt>
      <trkpt lat="45.33957" lon="4.59866">
        <ele>842.79998779297</ele>
        <time>2018-05-24T13:13:04Z</time>
      </trkpt>
      <trkpt lat="45.33959" lon="4.59878">
        <ele>842.40002441406</ele>
        <time>2018-05-24T13:13:05Z</time>
      </trkpt>
      <trkpt lat="45.33966" lon="4.59925">
        <ele>839.59997558594</ele>
        <time>2018-05-24T13:13:09Z</time>
      </trkpt>
      <trkpt lat="45.33959" lon="4.59986">
        <ele>836.20001220703</ele>
        <time>2018-05-24T13:13:14Z</time>
      </trkpt>
      <trkpt lat="45.33952" lon="4.60011">
        <ele>835</ele>
        <time>2018-05-24T13:13:16Z</time>
      </trkpt>
      <trkpt lat="45.33932" lon="4.60056">
        <ele>832</ele>
        <time>2018-05-24T13:13:20Z</time>
      </trkpt>
      <trkpt lat="45.33908" lon="4.60094">
        <ele>829.40002441406</ele>
        <time>2018-05-24T13:13:24Z</time>
      </trkpt>
      <trkpt lat="45.3388" lon="4.60127">
        <ele>825.79998779297</ele>
        <time>2018-05-24T13:13:29Z</time>
      </trkpt>
      <trkpt lat="45.33874" lon="4.60139">
        <ele>824.20001220703</ele>
        <time>2018-05-24T13:13:32Z</time>
      </trkpt>
      <trkpt lat="45.33869" lon="4.60166">
        <ele>821</ele>
        <time>2018-05-24T13:13:38Z</time>
      </trkpt>
      <trkpt lat="45.33858" lon="4.6016">
        <ele>820.59997558594</ele>
        <time>2018-05-24T13:13:43Z</time>
      </trkpt>
      <trkpt lat="45.33852" lon="4.60158">
        <ele>820.59997558594</ele>
        <time>2018-05-24T13:13:45Z</time>
      </trkpt>
      <trkpt lat="45.33818" lon="4.60121">
        <ele>820.59997558594</ele>
        <time>2018-05-24T13:13:56Z</time>
      </trkpt>
      <trkpt lat="45.33803" lon="4.60061">
        <ele>820.59997558594</ele>
        <time>2018-05-24T13:14:10Z</time>
      </trkpt>
      <trkpt lat="45.33801" lon="4.60028">
        <ele>820.59997558594</ele>
        <time>2018-05-24T13:14:20Z</time>
      </trkpt>
      <trkpt lat="45.33782" lon="4.59999">
        <ele>822.59997558594</ele>
        <time>2018-05-24T13:14:34Z</time>
      </trkpt>
      <trkpt lat="45.33777" lon="4.60015">
        <ele>822.20001220703</ele>
        <time>2018-05-24T13:14:37Z</time>
      </trkpt>
      <trkpt lat="45.33773" lon="4.60024">
        <ele>821</ele>
        <time>2018-05-24T13:14:39Z</time>
      </trkpt>
      <trkpt lat="45.33753" lon="4.60028">
        <ele>817.79998779297</ele>
        <time>2018-05-24T13:14:45Z</time>
      </trkpt>
      <trkpt lat="45.33746" lon="4.60019">
        <ele>815.40002441406</ele>
        <time>2018-05-24T13:14:49Z</time>
      </trkpt>
      <trkpt lat="45.33734" lon="4.60014">
        <ele>812.20001220703</ele>
        <time>2018-05-24T13:14:55Z</time>
      </trkpt>
      <trkpt lat="45.33721" lon="4.60019">
        <ele>809</ele>
        <time>2018-05-24T13:15:02Z</time>
      </trkpt>
      <trkpt lat="45.33716" lon="4.60023">
        <ele>808</ele>
        <time>2018-05-24T13:15:04Z</time>
      </trkpt>
      <trkpt lat="45.33694" lon="4.60034">
        <ele>804.79998779297</ele>
        <time>2018-05-24T13:15:11Z</time>
      </trkpt>
      <trkpt lat="45.3367" lon="4.60049">
        <ele>801.40002441406</ele>
        <time>2018-05-24T13:15:18Z</time>
      </trkpt>
      <trkpt lat="45.33666" lon="4.60053">
        <ele>801</ele>
        <time>2018-05-24T13:15:19Z</time>
      </trkpt>
      <trkpt lat="45.33652" lon="4.60072">
        <ele>798.59997558594</ele>
        <time>2018-05-24T13:15:24Z</time>
      </trkpt>
      <trkpt lat="45.33647" lon="4.60078">
        <ele>798.59997558594</ele>
        <time>2018-05-24T13:15:26Z</time>
      </trkpt>
      <trkpt lat="45.33614" lon="4.60075">
        <ele>796.59997558594</ele>
        <time>2018-05-24T13:15:35Z</time>
      </trkpt>
      <trkpt lat="45.33594" lon="4.60041">
        <ele>796.59997558594</ele>
        <time>2018-05-24T13:15:44Z</time>
      </trkpt>
      <trkpt lat="45.33562" lon="4.6004">
        <ele>796.59997558594</ele>
        <time>2018-05-24T13:15:52Z</time>
      </trkpt>
      <trkpt lat="45.33519" lon="4.60055">
        <ele>793.40002441406</ele>
        <time>2018-05-24T13:16:04Z</time>
      </trkpt>
      <trkpt lat="45.33496" lon="4.60064">
        <ele>790.20001220703</ele>
        <time>2018-05-24T13:16:10Z</time>
      </trkpt>
      <trkpt lat="45.33479" lon="4.60076">
        <ele>787.20001220703</ele>
        <time>2018-05-24T13:16:17Z</time>
      </trkpt>
      <trkpt lat="45.33472" lon="4.60076">
        <ele>785.20001220703</ele>
        <time>2018-05-24T13:16:21Z</time>
      </trkpt>
      <trkpt lat="45.33459" lon="4.60059">
        <ele>782.20001220703</ele>
        <time>2018-05-24T13:16:28Z</time>
      </trkpt>
      <trkpt lat="45.33454" lon="4.60052">
        <ele>780.20001220703</ele>
        <time>2018-05-24T13:16:31Z</time>
      </trkpt>
      <trkpt lat="45.33448" lon="4.60037">
        <ele>777</ele>
        <time>2018-05-24T13:16:38Z</time>
      </trkpt>
      <trkpt lat="45.33445" lon="4.60037">
        <ele>774.59997558594</ele>
        <time>2018-05-24T13:16:50Z</time>
      </trkpt>
      <trkpt lat="45.33439" lon="4.60035">
        <ele>774.59997558594</ele>
        <time>2018-05-24T13:16:56Z</time>
      </trkpt>
      <trkpt lat="45.33432" lon="4.60025">
        <ele>771.40002441406</ele>
        <time>2018-05-24T13:17:03Z</time>
      </trkpt>
      <trkpt lat="45.33412" lon="4.59986">
        <ele>769.79998779297</ele>
        <time>2018-05-24T13:17:13Z</time>
      </trkpt>
      <trkpt lat="45.33404" lon="4.59971">
        <ele>768.59997558594</ele>
        <time>2018-05-24T13:17:16Z</time>
      </trkpt>
      <trkpt lat="45.33381" lon="4.59937">
        <ele>766</ele>
        <time>2018-05-24T13:17:25Z</time>
      </trkpt>
      <trkpt lat="45.33378" lon="4.59936">
        <ele>766</ele>
        <time>2018-05-24T13:17:34Z</time>
      </trkpt>
      <trkpt lat="45.33363" lon="4.59917">
        <ele>762.79998779297</ele>
        <time>2018-05-24T13:17:44Z</time>
      </trkpt>
      <trkpt lat="45.33352" lon="4.59904">
        <ele>759.79998779297</ele>
        <time>2018-05-24T13:17:49Z</time>
      </trkpt>
      <trkpt lat="45.33342" lon="4.59894">
        <ele>757.20001220703</ele>
        <time>2018-05-24T13:17:54Z</time>
      </trkpt>
      <trkpt lat="45.3333" lon="4.59896">
        <ele>754</ele>
        <time>2018-05-24T13:18:00Z</time>
      </trkpt>
      <trkpt lat="45.33324" lon="4.59893">
        <ele>752.40002441406</ele>
        <time>2018-05-24T13:18:03Z</time>
      </trkpt>
      <trkpt lat="45.33311" lon="4.59897">
        <ele>749.79998779297</ele>
        <time>2018-05-24T13:18:09Z</time>
      </trkpt>
      <trkpt lat="45.33301" lon="4.59902">
        <ele>746.79998779297</ele>
        <time>2018-05-24T13:18:13Z</time>
      </trkpt>
      <trkpt lat="45.33292" lon="4.59915">
        <ele>745</ele>
        <time>2018-05-24T13:18:19Z</time>
      </trkpt>
      <trkpt lat="45.33291" lon="4.59922">
        <ele>742.40002441406</ele>
        <time>2018-05-24T13:18:24Z</time>
      </trkpt>
      <trkpt lat="45.33293" lon="4.59948">
        <ele>739</ele>
        <time>2018-05-24T13:18:35Z</time>
      </trkpt>
      <trkpt lat="45.33293" lon="4.59962">
        <ele>737.59997558594</ele>
        <time>2018-05-24T13:18:39Z</time>
      </trkpt>
      <trkpt lat="45.33295" lon="4.59966">
        <ele>736.40002441406</ele>
        <time>2018-05-24T13:18:47Z</time>
      </trkpt>
      <trkpt lat="45.33295" lon="4.59966">
        <ele>736</ele>
        <time>2018-05-24T13:18:48Z</time>
      </trkpt>
      <trkpt lat="45.33294" lon="4.59995">
        <ele>734</ele>
        <time>2018-05-24T13:18:57Z</time>
      </trkpt>
      <trkpt lat="45.33294" lon="4.60007">
        <ele>732.59997558594</ele>
        <time>2018-05-24T13:19:01Z</time>
      </trkpt>
      <trkpt lat="45.33294" lon="4.60014">
        <ele>731.40002441406</ele>
        <time>2018-05-24T13:19:04Z</time>
      </trkpt>
      <trkpt lat="45.33293" lon="4.60044">
        <ele>728.20001220703</ele>
        <time>2018-05-24T13:19:12Z</time>
      </trkpt>
      <trkpt lat="45.33296" lon="4.60072">
        <ele>725.20001220703</ele>
        <time>2018-05-24T13:19:19Z</time>
      </trkpt>
      <trkpt lat="45.33296" lon="4.60074">
        <ele>724.79998779297</ele>
        <time>2018-05-24T13:19:20Z</time>
      </trkpt>
      <trkpt lat="45.33296" lon="4.60087">
        <ele>723.59997558594</ele>
        <time>2018-05-24T13:19:26Z</time>
      </trkpt>
      <trkpt lat="45.33296" lon="4.60093">
        <ele>721.79998779297</ele>
        <time>2018-05-24T13:19:30Z</time>
      </trkpt>
      <trkpt lat="45.33296" lon="4.60115">
        <ele>719.79998779297</ele>
        <time>2018-05-24T13:19:48Z</time>
      </trkpt>
      <trkpt lat="45.33295" lon="4.60121">
        <ele>718.20001220703</ele>
        <time>2018-05-24T13:19:56Z</time>
      </trkpt>
      <trkpt lat="45.33295" lon="4.60133">
        <ele>717.79998779297</ele>
        <time>2018-05-24T13:20:07Z</time>
      </trkpt>
      <trkpt lat="45.33293" lon="4.60136">
        <ele>717.40002441406</ele>
        <time>2018-05-24T13:20:10Z</time>
      </trkpt>
      <trkpt lat="45.33294" lon="4.60146">
        <ele>715.59997558594</ele>
        <time>2018-05-24T13:20:18Z</time>
      </trkpt>
      <trkpt lat="45.33294" lon="4.60147">
        <ele>715.20001220703</ele>
        <time>2018-05-24T13:20:20Z</time>
      </trkpt>
      <trkpt lat="45.33294" lon="4.60148">
        <ele>714.40002441406</ele>
        <time>2018-05-24T13:20:22Z</time>
      </trkpt>
      <trkpt lat="45.33294" lon="4.6016">
        <ele>713.20001220703</ele>
        <time>2018-05-24T13:20:33Z</time>
      </trkpt>
      <trkpt lat="45.33293" lon="4.60167">
        <ele>711.59997558594</ele>
        <time>2018-05-24T13:20:36Z</time>
      </trkpt>
      <trkpt lat="45.33291" lon="4.60185">
        <ele>709.59997558594</ele>
        <time>2018-05-24T13:20:56Z</time>
      </trkpt>
      <trkpt lat="45.33289" lon="4.602">
        <ele>707.40002441406</ele>
        <time>2018-05-24T13:21:15Z</time>
      </trkpt>
      <trkpt lat="45.33287" lon="4.60206">
        <ele>705.79998779297</ele>
        <time>2018-05-24T13:21:20Z</time>
      </trkpt>
      <trkpt lat="45.33283" lon="4.60219">
        <ele>703.20001220703</ele>
        <time>2018-05-24T13:21:31Z</time>
      </trkpt>
      <trkpt lat="45.33279" lon="4.6024">
        <ele>700.79998779297</ele>
        <time>2018-05-24T13:21:50Z</time>
      </trkpt>
      <trkpt lat="45.33273" lon="4.60259">
        <ele>697.59997558594</ele>
        <time>2018-05-24T13:21:57Z</time>
      </trkpt>
      <trkpt lat="45.33274" lon="4.60281">
        <ele>694.40002441406</ele>
        <time>2018-05-24T13:22:07Z</time>
      </trkpt>
      <trkpt lat="45.33271" lon="4.60303">
        <ele>691.20001220703</ele>
        <time>2018-05-24T13:22:15Z</time>
      </trkpt>
      <trkpt lat="45.3327" lon="4.60312">
        <ele>689.79998779297</ele>
        <time>2018-05-24T13:22:17Z</time>
      </trkpt>
      <trkpt lat="45.3327" lon="4.60341">
        <ele>686.40002441406</ele>
        <time>2018-05-24T13:22:24Z</time>
      </trkpt>
      <trkpt lat="45.3327" lon="4.60373">
        <ele>683.40002441406</ele>
        <time>2018-05-24T13:22:32Z</time>
      </trkpt>
      <trkpt lat="45.33269" lon="4.60389">
        <ele>682</ele>
        <time>2018-05-24T13:22:37Z</time>
      </trkpt>
      <trkpt lat="45.33272" lon="4.60402">
        <ele>678.79998779297</ele>
        <time>2018-05-24T13:22:43Z</time>
      </trkpt>
      <trkpt lat="45.33272" lon="4.60404">
        <ele>678.40002441406</ele>
        <time>2018-05-24T13:22:44Z</time>
      </trkpt>
      <trkpt lat="45.3327" lon="4.60405">
        <ele>677.20001220703</ele>
        <time>2018-05-24T13:22:47Z</time>
      </trkpt>
      <trkpt lat="45.33259" lon="4.60406">
        <ele>674.79998779297</ele>
        <time>2018-05-24T13:23:03Z</time>
      </trkpt>
      <trkpt lat="45.33253" lon="4.60405">
        <ele>671.79998779297</ele>
        <time>2018-05-24T13:23:15Z</time>
      </trkpt>
      <trkpt lat="45.33249" lon="4.60408">
        <ele>669</ele>
        <time>2018-05-24T13:23:41Z</time>
      </trkpt>
      <trkpt lat="45.3324" lon="4.60413">
        <ele>667.59997558594</ele>
        <time>2018-05-24T13:23:47Z</time>
      </trkpt>
      <trkpt lat="45.33228" lon="4.60416">
        <ele>666.40002441406</ele>
        <time>2018-05-24T13:23:54Z</time>
      </trkpt>
      <trkpt lat="45.33186" lon="4.60413">
        <ele>663.79998779297</ele>
        <time>2018-05-24T13:24:04Z</time>
      </trkpt>
      <trkpt lat="45.33158" lon="4.60414">
        <ele>662</ele>
        <time>2018-05-24T13:24:08Z</time>
      </trkpt>
      <trkpt lat="45.33128" lon="4.60422">
        <ele>659.59997558594</ele>
        <time>2018-05-24T13:24:12Z</time>
      </trkpt>
      <trkpt lat="45.33099" lon="4.60456">
        <ele>659.59997558594</ele>
        <time>2018-05-24T13:24:20Z</time>
      </trkpt>
      <trkpt lat="45.33076" lon="4.60493">
        <ele>659.59997558594</ele>
        <time>2018-05-24T13:24:29Z</time>
      </trkpt>
      <trkpt lat="45.33057" lon="4.60513">
        <ele>659.59997558594</ele>
        <time>2018-05-24T13:24:35Z</time>
      </trkpt>
      <trkpt lat="45.33054" lon="4.60516">
        <ele>659.59997558594</ele>
        <time>2018-05-24T13:24:36Z</time>
      </trkpt>
      <trkpt lat="45.33037" lon="4.60535">
        <ele>659.59997558594</ele>
        <time>2018-05-24T13:24:41Z</time>
      </trkpt>
      <trkpt lat="45.33034" lon="4.60539">
        <ele>659.59997558594</ele>
        <time>2018-05-24T13:24:42Z</time>
      </trkpt>
      <trkpt lat="45.33025" lon="4.60554">
        <ele>659.59997558594</ele>
        <time>2018-05-24T13:25:00Z</time>
      </trkpt>
      <trkpt lat="45.33032" lon="4.60549">
        <ele>659.59997558594</ele>
        <time>2018-05-24T13:25:22Z</time>
      </trkpt>
      <trkpt lat="45.33031" lon="4.6055">
        <ele>659.59997558594</ele>
        <time>2018-05-24T13:25:52Z</time>
      </trkpt>
      <trkpt lat="45.33005" lon="4.60574">
        <ele>659.59997558594</ele>
        <time>2018-05-24T13:26:06Z</time>
      </trkpt>
      <trkpt lat="45.32993" lon="4.60591">
        <ele>660.40002441406</ele>
        <time>2018-05-24T13:26:21Z</time>
      </trkpt>
      <trkpt lat="45.32981" lon="4.60609">
        <ele>663.59997558594</ele>
        <time>2018-05-24T13:26:43Z</time>
      </trkpt>
      <trkpt lat="45.3297" lon="4.60627">
        <ele>666</ele>
        <time>2018-05-24T13:26:58Z</time>
      </trkpt>
      <trkpt lat="45.32963" lon="4.60637">
        <ele>668</ele>
        <time>2018-05-24T13:27:15Z</time>
      </trkpt>
      <trkpt lat="45.3294" lon="4.60632">
        <ele>668</ele>
        <time>2018-05-24T13:27:32Z</time>
      </trkpt>
      <trkpt lat="45.32918" lon="4.60615">
        <ele>670</ele>
        <time>2018-05-24T13:27:51Z</time>
      </trkpt>
      <trkpt lat="45.3291" lon="4.60609">
        <ele>670</ele>
        <time>2018-05-24T13:27:55Z</time>
      </trkpt>
      <trkpt lat="45.32877" lon="4.60577">
        <ele>670</ele>
        <time>2018-05-24T13:28:12Z</time>
      </trkpt>
      <trkpt lat="45.32766" lon="4.60566">
        <ele>670</ele>
        <time>2018-05-24T13:28:38Z</time>
      </trkpt>
      <trkpt lat="45.32728" lon="4.60557">
        <ele>673.40002441406</ele>
        <time>2018-05-24T13:28:53Z</time>
      </trkpt>
      <trkpt lat="45.3269" lon="4.60559">
        <ele>676.40002441406</ele>
        <time>2018-05-24T13:29:07Z</time>
      </trkpt>
      <trkpt lat="45.32677" lon="4.60561">
        <ele>676.40002441406</ele>
        <time>2018-05-24T13:29:13Z</time>
      </trkpt>
      <trkpt lat="45.32635" lon="4.60543">
        <ele>678.40002441406</ele>
        <time>2018-05-24T13:29:30Z</time>
      </trkpt>
      <trkpt lat="45.3262" lon="4.60563">
        <ele>681.40002441406</ele>
        <time>2018-05-24T13:29:43Z</time>
      </trkpt>
      <trkpt lat="45.32611" lon="4.60591">
        <ele>684.59997558594</ele>
        <time>2018-05-24T13:29:55Z</time>
      </trkpt>
      <trkpt lat="45.3258" lon="4.60611">
        <ele>687.79998779297</ele>
        <time>2018-05-24T13:30:12Z</time>
      </trkpt>
      <trkpt lat="45.32549" lon="4.60568">
        <ele>688.79998779297</ele>
        <time>2018-05-24T13:30:31Z</time>
      </trkpt>
      <trkpt lat="45.32494" lon="4.60534">
        <ele>690.79998779297</ele>
        <time>2018-05-24T13:30:50Z</time>
      </trkpt>
      <trkpt lat="45.32403" lon="4.60503">
        <ele>690.79998779297</ele>
        <time>2018-05-24T13:31:13Z</time>
      </trkpt>
      <trkpt lat="45.32361" lon="4.60465">
        <ele>692.79998779297</ele>
        <time>2018-05-24T13:31:28Z</time>
      </trkpt>
      <trkpt lat="45.32336" lon="4.60453">
        <ele>691.20001220703</ele>
        <time>2018-05-24T13:31:33Z</time>
      </trkpt>
      <trkpt lat="45.32327" lon="4.60451">
        <ele>690.79998779297</ele>
        <time>2018-05-24T13:31:35Z</time>
      </trkpt>
      <trkpt lat="45.32302" lon="4.60455">
        <ele>690.40002441406</ele>
        <time>2018-05-24T13:31:40Z</time>
      </trkpt>
      <trkpt lat="45.32284" lon="4.60491">
        <ele>688.59997558594</ele>
        <time>2018-05-24T13:31:47Z</time>
      </trkpt>
      <trkpt lat="45.32267" lon="4.60502">
        <ele>688.59997558594</ele>
        <time>2018-05-24T13:31:51Z</time>
      </trkpt>
      <trkpt lat="45.32206" lon="4.60515">
        <ele>691.59997558594</ele>
        <time>2018-05-24T13:32:07Z</time>
      </trkpt>
      <trkpt lat="45.32187" lon="4.60511">
        <ele>694.59997558594</ele>
        <time>2018-05-24T13:32:16Z</time>
      </trkpt>
      <trkpt lat="45.32164" lon="4.605">
        <ele>697.59997558594</ele>
        <time>2018-05-24T13:32:30Z</time>
      </trkpt>
      <trkpt lat="45.32126" lon="4.60531">
        <ele>699.20001220703</ele>
        <time>2018-05-24T13:32:48Z</time>
      </trkpt>
      <trkpt lat="45.32043" lon="4.60601">
        <ele>698.79998779297</ele>
        <time>2018-05-24T13:33:11Z</time>
      </trkpt>
      <trkpt lat="45.32035" lon="4.6063">
        <ele>697</ele>
        <time>2018-05-24T13:33:15Z</time>
      </trkpt>
      <trkpt lat="45.32034" lon="4.60639">
        <ele>696.59997558594</ele>
        <time>2018-05-24T13:33:16Z</time>
      </trkpt>
      <trkpt lat="45.32024" lon="4.60698">
        <ele>693.59997558594</ele>
        <time>2018-05-24T13:33:22Z</time>
      </trkpt>
      <trkpt lat="45.32015" lon="4.60751">
        <ele>690.40002441406</ele>
        <time>2018-05-24T13:33:27Z</time>
      </trkpt>
      <trkpt lat="45.32011" lon="4.6077">
        <ele>690</ele>
        <time>2018-05-24T13:33:29Z</time>
      </trkpt>
      <trkpt lat="45.31997" lon="4.60799">
        <ele>688.20001220703</ele>
        <time>2018-05-24T13:33:33Z</time>
      </trkpt>
      <trkpt lat="45.31993" lon="4.60806">
        <ele>688.20001220703</ele>
        <time>2018-05-24T13:33:34Z</time>
      </trkpt>
      <trkpt lat="45.31977" lon="4.60807">
        <ele>686</ele>
        <time>2018-05-24T13:33:40Z</time>
      </trkpt>
      <trkpt lat="45.31977" lon="4.60803">
        <ele>686</ele>
        <time>2018-05-24T13:33:41Z</time>
      </trkpt>
      <trkpt lat="45.31956" lon="4.60676">
        <ele>686.40002441406</ele>
        <time>2018-05-24T13:34:16Z</time>
      </trkpt>
      <trkpt lat="45.3194" lon="4.6064">
        <ele>689.40002441406</ele>
        <time>2018-05-24T13:34:32Z</time>
      </trkpt>
      <trkpt lat="45.31933" lon="4.60619">
        <ele>692.59997558594</ele>
        <time>2018-05-24T13:34:44Z</time>
      </trkpt>
      <trkpt lat="45.31917" lon="4.6058">
        <ele>695.79998779297</ele>
        <time>2018-05-24T13:35:07Z</time>
      </trkpt>
      <trkpt lat="45.31901" lon="4.60543">
        <ele>698.79998779297</ele>
        <time>2018-05-24T13:35:28Z</time>
      </trkpt>
      <trkpt lat="45.31882" lon="4.60486">
        <ele>701.40002441406</ele>
        <time>2018-05-24T13:35:58Z</time>
      </trkpt>
      <trkpt lat="45.31878" lon="4.60462">
        <ele>704.40002441406</ele>
        <time>2018-05-24T13:36:10Z</time>
      </trkpt>
      <trkpt lat="45.31874" lon="4.60442">
        <ele>707.40002441406</ele>
        <time>2018-05-24T13:36:22Z</time>
      </trkpt>
      <trkpt lat="45.31875" lon="4.60406">
        <ele>711</ele>
        <time>2018-05-24T13:36:43Z</time>
      </trkpt>
      <trkpt lat="45.31886" lon="4.60367">
        <ele>713.40002441406</ele>
        <time>2018-05-24T13:37:08Z</time>
      </trkpt>
      <trkpt lat="45.31895" lon="4.6033">
        <ele>716.40002441406</ele>
        <time>2018-05-24T13:37:31Z</time>
      </trkpt>
      <trkpt lat="45.31889" lon="4.60263">
        <ele>717.59997558594</ele>
        <time>2018-05-24T13:37:57Z</time>
      </trkpt>
      <trkpt lat="45.31873" lon="4.60194">
        <ele>719.59997558594</ele>
        <time>2018-05-24T13:38:20Z</time>
      </trkpt>
      <trkpt lat="45.31842" lon="4.60144">
        <ele>719.59997558594</ele>
        <time>2018-05-24T13:38:32Z</time>
      </trkpt>
      <trkpt lat="45.31835" lon="4.60131">
        <ele>719.20001220703</ele>
        <time>2018-05-24T13:38:34Z</time>
      </trkpt>
      <trkpt lat="45.31794" lon="4.60075">
        <ele>717.40002441406</ele>
        <time>2018-05-24T13:38:49Z</time>
      </trkpt>
      <trkpt lat="45.31774" lon="4.60051">
        <ele>720.40002441406</ele>
        <time>2018-05-24T13:39:02Z</time>
      </trkpt>
      <trkpt lat="45.31761" lon="4.60032">
        <ele>723.40002441406</ele>
        <time>2018-05-24T13:39:13Z</time>
      </trkpt>
      <trkpt lat="45.31742" lon="4.6">
        <ele>726.40002441406</ele>
        <time>2018-05-24T13:39:34Z</time>
      </trkpt>
      <trkpt lat="45.3174" lon="4.59995">
        <ele>728</ele>
        <time>2018-05-24T13:39:37Z</time>
      </trkpt>
      <trkpt lat="45.31737" lon="4.59989">
        <ele>728</ele>
        <time>2018-05-24T13:39:41Z</time>
      </trkpt>
      <trkpt lat="45.31721" lon="4.59954">
        <ele>730</ele>
        <time>2018-05-24T13:40:01Z</time>
      </trkpt>
      <trkpt lat="45.31696" lon="4.59905">
        <ele>732.20001220703</ele>
        <time>2018-05-24T13:40:23Z</time>
      </trkpt>
      <trkpt lat="45.31672" lon="4.59837">
        <ele>734.20001220703</ele>
        <time>2018-05-24T13:40:43Z</time>
      </trkpt>
      <trkpt lat="45.3167" lon="4.59787">
        <ele>732</ele>
        <time>2018-05-24T13:40:54Z</time>
      </trkpt>
      <trkpt lat="45.31671" lon="4.59771">
        <ele>731.59997558594</ele>
        <time>2018-05-24T13:40:56Z</time>
      </trkpt>
      <trkpt lat="45.31671" lon="4.59763">
        <ele>731</ele>
        <time>2018-05-24T13:40:57Z</time>
      </trkpt>
      <trkpt lat="45.31661" lon="4.597">
        <ele>728.20001220703</ele>
        <time>2018-05-24T13:41:04Z</time>
      </trkpt>
      <trkpt lat="45.31659" lon="4.59671">
        <ele>725.59997558594</ele>
        <time>2018-05-24T13:41:11Z</time>
      </trkpt>
      <trkpt lat="45.31659" lon="4.5967">
        <ele>725.20001220703</ele>
        <time>2018-05-24T13:41:48Z</time>
      </trkpt>
      <trkpt lat="45.31655" lon="4.59618">
        <ele>725.20001220703</ele>
        <time>2018-05-24T13:42:03Z</time>
      </trkpt>
      <trkpt lat="45.31657" lon="4.59518">
        <ele>724.79998779297</ele>
        <time>2018-05-24T13:42:21Z</time>
      </trkpt>
      <trkpt lat="45.31658" lon="4.59509">
        <ele>724.20001220703</ele>
        <time>2018-05-24T13:42:22Z</time>
      </trkpt>
      <trkpt lat="45.31652" lon="4.59434">
        <ele>720.79998779297</ele>
        <time>2018-05-24T13:42:30Z</time>
      </trkpt>
      <trkpt lat="45.31647" lon="4.59392">
        <ele>718.59997558594</ele>
        <time>2018-05-24T13:42:34Z</time>
      </trkpt>
      <trkpt lat="45.31659" lon="4.59287">
        <ele>718.20001220703</ele>
        <time>2018-05-24T13:42:49Z</time>
      </trkpt>
      <trkpt lat="45.3167" lon="4.59252">
        <ele>718.20001220703</ele>
        <time>2018-05-24T13:42:55Z</time>
      </trkpt>
      <trkpt lat="45.31686" lon="4.59194">
        <ele>720</ele>
        <time>2018-05-24T13:43:06Z</time>
      </trkpt>
      <trkpt lat="45.31689" lon="4.59174">
        <ele>720.40002441406</ele>
        <time>2018-05-24T13:43:09Z</time>
      </trkpt>
      <trkpt lat="45.31695" lon="4.59144">
        <ele>720.40002441406</ele>
        <time>2018-05-24T13:43:13Z</time>
      </trkpt>
      <trkpt lat="45.31676" lon="4.5914">
        <ele>719.40002441406</ele>
        <time>2018-05-24T13:43:18Z</time>
      </trkpt>
      <trkpt lat="45.31674" lon="4.59148">
        <ele>718.40002441406</ele>
        <time>2018-05-24T13:43:19Z</time>
      </trkpt>
      <trkpt lat="45.31668" lon="4.59171">
        <ele>717.59997558594</ele>
        <time>2018-05-24T13:43:22Z</time>
      </trkpt>
      <trkpt lat="45.31662" lon="4.59186">
        <ele>716.79998779297</ele>
        <time>2018-05-24T13:43:24Z</time>
      </trkpt>
      <trkpt lat="45.31655" lon="4.5921">
        <ele>716</ele>
        <time>2018-05-24T13:43:27Z</time>
      </trkpt>
      <trkpt lat="45.3165" lon="4.59235">
        <ele>716</ele>
        <time>2018-05-24T13:43:31Z</time>
      </trkpt>
      <trkpt lat="45.31614" lon="4.59256">
        <ele>712.59997558594</ele>
        <time>2018-05-24T13:43:37Z</time>
      </trkpt>
      <trkpt lat="45.31579" lon="4.59273">
        <ele>709.40002441406</ele>
        <time>2018-05-24T13:43:41Z</time>
      </trkpt>
      <trkpt lat="45.31556" lon="4.59283">
        <ele>705.40002441406</ele>
        <time>2018-05-24T13:43:44Z</time>
      </trkpt>
      <trkpt lat="45.31525" lon="4.59275">
        <ele>701.59997558594</ele>
        <time>2018-05-24T13:43:48Z</time>
      </trkpt>
      <trkpt lat="45.31517" lon="4.59268">
        <ele>700.59997558594</ele>
        <time>2018-05-24T13:43:49Z</time>
      </trkpt>
      <trkpt lat="45.31493" lon="4.59249">
        <ele>697.40002441406</ele>
        <time>2018-05-24T13:43:52Z</time>
      </trkpt>
      <trkpt lat="45.31468" lon="4.59244">
        <ele>694.40002441406</ele>
        <time>2018-05-24T13:43:55Z</time>
      </trkpt>
      <trkpt lat="45.31446" lon="4.59266">
        <ele>691.79998779297</ele>
        <time>2018-05-24T13:43:59Z</time>
      </trkpt>
      <trkpt lat="45.31435" lon="4.59291">
        <ele>691.79998779297</ele>
        <time>2018-05-24T13:44:02Z</time>
      </trkpt>
      <trkpt lat="45.31387" lon="4.59398">
        <ele>688.79998779297</ele>
        <time>2018-05-24T13:44:15Z</time>
      </trkpt>
      <trkpt lat="45.31377" lon="4.59411">
        <ele>688</ele>
        <time>2018-05-24T13:44:17Z</time>
      </trkpt>
      <trkpt lat="45.31348" lon="4.59449">
        <ele>686.79998779297</ele>
        <time>2018-05-24T13:44:23Z</time>
      </trkpt>
      <trkpt lat="45.31345" lon="4.59454">
        <ele>686.40002441406</ele>
        <time>2018-05-24T13:44:24Z</time>
      </trkpt>
      <trkpt lat="45.31339" lon="4.59466">
        <ele>685.59997558594</ele>
        <time>2018-05-24T13:44:26Z</time>
      </trkpt>
      <trkpt lat="45.31328" lon="4.59491">
        <ele>685.59997558594</ele>
        <time>2018-05-24T13:44:30Z</time>
      </trkpt>
      <trkpt lat="45.31318" lon="4.59511">
        <ele>685.59997558594</ele>
        <time>2018-05-24T13:44:33Z</time>
      </trkpt>
      <trkpt lat="45.31294" lon="4.59542">
        <ele>685.59997558594</ele>
        <time>2018-05-24T13:44:39Z</time>
      </trkpt>
      <trkpt lat="45.31252" lon="4.59602">
        <ele>685.59997558594</ele>
        <time>2018-05-24T13:44:52Z</time>
      </trkpt>
      <trkpt lat="45.31248" lon="4.59606">
        <ele>685.59997558594</ele>
        <time>2018-05-24T13:44:53Z</time>
      </trkpt>
      <trkpt lat="45.31144" lon="4.5974">
        <ele>685.59997558594</ele>
        <time>2018-05-24T13:45:24Z</time>
      </trkpt>
      <trkpt lat="45.31063" lon="4.59847">
        <ele>685.59997558594</ele>
        <time>2018-05-24T13:45:50Z</time>
      </trkpt>
      <trkpt lat="45.3105" lon="4.59862">
        <ele>685.59997558594</ele>
        <time>2018-05-24T13:45:53Z</time>
      </trkpt>
      <trkpt lat="45.31032" lon="4.59854">
        <ele>685.59997558594</ele>
        <time>2018-05-24T13:45:57Z</time>
      </trkpt>
      <trkpt lat="45.31029" lon="4.59851">
        <ele>685.59997558594</ele>
        <time>2018-05-24T13:45:58Z</time>
      </trkpt>
      <trkpt lat="45.31017" lon="4.59859">
        <ele>685.59997558594</ele>
        <time>2018-05-24T13:46:08Z</time>
      </trkpt>
      <trkpt lat="45.31012" lon="4.59879">
        <ele>686.40002441406</ele>
        <time>2018-05-24T13:46:17Z</time>
      </trkpt>
      <trkpt lat="45.30995" lon="4.59919">
        <ele>687.79998779297</ele>
        <time>2018-05-24T13:46:35Z</time>
      </trkpt>
      <trkpt lat="45.3098" lon="4.59945">
        <ele>689.79998779297</ele>
        <time>2018-05-24T13:46:49Z</time>
      </trkpt>
      <trkpt lat="45.3096" lon="4.59962">
        <ele>691.79998779297</ele>
        <time>2018-05-24T13:47:07Z</time>
      </trkpt>
      <trkpt lat="45.30945" lon="4.59973">
        <ele>694.40002441406</ele>
        <time>2018-05-24T13:47:19Z</time>
      </trkpt>
      <trkpt lat="45.30936" lon="4.59987">
        <ele>697.40002441406</ele>
        <time>2018-05-24T13:47:31Z</time>
      </trkpt>
      <trkpt lat="45.30926" lon="4.60008">
        <ele>699</ele>
        <time>2018-05-24T13:47:45Z</time>
      </trkpt>
      <trkpt lat="45.30925" lon="4.60012">
        <ele>700.40002441406</ele>
        <time>2018-05-24T13:47:48Z</time>
      </trkpt>
      <trkpt lat="45.30926" lon="4.60021">
        <ele>700.40002441406</ele>
        <time>2018-05-24T13:47:53Z</time>
      </trkpt>
      <trkpt lat="45.3093" lon="4.60034">
        <ele>702.40002441406</ele>
        <time>2018-05-24T13:48:00Z</time>
      </trkpt>
      <trkpt lat="45.30923" lon="4.60064">
        <ele>704.59997558594</ele>
        <time>2018-05-24T13:48:18Z</time>
      </trkpt>
      <trkpt lat="45.30919" lon="4.60076">
        <ele>706.59997558594</ele>
        <time>2018-05-24T13:48:26Z</time>
      </trkpt>
      <trkpt lat="45.30911" lon="4.60097">
        <ele>709</ele>
        <time>2018-05-24T13:48:41Z</time>
      </trkpt>
      <trkpt lat="45.30909" lon="4.60104">
        <ele>710.79998779297</ele>
        <time>2018-05-24T13:49:04Z</time>
      </trkpt>
      <trkpt lat="45.30902" lon="4.60127">
        <ele>713</ele>
        <time>2018-05-24T13:49:27Z</time>
      </trkpt>
      <trkpt lat="45.309" lon="4.60131">
        <ele>714.20001220703</ele>
        <time>2018-05-24T13:49:32Z</time>
      </trkpt>
      <trkpt lat="45.30892" lon="4.60144">
        <ele>715.40002441406</ele>
        <time>2018-05-24T13:49:46Z</time>
      </trkpt>
      <trkpt lat="45.30885" lon="4.6016">
        <ele>717</ele>
        <time>2018-05-24T13:50:02Z</time>
      </trkpt>
      <trkpt lat="45.30883" lon="4.60163">
        <ele>718.40002441406</ele>
        <time>2018-05-24T13:50:06Z</time>
      </trkpt>
      <trkpt lat="45.30881" lon="4.60172">
        <ele>720</ele>
        <time>2018-05-24T13:50:17Z</time>
      </trkpt>
      <trkpt lat="45.30874" lon="4.60181">
        <ele>722</ele>
        <time>2018-05-24T13:50:31Z</time>
      </trkpt>
      <trkpt lat="45.30868" lon="4.6019">
        <ele>724.20001220703</ele>
        <time>2018-05-24T13:50:50Z</time>
      </trkpt>
      <trkpt lat="45.30843" lon="4.6021">
        <ele>725.40002441406</ele>
        <time>2018-05-24T13:51:29Z</time>
      </trkpt>
      <trkpt lat="45.30824" lon="4.60236">
        <ele>728.40002441406</ele>
        <time>2018-05-24T13:51:48Z</time>
      </trkpt>
      <trkpt lat="45.30808" lon="4.60253">
        <ele>730.79998779297</ele>
        <time>2018-05-24T13:52:01Z</time>
      </trkpt>
      <trkpt lat="45.30794" lon="4.60271">
        <ele>733.79998779297</ele>
        <time>2018-05-24T13:52:14Z</time>
      </trkpt>
      <trkpt lat="45.30787" lon="4.6028">
        <ele>735</ele>
        <time>2018-05-24T13:52:33Z</time>
      </trkpt>
      <trkpt lat="45.30778" lon="4.60295">
        <ele>737.40002441406</ele>
        <time>2018-05-24T13:52:51Z</time>
      </trkpt>
      <trkpt lat="45.3077" lon="4.60311">
        <ele>737.79998779297</ele>
        <time>2018-05-24T13:53:13Z</time>
      </trkpt>
      <trkpt lat="45.30751" lon="4.6034">
        <ele>737.79998779297</ele>
        <time>2018-05-24T13:53:32Z</time>
      </trkpt>
      <trkpt lat="45.30738" lon="4.60372">
        <ele>734.79998779297</ele>
        <time>2018-05-24T13:53:41Z</time>
      </trkpt>
      <trkpt lat="45.3074" lon="4.60405">
        <ele>732.40002441406</ele>
        <time>2018-05-24T13:53:47Z</time>
      </trkpt>
      <trkpt lat="45.30736" lon="4.60434">
        <ele>731</ele>
        <time>2018-05-24T13:53:53Z</time>
      </trkpt>
      <trkpt lat="45.30735" lon="4.60481">
        <ele>729.20001220703</ele>
        <time>2018-05-24T13:54:07Z</time>
      </trkpt>
      <trkpt lat="45.30734" lon="4.60529">
        <ele>729.20001220703</ele>
        <time>2018-05-24T13:54:21Z</time>
      </trkpt>
      <trkpt lat="45.30724" lon="4.60553">
        <ele>727.79998779297</ele>
        <time>2018-05-24T13:54:27Z</time>
      </trkpt>
      <trkpt lat="45.30711" lon="4.6059">
        <ele>724.79998779297</ele>
        <time>2018-05-24T13:54:35Z</time>
      </trkpt>
      <trkpt lat="45.30706" lon="4.60598">
        <ele>723.79998779297</ele>
        <time>2018-05-24T13:54:37Z</time>
      </trkpt>
      <trkpt lat="45.30696" lon="4.60642">
        <ele>722.20001220703</ele>
        <time>2018-05-24T13:54:46Z</time>
      </trkpt>
      <trkpt lat="45.30696" lon="4.60648">
        <ele>721.59997558594</ele>
        <time>2018-05-24T13:54:47Z</time>
      </trkpt>
      <trkpt lat="45.30692" lon="4.60661">
        <ele>720.40002441406</ele>
        <time>2018-05-24T13:54:50Z</time>
      </trkpt>
      <trkpt lat="45.30685" lon="4.60675">
        <ele>717.40002441406</ele>
        <time>2018-05-24T13:54:56Z</time>
      </trkpt>
      <trkpt lat="45.30673" lon="4.60692">
        <ele>714.40002441406</ele>
        <time>2018-05-24T13:55:03Z</time>
      </trkpt>
      <trkpt lat="45.30656" lon="4.60714">
        <ele>711.40002441406</ele>
        <time>2018-05-24T13:55:14Z</time>
      </trkpt>
      <trkpt lat="45.30644" lon="4.60727">
        <ele>708.20001220703</ele>
        <time>2018-05-24T13:55:22Z</time>
      </trkpt>
      <trkpt lat="45.30641" lon="4.60731">
        <ele>707.40002441406</ele>
        <time>2018-05-24T13:55:25Z</time>
      </trkpt>
      <trkpt lat="45.30627" lon="4.60747">
        <ele>704.20001220703</ele>
        <time>2018-05-24T13:55:35Z</time>
      </trkpt>
      <trkpt lat="45.30625" lon="4.60748">
        <ele>703.79998779297</ele>
        <time>2018-05-24T13:55:36Z</time>
      </trkpt>
      <trkpt lat="45.30621" lon="4.60756">
        <ele>701</ele>
        <time>2018-05-24T13:55:50Z</time>
      </trkpt>
      <trkpt lat="45.30613" lon="4.60764">
        <ele>698.79998779297</ele>
        <time>2018-05-24T13:56:14Z</time>
      </trkpt>
      <trkpt lat="45.306" lon="4.60782">
        <ele>697.59997558594</ele>
        <time>2018-05-24T13:56:23Z</time>
      </trkpt>
      <trkpt lat="45.30578" lon="4.60808">
        <ele>694.79998779297</ele>
        <time>2018-05-24T13:56:35Z</time>
      </trkpt>
      <trkpt lat="45.30564" lon="4.6083">
        <ele>691.79998779297</ele>
        <time>2018-05-24T13:56:44Z</time>
      </trkpt>
      <trkpt lat="45.30541" lon="4.60869">
        <ele>689.59997558594</ele>
        <time>2018-05-24T13:57:01Z</time>
      </trkpt>
      <trkpt lat="45.30531" lon="4.60886">
        <ele>687.40002441406</ele>
        <time>2018-05-24T13:57:09Z</time>
      </trkpt>
      <trkpt lat="45.30524" lon="4.60888">
        <ele>686</ele>
        <time>2018-05-24T13:57:12Z</time>
      </trkpt>
      <trkpt lat="45.30508" lon="4.60881">
        <ele>683.20001220703</ele>
        <time>2018-05-24T13:57:21Z</time>
      </trkpt>
      <trkpt lat="45.30495" lon="4.60887">
        <ele>680.40002441406</ele>
        <time>2018-05-24T13:57:28Z</time>
      </trkpt>
      <trkpt lat="45.30483" lon="4.609">
        <ele>678.20001220703</ele>
        <time>2018-05-24T13:57:34Z</time>
      </trkpt>
      <trkpt lat="45.30466" lon="4.60913">
        <ele>675.79998779297</ele>
        <time>2018-05-24T13:57:42Z</time>
      </trkpt>
      <trkpt lat="45.30458" lon="4.60919">
        <ele>673.79998779297</ele>
        <time>2018-05-24T13:57:47Z</time>
      </trkpt>
      <trkpt lat="45.30451" lon="4.60922">
        <ele>672.40002441406</ele>
        <time>2018-05-24T13:57:51Z</time>
      </trkpt>
      <trkpt lat="45.30448" lon="4.60925">
        <ele>671.40002441406</ele>
        <time>2018-05-24T13:57:53Z</time>
      </trkpt>
      <trkpt lat="45.30443" lon="4.60929">
        <ele>669</ele>
        <time>2018-05-24T13:58:04Z</time>
      </trkpt>
      <trkpt lat="45.30439" lon="4.60934">
        <ele>669</ele>
        <time>2018-05-24T13:58:23Z</time>
      </trkpt>
      <trkpt lat="45.30433" lon="4.60937">
        <ele>666.79998779297</ele>
        <time>2018-05-24T13:58:33Z</time>
      </trkpt>
      <trkpt lat="45.30421" lon="4.60947">
        <ele>664.59997558594</ele>
        <time>2018-05-24T13:58:42Z</time>
      </trkpt>
      <trkpt lat="45.30414" lon="4.60954">
        <ele>663</ele>
        <time>2018-05-24T13:58:48Z</time>
      </trkpt>
      <trkpt lat="45.304" lon="4.60987">
        <ele>659.79998779297</ele>
        <time>2018-05-24T13:58:58Z</time>
      </trkpt>
      <trkpt lat="45.30391" lon="4.61006">
        <ele>656.40002441406</ele>
        <time>2018-05-24T13:59:05Z</time>
      </trkpt>
      <trkpt lat="45.30389" lon="4.6102">
        <ele>653.40002441406</ele>
        <time>2018-05-24T13:59:11Z</time>
      </trkpt>
      <trkpt lat="45.30383" lon="4.61041">
        <ele>651.59997558594</ele>
        <time>2018-05-24T13:59:18Z</time>
      </trkpt>
      <trkpt lat="45.30381" lon="4.61056">
        <ele>650.40002441406</ele>
        <time>2018-05-24T13:59:22Z</time>
      </trkpt>
      <trkpt lat="45.30377" lon="4.61068">
        <ele>648.79998779297</ele>
        <time>2018-05-24T13:59:26Z</time>
      </trkpt>
      <trkpt lat="45.30372" lon="4.6108">
        <ele>646.79998779297</ele>
        <time>2018-05-24T13:59:32Z</time>
      </trkpt>
      <trkpt lat="45.30359" lon="4.61096">
        <ele>644.79998779297</ele>
        <time>2018-05-24T13:59:39Z</time>
      </trkpt>
      <trkpt lat="45.30357" lon="4.61098">
        <ele>644.20001220703</ele>
        <time>2018-05-24T13:59:40Z</time>
      </trkpt>
      <trkpt lat="45.30339" lon="4.61117">
        <ele>641.20001220703</ele>
        <time>2018-05-24T13:59:47Z</time>
      </trkpt>
      <trkpt lat="45.30324" lon="4.6113">
        <ele>638.20001220703</ele>
        <time>2018-05-24T13:59:53Z</time>
      </trkpt>
      <trkpt lat="45.30315" lon="4.61142">
        <ele>635.79998779297</ele>
        <time>2018-05-24T13:59:58Z</time>
      </trkpt>
      <trkpt lat="45.30309" lon="4.61151">
        <ele>633.79998779297</ele>
        <time>2018-05-24T14:00:03Z</time>
      </trkpt>
      <trkpt lat="45.30304" lon="4.61156">
        <ele>630.59997558594</ele>
        <time>2018-05-24T14:00:10Z</time>
      </trkpt>
      <trkpt lat="45.30299" lon="4.61161">
        <ele>628</ele>
        <time>2018-05-24T14:00:29Z</time>
      </trkpt>
      <trkpt lat="45.30286" lon="4.61182">
        <ele>626.20001220703</ele>
        <time>2018-05-24T14:00:41Z</time>
      </trkpt>
      <trkpt lat="45.30268" lon="4.61202">
        <ele>623.79998779297</ele>
        <time>2018-05-24T14:00:46Z</time>
      </trkpt>
      <trkpt lat="45.30258" lon="4.61217">
        <ele>622</ele>
        <time>2018-05-24T14:00:49Z</time>
      </trkpt>
      <trkpt lat="45.3024" lon="4.61236">
        <ele>618.79998779297</ele>
        <time>2018-05-24T14:00:54Z</time>
      </trkpt>
      <trkpt lat="45.30232" lon="4.61244">
        <ele>617.59997558594</ele>
        <time>2018-05-24T14:00:56Z</time>
      </trkpt>
      <trkpt lat="45.30222" lon="4.61257">
        <ele>616</ele>
        <time>2018-05-24T14:00:59Z</time>
      </trkpt>
      <trkpt lat="45.30211" lon="4.61267">
        <ele>614.40002441406</ele>
        <time>2018-05-24T14:01:02Z</time>
      </trkpt>
      <trkpt lat="45.302" lon="4.6128">
        <ele>611.40002441406</ele>
        <time>2018-05-24T14:01:06Z</time>
      </trkpt>
      <trkpt lat="45.30184" lon="4.61284">
        <ele>609</ele>
        <time>2018-05-24T14:01:11Z</time>
      </trkpt>
      <trkpt lat="45.30166" lon="4.61304">
        <ele>606.59997558594</ele>
        <time>2018-05-24T14:01:16Z</time>
      </trkpt>
      <trkpt lat="45.3014" lon="4.61322">
        <ele>604.20001220703</ele>
        <time>2018-05-24T14:01:20Z</time>
      </trkpt>
      <trkpt lat="45.30122" lon="4.61339">
        <ele>601.20001220703</ele>
        <time>2018-05-24T14:01:24Z</time>
      </trkpt>
      <trkpt lat="45.30121" lon="4.61361">
        <ele>598.79998779297</ele>
        <time>2018-05-24T14:01:27Z</time>
      </trkpt>
      <trkpt lat="45.30123" lon="4.61397">
        <ele>595.59997558594</ele>
        <time>2018-05-24T14:01:31Z</time>
      </trkpt>
      <trkpt lat="45.30123" lon="4.61406">
        <ele>595</ele>
        <time>2018-05-24T14:01:32Z</time>
      </trkpt>
      <trkpt lat="45.30124" lon="4.61432">
        <ele>594</ele>
        <time>2018-05-24T14:01:35Z</time>
      </trkpt>
      <trkpt lat="45.30104" lon="4.61435">
        <ele>592</ele>
        <time>2018-05-24T14:01:40Z</time>
      </trkpt>
      <trkpt lat="45.30079" lon="4.6143">
        <ele>590.79998779297</ele>
        <time>2018-05-24T14:01:45Z</time>
      </trkpt>
      <trkpt lat="45.30048" lon="4.61424">
        <ele>588.20001220703</ele>
        <time>2018-05-24T14:01:53Z</time>
      </trkpt>
      <trkpt lat="45.30043" lon="4.61422">
        <ele>587.79998779297</ele>
        <time>2018-05-24T14:01:54Z</time>
      </trkpt>
      <trkpt lat="45.30038" lon="4.61421">
        <ele>587.40002441406</ele>
        <time>2018-05-24T14:01:55Z</time>
      </trkpt>
      <trkpt lat="45.30026" lon="4.61419">
        <ele>586.40002441406</ele>
        <time>2018-05-24T14:01:57Z</time>
      </trkpt>
      <trkpt lat="45.29985" lon="4.61405">
        <ele>583.40002441406</ele>
        <time>2018-05-24T14:02:02Z</time>
      </trkpt>
      <trkpt lat="45.29943" lon="4.6139">
        <ele>580</ele>
        <time>2018-05-24T14:02:06Z</time>
      </trkpt>
      <trkpt lat="45.29907" lon="4.61375">
        <ele>576.40002441406</ele>
        <time>2018-05-24T14:02:09Z</time>
      </trkpt>
      <trkpt lat="45.29868" lon="4.6136">
        <ele>572.40002441406</ele>
        <time>2018-05-24T14:02:12Z</time>
      </trkpt>
      <trkpt lat="45.2984" lon="4.61349">
        <ele>569</ele>
        <time>2018-05-24T14:02:14Z</time>
      </trkpt>
      <trkpt lat="45.29812" lon="4.61339">
        <ele>565.59997558594</ele>
        <time>2018-05-24T14:02:16Z</time>
      </trkpt>
      <trkpt lat="45.29782" lon="4.61329">
        <ele>560</ele>
        <time>2018-05-24T14:02:18Z</time>
      </trkpt>
      <trkpt lat="45.29751" lon="4.61317">
        <ele>556.40002441406</ele>
        <time>2018-05-24T14:02:20Z</time>
      </trkpt>
      <trkpt lat="45.29721" lon="4.61306">
        <ele>553</ele>
        <time>2018-05-24T14:02:22Z</time>
      </trkpt>
      <trkpt lat="45.29692" lon="4.61296">
        <ele>549.59997558594</ele>
        <time>2018-05-24T14:02:24Z</time>
      </trkpt>
      <trkpt lat="45.29649" lon="4.61279">
        <ele>545.40002441406</ele>
        <time>2018-05-24T14:02:27Z</time>
      </trkpt>
      <trkpt lat="45.29613" lon="4.61267">
        <ele>541.59997558594</ele>
        <time>2018-05-24T14:02:30Z</time>
      </trkpt>
      <trkpt lat="45.29583" lon="4.61255">
        <ele>538.40002441406</ele>
        <time>2018-05-24T14:02:33Z</time>
      </trkpt>
      <trkpt lat="45.29573" lon="4.61252">
        <ele>537.40002441406</ele>
        <time>2018-05-24T14:02:34Z</time>
      </trkpt>
      <trkpt lat="45.29549" lon="4.61245">
        <ele>535.20001220703</ele>
        <time>2018-05-24T14:02:37Z</time>
      </trkpt>
      <trkpt lat="45.29524" lon="4.61211">
        <ele>532.20001220703</ele>
        <time>2018-05-24T14:02:42Z</time>
      </trkpt>
      <trkpt lat="45.29512" lon="4.61181">
        <ele>529</ele>
        <time>2018-05-24T14:02:46Z</time>
      </trkpt>
      <trkpt lat="45.29522" lon="4.6114">
        <ele>526</ele>
        <time>2018-05-24T14:02:51Z</time>
      </trkpt>
      <trkpt lat="45.29564" lon="4.61103">
        <ele>522.79998779297</ele>
        <time>2018-05-24T14:02:57Z</time>
      </trkpt>
      <trkpt lat="45.29592" lon="4.61101">
        <ele>521</ele>
        <time>2018-05-24T14:03:00Z</time>
      </trkpt>
      <trkpt lat="45.29618" lon="4.61101">
        <ele>519</ele>
        <time>2018-05-24T14:03:03Z</time>
      </trkpt>
      <trkpt lat="45.29632" lon="4.61079">
        <ele>515.40002441406</ele>
        <time>2018-05-24T14:03:08Z</time>
      </trkpt>
      <trkpt lat="45.29629" lon="4.61055">
        <ele>512.59997558594</ele>
        <time>2018-05-24T14:03:12Z</time>
      </trkpt>
      <trkpt lat="45.29628" lon="4.61049">
        <ele>511.79998779297</ele>
        <time>2018-05-24T14:03:13Z</time>
      </trkpt>
      <trkpt lat="45.29587" lon="4.61017">
        <ele>508.39999389648</ele>
        <time>2018-05-24T14:03:17Z</time>
      </trkpt>
      <trkpt lat="45.29554" lon="4.6099">
        <ele>505.20001220703</ele>
        <time>2018-05-24T14:03:20Z</time>
      </trkpt>
      <trkpt lat="45.29522" lon="4.60962">
        <ele>501.79998779297</ele>
        <time>2018-05-24T14:03:23Z</time>
      </trkpt>
      <trkpt lat="45.29493" lon="4.60955">
        <ele>498.20001220703</ele>
        <time>2018-05-24T14:03:26Z</time>
      </trkpt>
      <trkpt lat="45.29475" lon="4.60958">
        <ele>496.20001220703</ele>
        <time>2018-05-24T14:03:28Z</time>
      </trkpt>
      <trkpt lat="45.29433" lon="4.60978">
        <ele>492.60000610352</ele>
        <time>2018-05-24T14:03:32Z</time>
      </trkpt>
      <trkpt lat="45.29407" lon="4.60999">
        <ele>489.60000610352</ele>
        <time>2018-05-24T14:03:35Z</time>
      </trkpt>
      <trkpt lat="45.29394" lon="4.61009">
        <ele>488.60000610352</ele>
        <time>2018-05-24T14:03:37Z</time>
      </trkpt>
      <trkpt lat="45.2938" lon="4.61025">
        <ele>487.60000610352</ele>
        <time>2018-05-24T14:03:46Z</time>
      </trkpt>
      <trkpt lat="45.29378" lon="4.61028">
        <ele>485.60000610352</ele>
        <time>2018-05-24T14:04:10Z</time>
      </trkpt>
      <trkpt lat="45.29378" lon="4.61028">
        <ele>485.60000610352</ele>
        <time>2018-05-24T14:04:19Z</time>
      </trkpt>
    </trkseg>
  </trk>
</gpx>